<?xml version='1.0' encoding='UTF-8'?><gpx version="1.1" creator="JPX - https://github.com/jenetics/jpx" xmlns="http://www.topografix.com/GPX/1/1"><trk><trkseg><trkpt lat="44.1327002" lon="12.1636362"><ele>153.0</ele><time>2026-04-18T14:24:07.923Z</time></trkpt><trkpt lat="44.1326679" lon="12.1637205"><ele>153.0</ele><time>2026-04-18T14:24:12.917Z</time></trkpt><trkpt lat="44.1325994" lon="12.1637244"><ele>153.0</ele><time>2026-04-18T14:25:24.927Z</time></trkpt><trkpt lat="44.1325271" lon="12.1637081"><ele>153.0</ele><time>2026-04-18T14:25:27.919Z</time></trkpt><trkpt lat="44.1324532" lon="12.1636911"><ele>153.0</ele><time>2026-04-18T14:25:31.92Z</time></trkpt><trkpt lat="44.132376" lon="12.1636373"><ele>153.0</ele><time>2026-04-18T14:27:22.934Z</time></trkpt><trkpt lat="44.1322993" lon="12.1636626"><ele>153.28571428571428</ele><time>2026-04-18T14:27:27.937Z</time></trkpt><trkpt lat="44.1322537" lon="12.1637329"><ele>153.57142857142858</ele><time>2026-04-18T14:27:29.923Z</time></trkpt><trkpt lat="44.1322202" lon="12.1638118"><ele>153.85714285714286</ele><time>2026-04-18T14:27:31.925Z</time></trkpt><trkpt lat="44.1321837" lon="12.1639056"><ele>154.14285714285714</ele><time>2026-04-18T14:27:33.918Z</time></trkpt><trkpt lat="44.1321501" lon="12.1639955"><ele>154.42857142857142</ele><time>2026-04-18T14:27:35.916Z</time></trkpt><trkpt lat="44.1321178" lon="12.1640935"><ele>154.71428571428572</ele><time>2026-04-18T14:27:37.923Z</time></trkpt><trkpt lat="44.1320821" lon="12.1641869"><ele>155.0</ele><time>2026-04-18T14:27:39.923Z</time></trkpt><trkpt lat="44.1320499" lon="12.164269"><ele>155.0</ele><time>2026-04-18T14:27:41.924Z</time></trkpt><trkpt lat="44.1320178" lon="12.1643624"><ele>155.0</ele><time>2026-04-18T14:27:43.928Z</time></trkpt><trkpt lat="44.1319812" lon="12.1644569"><ele>155.0</ele><time>2026-04-18T14:27:45.925Z</time></trkpt><trkpt lat="44.131938" lon="12.1645569"><ele>155.0</ele><time>2026-04-18T14:27:47.932Z</time></trkpt><trkpt lat="44.131897" lon="12.1646392"><ele>155.0</ele><time>2026-04-18T14:27:49.933Z</time></trkpt><trkpt lat="44.1318561" lon="12.1647229"><ele>155.0</ele><time>2026-04-18T14:27:51.928Z</time></trkpt><trkpt lat="44.1318129" lon="12.1648017"><ele>155.16666666666666</ele><time>2026-04-18T14:27:53.925Z</time></trkpt><trkpt lat="44.1317622" lon="12.1649105"><ele>155.33333333333331</ele><time>2026-04-18T14:27:56.923Z</time></trkpt><trkpt lat="44.131733" lon="12.164999"><ele>155.5</ele><time>2026-04-18T14:27:58.946Z</time></trkpt><trkpt lat="44.1316954" lon="12.1650955"><ele>155.66666666666666</ele><time>2026-04-18T14:28:00.93Z</time></trkpt><trkpt lat="44.1316595" lon="12.1651827"><ele>155.83333333333334</ele><time>2026-04-18T14:28:02.929Z</time></trkpt><trkpt lat="44.1316272" lon="12.1652733"><ele>156.0</ele><time>2026-04-18T14:28:04.931Z</time></trkpt><trkpt lat="44.1315903" lon="12.1653732"><ele>155.0</ele><time>2026-04-18T14:28:06.928Z</time></trkpt><trkpt lat="44.1315487" lon="12.1654788"><ele>154.0</ele><time>2026-04-18T14:28:08.929Z</time></trkpt><trkpt lat="44.1315138" lon="12.1655914"><ele>153.0</ele><time>2026-04-18T14:28:10.927Z</time></trkpt><trkpt lat="44.1314828" lon="12.1657028"><ele>152.0</ele><time>2026-04-18T14:28:12.928Z</time></trkpt><trkpt lat="44.1314469" lon="12.1658225"><ele>151.0</ele><time>2026-04-18T14:28:14.924Z</time></trkpt><trkpt lat="44.1314067" lon="12.1659584"><ele>151.0</ele><time>2026-04-18T14:28:16.922Z</time></trkpt><trkpt lat="44.1313672" lon="12.1661"><ele>151.0</ele><time>2026-04-18T14:28:18.926Z</time></trkpt><trkpt lat="44.131322" lon="12.1662445"><ele>151.0</ele><time>2026-04-18T14:28:20.927Z</time></trkpt><trkpt lat="44.1312786" lon="12.1663916"><ele>151.0</ele><time>2026-04-18T14:28:22.92Z</time></trkpt><trkpt lat="44.1312341" lon="12.1665349"><ele>151.0</ele><time>2026-04-18T14:28:24.922Z</time></trkpt><trkpt lat="44.1311929" lon="12.1666688"><ele>151.83333333333334</ele><time>2026-04-18T14:28:26.922Z</time></trkpt><trkpt lat="44.1311582" lon="12.1667875"><ele>152.66666666666669</ele><time>2026-04-18T14:28:28.922Z</time></trkpt><trkpt lat="44.1311257" lon="12.1668968"><ele>153.5</ele><time>2026-04-18T14:28:30.937Z</time></trkpt><trkpt lat="44.1311" lon="12.1669985"><ele>154.33333333333334</ele><time>2026-04-18T14:28:32.935Z</time></trkpt><trkpt lat="44.1310594" lon="12.1670829"><ele>155.16666666666666</ele><time>2026-04-18T14:28:34.927Z</time></trkpt><trkpt lat="44.1310061" lon="12.1671388"><ele>156.0</ele><time>2026-04-18T14:28:36.931Z</time></trkpt><trkpt lat="44.1309335" lon="12.1672098"><ele>156.0</ele><time>2026-04-18T14:28:39.93Z</time></trkpt><trkpt lat="44.1308573" lon="12.1672693"><ele>156.0</ele><time>2026-04-18T14:28:42.931Z</time></trkpt><trkpt lat="44.1307901" lon="12.1673254"><ele>156.0</ele><time>2026-04-18T14:28:45.93Z</time></trkpt><trkpt lat="44.1307249" lon="12.1673852"><ele>156.0</ele><time>2026-04-18T14:28:48.932Z</time></trkpt><trkpt lat="44.1306526" lon="12.1674643"><ele>156.0</ele><time>2026-04-18T14:28:51.933Z</time></trkpt><trkpt lat="44.1305791" lon="12.1675288"><ele>156.0</ele><time>2026-04-18T14:28:53.932Z</time></trkpt><trkpt lat="44.1305067" lon="12.167609"><ele>154.2</ele><time>2026-04-18T14:28:55.928Z</time></trkpt><trkpt lat="44.1304356" lon="12.1676962"><ele>152.39999999999998</ele><time>2026-04-18T14:28:57.943Z</time></trkpt><trkpt lat="44.130369" lon="12.1677934"><ele>150.6</ele><time>2026-04-18T14:28:59.928Z</time></trkpt><trkpt lat="44.1303097" lon="12.1678631"><ele>148.79999999999998</ele><time>2026-04-18T14:29:01.929Z</time></trkpt><trkpt lat="44.1302476" lon="12.1679631"><ele>147.0</ele><time>2026-04-18T14:29:03.917Z</time></trkpt><trkpt lat="44.1301823" lon="12.1681115"><ele>147.0</ele><time>2026-04-18T14:29:05.921Z</time></trkpt><trkpt lat="44.1301464" lon="12.168191"><ele>147.0</ele><time>2026-04-18T14:29:06.92Z</time></trkpt><trkpt lat="44.1301119" lon="12.1682752"><ele>147.0</ele><time>2026-04-18T14:29:07.922Z</time></trkpt><trkpt lat="44.1300719" lon="12.1683612"><ele>147.0</ele><time>2026-04-18T14:29:08.933Z</time></trkpt><trkpt lat="44.1300357" lon="12.1684514"><ele>147.0</ele><time>2026-04-18T14:29:09.922Z</time></trkpt><trkpt lat="44.1299956" lon="12.1685477"><ele>147.0</ele><time>2026-04-18T14:29:10.926Z</time></trkpt><trkpt lat="44.1299531" lon="12.1686384"><ele>147.0</ele><time>2026-04-18T14:29:11.92Z</time></trkpt><trkpt lat="44.1299088" lon="12.168733"><ele>147.33333333333334</ele><time>2026-04-18T14:29:12.925Z</time></trkpt><trkpt lat="44.129858" lon="12.1688249"><ele>147.66666666666666</ele><time>2026-04-18T14:29:13.925Z</time></trkpt><trkpt lat="44.129806" lon="12.1689114"><ele>148.0</ele><time>2026-04-18T14:29:14.921Z</time></trkpt><trkpt lat="44.1297547" lon="12.1689925"><ele>148.33333333333331</ele><time>2026-04-18T14:29:15.926Z</time></trkpt><trkpt lat="44.129698" lon="12.1690716"><ele>148.66666666666666</ele><time>2026-04-18T14:29:16.921Z</time></trkpt><trkpt lat="44.129643" lon="12.1691436"><ele>149.0</ele><time>2026-04-18T14:29:17.92Z</time></trkpt><trkpt lat="44.1295906" lon="12.1692126"><ele>149.0</ele><time>2026-04-18T14:29:18.932Z</time></trkpt><trkpt lat="44.1295392" lon="12.1692807"><ele>149.0</ele><time>2026-04-18T14:29:19.925Z</time></trkpt><trkpt lat="44.1294854" lon="12.1693518"><ele>149.0</ele><time>2026-04-18T14:29:20.931Z</time></trkpt><trkpt lat="44.1294343" lon="12.1694137"><ele>149.0</ele><time>2026-04-18T14:29:21.921Z</time></trkpt><trkpt lat="44.1293834" lon="12.1694777"><ele>149.0</ele><time>2026-04-18T14:29:22.924Z</time></trkpt><trkpt lat="44.1293326" lon="12.1695415"><ele>149.0</ele><time>2026-04-18T14:29:23.918Z</time></trkpt><trkpt lat="44.1292824" lon="12.1696086"><ele>149.0</ele><time>2026-04-18T14:29:24.924Z</time></trkpt><trkpt lat="44.1292345" lon="12.1696741"><ele>149.0</ele><time>2026-04-18T14:29:25.92Z</time></trkpt><trkpt lat="44.1291445" lon="12.1697845"><ele>149.0</ele><time>2026-04-18T14:29:27.924Z</time></trkpt><trkpt lat="44.1290678" lon="12.169884"><ele>149.0</ele><time>2026-04-18T14:29:29.921Z</time></trkpt><trkpt lat="44.1290046" lon="12.169914"><ele>149.0</ele><time>2026-04-18T14:29:31.931Z</time></trkpt><trkpt lat="44.1289476" lon="12.1698567"><ele>149.0</ele><time>2026-04-18T14:29:34.923Z</time></trkpt><trkpt lat="44.1288953" lon="12.169772"><ele>149.0</ele><time>2026-04-18T14:29:36.923Z</time></trkpt><trkpt lat="44.1288165" lon="12.16965"><ele>149.16666666666666</ele><time>2026-04-18T14:29:38.932Z</time></trkpt><trkpt lat="44.1287742" lon="12.1695839"><ele>149.33333333333331</ele><time>2026-04-18T14:29:39.917Z</time></trkpt><trkpt lat="44.1287273" lon="12.1695205"><ele>149.5</ele><time>2026-04-18T14:29:40.912Z</time></trkpt><trkpt lat="44.12868" lon="12.1694606"><ele>149.66666666666666</ele><time>2026-04-18T14:29:41.917Z</time></trkpt><trkpt lat="44.1285913" lon="12.1693475"><ele>149.83333333333334</ele><time>2026-04-18T14:29:43.92Z</time></trkpt><trkpt lat="44.1285123" lon="12.1692532"><ele>150.0</ele><time>2026-04-18T14:29:45.914Z</time></trkpt><trkpt lat="44.1284495" lon="12.1691711"><ele>149.99999999999997</ele><time>2026-04-18T14:29:47.913Z</time></trkpt><trkpt lat="44.1283951" lon="12.169112"><ele>150.0</ele><time>2026-04-18T14:29:49.934Z</time></trkpt><trkpt lat="44.1283497" lon="12.169035"><ele>150.0</ele><time>2026-04-18T14:29:51.935Z</time></trkpt><trkpt lat="44.1282903" lon="12.1689809"><ele>150.0</ele><time>2026-04-18T14:29:53.932Z</time></trkpt><trkpt lat="44.1282297" lon="12.1689437"><ele>150.0</ele><time>2026-04-18T14:29:55.941Z</time></trkpt><trkpt lat="44.1281554" lon="12.1689405"><ele>149.99999999999997</ele><time>2026-04-18T14:29:58.94Z</time></trkpt><trkpt lat="44.1280905" lon="12.1689716"><ele>150.0</ele><time>2026-04-18T14:30:01.938Z</time></trkpt><trkpt lat="44.128029" lon="12.1690114"><ele>149.16666666666666</ele><time>2026-04-18T14:30:03.938Z</time></trkpt><trkpt lat="44.1279603" lon="12.169036"><ele>148.33333333333334</ele><time>2026-04-18T14:30:05.926Z</time></trkpt><trkpt lat="44.1278861" lon="12.169076"><ele>147.5</ele><time>2026-04-18T14:30:07.924Z</time></trkpt><trkpt lat="44.1277981" lon="12.1691037"><ele>146.66666666666669</ele><time>2026-04-18T14:30:09.943Z</time></trkpt><trkpt lat="44.1277201" lon="12.1691295"><ele>145.83333333333334</ele><time>2026-04-18T14:30:11.933Z</time></trkpt><trkpt lat="44.1276521" lon="12.1691413"><ele>145.0</ele><time>2026-04-18T14:30:13.93Z</time></trkpt><trkpt lat="44.1275817" lon="12.1691438"><ele>145.0</ele><time>2026-04-18T14:30:15.917Z</time></trkpt><trkpt lat="44.1274972" lon="12.16914"><ele>145.0</ele><time>2026-04-18T14:30:17.923Z</time></trkpt><trkpt lat="44.1274185" lon="12.1691479"><ele>145.0</ele><time>2026-04-18T14:30:19.926Z</time></trkpt><trkpt lat="44.1273213" lon="12.1691429"><ele>145.0</ele><time>2026-04-18T14:30:21.93Z</time></trkpt><trkpt lat="44.1272249" lon="12.1691189"><ele>145.0</ele><time>2026-04-18T14:30:23.931Z</time></trkpt><trkpt lat="44.1271289" lon="12.1690957"><ele>142.4</ele><time>2026-04-18T14:30:25.922Z</time></trkpt><trkpt lat="44.1270312" lon="12.1690679"><ele>139.8</ele><time>2026-04-18T14:30:27.922Z</time></trkpt><trkpt lat="44.1269279" lon="12.1690453"><ele>137.2</ele><time>2026-04-18T14:30:29.923Z</time></trkpt><trkpt lat="44.1268268" lon="12.1690034"><ele>134.6</ele><time>2026-04-18T14:30:31.925Z</time></trkpt><trkpt lat="44.1267271" lon="12.1689651"><ele>132.0</ele><time>2026-04-18T14:30:33.948Z</time></trkpt><trkpt lat="44.1266201" lon="12.1689103"><ele>128.79999999999998</ele><time>2026-04-18T14:30:35.923Z</time></trkpt><trkpt lat="44.1265281" lon="12.1688647"><ele>125.6</ele><time>2026-04-18T14:30:37.923Z</time></trkpt><trkpt lat="44.1264305" lon="12.1688349"><ele>122.39999999999999</ele><time>2026-04-18T14:30:39.922Z</time></trkpt><trkpt lat="44.1263325" lon="12.1688166"><ele>119.19999999999999</ele><time>2026-04-18T14:30:41.921Z</time></trkpt><trkpt lat="44.126238" lon="12.1687974"><ele>116.0</ele><time>2026-04-18T14:30:43.921Z</time></trkpt><trkpt lat="44.1261462" lon="12.1687821"><ele>115.99999999999999</ele><time>2026-04-18T14:30:45.921Z</time></trkpt><trkpt lat="44.1260649" lon="12.1687577"><ele>116.0</ele><time>2026-04-18T14:30:47.935Z</time></trkpt><trkpt lat="44.1259876" lon="12.1687205"><ele>116.0</ele><time>2026-04-18T14:30:49.931Z</time></trkpt><trkpt lat="44.1259108" lon="12.1686876"><ele>116.0</ele><time>2026-04-18T14:30:51.929Z</time></trkpt><trkpt lat="44.1258378" lon="12.1686603"><ele>115.99999999999999</ele><time>2026-04-18T14:30:53.932Z</time></trkpt><trkpt lat="44.125766" lon="12.1686261"><ele>116.0</ele><time>2026-04-18T14:30:55.924Z</time></trkpt><trkpt lat="44.1256816" lon="12.1685833"><ele>115.66666666666666</ele><time>2026-04-18T14:30:57.939Z</time></trkpt><trkpt lat="44.1256044" lon="12.168551"><ele>115.33333333333333</ele><time>2026-04-18T14:30:59.934Z</time></trkpt><trkpt lat="44.1255367" lon="12.1685108"><ele>115.0</ele><time>2026-04-18T14:31:01.937Z</time></trkpt><trkpt lat="44.1254448" lon="12.1684672"><ele>114.66666666666666</ele><time>2026-04-18T14:31:04.946Z</time></trkpt><trkpt lat="44.1253581" lon="12.1684183"><ele>114.33333333333333</ele><time>2026-04-18T14:31:07.929Z</time></trkpt><trkpt lat="44.1252969" lon="12.1683747"><ele>114.0</ele><time>2026-04-18T14:31:09.93Z</time></trkpt><trkpt lat="44.1252334" lon="12.1683213"><ele>114.0</ele><time>2026-04-18T14:31:11.93Z</time></trkpt><trkpt lat="44.1251603" lon="12.168279"><ele>114.0</ele><time>2026-04-18T14:31:13.934Z</time></trkpt><trkpt lat="44.1250782" lon="12.1682502"><ele>114.0</ele><time>2026-04-18T14:31:15.929Z</time></trkpt><trkpt lat="44.1249944" lon="12.1682311"><ele>114.0</ele><time>2026-04-18T14:31:17.924Z</time></trkpt><trkpt lat="44.1249127" lon="12.1682482"><ele>114.0</ele><time>2026-04-18T14:31:19.923Z</time></trkpt><trkpt lat="44.1248363" lon="12.1682698"><ele>114.0</ele><time>2026-04-18T14:31:21.926Z</time></trkpt><trkpt lat="44.1247542" lon="12.1683006"><ele>111.83333333333333</ele><time>2026-04-18T14:31:23.925Z</time></trkpt><trkpt lat="44.124676" lon="12.1683418"><ele>109.66666666666666</ele><time>2026-04-18T14:31:25.925Z</time></trkpt><trkpt lat="44.1245977" lon="12.1684046"><ele>107.5</ele><time>2026-04-18T14:31:27.923Z</time></trkpt><trkpt lat="44.1245319" lon="12.168483"><ele>105.33333333333333</ele><time>2026-04-18T14:31:29.922Z</time></trkpt><trkpt lat="44.1244719" lon="12.1685672"><ele>103.16666666666666</ele><time>2026-04-18T14:31:31.922Z</time></trkpt><trkpt lat="44.1244168" lon="12.1686371"><ele>101.0</ele><time>2026-04-18T14:31:33.925Z</time></trkpt><trkpt lat="44.1243578" lon="12.1687088"><ele>101.0</ele><time>2026-04-18T14:31:35.939Z</time></trkpt><trkpt lat="44.1243039" lon="12.1687889"><ele>101.0</ele><time>2026-04-18T14:31:37.922Z</time></trkpt><trkpt lat="44.1242551" lon="12.1688463"><ele>101.0</ele><time>2026-04-18T14:31:39.922Z</time></trkpt><trkpt lat="44.1241827" lon="12.1688906"><ele>101.0</ele><time>2026-04-18T14:31:42.925Z</time></trkpt><trkpt lat="44.1241367" lon="12.1689532"><ele>101.0</ele><time>2026-04-18T14:31:45.921Z</time></trkpt><trkpt lat="44.1240733" lon="12.1690092"><ele>101.0</ele><time>2026-04-18T14:31:48.93Z</time></trkpt><trkpt lat="44.1240116" lon="12.1690675"><ele>101.0</ele><time>2026-04-18T14:31:50.922Z</time></trkpt><trkpt lat="44.1239361" lon="12.1691499"><ele>97.25</ele><time>2026-04-18T14:31:52.919Z</time></trkpt><trkpt lat="44.1238389" lon="12.1692375"><ele>93.5</ele><time>2026-04-18T14:31:54.912Z</time></trkpt><trkpt lat="44.1237367" lon="12.1693385"><ele>89.75</ele><time>2026-04-18T14:31:56.909Z</time></trkpt><trkpt lat="44.1236436" lon="12.1694317"><ele>86.0</ele><time>2026-04-18T14:31:58.912Z</time></trkpt><trkpt lat="44.1235634" lon="12.1695203"><ele>86.0</ele><time>2026-04-18T14:32:00.915Z</time></trkpt><trkpt lat="44.1234865" lon="12.1695894"><ele>86.0</ele><time>2026-04-18T14:32:02.911Z</time></trkpt><trkpt lat="44.1234066" lon="12.1696635"><ele>86.0</ele><time>2026-04-18T14:32:04.916Z</time></trkpt><trkpt lat="44.1233288" lon="12.1697555"><ele>86.0</ele><time>2026-04-18T14:32:06.927Z</time></trkpt><trkpt lat="44.1232434" lon="12.1698471"><ele>86.0</ele><time>2026-04-18T14:32:08.91Z</time></trkpt><trkpt lat="44.1231743" lon="12.1699336"><ele>83.39999999999999</ele><time>2026-04-18T14:32:10.911Z</time></trkpt><trkpt lat="44.1230914" lon="12.1700229"><ele>80.8</ele><time>2026-04-18T14:32:12.911Z</time></trkpt><trkpt lat="44.1229948" lon="12.1701202"><ele>78.19999999999999</ele><time>2026-04-18T14:32:14.911Z</time></trkpt><trkpt lat="44.1229365" lon="12.1701703"><ele>75.6</ele><time>2026-04-18T14:32:15.912Z</time></trkpt><trkpt lat="44.1228395" lon="12.1702751"><ele>73.0</ele><time>2026-04-18T14:32:17.909Z</time></trkpt><trkpt lat="44.1227599" lon="12.1703522"><ele>73.0</ele><time>2026-04-18T14:32:19.913Z</time></trkpt><trkpt lat="44.122696" lon="12.1704335"><ele>73.0</ele><time>2026-04-18T14:32:21.918Z</time></trkpt><trkpt lat="44.122641" lon="12.1705201"><ele>73.0</ele><time>2026-04-18T14:32:23.925Z</time></trkpt><trkpt lat="44.1225869" lon="12.1705665"><ele>73.0</ele><time>2026-04-18T14:32:25.928Z</time></trkpt><trkpt lat="44.1225247" lon="12.1704799"><ele>73.0</ele><time>2026-04-18T14:32:28.916Z</time></trkpt><trkpt lat="44.1225105" lon="12.1703787"><ele>73.0</ele><time>2026-04-18T14:32:30.916Z</time></trkpt><trkpt lat="44.1224844" lon="12.1702793"><ele>73.0</ele><time>2026-04-18T14:32:32.916Z</time></trkpt><trkpt lat="44.1224447" lon="12.1701828"><ele>73.0</ele><time>2026-04-18T14:32:34.917Z</time></trkpt><trkpt lat="44.122405" lon="12.1700829"><ele>73.0</ele><time>2026-04-18T14:32:36.923Z</time></trkpt><trkpt lat="44.1223618" lon="12.1699794"><ele>73.0</ele><time>2026-04-18T14:32:38.922Z</time></trkpt><trkpt lat="44.1223194" lon="12.169877"><ele>73.0</ele><time>2026-04-18T14:32:40.918Z</time></trkpt><trkpt lat="44.1222722" lon="12.1697867"><ele>73.0</ele><time>2026-04-18T14:32:42.916Z</time></trkpt><trkpt lat="44.1222352" lon="12.1696805"><ele>73.83333333333333</ele><time>2026-04-18T14:32:44.921Z</time></trkpt><trkpt lat="44.1221969" lon="12.1695809"><ele>74.66666666666666</ele><time>2026-04-18T14:32:46.923Z</time></trkpt><trkpt lat="44.1221542" lon="12.1694802"><ele>75.5</ele><time>2026-04-18T14:32:48.92Z</time></trkpt><trkpt lat="44.1221158" lon="12.1693878"><ele>76.33333333333333</ele><time>2026-04-18T14:32:50.921Z</time></trkpt><trkpt lat="44.1220771" lon="12.1692975"><ele>77.16666666666667</ele><time>2026-04-18T14:32:52.923Z</time></trkpt><trkpt lat="44.1220094" lon="12.1692062"><ele>78.0</ele><time>2026-04-18T14:32:55.92Z</time></trkpt><trkpt lat="44.1219574" lon="12.1691447"><ele>78.0</ele><time>2026-04-18T14:32:57.92Z</time></trkpt><trkpt lat="44.1218988" lon="12.169082"><ele>78.0</ele><time>2026-04-18T14:32:59.919Z</time></trkpt><trkpt lat="44.1218372" lon="12.1690166"><ele>78.0</ele><time>2026-04-18T14:33:01.914Z</time></trkpt><trkpt lat="44.1217707" lon="12.1689525"><ele>78.0</ele><time>2026-04-18T14:33:03.919Z</time></trkpt><trkpt lat="44.1217075" lon="12.1689044"><ele>78.0</ele><time>2026-04-18T14:33:05.918Z</time></trkpt><trkpt lat="44.1216438" lon="12.1688669"><ele>78.0</ele><time>2026-04-18T14:33:07.921Z</time></trkpt><trkpt lat="44.121567" lon="12.1688276"><ele>79.14285714285715</ele><time>2026-04-18T14:33:10.921Z</time></trkpt><trkpt lat="44.1215029" lon="12.1688298"><ele>80.28571428571428</ele><time>2026-04-18T14:33:13.929Z</time></trkpt><trkpt lat="44.1214298" lon="12.1688005"><ele>81.42857142857143</ele><time>2026-04-18T14:33:17.918Z</time></trkpt><trkpt lat="44.1213666" lon="12.1687747"><ele>82.57142857142858</ele><time>2026-04-18T14:33:24.923Z</time></trkpt><trkpt lat="44.1213059" lon="12.1687142"><ele>83.71428571428572</ele><time>2026-04-18T14:33:28.92Z</time></trkpt><trkpt lat="44.1212231" lon="12.1686859"><ele>84.85714285714286</ele><time>2026-04-18T14:33:31.918Z</time></trkpt><trkpt lat="44.1211437" lon="12.1686608"><ele>86.0</ele><time>2026-04-18T14:33:34.917Z</time></trkpt><trkpt lat="44.121068" lon="12.1686235"><ele>86.00000000000001</ele><time>2026-04-18T14:33:37.915Z</time></trkpt><trkpt lat="44.1210106" lon="12.1685677"><ele>86.0</ele><time>2026-04-18T14:33:41.915Z</time></trkpt><trkpt lat="44.1209759" lon="12.1684726"><ele>86.0</ele><time>2026-04-18T14:33:46.918Z</time></trkpt><trkpt lat="44.1209133" lon="12.1684947"><ele>86.0</ele><time>2026-04-18T14:33:53.914Z</time></trkpt><trkpt lat="44.1208669" lon="12.1684324"><ele>86.0</ele><time>2026-04-18T14:34:26.926Z</time></trkpt><trkpt lat="44.1208083" lon="12.1683682"><ele>86.00000000000001</ele><time>2026-04-18T14:34:29.918Z</time></trkpt><trkpt lat="44.12073" lon="12.1683048"><ele>86.0</ele><time>2026-04-18T14:34:32.912Z</time></trkpt><trkpt lat="44.1206706" lon="12.1682536"><ele>86.33333333333334</ele><time>2026-04-18T14:34:34.916Z</time></trkpt><trkpt lat="44.120602" lon="12.1681886"><ele>86.66666666666667</ele><time>2026-04-18T14:34:36.917Z</time></trkpt><trkpt lat="44.1205381" lon="12.1681172"><ele>87.0</ele><time>2026-04-18T14:34:38.924Z</time></trkpt><trkpt lat="44.1204774" lon="12.1680447"><ele>87.33333333333333</ele><time>2026-04-18T14:34:40.928Z</time></trkpt><trkpt lat="44.1204033" lon="12.1679762"><ele>87.66666666666666</ele><time>2026-04-18T14:34:42.91Z</time></trkpt><trkpt lat="44.1203357" lon="12.1679163"><ele>88.0</ele><time>2026-04-18T14:34:44.912Z</time></trkpt><trkpt lat="44.1202538" lon="12.1678567"><ele>88.0</ele><time>2026-04-18T14:34:46.909Z</time></trkpt><trkpt lat="44.1201806" lon="12.1677709"><ele>88.0</ele><time>2026-04-18T14:34:48.91Z</time></trkpt><trkpt lat="44.1201021" lon="12.1676941"><ele>88.0</ele><time>2026-04-18T14:34:50.906Z</time></trkpt><trkpt lat="44.1200292" lon="12.1675994"><ele>88.0</ele><time>2026-04-18T14:34:52.903Z</time></trkpt><trkpt lat="44.11996" lon="12.1675019"><ele>88.0</ele><time>2026-04-18T14:34:54.898Z</time></trkpt><trkpt lat="44.1198916" lon="12.1674157"><ele>88.80000000000001</ele><time>2026-04-18T14:34:56.903Z</time></trkpt><trkpt lat="44.1198159" lon="12.16733"><ele>89.6</ele><time>2026-04-18T14:34:58.901Z</time></trkpt><trkpt lat="44.1197445" lon="12.1672404"><ele>90.4</ele><time>2026-04-18T14:35:00.899Z</time></trkpt><trkpt lat="44.1196723" lon="12.1671542"><ele>91.19999999999999</ele><time>2026-04-18T14:35:02.897Z</time></trkpt><trkpt lat="44.1195923" lon="12.1670818"><ele>92.0</ele><time>2026-04-18T14:35:04.909Z</time></trkpt><trkpt lat="44.1195148" lon="12.167026"><ele>92.0</ele><time>2026-04-18T14:35:06.911Z</time></trkpt><trkpt lat="44.1194392" lon="12.1670055"><ele>92.0</ele><time>2026-04-18T14:35:08.904Z</time></trkpt><trkpt lat="44.1193654" lon="12.1670143"><ele>92.0</ele><time>2026-04-18T14:35:10.906Z</time></trkpt><trkpt lat="44.1192911" lon="12.1670248"><ele>92.0</ele><time>2026-04-18T14:35:12.9Z</time></trkpt><trkpt lat="44.1192275" lon="12.1670352"><ele>92.0</ele><time>2026-04-18T14:35:14.906Z</time></trkpt><trkpt lat="44.119164" lon="12.1670436"><ele>92.0</ele><time>2026-04-18T14:35:16.906Z</time></trkpt><trkpt lat="44.1190908" lon="12.1670546"><ele>92.0</ele><time>2026-04-18T14:35:18.903Z</time></trkpt><trkpt lat="44.1190148" lon="12.167074"><ele>93.0</ele><time>2026-04-18T14:35:20.907Z</time></trkpt><trkpt lat="44.1189468" lon="12.167084"><ele>94.0</ele><time>2026-04-18T14:35:22.912Z</time></trkpt><trkpt lat="44.1188789" lon="12.167093"><ele>95.0</ele><time>2026-04-18T14:35:24.916Z</time></trkpt><trkpt lat="44.118816" lon="12.167104"><ele>96.0</ele><time>2026-04-18T14:35:26.913Z</time></trkpt><trkpt lat="44.1187459" lon="12.1671124"><ele>97.0</ele><time>2026-04-18T14:35:28.914Z</time></trkpt><trkpt lat="44.1186769" lon="12.1671102"><ele>98.0</ele><time>2026-04-18T14:35:30.915Z</time></trkpt><trkpt lat="44.118614" lon="12.1670943"><ele>99.0</ele><time>2026-04-18T14:35:32.913Z</time></trkpt><trkpt lat="44.1185505" lon="12.1670902"><ele>99.0</ele><time>2026-04-18T14:35:34.922Z</time></trkpt><trkpt lat="44.118463" lon="12.1670833"><ele>99.0</ele><time>2026-04-18T14:35:37.913Z</time></trkpt><trkpt lat="44.1183763" lon="12.1670818"><ele>99.0</ele><time>2026-04-18T14:35:40.897Z</time></trkpt><trkpt lat="44.1183124" lon="12.1670733"><ele>99.0</ele><time>2026-04-18T14:35:42.928Z</time></trkpt><trkpt lat="44.1182341" lon="12.1670794"><ele>99.0</ele><time>2026-04-18T14:35:45.911Z</time></trkpt><trkpt lat="44.1181582" lon="12.1670566"><ele>99.0</ele><time>2026-04-18T14:35:48.913Z</time></trkpt><trkpt lat="44.1180903" lon="12.1670381"><ele>101.57142857142858</ele><time>2026-04-18T14:35:51.91Z</time></trkpt><trkpt lat="44.1180108" lon="12.1670104"><ele>104.14285714285714</ele><time>2026-04-18T14:35:55.909Z</time></trkpt><trkpt lat="44.1179305" lon="12.1669864"><ele>106.71428571428572</ele><time>2026-04-18T14:35:59.919Z</time></trkpt><trkpt lat="44.1178611" lon="12.1669638"><ele>109.28571428571429</ele><time>2026-04-18T14:36:02.92Z</time></trkpt><trkpt lat="44.1177934" lon="12.1669667"><ele>111.85714285714286</ele><time>2026-04-18T14:36:05.911Z</time></trkpt><trkpt lat="44.117726" lon="12.1669694"><ele>114.42857142857143</ele><time>2026-04-18T14:36:08.917Z</time></trkpt><trkpt lat="44.1176547" lon="12.1669609"><ele>117.0</ele><time>2026-04-18T14:36:11.917Z</time></trkpt><trkpt lat="44.1175702" lon="12.166952"><ele>117.0</ele><time>2026-04-18T14:36:15.913Z</time></trkpt><trkpt lat="44.1174861" lon="12.1669505"><ele>117.00000000000001</ele><time>2026-04-18T14:36:19.918Z</time></trkpt><trkpt lat="44.1174207" lon="12.1669432"><ele>117.0</ele><time>2026-04-18T14:36:22.916Z</time></trkpt><trkpt lat="44.1173431" lon="12.1669245"><ele>117.0</ele><time>2026-04-18T14:36:26.919Z</time></trkpt><trkpt lat="44.1172806" lon="12.1668991"><ele>117.00000000000001</ele><time>2026-04-18T14:36:29.921Z</time></trkpt><trkpt lat="44.117217" lon="12.1668736"><ele>117.0</ele><time>2026-04-18T14:36:32.918Z</time></trkpt><trkpt lat="44.1171474" lon="12.1668596"><ele>117.0</ele><time>2026-04-18T14:36:36.917Z</time></trkpt><trkpt lat="44.1170799" lon="12.1668462"><ele>118.71428571428572</ele><time>2026-04-18T14:36:39.918Z</time></trkpt><trkpt lat="44.1170101" lon="12.1668231"><ele>120.42857142857144</ele><time>2026-04-18T14:36:42.915Z</time></trkpt><trkpt lat="44.1169482" lon="12.1667907"><ele>122.14285714285714</ele><time>2026-04-18T14:36:45.91Z</time></trkpt><trkpt lat="44.1168899" lon="12.1667188"><ele>123.85714285714286</ele><time>2026-04-18T14:36:49.921Z</time></trkpt><trkpt lat="44.1168429" lon="12.1666541"><ele>125.57142857142857</ele><time>2026-04-18T14:36:52.92Z</time></trkpt><trkpt lat="44.1167916" lon="12.166602"><ele>127.28571428571428</ele><time>2026-04-18T14:36:55.918Z</time></trkpt><trkpt lat="44.1167347" lon="12.1665536"><ele>129.0</ele><time>2026-04-18T14:36:58.923Z</time></trkpt><trkpt lat="44.1166831" lon="12.1664799"><ele>130.14285714285714</ele><time>2026-04-18T14:37:02.919Z</time></trkpt><trkpt lat="44.1166249" lon="12.1664112"><ele>131.28571428571428</ele><time>2026-04-18T14:37:06.919Z</time></trkpt><trkpt lat="44.1165877" lon="12.1663393"><ele>132.42857142857144</ele><time>2026-04-18T14:37:09.915Z</time></trkpt><trkpt lat="44.1165806" lon="12.1662491"><ele>133.57142857142856</ele><time>2026-04-18T14:37:12.911Z</time></trkpt><trkpt lat="44.1166241" lon="12.1661532"><ele>134.71428571428572</ele><time>2026-04-18T14:37:16.923Z</time></trkpt><trkpt lat="44.1166919" lon="12.1660848"><ele>135.85714285714286</ele><time>2026-04-18T14:37:19.922Z</time></trkpt><trkpt lat="44.1167594" lon="12.1660294"><ele>137.0</ele><time>2026-04-18T14:37:22.927Z</time></trkpt><trkpt lat="44.1168268" lon="12.1659561"><ele>137.00000000000003</ele><time>2026-04-18T14:37:25.92Z</time></trkpt><trkpt lat="44.1168669" lon="12.1658841"><ele>137.0</ele><time>2026-04-18T14:37:28.923Z</time></trkpt><trkpt lat="44.1169117" lon="12.1658019"><ele>137.0</ele><time>2026-04-18T14:37:31.921Z</time></trkpt><trkpt lat="44.1169494" lon="12.1657199"><ele>137.0</ele><time>2026-04-18T14:37:34.92Z</time></trkpt><trkpt lat="44.1169675" lon="12.1656284"><ele>137.0</ele><time>2026-04-18T14:37:37.921Z</time></trkpt><trkpt lat="44.1169734" lon="12.1655406"><ele>137.00000000000003</ele><time>2026-04-18T14:37:40.912Z</time></trkpt><trkpt lat="44.1169668" lon="12.1654516"><ele>137.0</ele><time>2026-04-18T14:37:43.92Z</time></trkpt><trkpt lat="44.1169416" lon="12.1653596"><ele>137.5</ele><time>2026-04-18T14:37:46.935Z</time></trkpt><trkpt lat="44.1169154" lon="12.1652742"><ele>138.0</ele><time>2026-04-18T14:37:49.922Z</time></trkpt><trkpt lat="44.1168736" lon="12.1651816"><ele>138.5</ele><time>2026-04-18T14:37:53.915Z</time></trkpt><trkpt lat="44.1168357" lon="12.1650915"><ele>139.0</ele><time>2026-04-18T14:37:57.913Z</time></trkpt><trkpt lat="44.116769" lon="12.1650314"><ele>139.5</ele><time>2026-04-18T14:38:01.916Z</time></trkpt><trkpt lat="44.1167031" lon="12.1650062"><ele>140.0</ele><time>2026-04-18T14:38:05.915Z</time></trkpt><trkpt lat="44.1166212" lon="12.1650144"><ele>141.85714285714286</ele><time>2026-04-18T14:38:10.92Z</time></trkpt><trkpt lat="44.1165589" lon="12.1650308"><ele>143.71428571428572</ele><time>2026-04-18T14:38:13.919Z</time></trkpt><trkpt lat="44.1164878" lon="12.1650758"><ele>145.57142857142856</ele><time>2026-04-18T14:38:17.937Z</time></trkpt><trkpt lat="44.116418" lon="12.1651133"><ele>147.42857142857144</ele><time>2026-04-18T14:38:21.919Z</time></trkpt><trkpt lat="44.1163602" lon="12.1651561"><ele>149.28571428571428</ele><time>2026-04-18T14:38:24.925Z</time></trkpt><trkpt lat="44.116288" lon="12.1651974"><ele>151.14285714285714</ele><time>2026-04-18T14:38:28.923Z</time></trkpt><trkpt lat="44.1162056" lon="12.1652183"><ele>153.0</ele><time>2026-04-18T14:38:32.919Z</time></trkpt><trkpt lat="44.1161548" lon="12.1652759"><ele>153.0</ele><time>2026-04-18T14:38:35.922Z</time></trkpt><trkpt lat="44.116157" lon="12.165392"><ele>153.0</ele><time>2026-04-18T14:38:38.914Z</time></trkpt><trkpt lat="44.1161766" lon="12.1654922"><ele>153.0</ele><time>2026-04-18T14:38:41.921Z</time></trkpt><trkpt lat="44.1161005" lon="12.1655237"><ele>153.0</ele><time>2026-04-18T14:38:45.924Z</time></trkpt><trkpt lat="44.1160402" lon="12.1654913"><ele>153.0</ele><time>2026-04-18T14:38:48.939Z</time></trkpt><trkpt lat="44.1159576" lon="12.1654661"><ele>153.0</ele><time>2026-04-18T14:38:52.925Z</time></trkpt><trkpt lat="44.11589" lon="12.1654382"><ele>153.0</ele><time>2026-04-18T14:38:55.922Z</time></trkpt><trkpt lat="44.1158125" lon="12.1654332"><ele>153.0</ele><time>2026-04-18T14:38:59.924Z</time></trkpt><trkpt lat="44.1157312" lon="12.1654222"><ele>153.0</ele><time>2026-04-18T14:39:03.922Z</time></trkpt><trkpt lat="44.1156437" lon="12.165399"><ele>153.0</ele><time>2026-04-18T14:39:07.919Z</time></trkpt><trkpt lat="44.1155715" lon="12.1653924"><ele>153.0</ele><time>2026-04-18T14:39:10.923Z</time></trkpt><trkpt lat="44.115507" lon="12.1653925"><ele>153.0</ele><time>2026-04-18T14:39:13.92Z</time></trkpt><trkpt lat="44.1154496" lon="12.1654677"><ele>156.5</ele><time>2026-04-18T14:39:17.921Z</time></trkpt><trkpt lat="44.1154071" lon="12.1655656"><ele>160.0</ele><time>2026-04-18T14:39:21.919Z</time></trkpt><trkpt lat="44.1153624" lon="12.1656467"><ele>163.5</ele><time>2026-04-18T14:39:25.915Z</time></trkpt><trkpt lat="44.115338" lon="12.1657337"><ele>167.0</ele><time>2026-04-18T14:39:29.922Z</time></trkpt><trkpt lat="44.1153145" lon="12.165835"><ele>170.5</ele><time>2026-04-18T14:39:33.921Z</time></trkpt><trkpt lat="44.1153053" lon="12.1659536"><ele>174.0</ele><time>2026-04-18T14:39:38.917Z</time></trkpt><trkpt lat="44.1153113" lon="12.1660518"><ele>174.0</ele><time>2026-04-18T14:39:41.917Z</time></trkpt><trkpt lat="44.1153222" lon="12.1661478"><ele>174.0</ele><time>2026-04-18T14:39:44.917Z</time></trkpt><trkpt lat="44.1153039" lon="12.1662493"><ele>174.0</ele><time>2026-04-18T14:39:47.919Z</time></trkpt><trkpt lat="44.1152645" lon="12.1663435"><ele>174.0</ele><time>2026-04-18T14:39:51.92Z</time></trkpt><trkpt lat="44.1152451" lon="12.1664378"><ele>174.0</ele><time>2026-04-18T14:39:55.918Z</time></trkpt><trkpt lat="44.1152159" lon="12.1665209"><ele>174.0</ele><time>2026-04-18T14:39:58.915Z</time></trkpt><trkpt lat="44.1151707" lon="12.1665949"><ele>174.0</ele><time>2026-04-18T14:40:01.921Z</time></trkpt><trkpt lat="44.1151289" lon="12.1666614"><ele>174.0</ele><time>2026-04-18T14:40:04.918Z</time></trkpt><trkpt lat="44.115091" lon="12.1667711"><ele>174.0</ele><time>2026-04-18T14:40:08.923Z</time></trkpt><trkpt lat="44.1150521" lon="12.1668775"><ele>174.0</ele><time>2026-04-18T14:40:11.92Z</time></trkpt><trkpt lat="44.1150163" lon="12.1669986"><ele>174.0</ele><time>2026-04-18T14:40:14.926Z</time></trkpt><trkpt lat="44.11499" lon="12.1670887"><ele>174.0</ele><time>2026-04-18T14:40:16.919Z</time></trkpt><trkpt lat="44.114984" lon="12.1671863"><ele>174.0</ele><time>2026-04-18T14:40:18.921Z</time></trkpt><trkpt lat="44.1149995" lon="12.167319"><ele>174.66666666666666</ele><time>2026-04-18T14:40:21.935Z</time></trkpt><trkpt lat="44.1150077" lon="12.167427"><ele>175.33333333333334</ele><time>2026-04-18T14:40:24.92Z</time></trkpt><trkpt lat="44.1150356" lon="12.1675104"><ele>176.0</ele><time>2026-04-18T14:40:27.918Z</time></trkpt><trkpt lat="44.1150783" lon="12.1675999"><ele>176.66666666666669</ele><time>2026-04-18T14:40:30.92Z</time></trkpt><trkpt lat="44.1151237" lon="12.1676687"><ele>177.33333333333334</ele><time>2026-04-18T14:40:32.923Z</time></trkpt><trkpt lat="44.1151768" lon="12.1677593"><ele>178.0</ele><time>2026-04-18T14:40:35.91Z</time></trkpt><trkpt lat="44.1152373" lon="12.1678566"><ele>177.99999999999997</ele><time>2026-04-18T14:40:38.916Z</time></trkpt><trkpt lat="44.1152763" lon="12.1679369"><ele>178.0</ele><time>2026-04-18T14:40:40.914Z</time></trkpt><trkpt lat="44.1153347" lon="12.1680018"><ele>178.0</ele><time>2026-04-18T14:40:42.918Z</time></trkpt><trkpt lat="44.1153903" lon="12.1680593"><ele>178.0</ele><time>2026-04-18T14:40:44.915Z</time></trkpt><trkpt lat="44.1154565" lon="12.1680986"><ele>178.0</ele><time>2026-04-18T14:40:46.911Z</time></trkpt><trkpt lat="44.1155126" lon="12.1681432"><ele>177.99999999999997</ele><time>2026-04-18T14:40:48.915Z</time></trkpt><trkpt lat="44.1155658" lon="12.1682083"><ele>178.0</ele><time>2026-04-18T14:40:50.91Z</time></trkpt><trkpt lat="44.1156131" lon="12.1682817"><ele>177.42857142857142</ele><time>2026-04-18T14:40:52.926Z</time></trkpt><trkpt lat="44.1156642" lon="12.1683589"><ele>176.85714285714286</ele><time>2026-04-18T14:40:54.909Z</time></trkpt><trkpt lat="44.115714" lon="12.1684319"><ele>176.28571428571428</ele><time>2026-04-18T14:40:56.911Z</time></trkpt><trkpt lat="44.1157652" lon="12.1685109"><ele>175.71428571428572</ele><time>2026-04-18T14:40:58.907Z</time></trkpt><trkpt lat="44.1158145" lon="12.1685886"><ele>175.14285714285714</ele><time>2026-04-18T14:41:00.915Z</time></trkpt><trkpt lat="44.1158653" lon="12.1686633"><ele>174.57142857142856</ele><time>2026-04-18T14:41:02.913Z</time></trkpt><trkpt lat="44.1159012" lon="12.1687546"><ele>174.0</ele><time>2026-04-18T14:41:04.921Z</time></trkpt><trkpt lat="44.1158985" lon="12.1688614"><ele>174.0</ele><time>2026-04-18T14:41:06.924Z</time></trkpt><trkpt lat="44.115868" lon="12.1689398"><ele>174.0</ele><time>2026-04-18T14:41:08.925Z</time></trkpt><trkpt lat="44.1158004" lon="12.1689107"><ele>174.0</ele><time>2026-04-18T14:41:11.923Z</time></trkpt><trkpt lat="44.1157513" lon="12.1688157"><ele>174.0</ele><time>2026-04-18T14:41:14.927Z</time></trkpt><trkpt lat="44.1156951" lon="12.1687482"><ele>174.0</ele><time>2026-04-18T14:41:17.922Z</time></trkpt><trkpt lat="44.1156149" lon="12.1687166"><ele>174.0</ele><time>2026-04-18T14:41:20.927Z</time></trkpt><trkpt lat="44.1155545" lon="12.168683"><ele>174.0</ele><time>2026-04-18T14:41:22.923Z</time></trkpt><trkpt lat="44.1154782" lon="12.1686644"><ele>176.66666666666666</ele><time>2026-04-18T14:41:25.93Z</time></trkpt><trkpt lat="44.1153919" lon="12.1686672"><ele>179.33333333333334</ele><time>2026-04-18T14:41:28.918Z</time></trkpt><trkpt lat="44.1153096" lon="12.1686427"><ele>182.0</ele><time>2026-04-18T14:41:31.922Z</time></trkpt><trkpt lat="44.1152419" lon="12.1686597"><ele>184.66666666666669</ele><time>2026-04-18T14:41:34.922Z</time></trkpt><trkpt lat="44.1151666" lon="12.168692"><ele>187.33333333333334</ele><time>2026-04-18T14:41:37.928Z</time></trkpt><trkpt lat="44.1150969" lon="12.1687235"><ele>190.0</ele><time>2026-04-18T14:41:40.926Z</time></trkpt><trkpt lat="44.1150151" lon="12.1687295"><ele>190.0</ele><time>2026-04-18T14:41:43.926Z</time></trkpt><trkpt lat="44.1149336" lon="12.1687108"><ele>190.0</ele><time>2026-04-18T14:41:46.927Z</time></trkpt><trkpt lat="44.1148591" lon="12.1686859"><ele>190.0</ele><time>2026-04-18T14:41:50.928Z</time></trkpt><trkpt lat="44.1148017" lon="12.1686174"><ele>190.0</ele><time>2026-04-18T14:41:54.941Z</time></trkpt><trkpt lat="44.1147425" lon="12.1685725"><ele>190.0</ele><time>2026-04-18T14:41:57.91Z</time></trkpt><trkpt lat="44.1146647" lon="12.1685334"><ele>190.0</ele><time>2026-04-18T14:42:01.912Z</time></trkpt><trkpt lat="44.114603" lon="12.1684953"><ele>193.0</ele><time>2026-04-18T14:42:04.916Z</time></trkpt><trkpt lat="44.1145266" lon="12.1684749"><ele>196.0</ele><time>2026-04-18T14:42:08.923Z</time></trkpt><trkpt lat="44.1144468" lon="12.168452"><ele>199.0</ele><time>2026-04-18T14:42:12.92Z</time></trkpt><trkpt lat="44.1143663" lon="12.1684126"><ele>202.0</ele><time>2026-04-18T14:42:16.923Z</time></trkpt><trkpt lat="44.1142983" lon="12.168372"><ele>204.99999999999997</ele><time>2026-04-18T14:42:19.927Z</time></trkpt><trkpt lat="44.1142394" lon="12.1683218"><ele>208.0</ele><time>2026-04-18T14:42:22.924Z</time></trkpt><trkpt lat="44.1141812" lon="12.1682825"><ele>208.0</ele><time>2026-04-18T14:42:25.965Z</time></trkpt><trkpt lat="44.1141112" lon="12.1682362"><ele>208.0</ele><time>2026-04-18T14:42:29.918Z</time></trkpt><trkpt lat="44.1140522" lon="12.1681952"><ele>208.0</ele><time>2026-04-18T14:42:32.922Z</time></trkpt><trkpt lat="44.1139919" lon="12.1681593"><ele>208.0</ele><time>2026-04-18T14:42:35.931Z</time></trkpt><trkpt lat="44.1139331" lon="12.1681269"><ele>208.0</ele><time>2026-04-18T14:42:38.924Z</time></trkpt><trkpt lat="44.1138556" lon="12.1680749"><ele>208.0</ele><time>2026-04-18T14:42:41.924Z</time></trkpt><trkpt lat="44.1137813" lon="12.1680376"><ele>208.0</ele><time>2026-04-18T14:42:44.923Z</time></trkpt><trkpt lat="44.1137041" lon="12.1680164"><ele>208.7142857142857</ele><time>2026-04-18T14:42:47.922Z</time></trkpt><trkpt lat="44.1136354" lon="12.167981"><ele>209.42857142857144</ele><time>2026-04-18T14:42:50.926Z</time></trkpt><trkpt lat="44.11356" lon="12.1679505"><ele>210.14285714285714</ele><time>2026-04-18T14:42:53.931Z</time></trkpt><trkpt lat="44.1134864" lon="12.1679262"><ele>210.85714285714283</ele><time>2026-04-18T14:42:56.931Z</time></trkpt><trkpt lat="44.1134227" lon="12.1678901"><ele>211.57142857142856</ele><time>2026-04-18T14:44:36.922Z</time></trkpt><trkpt lat="44.1134235" lon="12.1678006"><ele>212.28571428571428</ele><time>2026-04-18T14:44:39.917Z</time></trkpt><trkpt lat="44.1134056" lon="12.1676911"><ele>213.0</ele><time>2026-04-18T14:44:42.92Z</time></trkpt><trkpt lat="44.113382" lon="12.1676006"><ele>213.0</ele><time>2026-04-18T14:44:44.925Z</time></trkpt><trkpt lat="44.1133523" lon="12.1674835"><ele>213.0</ele><time>2026-04-18T14:44:47.922Z</time></trkpt><trkpt lat="44.113325" lon="12.1674022"><ele>213.0</ele><time>2026-04-18T14:44:49.921Z</time></trkpt><trkpt lat="44.1132737" lon="12.1672964"><ele>213.0</ele><time>2026-04-18T14:44:52.915Z</time></trkpt><trkpt lat="44.1132257" lon="12.1672375"><ele>213.0</ele><time>2026-04-18T14:44:54.915Z</time></trkpt><trkpt lat="44.1131671" lon="12.167154"><ele>213.0</ele><time>2026-04-18T14:44:56.914Z</time></trkpt><trkpt lat="44.1131124" lon="12.1670475"><ele>212.4</ele><time>2026-04-18T14:44:58.912Z</time></trkpt><trkpt lat="44.1130521" lon="12.1669374"><ele>211.8</ele><time>2026-04-18T14:45:00.886Z</time></trkpt><trkpt lat="44.1130012" lon="12.1668252"><ele>211.2</ele><time>2026-04-18T14:45:02.878Z</time></trkpt><trkpt lat="44.1129469" lon="12.1667251"><ele>210.6</ele><time>2026-04-18T14:45:04.881Z</time></trkpt><trkpt lat="44.1128862" lon="12.1666326"><ele>210.0</ele><time>2026-04-18T14:45:06.877Z</time></trkpt><trkpt lat="44.1128288" lon="12.1665322"><ele>211.0</ele><time>2026-04-18T14:45:08.878Z</time></trkpt><trkpt lat="44.1127783" lon="12.1664292"><ele>212.0</ele><time>2026-04-18T14:45:10.881Z</time></trkpt><trkpt lat="44.1127352" lon="12.1663302"><ele>213.0</ele><time>2026-04-18T14:45:12.883Z</time></trkpt><trkpt lat="44.112703" lon="12.1662178"><ele>214.0</ele><time>2026-04-18T14:45:14.888Z</time></trkpt><trkpt lat="44.1126826" lon="12.1660833"><ele>215.0</ele><time>2026-04-18T14:45:16.883Z</time></trkpt><trkpt lat="44.11268" lon="12.1659422"><ele>215.0</ele><time>2026-04-18T14:45:18.882Z</time></trkpt><trkpt lat="44.1127159" lon="12.1658113"><ele>215.0</ele><time>2026-04-18T14:45:20.88Z</time></trkpt><trkpt lat="44.1127796" lon="12.1657075"><ele>215.0</ele><time>2026-04-18T14:45:22.876Z</time></trkpt><trkpt lat="44.11286" lon="12.1656078"><ele>215.0</ele><time>2026-04-18T14:45:24.874Z</time></trkpt><trkpt lat="44.1129456" lon="12.1655243"><ele>215.0</ele><time>2026-04-18T14:45:26.87Z</time></trkpt><trkpt lat="44.1130298" lon="12.1654472"><ele>216.0</ele><time>2026-04-18T14:45:28.875Z</time></trkpt><trkpt lat="44.1131226" lon="12.1653591"><ele>217.0</ele><time>2026-04-18T14:45:30.892Z</time></trkpt><trkpt lat="44.1132004" lon="12.1652727"><ele>218.0</ele><time>2026-04-18T14:45:32.881Z</time></trkpt><trkpt lat="44.113275" lon="12.1651843"><ele>219.0</ele><time>2026-04-18T14:45:34.881Z</time></trkpt><trkpt lat="44.1133315" lon="12.1650799"><ele>220.0</ele><time>2026-04-18T14:45:36.879Z</time></trkpt><trkpt lat="44.1133875" lon="12.1649728"><ele>219.8</ele><time>2026-04-18T14:45:38.879Z</time></trkpt><trkpt lat="44.1134317" lon="12.1648572"><ele>219.6</ele><time>2026-04-18T14:45:40.881Z</time></trkpt><trkpt lat="44.1134422" lon="12.1647254"><ele>219.39999999999998</ele><time>2026-04-18T14:45:42.884Z</time></trkpt><trkpt lat="44.1134316" lon="12.1645907"><ele>219.2</ele><time>2026-04-18T14:45:44.882Z</time></trkpt><trkpt lat="44.1134142" lon="12.1644619"><ele>219.0</ele><time>2026-04-18T14:45:46.879Z</time></trkpt><trkpt lat="44.1133562" lon="12.1643447"><ele>219.0</ele><time>2026-04-18T14:45:48.885Z</time></trkpt><trkpt lat="44.1132839" lon="12.1642393"><ele>218.99999999999997</ele><time>2026-04-18T14:45:50.885Z</time></trkpt><trkpt lat="44.1131937" lon="12.1641493"><ele>218.99999999999997</ele><time>2026-04-18T14:45:52.884Z</time></trkpt><trkpt lat="44.1130984" lon="12.164063"><ele>219.0</ele><time>2026-04-18T14:45:54.884Z</time></trkpt><trkpt lat="44.1130081" lon="12.1639764"><ele>219.0</ele><time>2026-04-18T14:45:56.882Z</time></trkpt><trkpt lat="44.1129218" lon="12.1639002"><ele>219.2</ele><time>2026-04-18T14:45:58.883Z</time></trkpt><trkpt lat="44.1128352" lon="12.1638214"><ele>219.39999999999998</ele><time>2026-04-18T14:46:00.882Z</time></trkpt><trkpt lat="44.1127604" lon="12.1637348"><ele>219.6</ele><time>2026-04-18T14:46:02.881Z</time></trkpt><trkpt lat="44.1126873" lon="12.1636304"><ele>219.8</ele><time>2026-04-18T14:46:04.881Z</time></trkpt><trkpt lat="44.1126209" lon="12.1635175"><ele>220.0</ele><time>2026-04-18T14:46:06.882Z</time></trkpt><trkpt lat="44.1125542" lon="12.1634062"><ele>220.0</ele><time>2026-04-18T14:46:08.88Z</time></trkpt><trkpt lat="44.1125062" lon="12.163279"><ele>220.0</ele><time>2026-04-18T14:46:10.877Z</time></trkpt><trkpt lat="44.1124774" lon="12.1631412"><ele>220.0</ele><time>2026-04-18T14:46:12.873Z</time></trkpt><trkpt lat="44.1124927" lon="12.1630006"><ele>220.0</ele><time>2026-04-18T14:46:14.88Z</time></trkpt><trkpt lat="44.1125411" lon="12.1628567"><ele>220.0</ele><time>2026-04-18T14:46:16.883Z</time></trkpt><trkpt lat="44.1126098" lon="12.162733"><ele>219.83333333333331</ele><time>2026-04-18T14:46:18.882Z</time></trkpt><trkpt lat="44.1126954" lon="12.1626232"><ele>219.66666666666666</ele><time>2026-04-18T14:46:20.883Z</time></trkpt><trkpt lat="44.1127995" lon="12.1625426"><ele>219.5</ele><time>2026-04-18T14:46:22.884Z</time></trkpt><trkpt lat="44.1128607" lon="12.1625062"><ele>219.33333333333331</ele><time>2026-04-18T14:46:23.886Z</time></trkpt><trkpt lat="44.1129237" lon="12.1624747"><ele>219.16666666666666</ele><time>2026-04-18T14:46:24.884Z</time></trkpt><trkpt lat="44.1129891" lon="12.1624484"><ele>219.0</ele><time>2026-04-18T14:46:25.884Z</time></trkpt><trkpt lat="44.1130545" lon="12.1624184"><ele>219.0</ele><time>2026-04-18T14:46:26.886Z</time></trkpt><trkpt lat="44.1131185" lon="12.1623921"><ele>219.0</ele><time>2026-04-18T14:46:27.882Z</time></trkpt><trkpt lat="44.1132391" lon="12.162346"><ele>219.0</ele><time>2026-04-18T14:46:29.884Z</time></trkpt><trkpt lat="44.1133034" lon="12.1623135"><ele>219.0</ele><time>2026-04-18T14:46:30.89Z</time></trkpt><trkpt lat="44.1133617" lon="12.1622755"><ele>219.0</ele><time>2026-04-18T14:46:31.885Z</time></trkpt><trkpt lat="44.1134176" lon="12.1622247"><ele>219.0</ele><time>2026-04-18T14:46:32.902Z</time></trkpt><trkpt lat="44.1134665" lon="12.1621651"><ele>219.66666666666666</ele><time>2026-04-18T14:46:33.884Z</time></trkpt><trkpt lat="44.1135111" lon="12.1620969"><ele>220.33333333333331</ele><time>2026-04-18T14:46:34.886Z</time></trkpt><trkpt lat="44.1135538" lon="12.1620274"><ele>221.0</ele><time>2026-04-18T14:46:35.882Z</time></trkpt><trkpt lat="44.1135941" lon="12.1619506"><ele>221.66666666666666</ele><time>2026-04-18T14:46:36.884Z</time></trkpt><trkpt lat="44.113656" lon="12.1617989"><ele>222.33333333333331</ele><time>2026-04-18T14:46:38.882Z</time></trkpt><trkpt lat="44.1136978" lon="12.1616368"><ele>223.0</ele><time>2026-04-18T14:46:40.881Z</time></trkpt><trkpt lat="44.1137292" lon="12.1614713"><ele>224.2</ele><time>2026-04-18T14:46:42.882Z</time></trkpt><trkpt lat="44.1137431" lon="12.1613005"><ele>225.4</ele><time>2026-04-18T14:46:44.878Z</time></trkpt><trkpt lat="44.1137467" lon="12.1611334"><ele>226.59999999999997</ele><time>2026-04-18T14:46:46.884Z</time></trkpt><trkpt lat="44.1137598" lon="12.160961"><ele>227.79999999999998</ele><time>2026-04-18T14:46:48.877Z</time></trkpt><trkpt lat="44.1137633" lon="12.160872"><ele>229.0</ele><time>2026-04-18T14:46:49.887Z</time></trkpt><trkpt lat="44.1137948" lon="12.1607033"><ele>231.0</ele><time>2026-04-18T14:46:51.882Z</time></trkpt><trkpt lat="44.1138308" lon="12.1605408"><ele>233.0</ele><time>2026-04-18T14:46:53.871Z</time></trkpt><trkpt lat="44.113862" lon="12.1603913"><ele>235.0</ele><time>2026-04-18T14:46:55.884Z</time></trkpt><trkpt lat="44.1138913" lon="12.1602393"><ele>237.0</ele><time>2026-04-18T14:46:57.882Z</time></trkpt><trkpt lat="44.1139238" lon="12.1600945"><ele>237.0</ele><time>2026-04-18T14:46:59.883Z</time></trkpt><trkpt lat="44.1139606" lon="12.1599554"><ele>237.0</ele><time>2026-04-18T14:47:01.883Z</time></trkpt><trkpt lat="44.1139964" lon="12.1598151"><ele>237.0</ele><time>2026-04-18T14:47:03.897Z</time></trkpt><trkpt lat="44.1140481" lon="12.1596779"><ele>237.0</ele><time>2026-04-18T14:47:05.892Z</time></trkpt><trkpt lat="44.1141025" lon="12.1595456"><ele>237.0</ele><time>2026-04-18T14:47:07.883Z</time></trkpt><trkpt lat="44.1141545" lon="12.1594121"><ele>236.8</ele><time>2026-04-18T14:47:09.883Z</time></trkpt><trkpt lat="44.1142015" lon="12.1592821"><ele>236.6</ele><time>2026-04-18T14:47:11.883Z</time></trkpt><trkpt lat="44.1142476" lon="12.1591532"><ele>236.40000000000003</ele><time>2026-04-18T14:47:13.882Z</time></trkpt><trkpt lat="44.1142978" lon="12.1590162"><ele>236.20000000000002</ele><time>2026-04-18T14:47:15.883Z</time></trkpt><trkpt lat="44.1143471" lon="12.1588748"><ele>236.0</ele><time>2026-04-18T14:47:17.886Z</time></trkpt><trkpt lat="44.114393" lon="12.158744"><ele>236.0</ele><time>2026-04-18T14:47:19.88Z</time></trkpt><trkpt lat="44.1144361" lon="12.1586018"><ele>236.00000000000003</ele><time>2026-04-18T14:47:21.878Z</time></trkpt><trkpt lat="44.1144677" lon="12.1584637"><ele>236.00000000000003</ele><time>2026-04-18T14:47:23.879Z</time></trkpt><trkpt lat="44.1144793" lon="12.1583247"><ele>236.0</ele><time>2026-04-18T14:47:25.874Z</time></trkpt><trkpt lat="44.1144726" lon="12.1581919"><ele>236.0</ele><time>2026-04-18T14:47:27.874Z</time></trkpt><trkpt lat="44.1144457" lon="12.1580624"><ele>237.83333333333334</ele><time>2026-04-18T14:47:29.876Z</time></trkpt><trkpt lat="44.1144193" lon="12.157949"><ele>239.66666666666669</ele><time>2026-04-18T14:47:31.879Z</time></trkpt><trkpt lat="44.1143796" lon="12.1578537"><ele>241.5</ele><time>2026-04-18T14:47:33.875Z</time></trkpt><trkpt lat="44.1143426" lon="12.1577644"><ele>243.33333333333331</ele><time>2026-04-18T14:47:35.881Z</time></trkpt><trkpt lat="44.1143054" lon="12.1576763"><ele>245.16666666666666</ele><time>2026-04-18T14:47:37.876Z</time></trkpt><trkpt lat="44.114266" lon="12.1575929"><ele>247.0</ele><time>2026-04-18T14:47:39.875Z</time></trkpt><trkpt lat="44.1142203" lon="12.1575077"><ele>247.0</ele><time>2026-04-18T14:47:41.874Z</time></trkpt><trkpt lat="44.1141754" lon="12.1574276"><ele>247.0</ele><time>2026-04-18T14:47:43.881Z</time></trkpt><trkpt lat="44.1141465" lon="12.1573369"><ele>247.0</ele><time>2026-04-18T14:47:45.881Z</time></trkpt><trkpt lat="44.1141166" lon="12.1572572"><ele>247.0</ele><time>2026-04-18T14:47:47.881Z</time></trkpt><trkpt lat="44.1140815" lon="12.1571762"><ele>247.0</ele><time>2026-04-18T14:47:49.875Z</time></trkpt><trkpt lat="44.114047" lon="12.1570898"><ele>247.0</ele><time>2026-04-18T14:47:51.879Z</time></trkpt><trkpt lat="44.1140122" lon="12.1570023"><ele>247.0</ele><time>2026-04-18T14:47:53.883Z</time></trkpt><trkpt lat="44.1139754" lon="12.1569209"><ele>247.71428571428572</ele><time>2026-04-18T14:47:55.885Z</time></trkpt><trkpt lat="44.1139453" lon="12.1568338"><ele>248.42857142857142</ele><time>2026-04-18T14:47:57.883Z</time></trkpt><trkpt lat="44.113929" lon="12.1567432"><ele>249.14285714285714</ele><time>2026-04-18T14:47:59.887Z</time></trkpt><trkpt lat="44.1139387" lon="12.1566435"><ele>249.85714285714286</ele><time>2026-04-18T14:48:01.886Z</time></trkpt><trkpt lat="44.1139651" lon="12.1565582"><ele>250.57142857142856</ele><time>2026-04-18T14:48:03.885Z</time></trkpt><trkpt lat="44.1140124" lon="12.1564849"><ele>251.28571428571428</ele><time>2026-04-18T14:48:05.895Z</time></trkpt><trkpt lat="44.1140679" lon="12.1564405"><ele>252.0</ele><time>2026-04-18T14:48:07.885Z</time></trkpt><trkpt lat="44.1141265" lon="12.1563995"><ele>252.0</ele><time>2026-04-18T14:48:09.88Z</time></trkpt><trkpt lat="44.1142107" lon="12.1563474"><ele>252.0</ele><time>2026-04-18T14:48:12.883Z</time></trkpt><trkpt lat="44.1142711" lon="12.1563192"><ele>252.0</ele><time>2026-04-18T14:48:14.885Z</time></trkpt><trkpt lat="44.1143575" lon="12.1562639"><ele>252.0</ele><time>2026-04-18T14:48:17.884Z</time></trkpt><trkpt lat="44.1144379" lon="12.1562015"><ele>252.0</ele><time>2026-04-18T14:48:20.886Z</time></trkpt><trkpt lat="44.1144851" lon="12.1561346"><ele>252.0</ele><time>2026-04-18T14:48:22.884Z</time></trkpt><trkpt lat="44.114529" lon="12.1560633"><ele>252.0</ele><time>2026-04-18T14:48:24.887Z</time></trkpt><trkpt lat="44.1145628" lon="12.1559845"><ele>252.0</ele><time>2026-04-18T14:48:26.882Z</time></trkpt><trkpt lat="44.1146026" lon="12.1559098"><ele>252.0</ele><time>2026-04-18T14:48:28.887Z</time></trkpt><trkpt lat="44.1146507" lon="12.1558063"><ele>252.0</ele><time>2026-04-18T14:48:31.882Z</time></trkpt><trkpt lat="44.114668" lon="12.1557194"><ele>252.0</ele><time>2026-04-18T14:48:33.883Z</time></trkpt><trkpt lat="44.1146828" lon="12.1555953"><ele>252.0</ele><time>2026-04-18T14:48:36.9Z</time></trkpt><trkpt lat="44.1147017" lon="12.1554747"><ele>250.66666666666666</ele><time>2026-04-18T14:48:39.887Z</time></trkpt><trkpt lat="44.1147493" lon="12.1553709"><ele>249.33333333333331</ele><time>2026-04-18T14:48:42.888Z</time></trkpt><trkpt lat="44.1148123" lon="12.1552837"><ele>248.0</ele><time>2026-04-18T14:48:45.889Z</time></trkpt><trkpt lat="44.1148842" lon="12.1552178"><ele>246.66666666666666</ele><time>2026-04-18T14:48:48.89Z</time></trkpt><trkpt lat="44.114957" lon="12.1551583"><ele>245.33333333333331</ele><time>2026-04-18T14:48:51.885Z</time></trkpt><trkpt lat="44.1150377" lon="12.155101"><ele>244.0</ele><time>2026-04-18T14:48:54.888Z</time></trkpt><trkpt lat="44.1151101" lon="12.155024"><ele>248.49999999999997</ele><time>2026-04-18T14:48:57.887Z</time></trkpt><trkpt lat="44.1151635" lon="12.1549387"><ele>253.0</ele><time>2026-04-18T14:49:00.893Z</time></trkpt><trkpt lat="44.1152209" lon="12.1548651"><ele>257.5</ele><time>2026-04-18T14:49:03.885Z</time></trkpt><trkpt lat="44.1152838" lon="12.1547959"><ele>262.0</ele><time>2026-04-18T14:49:06.887Z</time></trkpt><trkpt lat="44.1153281" lon="12.1547138"><ele>266.5</ele><time>2026-04-18T14:49:09.884Z</time></trkpt><trkpt lat="44.1153742" lon="12.1546315"><ele>271.0</ele><time>2026-04-18T14:49:12.883Z</time></trkpt><trkpt lat="44.1154344" lon="12.154568"><ele>271.3333333333333</ele><time>2026-04-18T14:49:15.886Z</time></trkpt><trkpt lat="44.1154834" lon="12.1544972"><ele>271.66666666666663</ele><time>2026-04-18T14:49:18.887Z</time></trkpt><trkpt lat="44.1155463" lon="12.154425"><ele>272.0</ele><time>2026-04-18T14:49:22.886Z</time></trkpt><trkpt lat="44.1156008" lon="12.1544693"><ele>272.3333333333333</ele><time>2026-04-18T14:49:26.885Z</time></trkpt><trkpt lat="44.1155776" lon="12.1545548"><ele>272.6666666666667</ele><time>2026-04-18T14:49:28.886Z</time></trkpt><trkpt lat="44.1155235" lon="12.154647"><ele>273.0</ele><time>2026-04-18T14:49:31.879Z</time></trkpt><trkpt lat="44.1154854" lon="12.154754"><ele>273.0</ele><time>2026-04-18T14:49:34.885Z</time></trkpt><trkpt lat="44.1154573" lon="12.1548525"><ele>273.0</ele><time>2026-04-18T14:49:37.885Z</time></trkpt><trkpt lat="44.1154386" lon="12.154939"><ele>273.0</ele><time>2026-04-18T14:49:39.882Z</time></trkpt><trkpt lat="44.115449" lon="12.1550346"><ele>273.0</ele><time>2026-04-18T14:49:41.881Z</time></trkpt><trkpt lat="44.115464" lon="12.155122"><ele>273.0</ele><time>2026-04-18T14:49:43.884Z</time></trkpt><trkpt lat="44.1154958" lon="12.1552307"><ele>273.0</ele><time>2026-04-18T14:49:46.887Z</time></trkpt><trkpt lat="44.1155353" lon="12.155334"><ele>273.0</ele><time>2026-04-18T14:49:49.888Z</time></trkpt><trkpt lat="44.1155813" lon="12.1554248"><ele>272.6666666666667</ele><time>2026-04-18T14:49:52.89Z</time></trkpt><trkpt lat="44.1156362" lon="12.1555083"><ele>272.3333333333333</ele><time>2026-04-18T14:49:55.892Z</time></trkpt><trkpt lat="44.1156924" lon="12.1555767"><ele>272.0</ele><time>2026-04-18T14:49:58.89Z</time></trkpt><trkpt lat="44.1157532" lon="12.1556296"><ele>271.66666666666663</ele><time>2026-04-18T14:50:01.891Z</time></trkpt><trkpt lat="44.1158179" lon="12.1556508"><ele>271.3333333333333</ele><time>2026-04-18T14:50:04.89Z</time></trkpt><trkpt lat="44.1159012" lon="12.1556421"><ele>271.0</ele><time>2026-04-18T14:50:07.892Z</time></trkpt><trkpt lat="44.1159731" lon="12.1556001"><ele>273.66666666666663</ele><time>2026-04-18T14:50:10.898Z</time></trkpt><trkpt lat="44.1160215" lon="12.1555035"><ele>276.3333333333333</ele><time>2026-04-18T14:50:13.897Z</time></trkpt><trkpt lat="44.1160546" lon="12.1554031"><ele>279.0</ele><time>2026-04-18T14:50:16.897Z</time></trkpt><trkpt lat="44.1160824" lon="12.1552941"><ele>281.6666666666667</ele><time>2026-04-18T14:50:19.904Z</time></trkpt><trkpt lat="44.1161228" lon="12.155209"><ele>284.33333333333337</ele><time>2026-04-18T14:50:22.906Z</time></trkpt><trkpt lat="44.1161676" lon="12.1551339"><ele>287.0</ele><time>2026-04-18T14:50:25.906Z</time></trkpt><trkpt lat="44.1162138" lon="12.1550593"><ele>287.0</ele><time>2026-04-18T14:50:28.913Z</time></trkpt><trkpt lat="44.1162468" lon="12.1549834"><ele>287.0</ele><time>2026-04-18T14:50:31.905Z</time></trkpt><trkpt lat="44.1162902" lon="12.1549068"><ele>287.0</ele><time>2026-04-18T14:50:34.899Z</time></trkpt><trkpt lat="44.1163255" lon="12.154826"><ele>287.0</ele><time>2026-04-18T14:50:37.906Z</time></trkpt><trkpt lat="44.1163578" lon="12.1547183"><ele>287.0</ele><time>2026-04-18T14:50:41.9Z</time></trkpt><trkpt lat="44.1163468" lon="12.1546174"><ele>287.0</ele><time>2026-04-18T14:50:45.901Z</time></trkpt><trkpt lat="44.1163151" lon="12.1545289"><ele>287.0</ele><time>2026-04-18T14:50:48.893Z</time></trkpt><trkpt lat="44.1163145" lon="12.1544361"><ele>287.2857142857143</ele><time>2026-04-18T14:50:51.904Z</time></trkpt><trkpt lat="44.1163051" lon="12.154336"><ele>287.57142857142856</ele><time>2026-04-18T14:50:54.905Z</time></trkpt><trkpt lat="44.1163028" lon="12.1542463"><ele>287.8571428571429</ele><time>2026-04-18T14:50:57.904Z</time></trkpt><trkpt lat="44.1162891" lon="12.1541593"><ele>288.1428571428571</ele><time>2026-04-18T14:51:00.905Z</time></trkpt><trkpt lat="44.116274" lon="12.1540491"><ele>288.42857142857144</ele><time>2026-04-18T14:51:03.905Z</time></trkpt><trkpt lat="44.1162496" lon="12.153938"><ele>288.7142857142857</ele><time>2026-04-18T14:51:06.9Z</time></trkpt><trkpt lat="44.1162218" lon="12.153851"><ele>289.0</ele><time>2026-04-18T14:51:08.906Z</time></trkpt><trkpt lat="44.1161885" lon="12.1537485"><ele>290.2</ele><time>2026-04-18T14:51:10.905Z</time></trkpt><trkpt lat="44.1161456" lon="12.1536415"><ele>291.4</ele><time>2026-04-18T14:51:12.912Z</time></trkpt><trkpt lat="44.1160987" lon="12.1535266"><ele>292.6</ele><time>2026-04-18T14:51:14.911Z</time></trkpt><trkpt lat="44.116047" lon="12.1533996"><ele>293.8</ele><time>2026-04-18T14:51:16.915Z</time></trkpt><trkpt lat="44.1159858" lon="12.1532714"><ele>295.0</ele><time>2026-04-18T14:51:18.914Z</time></trkpt><trkpt lat="44.1159228" lon="12.1531496"><ele>295.2</ele><time>2026-04-18T14:51:20.909Z</time></trkpt><trkpt lat="44.1158611" lon="12.153036"><ele>295.4</ele><time>2026-04-18T14:51:22.909Z</time></trkpt><trkpt lat="44.1157911" lon="12.1529275"><ele>295.6</ele><time>2026-04-18T14:51:24.912Z</time></trkpt><trkpt lat="44.1157179" lon="12.1528511"><ele>295.8</ele><time>2026-04-18T14:51:26.905Z</time></trkpt><trkpt lat="44.1156414" lon="12.1528385"><ele>296.0</ele><time>2026-04-18T14:51:28.909Z</time></trkpt><trkpt lat="44.1155477" lon="12.1528458"><ele>297.42857142857144</ele><time>2026-04-18T14:51:31.899Z</time></trkpt><trkpt lat="44.1154734" lon="12.1528522"><ele>298.85714285714283</ele><time>2026-04-18T14:51:33.906Z</time></trkpt><trkpt lat="44.1154124" lon="12.1528269"><ele>300.2857142857143</ele><time>2026-04-18T14:51:35.905Z</time></trkpt><trkpt lat="44.1153534" lon="12.1527593"><ele>301.7142857142857</ele><time>2026-04-18T14:51:38.907Z</time></trkpt><trkpt lat="44.1152895" lon="12.1527016"><ele>303.14285714285717</ele><time>2026-04-18T14:51:42.938Z</time></trkpt><trkpt lat="44.1152378" lon="12.1526223"><ele>304.57142857142856</ele><time>2026-04-18T14:51:46.913Z</time></trkpt><trkpt lat="44.1152085" lon="12.1525274"><ele>306.0</ele><time>2026-04-18T14:51:50.911Z</time></trkpt><trkpt lat="44.1152054" lon="12.1524161"><ele>306.0</ele><time>2026-04-18T14:51:55.907Z</time></trkpt><trkpt lat="44.1151692" lon="12.1523199"><ele>306.0</ele><time>2026-04-18T14:52:05.909Z</time></trkpt><trkpt lat="44.1151375" lon="12.1522375"><ele>306.0</ele><time>2026-04-18T14:52:08.908Z</time></trkpt><trkpt lat="44.1151174" lon="12.1521327"><ele>306.0</ele><time>2026-04-18T14:52:11.91Z</time></trkpt><trkpt lat="44.1150957" lon="12.1520463"><ele>306.0</ele><time>2026-04-18T14:52:13.905Z</time></trkpt><trkpt lat="44.1150675" lon="12.151949"><ele>306.0</ele><time>2026-04-18T14:52:16.908Z</time></trkpt><trkpt lat="44.115036" lon="12.1518729"><ele>306.0</ele><time>2026-04-18T14:52:19.91Z</time></trkpt><trkpt lat="44.1149969" lon="12.151782"><ele>306.0</ele><time>2026-04-18T14:52:22.903Z</time></trkpt><trkpt lat="44.1149781" lon="12.1516665"><ele>306.0</ele><time>2026-04-18T14:52:26.909Z</time></trkpt><trkpt lat="44.1149699" lon="12.1515692"><ele>306.0</ele><time>2026-04-18T14:54:04.906Z</time></trkpt><trkpt lat="44.1150071" lon="12.1514906"><ele>306.0</ele><time>2026-04-18T14:54:09.909Z</time></trkpt><trkpt lat="44.1150543" lon="12.1514299"><ele>306.0</ele><time>2026-04-18T14:54:24.898Z</time></trkpt><trkpt lat="44.1150791" lon="12.1513456"><ele>306.0</ele><time>2026-04-18T14:54:29.906Z</time></trkpt><trkpt lat="44.115045" lon="12.1512555"><ele>306.0</ele><time>2026-04-18T14:54:34.902Z</time></trkpt><trkpt lat="44.1150137" lon="12.1511588"><ele>305.1428571428571</ele><time>2026-04-18T14:54:38.902Z</time></trkpt><trkpt lat="44.1149979" lon="12.1510714"><ele>304.2857142857143</ele><time>2026-04-18T14:54:41.904Z</time></trkpt><trkpt lat="44.1149986" lon="12.1509732"><ele>303.42857142857144</ele><time>2026-04-18T14:54:45.903Z</time></trkpt><trkpt lat="44.1150471" lon="12.1509098"><ele>302.57142857142856</ele><time>2026-04-18T14:54:55.91Z</time></trkpt><trkpt lat="44.1150592" lon="12.15082"><ele>301.7142857142857</ele><time>2026-04-18T14:55:01.913Z</time></trkpt><trkpt lat="44.1150459" lon="12.1507131"><ele>300.85714285714283</ele><time>2026-04-18T14:55:05.911Z</time></trkpt><trkpt lat="44.1151017" lon="12.1506432"><ele>300.0</ele><time>2026-04-18T14:55:10.909Z</time></trkpt><trkpt lat="44.1151525" lon="12.1505675"><ele>298.6666666666667</ele><time>2026-04-18T14:55:14.915Z</time></trkpt><trkpt lat="44.1152049" lon="12.1504596"><ele>297.3333333333333</ele><time>2026-04-18T14:55:17.919Z</time></trkpt><trkpt lat="44.115259" lon="12.150372"><ele>296.0</ele><time>2026-04-18T14:55:19.915Z</time></trkpt><trkpt lat="44.1153205" lon="12.1502745"><ele>294.66666666666663</ele><time>2026-04-18T14:55:21.909Z</time></trkpt><trkpt lat="44.1153726" lon="12.1501765"><ele>293.3333333333333</ele><time>2026-04-18T14:55:23.91Z</time></trkpt><trkpt lat="44.1154288" lon="12.1500833"><ele>292.0</ele><time>2026-04-18T14:55:25.912Z</time></trkpt><trkpt lat="44.1154753" lon="12.1499909"><ele>292.0</ele><time>2026-04-18T14:55:27.912Z</time></trkpt><trkpt lat="44.1155182" lon="12.1498909"><ele>292.0</ele><time>2026-04-18T14:55:29.913Z</time></trkpt><trkpt lat="44.1155564" lon="12.1497801"><ele>292.0</ele><time>2026-04-18T14:55:31.909Z</time></trkpt><trkpt lat="44.1155983" lon="12.1496701"><ele>292.0</ele><time>2026-04-18T14:55:33.911Z</time></trkpt><trkpt lat="44.1156449" lon="12.149564"><ele>292.0</ele><time>2026-04-18T14:55:35.904Z</time></trkpt><trkpt lat="44.1157059" lon="12.1494467"><ele>291.6</ele><time>2026-04-18T14:55:37.912Z</time></trkpt><trkpt lat="44.1157675" lon="12.1493308"><ele>291.2</ele><time>2026-04-18T14:55:39.906Z</time></trkpt><trkpt lat="44.1158282" lon="12.1492296"><ele>290.8</ele><time>2026-04-18T14:55:41.906Z</time></trkpt><trkpt lat="44.1158964" lon="12.1491173"><ele>290.4</ele><time>2026-04-18T14:55:43.896Z</time></trkpt><trkpt lat="44.1159592" lon="12.1489849"><ele>290.0</ele><time>2026-04-18T14:55:45.903Z</time></trkpt><trkpt lat="44.1160091" lon="12.1488386"><ele>289.0</ele><time>2026-04-18T14:55:47.899Z</time></trkpt><trkpt lat="44.1160262" lon="12.1486664"><ele>288.0</ele><time>2026-04-18T14:55:49.918Z</time></trkpt><trkpt lat="44.1160031" lon="12.1484922"><ele>287.0</ele><time>2026-04-18T14:55:51.912Z</time></trkpt><trkpt lat="44.1159896" lon="12.1484027"><ele>286.0</ele><time>2026-04-18T14:55:52.91Z</time></trkpt><trkpt lat="44.1159708" lon="12.1483111"><ele>285.0</ele><time>2026-04-18T14:55:53.906Z</time></trkpt><trkpt lat="44.115955" lon="12.1482246"><ele>285.1666666666667</ele><time>2026-04-18T14:55:54.908Z</time></trkpt><trkpt lat="44.1159365" lon="12.1480539"><ele>285.3333333333333</ele><time>2026-04-18T14:55:56.902Z</time></trkpt><trkpt lat="44.1159242" lon="12.1479603"><ele>285.5</ele><time>2026-04-18T14:55:57.905Z</time></trkpt><trkpt lat="44.1159089" lon="12.1478693"><ele>285.66666666666663</ele><time>2026-04-18T14:55:58.9Z</time></trkpt><trkpt lat="44.115896" lon="12.1477759"><ele>285.8333333333333</ele><time>2026-04-18T14:55:59.904Z</time></trkpt><trkpt lat="44.1158894" lon="12.1476834"><ele>286.0</ele><time>2026-04-18T14:56:00.908Z</time></trkpt><trkpt lat="44.1158805" lon="12.1475904"><ele>285.99999999999994</ele><time>2026-04-18T14:56:01.909Z</time></trkpt><trkpt lat="44.1158659" lon="12.1474967"><ele>286.0</ele><time>2026-04-18T14:56:02.904Z</time></trkpt><trkpt lat="44.1158451" lon="12.1474071"><ele>286.0</ele><time>2026-04-18T14:56:03.898Z</time></trkpt><trkpt lat="44.1158265" lon="12.147312"><ele>286.0</ele><time>2026-04-18T14:56:04.893Z</time></trkpt><trkpt lat="44.1158118" lon="12.1472143"><ele>286.0</ele><time>2026-04-18T14:56:05.895Z</time></trkpt><trkpt lat="44.1158059" lon="12.1471164"><ele>285.99999999999994</ele><time>2026-04-18T14:56:06.897Z</time></trkpt><trkpt lat="44.1157998" lon="12.1470148"><ele>286.0</ele><time>2026-04-18T14:56:07.896Z</time></trkpt><trkpt lat="44.1157963" lon="12.146909"><ele>285.8</ele><time>2026-04-18T14:56:08.899Z</time></trkpt><trkpt lat="44.1157925" lon="12.1468054"><ele>285.6</ele><time>2026-04-18T14:56:09.903Z</time></trkpt><trkpt lat="44.1157906" lon="12.1467112"><ele>285.4</ele><time>2026-04-18T14:56:10.894Z</time></trkpt><trkpt lat="44.1157927" lon="12.146621"><ele>285.2</ele><time>2026-04-18T14:56:11.899Z</time></trkpt><trkpt lat="44.1157892" lon="12.1464495"><ele>285.0</ele><time>2026-04-18T14:56:13.894Z</time></trkpt><trkpt lat="44.1157353" lon="12.1462995"><ele>284.6</ele><time>2026-04-18T14:56:15.895Z</time></trkpt><trkpt lat="44.1156708" lon="12.1461763"><ele>284.2</ele><time>2026-04-18T14:56:17.894Z</time></trkpt><trkpt lat="44.1156174" lon="12.1460594"><ele>283.8</ele><time>2026-04-18T14:56:19.907Z</time></trkpt><trkpt lat="44.1155655" lon="12.1459345"><ele>283.4</ele><time>2026-04-18T14:56:21.906Z</time></trkpt><trkpt lat="44.1155222" lon="12.1458116"><ele>283.0</ele><time>2026-04-18T14:56:23.884Z</time></trkpt><trkpt lat="44.1154921" lon="12.1456965"><ele>283.0</ele><time>2026-04-18T14:56:25.881Z</time></trkpt><trkpt lat="44.1154803" lon="12.1455874"><ele>283.0</ele><time>2026-04-18T14:56:27.893Z</time></trkpt><trkpt lat="44.1154609" lon="12.1454694"><ele>283.0</ele><time>2026-04-18T14:56:29.897Z</time></trkpt><trkpt lat="44.1154509" lon="12.1453686"><ele>283.0</ele><time>2026-04-18T14:56:31.902Z</time></trkpt><trkpt lat="44.1154306" lon="12.1452736"><ele>283.0</ele><time>2026-04-18T14:56:33.899Z</time></trkpt><trkpt lat="44.115419" lon="12.1451655"><ele>283.0</ele><time>2026-04-18T14:56:35.903Z</time></trkpt><trkpt lat="44.1154023" lon="12.1450557"><ele>283.0</ele><time>2026-04-18T14:56:37.903Z</time></trkpt><trkpt lat="44.115378" lon="12.1449502"><ele>283.0</ele><time>2026-04-18T14:56:39.904Z</time></trkpt><trkpt lat="44.1153646" lon="12.1448407"><ele>283.0</ele><time>2026-04-18T14:56:41.894Z</time></trkpt><trkpt lat="44.1153381" lon="12.144731"><ele>283.0</ele><time>2026-04-18T14:56:43.898Z</time></trkpt><trkpt lat="44.1152898" lon="12.1446165"><ele>283.0</ele><time>2026-04-18T14:56:45.9Z</time></trkpt><trkpt lat="44.11525" lon="12.1445239"><ele>283.0</ele><time>2026-04-18T14:56:47.897Z</time></trkpt><trkpt lat="44.1151987" lon="12.1444488"><ele>284.2</ele><time>2026-04-18T14:56:49.899Z</time></trkpt><trkpt lat="44.1151371" lon="12.1443856"><ele>285.4</ele><time>2026-04-18T14:56:51.897Z</time></trkpt><trkpt lat="44.1150533" lon="12.1443214"><ele>286.59999999999997</ele><time>2026-04-18T14:56:53.896Z</time></trkpt><trkpt lat="44.1149653" lon="12.1442623"><ele>287.8</ele><time>2026-04-18T14:56:55.902Z</time></trkpt><trkpt lat="44.1148748" lon="12.1442143"><ele>289.0</ele><time>2026-04-18T14:56:57.909Z</time></trkpt><trkpt lat="44.1147924" lon="12.1441666"><ele>289.0</ele><time>2026-04-18T14:56:59.903Z</time></trkpt><trkpt lat="44.1147069" lon="12.1441188"><ele>289.0</ele><time>2026-04-18T14:57:01.902Z</time></trkpt><trkpt lat="44.1146211" lon="12.144073"><ele>289.0</ele><time>2026-04-18T14:57:03.902Z</time></trkpt><trkpt lat="44.1145304" lon="12.1440032"><ele>289.0</ele><time>2026-04-18T14:57:05.896Z</time></trkpt><trkpt lat="44.1144677" lon="12.1438837"><ele>289.0</ele><time>2026-04-18T14:57:07.898Z</time></trkpt><trkpt lat="44.114453" lon="12.1437423"><ele>289.3333333333333</ele><time>2026-04-18T14:57:09.895Z</time></trkpt><trkpt lat="44.1144734" lon="12.1436339"><ele>289.66666666666663</ele><time>2026-04-18T14:57:11.9Z</time></trkpt><trkpt lat="44.1145029" lon="12.1435215"><ele>290.0</ele><time>2026-04-18T14:57:13.911Z</time></trkpt><trkpt lat="44.1145232" lon="12.1434334"><ele>290.3333333333333</ele><time>2026-04-18T14:57:15.904Z</time></trkpt><trkpt lat="44.1145341" lon="12.143328"><ele>290.6666666666667</ele><time>2026-04-18T14:57:17.912Z</time></trkpt><trkpt lat="44.1145581" lon="12.1432134"><ele>291.0</ele><time>2026-04-18T14:57:19.918Z</time></trkpt><trkpt lat="44.114577" lon="12.1430939"><ele>291.0</ele><time>2026-04-18T14:57:21.925Z</time></trkpt><trkpt lat="44.1145996" lon="12.1429404"><ele>291.0</ele><time>2026-04-18T14:57:23.905Z</time></trkpt><trkpt lat="44.1146262" lon="12.1427806"><ele>291.0</ele><time>2026-04-18T14:57:25.896Z</time></trkpt><trkpt lat="44.1146494" lon="12.1426226"><ele>291.0</ele><time>2026-04-18T14:57:27.891Z</time></trkpt><trkpt lat="44.1146593" lon="12.1425335"><ele>291.0</ele><time>2026-04-18T14:57:28.909Z</time></trkpt><trkpt lat="44.1146596" lon="12.1424372"><ele>292.40000000000003</ele><time>2026-04-18T14:57:29.905Z</time></trkpt><trkpt lat="44.1146135" lon="12.1423497"><ele>293.8</ele><time>2026-04-18T14:57:30.907Z</time></trkpt><trkpt lat="44.1145288" lon="12.1422816"><ele>295.20000000000005</ele><time>2026-04-18T14:57:31.895Z</time></trkpt><trkpt lat="44.114439" lon="12.1422172"><ele>296.6</ele><time>2026-04-18T14:57:32.889Z</time></trkpt><trkpt lat="44.1143596" lon="12.1421499"><ele>298.0</ele><time>2026-04-18T14:57:33.888Z</time></trkpt><trkpt lat="44.1142838" lon="12.1420798"><ele>298.0</ele><time>2026-04-18T14:57:34.882Z</time></trkpt><trkpt lat="44.1142038" lon="12.1420064"><ele>298.0</ele><time>2026-04-18T14:57:35.888Z</time></trkpt><trkpt lat="44.114125" lon="12.1419322"><ele>298.0</ele><time>2026-04-18T14:57:36.874Z</time></trkpt><trkpt lat="44.1140428" lon="12.1418592"><ele>298.0</ele><time>2026-04-18T14:57:37.882Z</time></trkpt><trkpt lat="44.1139591" lon="12.1417849"><ele>298.0</ele><time>2026-04-18T14:57:38.878Z</time></trkpt><trkpt lat="44.1138805" lon="12.1417019"><ele>296.4</ele><time>2026-04-18T14:57:39.877Z</time></trkpt><trkpt lat="44.1137997" lon="12.1416225"><ele>294.8</ele><time>2026-04-18T14:57:40.884Z</time></trkpt><trkpt lat="44.1137211" lon="12.1415394"><ele>293.2</ele><time>2026-04-18T14:57:41.879Z</time></trkpt><trkpt lat="44.1136428" lon="12.1414512"><ele>291.6</ele><time>2026-04-18T14:57:42.888Z</time></trkpt><trkpt lat="44.1135612" lon="12.1413762"><ele>290.0</ele><time>2026-04-18T14:57:43.883Z</time></trkpt><trkpt lat="44.1134797" lon="12.1413182"><ele>290.0</ele><time>2026-04-18T14:57:44.883Z</time></trkpt><trkpt lat="44.1133913" lon="12.1412807"><ele>290.0</ele><time>2026-04-18T14:57:45.885Z</time></trkpt><trkpt lat="44.1133009" lon="12.1412702"><ele>290.0</ele><time>2026-04-18T14:57:46.893Z</time></trkpt><trkpt lat="44.1132012" lon="12.1412808"><ele>290.0</ele><time>2026-04-18T14:57:47.895Z</time></trkpt><trkpt lat="44.1131047" lon="12.1413049"><ele>290.0</ele><time>2026-04-18T14:57:48.879Z</time></trkpt><trkpt lat="44.113009" lon="12.141305"><ele>290.8</ele><time>2026-04-18T14:57:49.9Z</time></trkpt><trkpt lat="44.1129089" lon="12.1413143"><ele>291.6</ele><time>2026-04-18T14:57:50.879Z</time></trkpt><trkpt lat="44.1128081" lon="12.1413187"><ele>292.4</ele><time>2026-04-18T14:57:51.887Z</time></trkpt><trkpt lat="44.1127114" lon="12.1413162"><ele>293.2</ele><time>2026-04-18T14:57:52.909Z</time></trkpt><trkpt lat="44.1126191" lon="12.1413226"><ele>294.0</ele><time>2026-04-18T14:57:53.891Z</time></trkpt><trkpt lat="44.1125259" lon="12.1413379"><ele>294.0</ele><time>2026-04-18T14:57:54.887Z</time></trkpt><trkpt lat="44.1124344" lon="12.1413673"><ele>294.0</ele><time>2026-04-18T14:57:55.889Z</time></trkpt><trkpt lat="44.1123468" lon="12.141425"><ele>294.0</ele><time>2026-04-18T14:57:56.887Z</time></trkpt><trkpt lat="44.1122745" lon="12.1415079"><ele>294.0</ele><time>2026-04-18T14:57:57.896Z</time></trkpt><trkpt lat="44.1122092" lon="12.1416083"><ele>294.0</ele><time>2026-04-18T14:57:58.892Z</time></trkpt><trkpt lat="44.1121508" lon="12.1416977"><ele>292.0</ele><time>2026-04-18T14:57:59.883Z</time></trkpt><trkpt lat="44.1120761" lon="12.1417977"><ele>290.0</ele><time>2026-04-18T14:58:00.887Z</time></trkpt><trkpt lat="44.1119952" lon="12.1418812"><ele>288.0</ele><time>2026-04-18T14:58:01.893Z</time></trkpt><trkpt lat="44.1119121" lon="12.1419452"><ele>286.0</ele><time>2026-04-18T14:58:02.898Z</time></trkpt><trkpt lat="44.1118313" lon="12.1419991"><ele>284.0</ele><time>2026-04-18T14:58:03.9Z</time></trkpt><trkpt lat="44.1117409" lon="12.1420224"><ele>284.0</ele><time>2026-04-18T14:58:04.89Z</time></trkpt><trkpt lat="44.1116487" lon="12.1420183"><ele>284.0</ele><time>2026-04-18T14:58:05.898Z</time></trkpt><trkpt lat="44.1115621" lon="12.1420057"><ele>284.0</ele><time>2026-04-18T14:58:06.898Z</time></trkpt><trkpt lat="44.1114796" lon="12.1419787"><ele>284.0</ele><time>2026-04-18T14:58:07.893Z</time></trkpt><trkpt lat="44.1113961" lon="12.1419466"><ele>284.0</ele><time>2026-04-18T14:58:08.888Z</time></trkpt><trkpt lat="44.1113148" lon="12.1419158"><ele>284.0</ele><time>2026-04-18T14:58:09.898Z</time></trkpt><trkpt lat="44.1112377" lon="12.1418818"><ele>282.83333333333337</ele><time>2026-04-18T14:58:10.891Z</time></trkpt><trkpt lat="44.1111628" lon="12.1418471"><ele>281.6666666666667</ele><time>2026-04-18T14:58:11.899Z</time></trkpt><trkpt lat="44.1110873" lon="12.1418121"><ele>280.5</ele><time>2026-04-18T14:58:12.89Z</time></trkpt><trkpt lat="44.1110092" lon="12.1417767"><ele>279.3333333333333</ele><time>2026-04-18T14:58:13.9Z</time></trkpt><trkpt lat="44.1109348" lon="12.1417496"><ele>278.16666666666663</ele><time>2026-04-18T14:58:14.896Z</time></trkpt><trkpt lat="44.1108601" lon="12.1417213"><ele>277.0</ele><time>2026-04-18T14:58:15.899Z</time></trkpt><trkpt lat="44.1107843" lon="12.1416924"><ele>276.85714285714283</ele><time>2026-04-18T14:58:16.904Z</time></trkpt><trkpt lat="44.1107113" lon="12.1416707"><ele>276.71428571428567</ele><time>2026-04-18T14:58:17.905Z</time></trkpt><trkpt lat="44.1106394" lon="12.1416525"><ele>276.57142857142856</ele><time>2026-04-18T14:58:18.895Z</time></trkpt><trkpt lat="44.110568" lon="12.141637"><ele>276.42857142857144</ele><time>2026-04-18T14:58:19.91Z</time></trkpt><trkpt lat="44.1105021" lon="12.1416258"><ele>276.28571428571433</ele><time>2026-04-18T14:58:20.902Z</time></trkpt><trkpt lat="44.1104328" lon="12.1416122"><ele>276.14285714285717</ele><time>2026-04-18T14:58:21.895Z</time></trkpt><trkpt lat="44.1103664" lon="12.1416004"><ele>276.0</ele><time>2026-04-18T14:58:22.898Z</time></trkpt><trkpt lat="44.110301" lon="12.1415908"><ele>276.0</ele><time>2026-04-18T14:58:23.917Z</time></trkpt><trkpt lat="44.1101803" lon="12.1415726"><ele>276.0</ele><time>2026-04-18T14:58:25.911Z</time></trkpt><trkpt lat="44.1100628" lon="12.1415598"><ele>276.0</ele><time>2026-04-18T14:58:27.899Z</time></trkpt><trkpt lat="44.1099404" lon="12.1415462"><ele>276.0</ele><time>2026-04-18T14:58:29.904Z</time></trkpt><trkpt lat="44.109826" lon="12.1415272"><ele>274.40000000000003</ele><time>2026-04-18T14:58:31.91Z</time></trkpt><trkpt lat="44.1097081" lon="12.1414987"><ele>272.8</ele><time>2026-04-18T14:58:33.897Z</time></trkpt><trkpt lat="44.1095901" lon="12.141475"><ele>271.20000000000005</ele><time>2026-04-18T14:58:35.89Z</time></trkpt><trkpt lat="44.1094886" lon="12.1414326"><ele>269.6</ele><time>2026-04-18T14:58:37.892Z</time></trkpt><trkpt lat="44.1093911" lon="12.1414023"><ele>268.0</ele><time>2026-04-18T14:58:39.904Z</time></trkpt><trkpt lat="44.1093022" lon="12.1413897"><ele>268.0</ele><time>2026-04-18T14:58:41.903Z</time></trkpt><trkpt lat="44.109232" lon="12.1413685"><ele>268.0</ele><time>2026-04-18T14:58:43.912Z</time></trkpt><trkpt lat="44.1091593" lon="12.1413725"><ele>268.0</ele><time>2026-04-18T14:58:45.909Z</time></trkpt><trkpt lat="44.1090739" lon="12.1413764"><ele>268.0</ele><time>2026-04-18T14:58:47.909Z</time></trkpt><trkpt lat="44.1089909" lon="12.1413843"><ele>268.0</ele><time>2026-04-18T14:58:49.909Z</time></trkpt><trkpt lat="44.108897" lon="12.1413897"><ele>268.0</ele><time>2026-04-18T14:58:51.905Z</time></trkpt><trkpt lat="44.1087984" lon="12.1414071"><ele>267.16666666666663</ele><time>2026-04-18T14:58:53.906Z</time></trkpt><trkpt lat="44.1086887" lon="12.1414286"><ele>266.3333333333333</ele><time>2026-04-18T14:58:55.907Z</time></trkpt><trkpt lat="44.1085711" lon="12.1414492"><ele>265.5</ele><time>2026-04-18T14:58:57.909Z</time></trkpt><trkpt lat="44.108507" lon="12.1414616"><ele>264.6666666666667</ele><time>2026-04-18T14:58:58.911Z</time></trkpt><trkpt lat="44.1084381" lon="12.1414738"><ele>263.83333333333337</ele><time>2026-04-18T14:58:59.907Z</time></trkpt><trkpt lat="44.1083701" lon="12.1414854"><ele>263.0</ele><time>2026-04-18T14:59:00.908Z</time></trkpt><trkpt lat="44.1083015" lon="12.1415015"><ele>264.2857142857143</ele><time>2026-04-18T14:59:01.908Z</time></trkpt><trkpt lat="44.1082326" lon="12.1415141"><ele>265.57142857142856</ele><time>2026-04-18T14:59:02.909Z</time></trkpt><trkpt lat="44.108163" lon="12.1415281"><ele>266.85714285714283</ele><time>2026-04-18T14:59:03.905Z</time></trkpt><trkpt lat="44.1080948" lon="12.1415434"><ele>268.1428571428571</ele><time>2026-04-18T14:59:04.91Z</time></trkpt><trkpt lat="44.1080248" lon="12.1415638"><ele>269.42857142857144</ele><time>2026-04-18T14:59:05.908Z</time></trkpt><trkpt lat="44.1079528" lon="12.1415837"><ele>270.71428571428567</ele><time>2026-04-18T14:59:06.906Z</time></trkpt><trkpt lat="44.1078843" lon="12.1416004"><ele>272.0</ele><time>2026-04-18T14:59:07.901Z</time></trkpt><trkpt lat="44.1078177" lon="12.1416141"><ele>272.0</ele><time>2026-04-18T14:59:08.904Z</time></trkpt><trkpt lat="44.1077514" lon="12.1416322"><ele>272.0</ele><time>2026-04-18T14:59:09.909Z</time></trkpt><trkpt lat="44.1076248" lon="12.1416818"><ele>272.0</ele><time>2026-04-18T14:59:11.909Z</time></trkpt><trkpt lat="44.1075591" lon="12.1417106"><ele>272.0</ele><time>2026-04-18T14:59:12.908Z</time></trkpt><trkpt lat="44.1074893" lon="12.1417366"><ele>272.0</ele><time>2026-04-18T14:59:13.902Z</time></trkpt><trkpt lat="44.1074186" lon="12.1417597"><ele>272.0</ele><time>2026-04-18T14:59:14.905Z</time></trkpt><trkpt lat="44.1073502" lon="12.1417842"><ele>271.1666666666667</ele><time>2026-04-18T14:59:15.905Z</time></trkpt><trkpt lat="44.1072763" lon="12.1418102"><ele>270.33333333333337</ele><time>2026-04-18T14:59:16.905Z</time></trkpt><trkpt lat="44.1071943" lon="12.1418263"><ele>269.5</ele><time>2026-04-18T14:59:17.894Z</time></trkpt><trkpt lat="44.1071097" lon="12.1418253"><ele>268.6666666666667</ele><time>2026-04-18T14:59:18.919Z</time></trkpt><trkpt lat="44.1070156" lon="12.1418219"><ele>267.8333333333333</ele><time>2026-04-18T14:59:19.908Z</time></trkpt><trkpt lat="44.1069195" lon="12.1418033"><ele>267.0</ele><time>2026-04-18T14:59:20.909Z</time></trkpt><trkpt lat="44.1068208" lon="12.1417832"><ele>267.0</ele><time>2026-04-18T14:59:21.904Z</time></trkpt><trkpt lat="44.106726" lon="12.1417374"><ele>267.0</ele><time>2026-04-18T14:59:22.912Z</time></trkpt><trkpt lat="44.106631" lon="12.1416852"><ele>267.0</ele><time>2026-04-18T14:59:23.903Z</time></trkpt><trkpt lat="44.1065371" lon="12.1416328"><ele>267.0</ele><time>2026-04-18T14:59:24.894Z</time></trkpt><trkpt lat="44.1064468" lon="12.1415798"><ele>267.0</ele><time>2026-04-18T14:59:25.918Z</time></trkpt><trkpt lat="44.1063565" lon="12.1415332"><ele>267.4</ele><time>2026-04-18T14:59:26.905Z</time></trkpt><trkpt lat="44.1062673" lon="12.1415016"><ele>267.79999999999995</ele><time>2026-04-18T14:59:27.897Z</time></trkpt><trkpt lat="44.1061708" lon="12.1415002"><ele>268.2</ele><time>2026-04-18T14:59:28.899Z</time></trkpt><trkpt lat="44.106077" lon="12.1415133"><ele>268.59999999999997</ele><time>2026-04-18T14:59:29.899Z</time></trkpt><trkpt lat="44.1059889" lon="12.1415305"><ele>269.0</ele><time>2026-04-18T14:59:30.897Z</time></trkpt><trkpt lat="44.1059072" lon="12.1415457"><ele>268.8571428571429</ele><time>2026-04-18T14:59:31.903Z</time></trkpt><trkpt lat="44.1058327" lon="12.1415559"><ele>268.7142857142857</ele><time>2026-04-18T14:59:32.91Z</time></trkpt><trkpt lat="44.105763" lon="12.1415764"><ele>268.57142857142856</ele><time>2026-04-18T14:59:33.908Z</time></trkpt><trkpt lat="44.105694" lon="12.1415979"><ele>268.42857142857144</ele><time>2026-04-18T14:59:34.913Z</time></trkpt><trkpt lat="44.1056285" lon="12.1416152"><ele>268.2857142857143</ele><time>2026-04-18T14:59:35.915Z</time></trkpt><trkpt lat="44.1055617" lon="12.1416482"><ele>268.14285714285717</ele><time>2026-04-18T14:59:36.916Z</time></trkpt><trkpt lat="44.105496" lon="12.1416854"><ele>268.0</ele><time>2026-04-18T14:59:37.918Z</time></trkpt><trkpt lat="44.1053878" lon="12.1417426"><ele>268.0</ele><time>2026-04-18T14:59:39.914Z</time></trkpt><trkpt lat="44.1052999" lon="12.1418014"><ele>268.0</ele><time>2026-04-18T14:59:41.917Z</time></trkpt><trkpt lat="44.1052063" lon="12.1418509"><ele>268.0</ele><time>2026-04-18T14:59:43.913Z</time></trkpt><trkpt lat="44.105128" lon="12.1418998"><ele>268.0</ele><time>2026-04-18T14:59:45.922Z</time></trkpt><trkpt lat="44.1050516" lon="12.1419556"><ele>268.0</ele><time>2026-04-18T14:59:47.914Z</time></trkpt><trkpt lat="44.1049817" lon="12.1420234"><ele>269.16666666666663</ele><time>2026-04-18T14:59:49.918Z</time></trkpt><trkpt lat="44.1049045" lon="12.1420895"><ele>270.3333333333333</ele><time>2026-04-18T14:59:51.915Z</time></trkpt><trkpt lat="44.1048295" lon="12.1421392"><ele>271.5</ele><time>2026-04-18T14:59:53.918Z</time></trkpt><trkpt lat="44.1047496" lon="12.142182"><ele>272.6666666666667</ele><time>2026-04-18T14:59:55.929Z</time></trkpt><trkpt lat="44.1046697" lon="12.1422067"><ele>273.83333333333337</ele><time>2026-04-18T14:59:57.921Z</time></trkpt><trkpt lat="44.1045893" lon="12.1422101"><ele>275.0</ele><time>2026-04-18T14:59:59.916Z</time></trkpt><trkpt lat="44.1045089" lon="12.1422162"><ele>275.0</ele><time>2026-04-18T15:00:01.914Z</time></trkpt><trkpt lat="44.1044333" lon="12.1422197"><ele>275.0</ele><time>2026-04-18T15:00:03.923Z</time></trkpt><trkpt lat="44.1043643" lon="12.1422161"><ele>275.0</ele><time>2026-04-18T15:00:05.914Z</time></trkpt><trkpt lat="44.1042895" lon="12.1422197"><ele>275.0</ele><time>2026-04-18T15:00:07.916Z</time></trkpt><trkpt lat="44.1042141" lon="12.1422182"><ele>275.0</ele><time>2026-04-18T15:00:09.913Z</time></trkpt><trkpt lat="44.1041327" lon="12.1422018"><ele>275.0</ele><time>2026-04-18T15:00:11.918Z</time></trkpt><trkpt lat="44.1040611" lon="12.1421907"><ele>275.0</ele><time>2026-04-18T15:00:13.915Z</time></trkpt><trkpt lat="44.1039788" lon="12.1421832"><ele>274.0</ele><time>2026-04-18T15:00:15.91Z</time></trkpt><trkpt lat="44.103896" lon="12.1421719"><ele>273.0</ele><time>2026-04-18T15:00:17.918Z</time></trkpt><trkpt lat="44.1038149" lon="12.1421778"><ele>272.0</ele><time>2026-04-18T15:00:19.918Z</time></trkpt><trkpt lat="44.1037252" lon="12.1421866"><ele>271.0</ele><time>2026-04-18T15:00:21.921Z</time></trkpt><trkpt lat="44.1036366" lon="12.1421884"><ele>270.0</ele><time>2026-04-18T15:00:23.926Z</time></trkpt><trkpt lat="44.103552" lon="12.1421958"><ele>269.0</ele><time>2026-04-18T15:00:25.93Z</time></trkpt><trkpt lat="44.1034693" lon="12.1422123"><ele>269.0</ele><time>2026-04-18T15:00:27.945Z</time></trkpt><trkpt lat="44.1033912" lon="12.1422286"><ele>269.0</ele><time>2026-04-18T15:00:29.922Z</time></trkpt><trkpt lat="44.1033142" lon="12.1422495"><ele>269.0</ele><time>2026-04-18T15:00:31.928Z</time></trkpt><trkpt lat="44.1032415" lon="12.1422623"><ele>269.0</ele><time>2026-04-18T15:00:33.932Z</time></trkpt><trkpt lat="44.103172" lon="12.1422796"><ele>269.0</ele><time>2026-04-18T15:00:35.928Z</time></trkpt><trkpt lat="44.1031005" lon="12.1423082"><ele>269.0</ele><time>2026-04-18T15:00:37.935Z</time></trkpt><trkpt lat="44.1030264" lon="12.1423329"><ele>269.0</ele><time>2026-04-18T15:00:39.933Z</time></trkpt><trkpt lat="44.1029483" lon="12.1423546"><ele>269.0</ele><time>2026-04-18T15:00:41.924Z</time></trkpt><trkpt lat="44.1028711" lon="12.1423721"><ele>269.0</ele><time>2026-04-18T15:00:43.922Z</time></trkpt><trkpt lat="44.1028012" lon="12.1423936"><ele>269.0</ele><time>2026-04-18T15:00:45.939Z</time></trkpt><trkpt lat="44.1027236" lon="12.1424104"><ele>269.0</ele><time>2026-04-18T15:00:47.93Z</time></trkpt><trkpt lat="44.1026455" lon="12.142432"><ele>269.0</ele><time>2026-04-18T15:00:49.918Z</time></trkpt><trkpt lat="44.1025653" lon="12.1424575"><ele>269.0</ele><time>2026-04-18T15:00:51.925Z</time></trkpt><trkpt lat="44.1024849" lon="12.1424817"><ele>269.0</ele><time>2026-04-18T15:00:53.924Z</time></trkpt><trkpt lat="44.1024029" lon="12.1425112"><ele>269.0</ele><time>2026-04-18T15:00:55.926Z</time></trkpt><trkpt lat="44.1023096" lon="12.1425381"><ele>269.0</ele><time>2026-04-18T15:00:57.925Z</time></trkpt><trkpt lat="44.1022075" lon="12.142562"><ele>269.0</ele><time>2026-04-18T15:00:59.923Z</time></trkpt><trkpt lat="44.1020954" lon="12.1426141"><ele>270.8</ele><time>2026-04-18T15:01:01.908Z</time></trkpt><trkpt lat="44.1020225" lon="12.1427091"><ele>272.59999999999997</ele><time>2026-04-18T15:01:03.912Z</time></trkpt><trkpt lat="44.10197" lon="12.1428308"><ele>274.4</ele><time>2026-04-18T15:01:05.916Z</time></trkpt><trkpt lat="44.1018996" lon="12.1429472"><ele>276.2</ele><time>2026-04-18T15:01:07.918Z</time></trkpt><trkpt lat="44.101821" lon="12.1430623"><ele>278.0</ele><time>2026-04-18T15:01:09.924Z</time></trkpt><trkpt lat="44.1017388" lon="12.1431773"><ele>278.0</ele><time>2026-04-18T15:01:11.917Z</time></trkpt><trkpt lat="44.1016676" lon="12.1432854"><ele>278.0</ele><time>2026-04-18T15:01:13.916Z</time></trkpt><trkpt lat="44.1016238" lon="12.1433684"><ele>278.0</ele><time>2026-04-18T15:01:15.918Z</time></trkpt><trkpt lat="44.1015743" lon="12.1434743"><ele>278.0</ele><time>2026-04-18T15:01:18.917Z</time></trkpt><trkpt lat="44.1015421" lon="12.143556"><ele>278.0</ele><time>2026-04-18T15:01:20.927Z</time></trkpt><trkpt lat="44.1014971" lon="12.1436709"><ele>278.0</ele><time>2026-04-18T15:01:23.917Z</time></trkpt><trkpt lat="44.101471" lon="12.1437898"><ele>282.5</ele><time>2026-04-18T15:01:26.914Z</time></trkpt><trkpt lat="44.1014359" lon="12.1438928"><ele>287.0</ele><time>2026-04-18T15:01:29.932Z</time></trkpt><trkpt lat="44.1013917" lon="12.1439876"><ele>291.5</ele><time>2026-04-18T15:01:32.922Z</time></trkpt><trkpt lat="44.1013598" lon="12.1440837"><ele>296.0</ele><time>2026-04-18T15:01:35.922Z</time></trkpt><trkpt lat="44.1013367" lon="12.1441886"><ele>300.5</ele><time>2026-04-18T15:01:38.92Z</time></trkpt><trkpt lat="44.1013082" lon="12.1442859"><ele>305.0</ele><time>2026-04-18T15:01:41.915Z</time></trkpt><trkpt lat="44.1012598" lon="12.1443814"><ele>304.83333333333337</ele><time>2026-04-18T15:01:44.92Z</time></trkpt><trkpt lat="44.1012061" lon="12.1444788"><ele>304.6666666666667</ele><time>2026-04-18T15:01:47.921Z</time></trkpt><trkpt lat="44.1011761" lon="12.1445691"><ele>304.5</ele><time>2026-04-18T15:01:50.913Z</time></trkpt><trkpt lat="44.1011516" lon="12.1446611"><ele>304.3333333333333</ele><time>2026-04-18T15:01:53.916Z</time></trkpt><trkpt lat="44.1011212" lon="12.1447484"><ele>304.16666666666663</ele><time>2026-04-18T15:01:56.918Z</time></trkpt><trkpt lat="44.1010785" lon="12.1448323"><ele>304.0</ele><time>2026-04-18T15:01:59.925Z</time></trkpt><trkpt lat="44.1010227" lon="12.1449338"><ele>304.0</ele><time>2026-04-18T15:02:02.924Z</time></trkpt><trkpt lat="44.1009812" lon="12.145"><ele>304.0</ele><time>2026-04-18T15:02:04.926Z</time></trkpt><trkpt lat="44.1009358" lon="12.1450817"><ele>304.0</ele><time>2026-04-18T15:02:07.922Z</time></trkpt><trkpt lat="44.1009091" lon="12.1451624"><ele>304.0</ele><time>2026-04-18T15:02:10.922Z</time></trkpt><trkpt lat="44.1008926" lon="12.1452569"><ele>304.0</ele><time>2026-04-18T15:02:13.925Z</time></trkpt><trkpt lat="44.1008952" lon="12.1453543"><ele>304.0</ele><time>2026-04-18T15:02:16.923Z</time></trkpt><trkpt lat="44.1009234" lon="12.1454382"><ele>304.0</ele><time>2026-04-18T15:02:19.93Z</time></trkpt><trkpt lat="44.1009612" lon="12.1455201"><ele>304.0</ele><time>2026-04-18T15:02:22.924Z</time></trkpt><trkpt lat="44.1009953" lon="12.1456001"><ele>304.0</ele><time>2026-04-18T15:02:25.931Z</time></trkpt><trkpt lat="44.1010198" lon="12.145697"><ele>304.0</ele><time>2026-04-18T15:02:28.927Z</time></trkpt><trkpt lat="44.1010513" lon="12.1457921"><ele>304.0</ele><time>2026-04-18T15:02:31.946Z</time></trkpt><trkpt lat="44.1010795" lon="12.1458824"><ele>304.0</ele><time>2026-04-18T15:02:34.934Z</time></trkpt><trkpt lat="44.1010948" lon="12.1459835"><ele>304.0</ele><time>2026-04-18T15:02:37.931Z</time></trkpt><trkpt lat="44.1010686" lon="12.1460792"><ele>304.0</ele><time>2026-04-18T15:02:40.931Z</time></trkpt><trkpt lat="44.1009962" lon="12.1461349"><ele>304.57142857142856</ele><time>2026-04-18T15:02:43.927Z</time></trkpt><trkpt lat="44.1009242" lon="12.1461466"><ele>305.14285714285717</ele><time>2026-04-18T15:02:46.921Z</time></trkpt><trkpt lat="44.1008465" lon="12.1461359"><ele>305.7142857142857</ele><time>2026-04-18T15:02:49.929Z</time></trkpt><trkpt lat="44.1007817" lon="12.1460922"><ele>306.2857142857143</ele><time>2026-04-18T15:02:52.925Z</time></trkpt><trkpt lat="44.100722" lon="12.1460128"><ele>306.8571428571429</ele><time>2026-04-18T15:02:55.952Z</time></trkpt><trkpt lat="44.1006949" lon="12.1459273"><ele>307.42857142857144</ele><time>2026-04-18T15:02:57.931Z</time></trkpt><trkpt lat="44.1006693" lon="12.1458269"><ele>308.0</ele><time>2026-04-18T15:02:59.933Z</time></trkpt><trkpt lat="44.1006322" lon="12.1457384"><ele>308.1666666666667</ele><time>2026-04-18T15:03:01.921Z</time></trkpt><trkpt lat="44.1005863" lon="12.1456514"><ele>308.33333333333337</ele><time>2026-04-18T15:03:03.93Z</time></trkpt><trkpt lat="44.1005423" lon="12.1455495"><ele>308.5</ele><time>2026-04-18T15:03:05.941Z</time></trkpt><trkpt lat="44.1005095" lon="12.1454403"><ele>308.6666666666667</ele><time>2026-04-18T15:03:07.938Z</time></trkpt><trkpt lat="44.1004799" lon="12.1453417"><ele>308.8333333333333</ele><time>2026-04-18T15:03:09.922Z</time></trkpt><trkpt lat="44.1004518" lon="12.1452584"><ele>309.0</ele><time>2026-04-18T15:03:11.925Z</time></trkpt><trkpt lat="44.1004154" lon="12.1451783"><ele>309.0</ele><time>2026-04-18T15:03:13.929Z</time></trkpt><trkpt lat="44.1003794" lon="12.145106"><ele>309.0</ele><time>2026-04-18T15:03:15.944Z</time></trkpt><trkpt lat="44.1003452" lon="12.1450283"><ele>309.0</ele><time>2026-04-18T15:03:17.936Z</time></trkpt><trkpt lat="44.1002992" lon="12.1449152"><ele>309.0</ele><time>2026-04-18T15:03:20.934Z</time></trkpt><trkpt lat="44.100252" lon="12.1448066"><ele>309.0</ele><time>2026-04-18T15:03:23.935Z</time></trkpt><trkpt lat="44.1002094" lon="12.1446968"><ele>309.0</ele><time>2026-04-18T15:03:26.934Z</time></trkpt><trkpt lat="44.1001753" lon="12.1445804"><ele>311.0</ele><time>2026-04-18T15:03:29.94Z</time></trkpt><trkpt lat="44.1001429" lon="12.1444661"><ele>313.0</ele><time>2026-04-18T15:03:32.93Z</time></trkpt><trkpt lat="44.1001119" lon="12.1443595"><ele>315.0</ele><time>2026-04-18T15:03:35.949Z</time></trkpt><trkpt lat="44.1000986" lon="12.1442686"><ele>317.0</ele><time>2026-04-18T15:03:38.941Z</time></trkpt><trkpt lat="44.1000838" lon="12.1441729"><ele>319.0</ele><time>2026-04-18T15:03:41.935Z</time></trkpt><trkpt lat="44.1000675" lon="12.1440729"><ele>321.0</ele><time>2026-04-18T15:03:44.94Z</time></trkpt><trkpt lat="44.1000483" lon="12.1439703"><ele>322.0</ele><time>2026-04-18T15:03:47.942Z</time></trkpt><trkpt lat="44.1000175" lon="12.1438831"><ele>323.0</ele><time>2026-04-18T15:03:50.936Z</time></trkpt><trkpt lat="44.099988" lon="12.1437892"><ele>324.0</ele><time>2026-04-18T15:03:53.937Z</time></trkpt><trkpt lat="44.0999442" lon="12.1437062"><ele>325.0</ele><time>2026-04-18T15:03:56.931Z</time></trkpt><trkpt lat="44.0998883" lon="12.1436206"><ele>326.0</ele><time>2026-04-18T15:03:59.942Z</time></trkpt><trkpt lat="44.0998481" lon="12.1435164"><ele>327.0</ele><time>2026-04-18T15:04:02.935Z</time></trkpt><trkpt lat="44.0997958" lon="12.1434192"><ele>327.1428571428571</ele><time>2026-04-18T15:04:05.953Z</time></trkpt><trkpt lat="44.0997416" lon="12.1433404"><ele>327.2857142857143</ele><time>2026-04-18T15:04:08.947Z</time></trkpt><trkpt lat="44.0996843" lon="12.1432496"><ele>327.42857142857144</ele><time>2026-04-18T15:04:11.941Z</time></trkpt><trkpt lat="44.0996392" lon="12.1431798"><ele>327.57142857142856</ele><time>2026-04-18T15:04:13.94Z</time></trkpt><trkpt lat="44.0995943" lon="12.1431105"><ele>327.7142857142857</ele><time>2026-04-18T15:04:15.952Z</time></trkpt><trkpt lat="44.0995472" lon="12.1430376"><ele>327.85714285714283</ele><time>2026-04-18T15:04:17.949Z</time></trkpt><trkpt lat="44.0995018" lon="12.1429737"><ele>328.0</ele><time>2026-04-18T15:04:19.947Z</time></trkpt><trkpt lat="44.0994368" lon="12.1428949"><ele>328.0</ele><time>2026-04-18T15:04:22.95Z</time></trkpt><trkpt lat="44.0993852" lon="12.1428336"><ele>328.0</ele><time>2026-04-18T15:04:24.949Z</time></trkpt><trkpt lat="44.0993297" lon="12.1427801"><ele>328.0</ele><time>2026-04-18T15:04:26.944Z</time></trkpt><trkpt lat="44.0992645" lon="12.1427173"><ele>328.0</ele><time>2026-04-18T15:04:28.943Z</time></trkpt><trkpt lat="44.0991897" lon="12.1426498"><ele>328.0</ele><time>2026-04-18T15:04:30.932Z</time></trkpt><trkpt lat="44.0991149" lon="12.1425777"><ele>328.0</ele><time>2026-04-18T15:04:32.938Z</time></trkpt><trkpt lat="44.099038" lon="12.1425204"><ele>328.3333333333333</ele><time>2026-04-18T15:04:34.944Z</time></trkpt><trkpt lat="44.0989703" lon="12.1424746"><ele>328.66666666666663</ele><time>2026-04-18T15:04:36.941Z</time></trkpt><trkpt lat="44.0989107" lon="12.142427"><ele>329.0</ele><time>2026-04-18T15:04:38.938Z</time></trkpt><trkpt lat="44.0988476" lon="12.1423815"><ele>329.3333333333333</ele><time>2026-04-18T15:04:40.941Z</time></trkpt><trkpt lat="44.0987866" lon="12.1423383"><ele>329.6666666666667</ele><time>2026-04-18T15:04:42.925Z</time></trkpt><trkpt lat="44.0987152" lon="12.1422827"><ele>330.0</ele><time>2026-04-18T15:04:44.922Z</time></trkpt><trkpt lat="44.0986365" lon="12.1422323"><ele>328.4</ele><time>2026-04-18T15:04:46.927Z</time></trkpt><trkpt lat="44.0985525" lon="12.1421773"><ele>326.8</ele><time>2026-04-18T15:04:48.936Z</time></trkpt><trkpt lat="44.0984672" lon="12.1421217"><ele>325.20000000000005</ele><time>2026-04-18T15:04:50.922Z</time></trkpt><trkpt lat="44.0983789" lon="12.1420762"><ele>323.6</ele><time>2026-04-18T15:04:52.926Z</time></trkpt><trkpt lat="44.0982875" lon="12.1420471"><ele>322.0</ele><time>2026-04-18T15:04:54.926Z</time></trkpt><trkpt lat="44.0981911" lon="12.1420387"><ele>321.75</ele><time>2026-04-18T15:04:56.918Z</time></trkpt><trkpt lat="44.0980809" lon="12.1420609"><ele>321.5</ele><time>2026-04-18T15:04:58.921Z</time></trkpt><trkpt lat="44.0979617" lon="12.1421062"><ele>321.25</ele><time>2026-04-18T15:05:00.919Z</time></trkpt><trkpt lat="44.0978444" lon="12.1421544"><ele>321.0</ele><time>2026-04-18T15:05:02.923Z</time></trkpt><trkpt lat="44.0977319" lon="12.1422174"><ele>321.0</ele><time>2026-04-18T15:05:04.914Z</time></trkpt><trkpt lat="44.0976298" lon="12.1422842"><ele>321.0</ele><time>2026-04-18T15:05:06.93Z</time></trkpt><trkpt lat="44.0975449" lon="12.1423666"><ele>321.0</ele><time>2026-04-18T15:05:08.919Z</time></trkpt><trkpt lat="44.0974466" lon="12.1424452"><ele>321.0</ele><time>2026-04-18T15:05:10.921Z</time></trkpt><trkpt lat="44.0973548" lon="12.1425128"><ele>321.0</ele><time>2026-04-18T15:05:12.923Z</time></trkpt><trkpt lat="44.0972639" lon="12.1425847"><ele>320.0</ele><time>2026-04-18T15:05:14.922Z</time></trkpt><trkpt lat="44.0971718" lon="12.1426585"><ele>319.0</ele><time>2026-04-18T15:05:16.919Z</time></trkpt><trkpt lat="44.0970785" lon="12.1427303"><ele>318.0</ele><time>2026-04-18T15:05:18.914Z</time></trkpt><trkpt lat="44.0969794" lon="12.1428006"><ele>317.0</ele><time>2026-04-18T15:05:20.922Z</time></trkpt><trkpt lat="44.0968816" lon="12.1428866"><ele>316.0</ele><time>2026-04-18T15:05:22.912Z</time></trkpt><trkpt lat="44.0968312" lon="12.1429412"><ele>316.0</ele><time>2026-04-18T15:05:23.907Z</time></trkpt><trkpt lat="44.0967765" lon="12.1430074"><ele>316.0</ele><time>2026-04-18T15:05:24.908Z</time></trkpt><trkpt lat="44.0967203" lon="12.143074"><ele>316.0</ele><time>2026-04-18T15:05:25.912Z</time></trkpt><trkpt lat="44.0966682" lon="12.1431317"><ele>316.0</ele><time>2026-04-18T15:05:26.911Z</time></trkpt><trkpt lat="44.0965848" lon="12.1432522"><ele>316.0</ele><time>2026-04-18T15:05:28.914Z</time></trkpt><trkpt lat="44.0965425" lon="12.1433892"><ele>316.0</ele><time>2026-04-18T15:05:30.907Z</time></trkpt><trkpt lat="44.0965324" lon="12.143547"><ele>316.0</ele><time>2026-04-18T15:05:32.91Z</time></trkpt><trkpt lat="44.0965387" lon="12.1437192"><ele>316.0</ele><time>2026-04-18T15:05:34.905Z</time></trkpt><trkpt lat="44.0965069" lon="12.143874"><ele>316.0</ele><time>2026-04-18T15:05:36.906Z</time></trkpt><trkpt lat="44.096451" lon="12.1439996"><ele>316.0</ele><time>2026-04-18T15:05:38.911Z</time></trkpt><trkpt lat="44.0964422" lon="12.1441248"><ele>316.0</ele><time>2026-04-18T15:05:40.911Z</time></trkpt><trkpt lat="44.0964211" lon="12.1442467"><ele>316.0</ele><time>2026-04-18T15:05:42.907Z</time></trkpt><trkpt lat="44.0963872" lon="12.144379"><ele>316.0</ele><time>2026-04-18T15:05:44.907Z</time></trkpt><trkpt lat="44.0963447" lon="12.1445094"><ele>316.0</ele><time>2026-04-18T15:05:46.911Z</time></trkpt><trkpt lat="44.0962833" lon="12.1446245"><ele>316.0</ele><time>2026-04-18T15:05:48.912Z</time></trkpt><trkpt lat="44.0962055" lon="12.1447069"><ele>316.0</ele><time>2026-04-18T15:05:50.912Z</time></trkpt><trkpt lat="44.0961189" lon="12.1447666"><ele>316.0</ele><time>2026-04-18T15:05:52.913Z</time></trkpt><trkpt lat="44.0960269" lon="12.1448093"><ele>316.0</ele><time>2026-04-18T15:05:54.913Z</time></trkpt><trkpt lat="44.0959228" lon="12.1448293"><ele>316.0</ele><time>2026-04-18T15:05:56.91Z</time></trkpt><trkpt lat="44.0958159" lon="12.144839"><ele>316.0</ele><time>2026-04-18T15:05:58.91Z</time></trkpt><trkpt lat="44.0957088" lon="12.1448357"><ele>316.0</ele><time>2026-04-18T15:06:00.911Z</time></trkpt><trkpt lat="44.0955971" lon="12.1448173"><ele>313.75</ele><time>2026-04-18T15:06:02.907Z</time></trkpt><trkpt lat="44.0954815" lon="12.1447994"><ele>311.5</ele><time>2026-04-18T15:06:04.909Z</time></trkpt><trkpt lat="44.0953694" lon="12.1447769"><ele>309.25</ele><time>2026-04-18T15:06:06.911Z</time></trkpt><trkpt lat="44.0952536" lon="12.1447586"><ele>307.0</ele><time>2026-04-18T15:06:08.911Z</time></trkpt><trkpt lat="44.0951333" lon="12.1447684"><ele>307.0</ele><time>2026-04-18T15:06:10.906Z</time></trkpt><trkpt lat="44.0950171" lon="12.1448197"><ele>307.0</ele><time>2026-04-18T15:06:12.914Z</time></trkpt><trkpt lat="44.0949128" lon="12.144883"><ele>307.0</ele><time>2026-04-18T15:06:14.91Z</time></trkpt><trkpt lat="44.0948194" lon="12.1449481"><ele>307.0</ele><time>2026-04-18T15:06:16.912Z</time></trkpt><trkpt lat="44.0947327" lon="12.1450106"><ele>307.0</ele><time>2026-04-18T15:06:18.912Z</time></trkpt><trkpt lat="44.0946484" lon="12.1450751"><ele>309.0</ele><time>2026-04-18T15:06:20.91Z</time></trkpt><trkpt lat="44.0945564" lon="12.1451432"><ele>311.0</ele><time>2026-04-18T15:06:22.912Z</time></trkpt><trkpt lat="44.0944558" lon="12.1451878"><ele>313.0</ele><time>2026-04-18T15:06:24.914Z</time></trkpt><trkpt lat="44.0943438" lon="12.1452191"><ele>315.0</ele><time>2026-04-18T15:06:26.916Z</time></trkpt><trkpt lat="44.0942408" lon="12.1452825"><ele>317.0</ele><time>2026-04-18T15:06:28.918Z</time></trkpt><trkpt lat="44.0941557" lon="12.1453512"><ele>319.0</ele><time>2026-04-18T15:06:30.913Z</time></trkpt><trkpt lat="44.0940827" lon="12.1454358"><ele>321.0</ele><time>2026-04-18T15:06:32.915Z</time></trkpt><trkpt lat="44.0940148" lon="12.1455197"><ele>323.0</ele><time>2026-04-18T15:06:34.912Z</time></trkpt><trkpt lat="44.0939443" lon="12.1456017"><ele>325.0</ele><time>2026-04-18T15:06:36.924Z</time></trkpt><trkpt lat="44.0938697" lon="12.1456811"><ele>327.0</ele><time>2026-04-18T15:06:38.928Z</time></trkpt><trkpt lat="44.0937998" lon="12.1457692"><ele>327.8</ele><time>2026-04-18T15:06:40.914Z</time></trkpt><trkpt lat="44.0937284" lon="12.1458582"><ele>328.6</ele><time>2026-04-18T15:06:42.919Z</time></trkpt><trkpt lat="44.0936576" lon="12.1459643"><ele>329.40000000000003</ele><time>2026-04-18T15:06:44.918Z</time></trkpt><trkpt lat="44.093587" lon="12.1460676"><ele>330.20000000000005</ele><time>2026-04-18T15:06:46.916Z</time></trkpt><trkpt lat="44.0935131" lon="12.1461633"><ele>331.0</ele><time>2026-04-18T15:06:48.91Z</time></trkpt><trkpt lat="44.0934424" lon="12.1462482"><ele>331.0</ele><time>2026-04-18T15:06:50.918Z</time></trkpt><trkpt lat="44.0933751" lon="12.1463352"><ele>331.0</ele><time>2026-04-18T15:06:52.92Z</time></trkpt><trkpt lat="44.0933057" lon="12.1464295"><ele>331.0</ele><time>2026-04-18T15:06:54.923Z</time></trkpt><trkpt lat="44.0932383" lon="12.1465131"><ele>331.0</ele><time>2026-04-18T15:06:56.92Z</time></trkpt><trkpt lat="44.0931758" lon="12.1466099"><ele>331.0</ele><time>2026-04-18T15:06:58.913Z</time></trkpt><trkpt lat="44.0931055" lon="12.146713"><ele>333.4</ele><time>2026-04-18T15:07:00.91Z</time></trkpt><trkpt lat="44.0930466" lon="12.1468269"><ele>335.8</ele><time>2026-04-18T15:07:02.911Z</time></trkpt><trkpt lat="44.0930062" lon="12.1469544"><ele>338.2</ele><time>2026-04-18T15:07:04.905Z</time></trkpt><trkpt lat="44.0929725" lon="12.1470846"><ele>340.59999999999997</ele><time>2026-04-18T15:07:06.912Z</time></trkpt><trkpt lat="44.0929469" lon="12.1472048"><ele>343.0</ele><time>2026-04-18T15:07:08.921Z</time></trkpt><trkpt lat="44.092937" lon="12.1473118"><ele>342.8333333333333</ele><time>2026-04-18T15:07:10.923Z</time></trkpt><trkpt lat="44.0929351" lon="12.1474163"><ele>342.66666666666663</ele><time>2026-04-18T15:07:12.926Z</time></trkpt><trkpt lat="44.0929377" lon="12.1475259"><ele>342.5</ele><time>2026-04-18T15:07:14.919Z</time></trkpt><trkpt lat="44.0929444" lon="12.1476343"><ele>342.3333333333333</ele><time>2026-04-18T15:07:16.92Z</time></trkpt><trkpt lat="44.0929493" lon="12.1477456"><ele>342.1666666666667</ele><time>2026-04-18T15:07:18.922Z</time></trkpt><trkpt lat="44.092952" lon="12.1478543"><ele>342.0</ele><time>2026-04-18T15:07:20.93Z</time></trkpt><trkpt lat="44.0929651" lon="12.1479626"><ele>342.0</ele><time>2026-04-18T15:07:22.929Z</time></trkpt><trkpt lat="44.0929682" lon="12.1480739"><ele>342.0</ele><time>2026-04-18T15:07:24.924Z</time></trkpt><trkpt lat="44.0929685" lon="12.1481869"><ele>342.0</ele><time>2026-04-18T15:07:26.92Z</time></trkpt><trkpt lat="44.0929691" lon="12.1483"><ele>342.0</ele><time>2026-04-18T15:07:28.922Z</time></trkpt><trkpt lat="44.092969" lon="12.1484129"><ele>342.0</ele><time>2026-04-18T15:07:30.918Z</time></trkpt><trkpt lat="44.0929718" lon="12.1485109"><ele>342.0</ele><time>2026-04-18T15:07:32.92Z</time></trkpt><trkpt lat="44.0929765" lon="12.1486111"><ele>341.3333333333333</ele><time>2026-04-18T15:07:34.921Z</time></trkpt><trkpt lat="44.0929735" lon="12.1487301"><ele>340.6666666666667</ele><time>2026-04-18T15:07:37.92Z</time></trkpt><trkpt lat="44.0929226" lon="12.1488013"><ele>340.0</ele><time>2026-04-18T15:07:41.901Z</time></trkpt><trkpt lat="44.0928967" lon="12.1487031"><ele>339.33333333333337</ele><time>2026-04-18T15:07:44.924Z</time></trkpt><trkpt lat="44.0928858" lon="12.1485779"><ele>338.6666666666667</ele><time>2026-04-18T15:07:47.924Z</time></trkpt><trkpt lat="44.0928734" lon="12.1484487"><ele>338.0</ele><time>2026-04-18T15:07:50.919Z</time></trkpt><trkpt lat="44.0928617" lon="12.1483593"><ele>338.0</ele><time>2026-04-18T15:07:52.926Z</time></trkpt><trkpt lat="44.0928511" lon="12.1482659"><ele>338.0</ele><time>2026-04-18T15:07:54.924Z</time></trkpt><trkpt lat="44.0928351" lon="12.1481709"><ele>338.0</ele><time>2026-04-18T15:07:56.921Z</time></trkpt><trkpt lat="44.092814" lon="12.1480722"><ele>338.0</ele><time>2026-04-18T15:07:58.921Z</time></trkpt><trkpt lat="44.0927898" lon="12.1479776"><ele>338.0</ele><time>2026-04-18T15:08:00.921Z</time></trkpt><trkpt lat="44.0927462" lon="12.1478637"><ele>338.0</ele><time>2026-04-18T15:08:03.92Z</time></trkpt><trkpt lat="44.0926951" lon="12.1477797"><ele>338.79999999999995</ele><time>2026-04-18T15:08:06.92Z</time></trkpt><trkpt lat="44.092631" lon="12.1477691"><ele>339.6</ele><time>2026-04-18T15:08:09.923Z</time></trkpt><trkpt lat="44.0925503" lon="12.1477159"><ele>340.4</ele><time>2026-04-18T15:08:12.923Z</time></trkpt><trkpt lat="44.0924824" lon="12.1476604"><ele>341.20000000000005</ele><time>2026-04-18T15:08:14.926Z</time></trkpt><trkpt lat="44.0923957" lon="12.147587"><ele>342.0</ele><time>2026-04-18T15:08:16.919Z</time></trkpt><trkpt lat="44.0922841" lon="12.1475071"><ele>339.8</ele><time>2026-04-18T15:08:18.912Z</time></trkpt><trkpt lat="44.0922266" lon="12.1474643"><ele>337.6</ele><time>2026-04-18T15:08:19.913Z</time></trkpt><trkpt lat="44.0921217" lon="12.1473941"><ele>335.40000000000003</ele><time>2026-04-18T15:08:21.914Z</time></trkpt><trkpt lat="44.0920062" lon="12.147388"><ele>333.20000000000005</ele><time>2026-04-18T15:08:23.91Z</time></trkpt><trkpt lat="44.0919345" lon="12.1473846"><ele>331.0</ele><time>2026-04-18T15:08:24.908Z</time></trkpt><trkpt lat="44.0918531" lon="12.1473853"><ele>330.8</ele><time>2026-04-18T15:08:25.902Z</time></trkpt><trkpt lat="44.09176" lon="12.1473671"><ele>330.6</ele><time>2026-04-18T15:08:26.893Z</time></trkpt><trkpt lat="44.0916656" lon="12.1473217"><ele>330.4</ele><time>2026-04-18T15:08:27.892Z</time></trkpt><trkpt lat="44.0915731" lon="12.1472662"><ele>330.2</ele><time>2026-04-18T15:08:28.894Z</time></trkpt><trkpt lat="44.0914828" lon="12.1472049"><ele>330.0</ele><time>2026-04-18T15:08:29.893Z</time></trkpt><trkpt lat="44.0913998" lon="12.1471446"><ele>330.00000000000006</ele><time>2026-04-18T15:08:30.893Z</time></trkpt><trkpt lat="44.0913246" lon="12.1470995"><ele>330.0</ele><time>2026-04-18T15:08:31.9Z</time></trkpt><trkpt lat="44.0912565" lon="12.1470552"><ele>330.0</ele><time>2026-04-18T15:08:32.893Z</time></trkpt><trkpt lat="44.0911966" lon="12.1470155"><ele>330.0</ele><time>2026-04-18T15:08:33.895Z</time></trkpt><trkpt lat="44.0911324" lon="12.1469886"><ele>330.0</ele><time>2026-04-18T15:08:34.892Z</time></trkpt><trkpt lat="44.091066" lon="12.1469629"><ele>330.00000000000006</ele><time>2026-04-18T15:08:35.895Z</time></trkpt><trkpt lat="44.0909941" lon="12.1469423"><ele>330.0</ele><time>2026-04-18T15:08:36.891Z</time></trkpt><trkpt lat="44.0909157" lon="12.1469218"><ele>330.0</ele><time>2026-04-18T15:08:37.894Z</time></trkpt><trkpt lat="44.0908286" lon="12.1469076"><ele>330.0</ele><time>2026-04-18T15:08:38.893Z</time></trkpt><trkpt lat="44.0907333" lon="12.1469031"><ele>330.0</ele><time>2026-04-18T15:08:39.897Z</time></trkpt><trkpt lat="44.0906317" lon="12.1469099"><ele>330.0</ele><time>2026-04-18T15:08:40.898Z</time></trkpt><trkpt lat="44.0905256" lon="12.1469163"><ele>330.0</ele><time>2026-04-18T15:08:41.898Z</time></trkpt><trkpt lat="44.0904245" lon="12.1469287"><ele>328.2</ele><time>2026-04-18T15:08:42.92Z</time></trkpt><trkpt lat="44.090335" lon="12.1469362"><ele>326.4</ele><time>2026-04-18T15:08:43.896Z</time></trkpt><trkpt lat="44.0902593" lon="12.1469467"><ele>324.6</ele><time>2026-04-18T15:08:44.895Z</time></trkpt><trkpt lat="44.0901575" lon="12.1469576"><ele>322.8</ele><time>2026-04-18T15:08:46.9Z</time></trkpt><trkpt lat="44.0900555" lon="12.1469319"><ele>321.0</ele><time>2026-04-18T15:08:48.906Z</time></trkpt><trkpt lat="44.0899648" lon="12.1468533"><ele>317.0</ele><time>2026-04-18T15:08:50.907Z</time></trkpt><trkpt lat="44.0898848" lon="12.1467502"><ele>313.0</ele><time>2026-04-18T15:08:52.912Z</time></trkpt><trkpt lat="44.0898232" lon="12.1466546"><ele>309.0</ele><time>2026-04-18T15:08:54.906Z</time></trkpt><trkpt lat="44.0897838" lon="12.146574"><ele>305.0</ele><time>2026-04-18T15:08:56.915Z</time></trkpt><trkpt lat="44.0897214" lon="12.1465143"><ele>301.0</ele><time>2026-04-18T15:08:59.916Z</time></trkpt><trkpt lat="44.0896627" lon="12.1464587"><ele>297.0</ele><time>2026-04-18T15:09:02.925Z</time></trkpt><trkpt lat="44.0896325" lon="12.1463723"><ele>297.0</ele><time>2026-04-18T15:09:05.919Z</time></trkpt><trkpt lat="44.0896383" lon="12.1462592"><ele>297.0</ele><time>2026-04-18T15:09:08.936Z</time></trkpt><trkpt lat="44.0896615" lon="12.1461562"><ele>297.0</ele><time>2026-04-18T15:09:11.926Z</time></trkpt><trkpt lat="44.0897049" lon="12.1460545"><ele>297.0</ele><time>2026-04-18T15:09:14.926Z</time></trkpt><trkpt lat="44.0897408" lon="12.1459783"><ele>297.0</ele><time>2026-04-18T15:09:16.928Z</time></trkpt><trkpt lat="44.0897774" lon="12.1458985"><ele>297.0</ele><time>2026-04-18T15:09:18.926Z</time></trkpt><trkpt lat="44.0898222" lon="12.1458201"><ele>297.0</ele><time>2026-04-18T15:09:20.92Z</time></trkpt><trkpt lat="44.0898752" lon="12.1457346"><ele>299.6</ele><time>2026-04-18T15:09:22.917Z</time></trkpt><trkpt lat="44.0899432" lon="12.1456419"><ele>302.2</ele><time>2026-04-18T15:09:24.922Z</time></trkpt><trkpt lat="44.090031" lon="12.1455474"><ele>304.8</ele><time>2026-04-18T15:09:26.918Z</time></trkpt><trkpt lat="44.0901208" lon="12.1454442"><ele>307.4</ele><time>2026-04-18T15:09:28.914Z</time></trkpt><trkpt lat="44.0901731" lon="12.1452968"><ele>310.0</ele><time>2026-04-18T15:09:30.909Z</time></trkpt><trkpt lat="44.0901813" lon="12.1452036"><ele>310.0</ele><time>2026-04-18T15:09:31.909Z</time></trkpt><trkpt lat="44.0901929" lon="12.1451055"><ele>310.0</ele><time>2026-04-18T15:09:32.908Z</time></trkpt><trkpt lat="44.0902006" lon="12.145"><ele>310.0</ele><time>2026-04-18T15:09:33.909Z</time></trkpt><trkpt lat="44.0902089" lon="12.1448878"><ele>310.0</ele><time>2026-04-18T15:09:34.91Z</time></trkpt><trkpt lat="44.0902192" lon="12.1447816"><ele>310.0</ele><time>2026-04-18T15:09:35.907Z</time></trkpt><trkpt lat="44.0902253" lon="12.1446786"><ele>310.0</ele><time>2026-04-18T15:09:36.904Z</time></trkpt><trkpt lat="44.0902272" lon="12.1445166"><ele>308.5</ele><time>2026-04-18T15:09:38.904Z</time></trkpt><trkpt lat="44.0902325" lon="12.1443941"><ele>307.0</ele><time>2026-04-18T15:09:40.9Z</time></trkpt><trkpt lat="44.0902252" lon="12.1443008"><ele>305.5</ele><time>2026-04-18T15:09:42.909Z</time></trkpt><trkpt lat="44.0902149" lon="12.1442077"><ele>304.0</ele><time>2026-04-18T15:09:44.923Z</time></trkpt><trkpt lat="44.0902102" lon="12.1441065"><ele>302.5</ele><time>2026-04-18T15:09:46.904Z</time></trkpt><trkpt lat="44.0902044" lon="12.1440065"><ele>301.0</ele><time>2026-04-18T15:09:48.906Z</time></trkpt><trkpt lat="44.0901962" lon="12.1438908"><ele>300.16666666666663</ele><time>2026-04-18T15:09:50.907Z</time></trkpt><trkpt lat="44.0901691" lon="12.1437749"><ele>299.3333333333333</ele><time>2026-04-18T15:09:52.908Z</time></trkpt><trkpt lat="44.0901327" lon="12.1436571"><ele>298.5</ele><time>2026-04-18T15:09:54.903Z</time></trkpt><trkpt lat="44.0900876" lon="12.1435541"><ele>297.6666666666667</ele><time>2026-04-18T15:09:56.904Z</time></trkpt><trkpt lat="44.0900421" lon="12.1434535"><ele>296.83333333333337</ele><time>2026-04-18T15:09:58.905Z</time></trkpt><trkpt lat="44.0899991" lon="12.1433443"><ele>296.0</ele><time>2026-04-18T15:10:00.911Z</time></trkpt><trkpt lat="44.0899566" lon="12.143242"><ele>293.0</ele><time>2026-04-18T15:10:02.911Z</time></trkpt><trkpt lat="44.0899196" lon="12.1431407"><ele>290.0</ele><time>2026-04-18T15:10:04.91Z</time></trkpt><trkpt lat="44.08988" lon="12.1430486"><ele>287.0</ele><time>2026-04-18T15:10:06.906Z</time></trkpt><trkpt lat="44.0898258" lon="12.1429777"><ele>284.0</ele><time>2026-04-18T15:10:08.907Z</time></trkpt><trkpt lat="44.0897651" lon="12.1428987"><ele>281.0</ele><time>2026-04-18T15:10:10.906Z</time></trkpt><trkpt lat="44.0896972" lon="12.1428121"><ele>278.0</ele><time>2026-04-18T15:10:12.908Z</time></trkpt><trkpt lat="44.0896226" lon="12.1427329"><ele>278.0</ele><time>2026-04-18T15:10:14.91Z</time></trkpt><trkpt lat="44.0895459" lon="12.1426655"><ele>278.0</ele><time>2026-04-18T15:10:16.916Z</time></trkpt><trkpt lat="44.0894691" lon="12.1425956"><ele>278.0</ele><time>2026-04-18T15:10:18.916Z</time></trkpt><trkpt lat="44.0893897" lon="12.1425346"><ele>278.0</ele><time>2026-04-18T15:10:20.916Z</time></trkpt><trkpt lat="44.0893134" lon="12.1424686"><ele>278.0</ele><time>2026-04-18T15:10:22.915Z</time></trkpt><trkpt lat="44.0892372" lon="12.1424024"><ele>277.0</ele><time>2026-04-18T15:10:24.917Z</time></trkpt><trkpt lat="44.0891741" lon="12.1423513"><ele>276.0</ele><time>2026-04-18T15:10:26.921Z</time></trkpt><trkpt lat="44.0891186" lon="12.1423024"><ele>275.0</ele><time>2026-04-18T15:10:28.921Z</time></trkpt><trkpt lat="44.0890586" lon="12.1422522"><ele>274.0</ele><time>2026-04-18T15:10:30.918Z</time></trkpt><trkpt lat="44.0889972" lon="12.1422009"><ele>273.0</ele><time>2026-04-18T15:10:32.919Z</time></trkpt><trkpt lat="44.0889265" lon="12.1421409"><ele>272.0</ele><time>2026-04-18T15:10:34.921Z</time></trkpt><trkpt lat="44.0888479" lon="12.1420721"><ele>271.1666666666667</ele><time>2026-04-18T15:10:36.924Z</time></trkpt><trkpt lat="44.0887698" lon="12.1419977"><ele>270.33333333333337</ele><time>2026-04-18T15:10:38.918Z</time></trkpt><trkpt lat="44.0886926" lon="12.1419277"><ele>269.5</ele><time>2026-04-18T15:10:40.92Z</time></trkpt><trkpt lat="44.0886244" lon="12.1418772"><ele>268.6666666666667</ele><time>2026-04-18T15:10:42.926Z</time></trkpt><trkpt lat="44.0885649" lon="12.1418402"><ele>267.8333333333333</ele><time>2026-04-18T15:10:44.927Z</time></trkpt><trkpt lat="44.0884911" lon="12.1417796"><ele>267.0</ele><time>2026-04-18T15:10:47.927Z</time></trkpt><trkpt lat="44.0884264" lon="12.1417518"><ele>267.00000000000006</ele><time>2026-04-18T15:10:51.935Z</time></trkpt><trkpt lat="44.0883604" lon="12.1417608"><ele>267.0</ele><time>2026-04-18T15:10:56.928Z</time></trkpt><trkpt lat="44.0882997" lon="12.1417254"><ele>267.0</ele><time>2026-04-18T15:11:00.932Z</time></trkpt><trkpt lat="44.0882251" lon="12.1416823"><ele>267.0</ele><time>2026-04-18T15:11:04.931Z</time></trkpt><trkpt lat="44.0881598" lon="12.1416537"><ele>267.0</ele><time>2026-04-18T15:11:07.924Z</time></trkpt><trkpt lat="44.088088" lon="12.141641"><ele>267.00000000000006</ele><time>2026-04-18T15:11:10.923Z</time></trkpt><trkpt lat="44.0880211" lon="12.141603"><ele>267.0</ele><time>2026-04-18T15:11:13.932Z</time></trkpt><trkpt lat="44.0879516" lon="12.1415643"><ele>265.0</ele><time>2026-04-18T15:11:16.928Z</time></trkpt><trkpt lat="44.0878682" lon="12.1415551"><ele>263.0</ele><time>2026-04-18T15:11:19.925Z</time></trkpt><trkpt lat="44.0877779" lon="12.1415443"><ele>261.0</ele><time>2026-04-18T15:11:22.934Z</time></trkpt><trkpt lat="44.0876955" lon="12.1415546"><ele>259.0</ele><time>2026-04-18T15:11:25.931Z</time></trkpt><trkpt lat="44.0876072" lon="12.1415658"><ele>257.0</ele><time>2026-04-18T15:11:28.937Z</time></trkpt><trkpt lat="44.0875359" lon="12.141571"><ele>255.0</ele><time>2026-04-18T15:11:31.925Z</time></trkpt><trkpt lat="44.0874577" lon="12.1416109"><ele>255.2</ele><time>2026-04-18T15:13:40.931Z</time></trkpt><trkpt lat="44.0873783" lon="12.1416517"><ele>255.4</ele><time>2026-04-18T15:13:42.93Z</time></trkpt><trkpt lat="44.0872817" lon="12.1417181"><ele>255.60000000000002</ele><time>2026-04-18T15:13:44.921Z</time></trkpt><trkpt lat="44.0871725" lon="12.1417633"><ele>255.8</ele><time>2026-04-18T15:13:46.927Z</time></trkpt><trkpt lat="44.0870623" lon="12.1417655"><ele>256.0</ele><time>2026-04-18T15:13:48.921Z</time></trkpt><trkpt lat="44.0869708" lon="12.1417651"><ele>256.0</ele><time>2026-04-18T15:13:50.924Z</time></trkpt><trkpt lat="44.0868984" lon="12.1417412"><ele>255.99999999999997</ele><time>2026-04-18T15:13:52.943Z</time></trkpt><trkpt lat="44.0868356" lon="12.1416968"><ele>256.0</ele><time>2026-04-18T15:13:54.934Z</time></trkpt><trkpt lat="44.0867755" lon="12.1416517"><ele>256.0</ele><time>2026-04-18T15:13:56.929Z</time></trkpt><trkpt lat="44.0867154" lon="12.1416154"><ele>255.99999999999997</ele><time>2026-04-18T15:13:58.931Z</time></trkpt><trkpt lat="44.0866555" lon="12.141584"><ele>256.0</ele><time>2026-04-18T15:14:00.931Z</time></trkpt><trkpt lat="44.0865746" lon="12.1415536"><ele>256.0</ele><time>2026-04-18T15:14:03.926Z</time></trkpt><trkpt lat="44.0864865" lon="12.1415658"><ele>256.0</ele><time>2026-04-18T15:14:06.932Z</time></trkpt><trkpt lat="44.0864275" lon="12.1415264"><ele>255.99999999999997</ele><time>2026-04-18T15:14:09.938Z</time></trkpt><trkpt lat="44.0863685" lon="12.1414661"><ele>256.0</ele><time>2026-04-18T15:14:12.935Z</time></trkpt><trkpt lat="44.0863317" lon="12.1413903"><ele>256.0</ele><time>2026-04-18T15:14:14.93Z</time></trkpt><trkpt lat="44.0862865" lon="12.1412952"><ele>255.99999999999997</ele><time>2026-04-18T15:14:16.933Z</time></trkpt><trkpt lat="44.0862346" lon="12.1412242"><ele>256.0</ele><time>2026-04-18T15:14:18.927Z</time></trkpt><trkpt lat="44.0861765" lon="12.1411669"><ele>256.0</ele><time>2026-04-18T15:14:20.926Z</time></trkpt><trkpt lat="44.086118" lon="12.1411191"><ele>255.99999999999997</ele><time>2026-04-18T15:14:22.927Z</time></trkpt><trkpt lat="44.086042" lon="12.1410692"><ele>256.0</ele><time>2026-04-18T15:14:24.922Z</time></trkpt><trkpt lat="44.0859161" lon="12.1410298"><ele>256.0</ele><time>2026-04-18T15:14:26.909Z</time></trkpt><trkpt lat="44.0858428" lon="12.1410033"><ele>256.0</ele><time>2026-04-18T15:14:27.918Z</time></trkpt><trkpt lat="44.08577" lon="12.1409712"><ele>255.99999999999997</ele><time>2026-04-18T15:14:28.919Z</time></trkpt><trkpt lat="44.0856946" lon="12.1409228"><ele>256.0</ele><time>2026-04-18T15:14:29.92Z</time></trkpt><trkpt lat="44.085627" lon="12.1408639"><ele>255.16666666666666</ele><time>2026-04-18T15:14:30.921Z</time></trkpt><trkpt lat="44.0855574" lon="12.1407982"><ele>254.33333333333331</ele><time>2026-04-18T15:14:31.915Z</time></trkpt><trkpt lat="44.0854842" lon="12.140734"><ele>253.5</ele><time>2026-04-18T15:14:32.923Z</time></trkpt><trkpt lat="44.0854048" lon="12.1406702"><ele>252.66666666666669</ele><time>2026-04-18T15:14:33.924Z</time></trkpt><trkpt lat="44.0853245" lon="12.1406089"><ele>251.83333333333334</ele><time>2026-04-18T15:14:34.924Z</time></trkpt><trkpt lat="44.0852449" lon="12.1405526"><ele>251.0</ele><time>2026-04-18T15:14:35.925Z</time></trkpt><trkpt lat="44.085162" lon="12.1404979"><ele>251.00000000000003</ele><time>2026-04-18T15:14:36.925Z</time></trkpt><trkpt lat="44.0850826" lon="12.1404479"><ele>251.0</ele><time>2026-04-18T15:14:37.922Z</time></trkpt><trkpt lat="44.0849997" lon="12.1404046"><ele>251.0</ele><time>2026-04-18T15:14:38.922Z</time></trkpt><trkpt lat="44.0849156" lon="12.1403695"><ele>251.0</ele><time>2026-04-18T15:14:39.922Z</time></trkpt><trkpt lat="44.084828" lon="12.1403405"><ele>251.00000000000003</ele><time>2026-04-18T15:14:40.925Z</time></trkpt><trkpt lat="44.0847371" lon="12.1403161"><ele>251.0</ele><time>2026-04-18T15:14:41.922Z</time></trkpt><trkpt lat="44.0846575" lon="12.1402958"><ele>250.00000000000003</ele><time>2026-04-18T15:14:42.922Z</time></trkpt><trkpt lat="44.084589" lon="12.1402921"><ele>249.0</ele><time>2026-04-18T15:14:43.937Z</time></trkpt><trkpt lat="44.0845269" lon="12.1403129"><ele>248.0</ele><time>2026-04-18T15:14:44.927Z</time></trkpt><trkpt lat="44.0844654" lon="12.140333"><ele>247.0</ele><time>2026-04-18T15:14:45.93Z</time></trkpt><trkpt lat="44.0843415" lon="12.1403148"><ele>246.00000000000003</ele><time>2026-04-18T15:14:47.922Z</time></trkpt><trkpt lat="44.084276" lon="12.140304"><ele>245.0</ele><time>2026-04-18T15:14:48.928Z</time></trkpt><trkpt lat="44.0842103" lon="12.1402897"><ele>245.00000000000003</ele><time>2026-04-18T15:14:49.918Z</time></trkpt><trkpt lat="44.0841442" lon="12.1402844"><ele>245.0</ele><time>2026-04-18T15:14:50.931Z</time></trkpt><trkpt lat="44.0840762" lon="12.1402813"><ele>245.0</ele><time>2026-04-18T15:14:51.924Z</time></trkpt><trkpt lat="44.0840127" lon="12.1402846"><ele>245.0</ele><time>2026-04-18T15:14:52.923Z</time></trkpt><trkpt lat="44.0838922" lon="12.140299"><ele>245.00000000000003</ele><time>2026-04-18T15:14:54.954Z</time></trkpt><trkpt lat="44.0837949" lon="12.1403147"><ele>245.0</ele><time>2026-04-18T15:14:56.921Z</time></trkpt><trkpt lat="44.0837325" lon="12.1403307"><ele>245.42857142857144</ele><time>2026-04-18T15:14:58.93Z</time></trkpt><trkpt lat="44.083651" lon="12.1403334"><ele>245.85714285714286</ele><time>2026-04-18T15:15:02.933Z</time></trkpt><trkpt lat="44.083579" lon="12.1403168"><ele>246.28571428571428</ele><time>2026-04-18T15:15:05.934Z</time></trkpt><trkpt lat="44.0835108" lon="12.1402977"><ele>246.71428571428572</ele><time>2026-04-18T15:15:08.928Z</time></trkpt><trkpt lat="44.0834379" lon="12.1402959"><ele>247.14285714285717</ele><time>2026-04-18T15:15:12.934Z</time></trkpt><trkpt lat="44.0833676" lon="12.1402919"><ele>247.57142857142858</ele><time>2026-04-18T15:15:16.937Z</time></trkpt><trkpt lat="44.083291" lon="12.1402896"><ele>248.0</ele><time>2026-04-18T15:15:20.93Z</time></trkpt><trkpt lat="44.0832164" lon="12.1402836"><ele>249.0</ele><time>2026-04-18T15:15:24.947Z</time></trkpt><trkpt lat="44.0831391" lon="12.1402619"><ele>250.00000000000003</ele><time>2026-04-18T15:15:28.934Z</time></trkpt><trkpt lat="44.0830654" lon="12.1402507"><ele>251.0</ele><time>2026-04-18T15:15:31.929Z</time></trkpt><trkpt lat="44.0830023" lon="12.1402416"><ele>252.0</ele><time>2026-04-18T15:15:33.929Z</time></trkpt><trkpt lat="44.0829323" lon="12.1402211"><ele>253.00000000000003</ele><time>2026-04-18T15:15:35.925Z</time></trkpt><trkpt lat="44.0828636" lon="12.1402044"><ele>254.0</ele><time>2026-04-18T15:15:37.925Z</time></trkpt><trkpt lat="44.082793" lon="12.1401865"><ele>255.0</ele><time>2026-04-18T15:15:39.925Z</time></trkpt><trkpt lat="44.0827227" lon="12.1401594"><ele>255.0</ele><time>2026-04-18T15:15:41.93Z</time></trkpt><trkpt lat="44.0826512" lon="12.1401502"><ele>255.00000000000003</ele><time>2026-04-18T15:15:43.935Z</time></trkpt><trkpt lat="44.0825563" lon="12.1401594"><ele>255.0</ele><time>2026-04-18T15:15:46.934Z</time></trkpt><trkpt lat="44.0824895" lon="12.1401779"><ele>255.0</ele><time>2026-04-18T15:15:48.929Z</time></trkpt><trkpt lat="44.0824176" lon="12.1401981"><ele>255.00000000000003</ele><time>2026-04-18T15:15:50.929Z</time></trkpt><trkpt lat="44.082346" lon="12.1402229"><ele>255.0</ele><time>2026-04-18T15:15:52.93Z</time></trkpt><trkpt lat="44.0822833" lon="12.14024"><ele>255.0</ele><time>2026-04-18T15:15:54.936Z</time></trkpt><trkpt lat="44.0822119" lon="12.1402643"><ele>255.42857142857144</ele><time>2026-04-18T15:15:56.929Z</time></trkpt><trkpt lat="44.0821429" lon="12.1402821"><ele>255.8571428571429</ele><time>2026-04-18T15:15:58.929Z</time></trkpt><trkpt lat="44.0820753" lon="12.1403029"><ele>256.2857142857143</ele><time>2026-04-18T15:16:00.937Z</time></trkpt><trkpt lat="44.0819995" lon="12.1403174"><ele>256.7142857142857</ele><time>2026-04-18T15:16:02.932Z</time></trkpt><trkpt lat="44.0819224" lon="12.140327"><ele>257.1428571428571</ele><time>2026-04-18T15:16:04.931Z</time></trkpt><trkpt lat="44.0818517" lon="12.1403251"><ele>257.57142857142856</ele><time>2026-04-18T15:16:06.926Z</time></trkpt><trkpt lat="44.0817887" lon="12.140314"><ele>258.0</ele><time>2026-04-18T15:16:08.927Z</time></trkpt><trkpt lat="44.0817053" lon="12.1402814"><ele>258.0</ele><time>2026-04-18T15:16:10.927Z</time></trkpt><trkpt lat="44.0816146" lon="12.1402243"><ele>258.0</ele><time>2026-04-18T15:16:12.93Z</time></trkpt><trkpt lat="44.0815046" lon="12.1401604"><ele>258.0</ele><time>2026-04-18T15:16:14.918Z</time></trkpt><trkpt lat="44.0814461" lon="12.1401234"><ele>258.0</ele><time>2026-04-18T15:16:15.917Z</time></trkpt><trkpt lat="44.081383" lon="12.1400868"><ele>258.0</ele><time>2026-04-18T15:16:16.922Z</time></trkpt><trkpt lat="44.0813182" lon="12.1400511"><ele>258.0</ele><time>2026-04-18T15:16:17.923Z</time></trkpt><trkpt lat="44.0812546" lon="12.1400054"><ele>257.0</ele><time>2026-04-18T15:16:18.926Z</time></trkpt><trkpt lat="44.0811909" lon="12.1399662"><ele>256.0</ele><time>2026-04-18T15:16:19.922Z</time></trkpt><trkpt lat="44.0811249" lon="12.1399297"><ele>255.0</ele><time>2026-04-18T15:16:20.919Z</time></trkpt><trkpt lat="44.0810586" lon="12.1399034"><ele>254.0</ele><time>2026-04-18T15:16:21.919Z</time></trkpt><trkpt lat="44.0809966" lon="12.1398772"><ele>253.0</ele><time>2026-04-18T15:16:22.917Z</time></trkpt><trkpt lat="44.0808913" lon="12.1398378"><ele>252.0</ele><time>2026-04-18T15:16:24.919Z</time></trkpt><trkpt lat="44.0808049" lon="12.139814"><ele>251.83333333333334</ele><time>2026-04-18T15:16:26.932Z</time></trkpt><trkpt lat="44.0807237" lon="12.1397871"><ele>251.66666666666669</ele><time>2026-04-18T15:16:29.929Z</time></trkpt><trkpt lat="44.0806953" lon="12.1399087"><ele>251.5</ele><time>2026-04-18T15:16:42.931Z</time></trkpt><trkpt lat="44.0807031" lon="12.1399995"><ele>251.33333333333334</ele><time>2026-04-18T15:16:44.928Z</time></trkpt><trkpt lat="44.0806898" lon="12.1400886"><ele>251.16666666666669</ele><time>2026-04-18T15:16:46.927Z</time></trkpt><trkpt lat="44.0806691" lon="12.1402107"><ele>251.0</ele><time>2026-04-18T15:16:49.925Z</time></trkpt><trkpt lat="44.0806551" lon="12.1403111"><ele>250.00000000000003</ele><time>2026-04-18T15:16:51.931Z</time></trkpt><trkpt lat="44.0806354" lon="12.1404231"><ele>249.0</ele><time>2026-04-18T15:16:53.93Z</time></trkpt><trkpt lat="44.0806192" lon="12.1405376"><ele>248.0</ele><time>2026-04-18T15:16:55.924Z</time></trkpt><trkpt lat="44.0805959" lon="12.1406622"><ele>247.0</ele><time>2026-04-18T15:16:57.94Z</time></trkpt><trkpt lat="44.0805789" lon="12.1407741"><ele>246.00000000000003</ele><time>2026-04-18T15:16:59.927Z</time></trkpt><trkpt lat="44.0805708" lon="12.1408864"><ele>245.0</ele><time>2026-04-18T15:17:01.926Z</time></trkpt><trkpt lat="44.0805682" lon="12.1409742"><ele>242.83333333333334</ele><time>2026-04-18T15:17:03.924Z</time></trkpt><trkpt lat="44.0805584" lon="12.1410697"><ele>240.66666666666669</ele><time>2026-04-18T15:17:06.94Z</time></trkpt><trkpt lat="44.0805323" lon="12.1411671"><ele>238.5</ele><time>2026-04-18T15:17:09.939Z</time></trkpt><trkpt lat="44.080523" lon="12.1412739"><ele>236.33333333333331</ele><time>2026-04-18T15:17:12.938Z</time></trkpt><trkpt lat="44.0805131" lon="12.1413881"><ele>234.16666666666666</ele><time>2026-04-18T15:17:15.934Z</time></trkpt><trkpt lat="44.080492" lon="12.1414964"><ele>232.0</ele><time>2026-04-18T15:17:18.933Z</time></trkpt><trkpt lat="44.0804875" lon="12.1416013"><ele>229.16666666666666</ele><time>2026-04-18T15:17:21.937Z</time></trkpt><trkpt lat="44.0804887" lon="12.1417025"><ele>226.33333333333331</ele><time>2026-04-18T15:17:24.939Z</time></trkpt><trkpt lat="44.0804961" lon="12.1418283"><ele>223.5</ele><time>2026-04-18T15:17:27.935Z</time></trkpt><trkpt lat="44.0804914" lon="12.1419461"><ele>220.66666666666669</ele><time>2026-04-18T15:17:30.933Z</time></trkpt><trkpt lat="44.0804625" lon="12.1420679"><ele>217.83333333333334</ele><time>2026-04-18T15:17:33.931Z</time></trkpt><trkpt lat="44.0804234" lon="12.1421741"><ele>215.0</ele><time>2026-04-18T15:17:36.935Z</time></trkpt><trkpt lat="44.0803738" lon="12.142237"><ele>215.0</ele><time>2026-04-18T15:17:39.937Z</time></trkpt><trkpt lat="44.0803262" lon="12.1423094"><ele>215.0</ele><time>2026-04-18T15:17:44.938Z</time></trkpt><trkpt lat="44.080262" lon="12.1423381"><ele>215.0</ele><time>2026-04-18T15:17:48.934Z</time></trkpt><trkpt lat="44.0801821" lon="12.1423562"><ele>215.0</ele><time>2026-04-18T15:17:52.94Z</time></trkpt><trkpt lat="44.0801094" lon="12.1423267"><ele>215.0</ele><time>2026-04-18T15:17:56.932Z</time></trkpt><trkpt lat="44.0800633" lon="12.1422662"><ele>215.0</ele><time>2026-04-18T15:17:59.939Z</time></trkpt><trkpt lat="44.0800193" lon="12.1421968"><ele>215.0</ele><time>2026-04-18T15:18:03.911Z</time></trkpt><trkpt lat="44.0799571" lon="12.1421627"><ele>215.57142857142856</ele><time>2026-04-18T15:18:09.923Z</time></trkpt><trkpt lat="44.0798866" lon="12.1421738"><ele>216.14285714285717</ele><time>2026-04-18T15:18:50.925Z</time></trkpt><trkpt lat="44.0798162" lon="12.1422274"><ele>216.71428571428572</ele><time>2026-04-18T15:19:23.917Z</time></trkpt><trkpt lat="44.0797845" lon="12.1423126"><ele>217.28571428571428</ele><time>2026-04-18T15:19:33.91Z</time></trkpt><trkpt lat="44.0798021" lon="12.1424074"><ele>217.85714285714283</ele><time>2026-04-18T15:20:13.914Z</time></trkpt><trkpt lat="44.0798315" lon="12.1424974"><ele>218.42857142857144</ele><time>2026-04-18T15:20:21.909Z</time></trkpt><trkpt lat="44.0798705" lon="12.1425795"><ele>219.0</ele><time>2026-04-18T15:20:27.907Z</time></trkpt><trkpt lat="44.079906" lon="12.1426523"><ele>215.85714285714286</ele><time>2026-04-18T15:20:36.905Z</time></trkpt><trkpt lat="44.0799393" lon="12.1427305"><ele>212.7142857142857</ele><time>2026-04-18T15:20:42.897Z</time></trkpt><trkpt lat="44.0799719" lon="12.1428336"><ele>209.57142857142856</ele><time>2026-04-18T15:20:49.901Z</time></trkpt><trkpt lat="44.0799891" lon="12.1429191"><ele>206.42857142857144</ele><time>2026-04-18T15:20:53.903Z</time></trkpt><trkpt lat="44.0800047" lon="12.1430079"><ele>203.28571428571428</ele><time>2026-04-18T15:20:58.909Z</time></trkpt><trkpt lat="44.0800042" lon="12.1431133"><ele>200.14285714285714</ele><time>2026-04-18T15:21:10.904Z</time></trkpt><trkpt lat="44.0800316" lon="12.1432043"><ele>197.0</ele><time>2026-04-18T15:21:24.915Z</time></trkpt><trkpt lat="44.0800436" lon="12.1433077"><ele>194.71428571428572</ele><time>2026-04-18T15:21:42.912Z</time></trkpt><trkpt lat="44.0800601" lon="12.1434086"><ele>192.42857142857144</ele><time>2026-04-18T15:21:44.908Z</time></trkpt><trkpt lat="44.0800876" lon="12.1435145"><ele>190.14285714285714</ele><time>2026-04-18T15:21:47.909Z</time></trkpt><trkpt lat="44.0801121" lon="12.1436087"><ele>187.85714285714286</ele><time>2026-04-18T15:21:52.911Z</time></trkpt><trkpt lat="44.0801475" lon="12.1436953"><ele>185.57142857142856</ele><time>2026-04-18T15:22:03.925Z</time></trkpt><trkpt lat="44.0802028" lon="12.143767"><ele>183.28571428571428</ele><time>2026-04-18T15:23:00.922Z</time></trkpt><trkpt lat="44.0802223" lon="12.1438509"><ele>181.0</ele><time>2026-04-18T15:23:22.932Z</time></trkpt><trkpt lat="44.0802907" lon="12.143888"><ele>181.0</ele><time>2026-04-18T15:24:32.91Z</time></trkpt><trkpt lat="44.0803349" lon="12.143968"><ele>181.0</ele><time>2026-04-18T15:24:36.908Z</time></trkpt><trkpt lat="44.0803551" lon="12.1440634"><ele>181.0</ele><time>2026-04-18T15:24:40.905Z</time></trkpt><trkpt lat="44.0804051" lon="12.1441317"><ele>181.0</ele><time>2026-04-18T15:24:46.908Z</time></trkpt><trkpt lat="44.0804571" lon="12.1441846"><ele>181.0</ele><time>2026-04-18T15:25:04.918Z</time></trkpt><trkpt lat="44.0805065" lon="12.1442483"><ele>181.0</ele><time>2026-04-18T15:25:08.904Z</time></trkpt><trkpt lat="44.0805708" lon="12.1443061"><ele>181.0</ele><time>2026-04-18T15:25:13.907Z</time></trkpt><trkpt lat="44.0805995" lon="12.1443863"><ele>180.33333333333334</ele><time>2026-04-18T15:25:16.907Z</time></trkpt><trkpt lat="44.080629" lon="12.1444955"><ele>179.66666666666669</ele><time>2026-04-18T15:25:19.908Z</time></trkpt><trkpt lat="44.0806301" lon="12.1446017"><ele>179.0</ele><time>2026-04-18T15:25:22.908Z</time></trkpt><trkpt lat="44.0806035" lon="12.1447228"><ele>178.33333333333334</ele><time>2026-04-18T15:25:25.91Z</time></trkpt><trkpt lat="44.0805805" lon="12.1448149"><ele>177.66666666666666</ele><time>2026-04-18T15:25:27.911Z</time></trkpt><trkpt lat="44.0805672" lon="12.144921"><ele>177.0</ele><time>2026-04-18T15:25:29.907Z</time></trkpt><trkpt lat="44.0805546" lon="12.1450235"><ele>176.66666666666666</ele><time>2026-04-18T15:25:32.912Z</time></trkpt><trkpt lat="44.0805367" lon="12.1451345"><ele>176.33333333333334</ele><time>2026-04-18T15:25:37.912Z</time></trkpt><trkpt lat="44.0805346" lon="12.1452227"><ele>176.0</ele><time>2026-04-18T15:25:40.914Z</time></trkpt><trkpt lat="44.0805082" lon="12.1453267"><ele>175.66666666666669</ele><time>2026-04-18T15:25:44.91Z</time></trkpt><trkpt lat="44.0805041" lon="12.1454208"><ele>175.33333333333334</ele><time>2026-04-18T15:25:47.914Z</time></trkpt><trkpt lat="44.0805192" lon="12.1455412"><ele>175.0</ele><time>2026-04-18T15:25:50.915Z</time></trkpt><trkpt lat="44.0805243" lon="12.145659"><ele>175.14285714285714</ele><time>2026-04-18T15:25:53.91Z</time></trkpt><trkpt lat="44.0805296" lon="12.1457487"><ele>175.28571428571428</ele><time>2026-04-18T15:25:55.911Z</time></trkpt><trkpt lat="44.0805016" lon="12.1458461"><ele>175.42857142857144</ele><time>2026-04-18T15:25:58.911Z</time></trkpt><trkpt lat="44.0804531" lon="12.145912"><ele>175.57142857142856</ele><time>2026-04-18T15:26:01.911Z</time></trkpt><trkpt lat="44.0804604" lon="12.146006"><ele>175.71428571428572</ele><time>2026-04-18T15:26:05.91Z</time></trkpt><trkpt lat="44.0804895" lon="12.1460916"><ele>175.85714285714286</ele><time>2026-04-18T15:26:09.911Z</time></trkpt><trkpt lat="44.0805673" lon="12.146133"><ele>176.0</ele><time>2026-04-18T15:30:33.922Z</time></trkpt><trkpt lat="44.0806282" lon="12.1461574"><ele>176.0</ele><time>2026-04-18T15:30:36.911Z</time></trkpt><trkpt lat="44.0807021" lon="12.1461811"><ele>176.0</ele><time>2026-04-18T15:30:39.907Z</time></trkpt><trkpt lat="44.0808031" lon="12.1461958"><ele>176.0</ele><time>2026-04-18T15:30:42.913Z</time></trkpt><trkpt lat="44.080886" lon="12.1462292"><ele>176.0</ele><time>2026-04-18T15:30:44.911Z</time></trkpt><trkpt lat="44.0809556" lon="12.146286"><ele>176.0</ele><time>2026-04-18T15:30:46.91Z</time></trkpt><trkpt lat="44.0810279" lon="12.1463354"><ele>176.0</ele><time>2026-04-18T15:30:48.908Z</time></trkpt><trkpt lat="44.0810914" lon="12.1463983"><ele>174.57142857142858</ele><time>2026-04-18T15:30:50.913Z</time></trkpt><trkpt lat="44.0811608" lon="12.1464462"><ele>173.14285714285714</ele><time>2026-04-18T15:30:52.923Z</time></trkpt><trkpt lat="44.0812248" lon="12.1464794"><ele>171.71428571428572</ele><time>2026-04-18T15:30:54.913Z</time></trkpt><trkpt lat="44.0812881" lon="12.1464684"><ele>170.28571428571428</ele><time>2026-04-18T15:31:02.914Z</time></trkpt><trkpt lat="44.0813431" lon="12.1464179"><ele>168.85714285714286</ele><time>2026-04-18T15:31:07.922Z</time></trkpt><trkpt lat="44.0813789" lon="12.1463283"><ele>167.42857142857142</ele><time>2026-04-18T15:31:15.913Z</time></trkpt><trkpt lat="44.081445" lon="12.1462666"><ele>166.0</ele><time>2026-04-18T15:31:20.915Z</time></trkpt><trkpt lat="44.0815111" lon="12.1462327"><ele>166.0</ele><time>2026-04-18T15:31:24.911Z</time></trkpt><trkpt lat="44.0815726" lon="12.1462595"><ele>166.0</ele><time>2026-04-18T15:31:29.914Z</time></trkpt><trkpt lat="44.0816359" lon="12.1463174"><ele>166.0</ele><time>2026-04-18T15:31:34.914Z</time></trkpt><trkpt lat="44.0817022" lon="12.1463903"><ele>166.0</ele><time>2026-04-18T15:31:38.917Z</time></trkpt><trkpt lat="44.0817704" lon="12.1464666"><ele>166.0</ele><time>2026-04-18T15:31:41.91Z</time></trkpt><trkpt lat="44.0818537" lon="12.1465361"><ele>166.0</ele><time>2026-04-18T15:31:44.911Z</time></trkpt><trkpt lat="44.0819418" lon="12.1465722"><ele>165.28571428571428</ele><time>2026-04-18T15:31:47.911Z</time></trkpt><trkpt lat="44.082029" lon="12.1465926"><ele>164.57142857142858</ele><time>2026-04-18T15:31:50.907Z</time></trkpt><trkpt lat="44.0821127" lon="12.1465677"><ele>163.85714285714286</ele><time>2026-04-18T15:31:53.918Z</time></trkpt><trkpt lat="44.0821794" lon="12.146531"><ele>163.14285714285714</ele><time>2026-04-18T15:31:57.905Z</time></trkpt><trkpt lat="44.0822409" lon="12.1465569"><ele>162.42857142857144</ele><time>2026-04-18T15:32:01.895Z</time></trkpt><trkpt lat="44.0822577" lon="12.1466455"><ele>161.71428571428572</ele><time>2026-04-18T15:33:34.906Z</time></trkpt><trkpt lat="44.0822755" lon="12.1467449"><ele>161.0</ele><time>2026-04-18T15:33:37.903Z</time></trkpt><trkpt lat="44.082289" lon="12.1468578"><ele>161.16666666666666</ele><time>2026-04-18T15:33:40.902Z</time></trkpt><trkpt lat="44.082302" lon="12.1469675"><ele>161.33333333333331</ele><time>2026-04-18T15:33:43.9Z</time></trkpt><trkpt lat="44.0823126" lon="12.1470821"><ele>161.5</ele><time>2026-04-18T15:33:46.895Z</time></trkpt><trkpt lat="44.0823195" lon="12.1471874"><ele>161.66666666666666</ele><time>2026-04-18T15:33:48.895Z</time></trkpt><trkpt lat="44.0823356" lon="12.1473188"><ele>161.83333333333334</ele><time>2026-04-18T15:33:50.894Z</time></trkpt><trkpt lat="44.0823585" lon="12.1474656"><ele>162.0</ele><time>2026-04-18T15:33:52.895Z</time></trkpt><trkpt lat="44.0823813" lon="12.1476001"><ele>162.0</ele><time>2026-04-18T15:33:54.891Z</time></trkpt><trkpt lat="44.0824105" lon="12.1477315"><ele>162.0</ele><time>2026-04-18T15:33:56.892Z</time></trkpt><trkpt lat="44.0824507" lon="12.1478293"><ele>162.0</ele><time>2026-04-18T15:33:58.905Z</time></trkpt><trkpt lat="44.082501" lon="12.1479079"><ele>162.0</ele><time>2026-04-18T15:34:00.894Z</time></trkpt><trkpt lat="44.0825488" lon="12.1479701"><ele>162.0</ele><time>2026-04-18T15:34:02.895Z</time></trkpt><trkpt lat="44.0826011" lon="12.1480263"><ele>162.0</ele><time>2026-04-18T15:34:04.895Z</time></trkpt><trkpt lat="44.0826663" lon="12.1480719"><ele>161.5</ele><time>2026-04-18T15:34:06.892Z</time></trkpt><trkpt lat="44.0827287" lon="12.1480931"><ele>161.0</ele><time>2026-04-18T15:34:08.897Z</time></trkpt><trkpt lat="44.0828177" lon="12.1481373"><ele>160.5</ele><time>2026-04-18T15:34:11.895Z</time></trkpt><trkpt lat="44.082872" lon="12.1481817"><ele>160.0</ele><time>2026-04-18T15:34:13.895Z</time></trkpt><trkpt lat="44.0829316" lon="12.1482593"><ele>159.5</ele><time>2026-04-18T15:34:15.895Z</time></trkpt><trkpt lat="44.0829915" lon="12.1483774"><ele>159.0</ele><time>2026-04-18T15:34:17.894Z</time></trkpt><trkpt lat="44.0830297" lon="12.1484843"><ele>159.0</ele><time>2026-04-18T15:34:19.891Z</time></trkpt><trkpt lat="44.0830448" lon="12.1486092"><ele>159.0</ele><time>2026-04-18T15:34:21.894Z</time></trkpt><trkpt lat="44.0830251" lon="12.1487742"><ele>159.0</ele><time>2026-04-18T15:34:23.884Z</time></trkpt><trkpt lat="44.0830222" lon="12.1488737"><ele>159.0</ele><time>2026-04-18T15:34:24.891Z</time></trkpt><trkpt lat="44.0830184" lon="12.1489698"><ele>159.0</ele><time>2026-04-18T15:34:25.886Z</time></trkpt><trkpt lat="44.0830185" lon="12.1490591"><ele>159.0</ele><time>2026-04-18T15:34:26.884Z</time></trkpt><trkpt lat="44.0830365" lon="12.149222"><ele>158.8</ele><time>2026-04-18T15:34:28.886Z</time></trkpt><trkpt lat="44.0830479" lon="12.149379"><ele>158.60000000000002</ele><time>2026-04-18T15:34:30.883Z</time></trkpt><trkpt lat="44.0830466" lon="12.1495254"><ele>158.4</ele><time>2026-04-18T15:34:32.877Z</time></trkpt><trkpt lat="44.0830531" lon="12.1497061"><ele>158.20000000000002</ele><time>2026-04-18T15:34:34.879Z</time></trkpt><trkpt lat="44.0830635" lon="12.1498046"><ele>158.0</ele><time>2026-04-18T15:34:35.879Z</time></trkpt><trkpt lat="44.0830746" lon="12.1499079"><ele>157.57142857142858</ele><time>2026-04-18T15:34:36.882Z</time></trkpt><trkpt lat="44.0830847" lon="12.1500223"><ele>157.14285714285714</ele><time>2026-04-18T15:34:37.879Z</time></trkpt><trkpt lat="44.0830824" lon="12.1501267"><ele>156.71428571428572</ele><time>2026-04-18T15:34:38.882Z</time></trkpt><trkpt lat="44.0830681" lon="12.150223"><ele>156.28571428571428</ele><time>2026-04-18T15:34:39.88Z</time></trkpt><trkpt lat="44.0830474" lon="12.150313"><ele>155.85714285714286</ele><time>2026-04-18T15:34:40.888Z</time></trkpt><trkpt lat="44.0830188" lon="12.1503916"><ele>155.42857142857144</ele><time>2026-04-18T15:34:41.888Z</time></trkpt><trkpt lat="44.0829673" lon="12.1504712"><ele>155.0</ele><time>2026-04-18T15:34:42.887Z</time></trkpt><trkpt lat="44.0829156" lon="12.1505431"><ele>155.0</ele><time>2026-04-18T15:34:43.883Z</time></trkpt><trkpt lat="44.0828741" lon="12.1506326"><ele>155.0</ele><time>2026-04-18T15:34:44.882Z</time></trkpt><trkpt lat="44.0828423" lon="12.1507087"><ele>155.0</ele><time>2026-04-18T15:34:45.879Z</time></trkpt><trkpt lat="44.0827994" lon="12.1508718"><ele>155.0</ele><time>2026-04-18T15:34:47.883Z</time></trkpt><trkpt lat="44.0827682" lon="12.1510227"><ele>155.0</ele><time>2026-04-18T15:34:49.879Z</time></trkpt><trkpt lat="44.0827284" lon="12.1511718"><ele>154.0</ele><time>2026-04-18T15:34:51.887Z</time></trkpt><trkpt lat="44.0827163" lon="12.1513417"><ele>153.0</ele><time>2026-04-18T15:34:53.876Z</time></trkpt><trkpt lat="44.0827342" lon="12.1514376"><ele>152.0</ele><time>2026-04-18T15:34:54.878Z</time></trkpt><trkpt lat="44.082753" lon="12.1515424"><ele>151.0</ele><time>2026-04-18T15:34:55.876Z</time></trkpt><trkpt lat="44.082761" lon="12.1516454"><ele>150.0</ele><time>2026-04-18T15:34:56.878Z</time></trkpt><trkpt lat="44.082755" lon="12.1517493"><ele>149.0</ele><time>2026-04-18T15:34:57.884Z</time></trkpt><trkpt lat="44.0827412" lon="12.1518484"><ele>148.14285714285714</ele><time>2026-04-18T15:34:58.881Z</time></trkpt><trkpt lat="44.082727" lon="12.151942"><ele>147.28571428571428</ele><time>2026-04-18T15:34:59.879Z</time></trkpt><trkpt lat="44.0827099" lon="12.1520276"><ele>146.42857142857142</ele><time>2026-04-18T15:35:00.895Z</time></trkpt><trkpt lat="44.0826811" lon="12.1521821"><ele>145.57142857142856</ele><time>2026-04-18T15:35:02.882Z</time></trkpt><trkpt lat="44.0826791" lon="12.1522721"><ele>144.71428571428572</ele><time>2026-04-18T15:35:03.881Z</time></trkpt><trkpt lat="44.0826921" lon="12.1523651"><ele>143.85714285714283</ele><time>2026-04-18T15:35:04.881Z</time></trkpt><trkpt lat="44.0827116" lon="12.1524564"><ele>143.0</ele><time>2026-04-18T15:35:05.881Z</time></trkpt><trkpt lat="44.0827617" lon="12.1526204"><ele>142.4</ele><time>2026-04-18T15:35:07.882Z</time></trkpt><trkpt lat="44.0827936" lon="12.1527725"><ele>141.8</ele><time>2026-04-18T15:35:09.878Z</time></trkpt><trkpt lat="44.0828005" lon="12.1529132"><ele>141.2</ele><time>2026-04-18T15:35:11.879Z</time></trkpt><trkpt lat="44.0827928" lon="12.1530461"><ele>140.6</ele><time>2026-04-18T15:35:13.88Z</time></trkpt><trkpt lat="44.0827842" lon="12.1531818"><ele>140.0</ele><time>2026-04-18T15:35:15.882Z</time></trkpt><trkpt lat="44.0828018" lon="12.1533129"><ele>140.0</ele><time>2026-04-18T15:35:17.89Z</time></trkpt><trkpt lat="44.0828309" lon="12.1534457"><ele>140.0</ele><time>2026-04-18T15:35:19.888Z</time></trkpt><trkpt lat="44.0828587" lon="12.1535639"><ele>140.0</ele><time>2026-04-18T15:35:21.895Z</time></trkpt><trkpt lat="44.0828712" lon="12.1536698"><ele>140.0</ele><time>2026-04-18T15:35:23.891Z</time></trkpt><trkpt lat="44.0828924" lon="12.1537618"><ele>140.0</ele><time>2026-04-18T15:35:25.892Z</time></trkpt><trkpt lat="44.0829246" lon="12.1538564"><ele>140.0</ele><time>2026-04-18T15:35:27.889Z</time></trkpt><trkpt lat="44.0829747" lon="12.1539498"><ele>139.4</ele><time>2026-04-18T15:35:29.891Z</time></trkpt><trkpt lat="44.0830404" lon="12.154048"><ele>138.8</ele><time>2026-04-18T15:35:31.905Z</time></trkpt><trkpt lat="44.0831047" lon="12.1541289"><ele>138.2</ele><time>2026-04-18T15:35:33.89Z</time></trkpt><trkpt lat="44.0831813" lon="12.1542199"><ele>137.6</ele><time>2026-04-18T15:35:35.884Z</time></trkpt><trkpt lat="44.0832601" lon="12.1543654"><ele>137.0</ele><time>2026-04-18T15:35:37.874Z</time></trkpt><trkpt lat="44.0832963" lon="12.1544538"><ele>137.0</ele><time>2026-04-18T15:35:38.876Z</time></trkpt><trkpt lat="44.083331" lon="12.1545491"><ele>137.0</ele><time>2026-04-18T15:35:39.879Z</time></trkpt><trkpt lat="44.0833576" lon="12.1546388"><ele>137.0</ele><time>2026-04-18T15:35:40.874Z</time></trkpt><trkpt lat="44.083381" lon="12.1547299"><ele>137.0</ele><time>2026-04-18T15:35:41.883Z</time></trkpt><trkpt lat="44.0834022" lon="12.1548178"><ele>137.0</ele><time>2026-04-18T15:35:42.883Z</time></trkpt><trkpt lat="44.0834095" lon="12.1549098"><ele>137.0</ele><time>2026-04-18T15:35:43.882Z</time></trkpt><trkpt lat="44.0834087" lon="12.1550712"><ele>135.6</ele><time>2026-04-18T15:35:45.883Z</time></trkpt><trkpt lat="44.0834015" lon="12.1552125"><ele>134.2</ele><time>2026-04-18T15:35:47.887Z</time></trkpt><trkpt lat="44.0833993" lon="12.1553466"><ele>132.8</ele><time>2026-04-18T15:35:49.888Z</time></trkpt><trkpt lat="44.0834003" lon="12.1554836"><ele>131.4</ele><time>2026-04-18T15:35:51.89Z</time></trkpt><trkpt lat="44.0833945" lon="12.1556163"><ele>130.0</ele><time>2026-04-18T15:35:53.895Z</time></trkpt><trkpt lat="44.0833973" lon="12.1557256"><ele>129.83333333333334</ele><time>2026-04-18T15:35:55.893Z</time></trkpt><trkpt lat="44.0834063" lon="12.1558284"><ele>129.66666666666669</ele><time>2026-04-18T15:35:57.897Z</time></trkpt><trkpt lat="44.0834211" lon="12.1559288"><ele>129.5</ele><time>2026-04-18T15:35:59.892Z</time></trkpt><trkpt lat="44.0834392" lon="12.1560408"><ele>129.33333333333334</ele><time>2026-04-18T15:36:01.893Z</time></trkpt><trkpt lat="44.0834575" lon="12.1561617"><ele>129.16666666666666</ele><time>2026-04-18T15:36:03.893Z</time></trkpt><trkpt lat="44.0834793" lon="12.1563099"><ele>129.0</ele><time>2026-04-18T15:36:05.886Z</time></trkpt><trkpt lat="44.0835125" lon="12.1564622"><ele>128.4</ele><time>2026-04-18T15:36:07.884Z</time></trkpt><trkpt lat="44.0835648" lon="12.1565854"><ele>127.80000000000001</ele><time>2026-04-18T15:36:09.884Z</time></trkpt><trkpt lat="44.0836315" lon="12.1567006"><ele>127.19999999999999</ele><time>2026-04-18T15:36:11.887Z</time></trkpt><trkpt lat="44.0837066" lon="12.156814"><ele>126.6</ele><time>2026-04-18T15:36:13.884Z</time></trkpt><trkpt lat="44.0837653" lon="12.1569241"><ele>126.0</ele><time>2026-04-18T15:36:15.886Z</time></trkpt><trkpt lat="44.0838117" lon="12.1570366"><ele>126.0</ele><time>2026-04-18T15:36:17.885Z</time></trkpt><trkpt lat="44.0838418" lon="12.1571286"><ele>126.0</ele><time>2026-04-18T15:36:19.891Z</time></trkpt><trkpt lat="44.0838725" lon="12.1572306"><ele>126.0</ele><time>2026-04-18T15:36:22.891Z</time></trkpt><trkpt lat="44.0839023" lon="12.1573144"><ele>126.0</ele><time>2026-04-18T15:36:25.89Z</time></trkpt><trkpt lat="44.0839445" lon="12.1573892"><ele>126.0</ele><time>2026-04-18T15:36:27.887Z</time></trkpt><trkpt lat="44.0839941" lon="12.157482"><ele>126.0</ele><time>2026-04-18T15:36:29.889Z</time></trkpt><trkpt lat="44.0840477" lon="12.1575589"><ele>126.0</ele><time>2026-04-18T15:36:31.89Z</time></trkpt><trkpt lat="44.084094" lon="12.1576248"><ele>125.14285714285714</ele><time>2026-04-18T15:36:33.9Z</time></trkpt><trkpt lat="44.0841536" lon="12.1576663"><ele>124.28571428571428</ele><time>2026-04-18T15:36:35.887Z</time></trkpt><trkpt lat="44.0842159" lon="12.1577212"><ele>123.42857142857143</ele><time>2026-04-18T15:36:37.883Z</time></trkpt><trkpt lat="44.0842829" lon="12.1577963"><ele>122.57142857142857</ele><time>2026-04-18T15:36:39.887Z</time></trkpt><trkpt lat="44.0843346" lon="12.1578914"><ele>121.71428571428571</ele><time>2026-04-18T15:36:42.887Z</time></trkpt><trkpt lat="44.0843669" lon="12.1579754"><ele>120.85714285714286</ele><time>2026-04-18T15:36:46.894Z</time></trkpt><trkpt lat="44.0844072" lon="12.1580484"><ele>120.0</ele><time>2026-04-18T15:36:50.89Z</time></trkpt><trkpt lat="44.0844585" lon="12.1581062"><ele>120.0</ele><time>2026-04-18T15:36:55.893Z</time></trkpt><trkpt lat="44.0844549" lon="12.1581992"><ele>120.0</ele><time>2026-04-18T15:38:44.91Z</time></trkpt><trkpt lat="44.0844893" lon="12.1582838"><ele>120.0</ele><time>2026-04-18T15:39:24.903Z</time></trkpt><trkpt lat="44.0845519" lon="12.158303"><ele>120.0</ele><time>2026-04-18T15:39:34.895Z</time></trkpt><trkpt lat="44.084583" lon="12.1583811"><ele>120.0</ele><time>2026-04-18T15:39:39.896Z</time></trkpt><trkpt lat="44.0846283" lon="12.1584577"><ele>120.0</ele><time>2026-04-18T15:39:44.897Z</time></trkpt><trkpt lat="44.0846845" lon="12.1585158"><ele>120.0</ele><time>2026-04-18T15:40:04.895Z</time></trkpt><trkpt lat="44.0847488" lon="12.1585625"><ele>119.83333333333333</ele><time>2026-04-18T15:40:07.891Z</time></trkpt><trkpt lat="44.0848" lon="12.1586261"><ele>119.66666666666666</ele><time>2026-04-18T15:40:10.89Z</time></trkpt><trkpt lat="44.0848331" lon="12.1587036"><ele>119.5</ele><time>2026-04-18T15:40:24.907Z</time></trkpt><trkpt lat="44.0848545" lon="12.1588183"><ele>119.33333333333333</ele><time>2026-04-18T15:40:28.892Z</time></trkpt><trkpt lat="44.0848859" lon="12.1589235"><ele>119.16666666666666</ele><time>2026-04-18T15:40:31.891Z</time></trkpt><trkpt lat="44.0849229" lon="12.1590488"><ele>119.0</ele><time>2026-04-18T15:40:34.887Z</time></trkpt><trkpt lat="44.0849544" lon="12.1591373"><ele>118.99999999999999</ele><time>2026-04-18T15:40:36.893Z</time></trkpt><trkpt lat="44.084986" lon="12.159246"><ele>119.0</ele><time>2026-04-18T15:40:39.893Z</time></trkpt><trkpt lat="44.0850247" lon="12.1593514"><ele>119.0</ele><time>2026-04-18T15:40:42.897Z</time></trkpt><trkpt lat="44.0850703" lon="12.1594245"><ele>119.0</ele><time>2026-04-18T15:40:45.891Z</time></trkpt><trkpt lat="44.0851383" lon="12.1594341"><ele>118.99999999999999</ele><time>2026-04-18T15:40:49.891Z</time></trkpt><trkpt lat="44.0851737" lon="12.1593368"><ele>119.0</ele><time>2026-04-18T15:42:00.898Z</time></trkpt><trkpt lat="44.0851816" lon="12.159244"><ele>119.0</ele><time>2026-04-18T15:42:03.896Z</time></trkpt><trkpt lat="44.0851742" lon="12.1591513"><ele>119.0</ele><time>2026-04-18T15:42:06.895Z</time></trkpt><trkpt lat="44.0851612" lon="12.1590441"><ele>119.0</ele><time>2026-04-18T15:42:10.897Z</time></trkpt><trkpt lat="44.0851365" lon="12.1589616"><ele>119.0</ele><time>2026-04-18T15:42:14.896Z</time></trkpt><trkpt lat="44.0850993" lon="12.1588907"><ele>119.0</ele><time>2026-04-18T15:42:17.902Z</time></trkpt><trkpt lat="44.0850713" lon="12.1587975"><ele>119.0</ele><time>2026-04-18T15:42:20.903Z</time></trkpt><trkpt lat="44.085046" lon="12.158699"><ele>119.0</ele><time>2026-04-18T15:42:23.9Z</time></trkpt><trkpt lat="44.0850149" lon="12.1585851"><ele>119.14285714285714</ele><time>2026-04-18T15:42:26.894Z</time></trkpt><trkpt lat="44.0849855" lon="12.1584727"><ele>119.28571428571428</ele><time>2026-04-18T15:42:29.899Z</time></trkpt><trkpt lat="44.0849463" lon="12.158378"><ele>119.42857142857143</ele><time>2026-04-18T15:42:32.903Z</time></trkpt><trkpt lat="44.0849232" lon="12.1582795"><ele>119.57142857142857</ele><time>2026-04-18T15:42:35.902Z</time></trkpt><trkpt lat="44.0848954" lon="12.1581995"><ele>119.71428571428571</ele><time>2026-04-18T15:42:38.901Z</time></trkpt><trkpt lat="44.0848477" lon="12.1581211"><ele>119.85714285714286</ele><time>2026-04-18T15:42:42.898Z</time></trkpt><trkpt lat="44.0849068" lon="12.1581735"><ele>120.0</ele><time>2026-04-18T15:44:19.906Z</time></trkpt><trkpt lat="44.0849304" lon="12.158264"><ele>121.0</ele><time>2026-04-18T15:44:22.896Z</time></trkpt><trkpt lat="44.084951" lon="12.1583586"><ele>122.0</ele><time>2026-04-18T15:44:24.911Z</time></trkpt><trkpt lat="44.0849729" lon="12.1584586"><ele>123.0</ele><time>2026-04-18T15:44:26.899Z</time></trkpt><trkpt lat="44.0850034" lon="12.1585628"><ele>124.0</ele><time>2026-04-18T15:44:28.896Z</time></trkpt><trkpt lat="44.0850318" lon="12.158673"><ele>125.0</ele><time>2026-04-18T15:44:30.895Z</time></trkpt><trkpt lat="44.0850595" lon="12.1587762"><ele>126.0</ele><time>2026-04-18T15:44:32.894Z</time></trkpt><trkpt lat="44.0850904" lon="12.1588868"><ele>126.0</ele><time>2026-04-18T15:44:34.902Z</time></trkpt><trkpt lat="44.0851161" lon="12.1590072"><ele>126.0</ele><time>2026-04-18T15:44:36.893Z</time></trkpt><trkpt lat="44.085147" lon="12.1591452"><ele>126.0</ele><time>2026-04-18T15:44:38.887Z</time></trkpt><trkpt lat="44.0851627" lon="12.1593011"><ele>126.0</ele><time>2026-04-18T15:44:40.887Z</time></trkpt><trkpt lat="44.0851667" lon="12.1594653"><ele>126.0</ele><time>2026-04-18T15:44:42.884Z</time></trkpt><trkpt lat="44.0851529" lon="12.1596413"><ele>125.0</ele><time>2026-04-18T15:44:44.913Z</time></trkpt><trkpt lat="44.0851327" lon="12.1597366"><ele>124.0</ele><time>2026-04-18T15:44:45.899Z</time></trkpt><trkpt lat="44.0851066" lon="12.1598322"><ele>123.0</ele><time>2026-04-18T15:44:46.904Z</time></trkpt><trkpt lat="44.0850813" lon="12.1599306"><ele>122.0</ele><time>2026-04-18T15:44:47.895Z</time></trkpt><trkpt lat="44.0850562" lon="12.1600275"><ele>121.0</ele><time>2026-04-18T15:44:48.908Z</time></trkpt><trkpt lat="44.0850281" lon="12.1601217"><ele>120.0</ele><time>2026-04-18T15:44:49.897Z</time></trkpt><trkpt lat="44.0850021" lon="12.1602172"><ele>119.0</ele><time>2026-04-18T15:44:50.897Z</time></trkpt><trkpt lat="44.0849793" lon="12.1603046"><ele>118.57142857142857</ele><time>2026-04-18T15:44:51.895Z</time></trkpt><trkpt lat="44.0849553" lon="12.1603924"><ele>118.14285714285714</ele><time>2026-04-18T15:44:52.896Z</time></trkpt><trkpt lat="44.0849359" lon="12.1604848"><ele>117.71428571428572</ele><time>2026-04-18T15:44:53.894Z</time></trkpt><trkpt lat="44.0849145" lon="12.1605747"><ele>117.28571428571429</ele><time>2026-04-18T15:44:54.91Z</time></trkpt><trkpt lat="44.0848959" lon="12.1606659"><ele>116.85714285714286</ele><time>2026-04-18T15:44:55.9Z</time></trkpt><trkpt lat="44.0848757" lon="12.160754"><ele>116.42857142857144</ele><time>2026-04-18T15:44:56.904Z</time></trkpt><trkpt lat="44.0848501" lon="12.1608468"><ele>116.00000000000001</ele><time>2026-04-18T15:44:57.903Z</time></trkpt><trkpt lat="44.084827" lon="12.1609412"><ele>116.85714285714288</ele><time>2026-04-18T15:44:58.902Z</time></trkpt><trkpt lat="44.0848042" lon="12.1610377"><ele>117.71428571428572</ele><time>2026-04-18T15:44:59.897Z</time></trkpt><trkpt lat="44.0847904" lon="12.1611379"><ele>118.57142857142857</ele><time>2026-04-18T15:45:00.906Z</time></trkpt><trkpt lat="44.0847874" lon="12.1612368"><ele>119.42857142857143</ele><time>2026-04-18T15:45:01.902Z</time></trkpt><trkpt lat="44.0847877" lon="12.161343"><ele>120.28571428571428</ele><time>2026-04-18T15:45:02.902Z</time></trkpt><trkpt lat="44.0847884" lon="12.1614474"><ele>121.14285714285712</ele><time>2026-04-18T15:45:03.902Z</time></trkpt><trkpt lat="44.0847976" lon="12.1615577"><ele>121.99999999999999</ele><time>2026-04-18T15:45:04.913Z</time></trkpt><trkpt lat="44.0848121" lon="12.1616706"><ele>121.99999999999999</ele><time>2026-04-18T15:45:05.901Z</time></trkpt><trkpt lat="44.0848273" lon="12.1617801"><ele>122.0</ele><time>2026-04-18T15:45:06.908Z</time></trkpt><trkpt lat="44.0848462" lon="12.16188"><ele>122.0</ele><time>2026-04-18T15:45:07.902Z</time></trkpt><trkpt lat="44.0848693" lon="12.1619834"><ele>122.0</ele><time>2026-04-18T15:45:08.903Z</time></trkpt><trkpt lat="44.0848964" lon="12.1620855"><ele>121.99999999999999</ele><time>2026-04-18T15:45:09.901Z</time></trkpt><trkpt lat="44.0849215" lon="12.1621789"><ele>122.0</ele><time>2026-04-18T15:45:10.897Z</time></trkpt><trkpt lat="44.0849409" lon="12.1622705"><ele>120.85714285714283</ele><time>2026-04-18T15:45:11.901Z</time></trkpt><trkpt lat="44.0849681" lon="12.1623619"><ele>119.71428571428571</ele><time>2026-04-18T15:45:12.901Z</time></trkpt><trkpt lat="44.0849934" lon="12.162462"><ele>118.57142857142856</ele><time>2026-04-18T15:45:13.901Z</time></trkpt><trkpt lat="44.0850157" lon="12.1625559"><ele>117.42857142857142</ele><time>2026-04-18T15:45:14.904Z</time></trkpt><trkpt lat="44.0850399" lon="12.1626528"><ele>116.28571428571428</ele><time>2026-04-18T15:45:15.903Z</time></trkpt><trkpt lat="44.0850636" lon="12.1627472"><ele>115.14285714285714</ele><time>2026-04-18T15:45:16.902Z</time></trkpt><trkpt lat="44.0850877" lon="12.1628401"><ele>114.0</ele><time>2026-04-18T15:45:17.915Z</time></trkpt><trkpt lat="44.08511" lon="12.1629255"><ele>114.2</ele><time>2026-04-18T15:45:18.904Z</time></trkpt><trkpt lat="44.0851298" lon="12.1630128"><ele>114.4</ele><time>2026-04-18T15:45:19.915Z</time></trkpt><trkpt lat="44.0851654" lon="12.1631753"><ele>114.6</ele><time>2026-04-18T15:45:21.907Z</time></trkpt><trkpt lat="44.0852032" lon="12.1633272"><ele>114.8</ele><time>2026-04-18T15:45:23.9Z</time></trkpt><trkpt lat="44.0852355" lon="12.1634877"><ele>115.0</ele><time>2026-04-18T15:45:25.897Z</time></trkpt><trkpt lat="44.0852681" lon="12.1636401"><ele>115.0</ele><time>2026-04-18T15:45:27.911Z</time></trkpt><trkpt lat="44.0852858" lon="12.1637956"><ele>115.0</ele><time>2026-04-18T15:45:29.902Z</time></trkpt><trkpt lat="44.0852971" lon="12.1639435"><ele>115.0</ele><time>2026-04-18T15:45:31.901Z</time></trkpt><trkpt lat="44.085299" lon="12.1640873"><ele>115.0</ele><time>2026-04-18T15:45:33.899Z</time></trkpt><trkpt lat="44.0852988" lon="12.1642428"><ele>115.0</ele><time>2026-04-18T15:45:35.902Z</time></trkpt><trkpt lat="44.0852924" lon="12.1643982"><ele>114.8</ele><time>2026-04-18T15:45:37.909Z</time></trkpt><trkpt lat="44.085283" lon="12.16455"><ele>114.6</ele><time>2026-04-18T15:45:39.902Z</time></trkpt><trkpt lat="44.0852812" lon="12.1646863"><ele>114.4</ele><time>2026-04-18T15:45:41.9Z</time></trkpt><trkpt lat="44.0852782" lon="12.1648054"><ele>114.2</ele><time>2026-04-18T15:45:43.902Z</time></trkpt><trkpt lat="44.0852766" lon="12.1649184"><ele>114.0</ele><time>2026-04-18T15:45:45.905Z</time></trkpt><trkpt lat="44.0852747" lon="12.1650358"><ele>113.80000000000001</ele><time>2026-04-18T15:45:47.918Z</time></trkpt><trkpt lat="44.0852777" lon="12.1651638"><ele>113.60000000000001</ele><time>2026-04-18T15:45:49.911Z</time></trkpt><trkpt lat="44.0852682" lon="12.1652866"><ele>113.4</ele><time>2026-04-18T15:45:51.907Z</time></trkpt><trkpt lat="44.0852654" lon="12.1654206"><ele>113.2</ele><time>2026-04-18T15:45:53.91Z</time></trkpt><trkpt lat="44.0852499" lon="12.1655579"><ele>113.0</ele><time>2026-04-18T15:45:55.904Z</time></trkpt><trkpt lat="44.0852405" lon="12.1656941"><ele>112.80000000000001</ele><time>2026-04-18T15:45:57.916Z</time></trkpt><trkpt lat="44.0852411" lon="12.1658294"><ele>112.60000000000001</ele><time>2026-04-18T15:45:59.905Z</time></trkpt><trkpt lat="44.0852318" lon="12.1659709"><ele>112.39999999999999</ele><time>2026-04-18T15:46:01.898Z</time></trkpt><trkpt lat="44.0852256" lon="12.1661243"><ele>112.19999999999999</ele><time>2026-04-18T15:46:03.897Z</time></trkpt><trkpt lat="44.0852304" lon="12.1662731"><ele>112.0</ele><time>2026-04-18T15:46:05.895Z</time></trkpt><trkpt lat="44.0852348" lon="12.1664134"><ele>112.0</ele><time>2026-04-18T15:46:07.912Z</time></trkpt><trkpt lat="44.0852556" lon="12.1665438"><ele>111.99999999999999</ele><time>2026-04-18T15:46:09.895Z</time></trkpt><trkpt lat="44.0852687" lon="12.1666788"><ele>111.99999999999999</ele><time>2026-04-18T15:46:11.897Z</time></trkpt><trkpt lat="44.0852777" lon="12.166808"><ele>112.0</ele><time>2026-04-18T15:46:13.897Z</time></trkpt><trkpt lat="44.0852804" lon="12.1669388"><ele>112.0</ele><time>2026-04-18T15:46:15.905Z</time></trkpt><trkpt lat="44.0852791" lon="12.1670641"><ele>112.00000000000001</ele><time>2026-04-18T15:46:17.92Z</time></trkpt><trkpt lat="44.0852795" lon="12.1671887"><ele>112.0</ele><time>2026-04-18T15:46:19.906Z</time></trkpt><trkpt lat="44.0852854" lon="12.1673103"><ele>112.0</ele><time>2026-04-18T15:46:21.918Z</time></trkpt><trkpt lat="44.0852901" lon="12.167439"><ele>112.0</ele><time>2026-04-18T15:46:23.906Z</time></trkpt><trkpt lat="44.0852987" lon="12.1675678"><ele>112.00000000000001</ele><time>2026-04-18T15:46:25.905Z</time></trkpt><trkpt lat="44.085309" lon="12.1676871"><ele>112.0</ele><time>2026-04-18T15:46:27.916Z</time></trkpt><trkpt lat="44.0853176" lon="12.167812"><ele>111.50000000000001</ele><time>2026-04-18T15:46:29.907Z</time></trkpt><trkpt lat="44.0853323" lon="12.1679323"><ele>111.0</ele><time>2026-04-18T15:46:31.902Z</time></trkpt><trkpt lat="44.0853496" lon="12.1680595"><ele>110.5</ele><time>2026-04-18T15:46:33.901Z</time></trkpt><trkpt lat="44.0853716" lon="12.1681829"><ele>110.0</ele><time>2026-04-18T15:46:35.903Z</time></trkpt><trkpt lat="44.0854057" lon="12.1682962"><ele>109.50000000000001</ele><time>2026-04-18T15:46:37.918Z</time></trkpt><trkpt lat="44.0854397" lon="12.1684061"><ele>109.0</ele><time>2026-04-18T15:46:39.906Z</time></trkpt><trkpt lat="44.0854786" lon="12.1685152"><ele>108.66666666666667</ele><time>2026-04-18T15:46:41.906Z</time></trkpt><trkpt lat="44.0855282" lon="12.1686193"><ele>108.33333333333334</ele><time>2026-04-18T15:46:43.905Z</time></trkpt><trkpt lat="44.0855887" lon="12.1687321"><ele>108.0</ele><time>2026-04-18T15:46:45.9Z</time></trkpt><trkpt lat="44.0856484" lon="12.1688079"><ele>107.66666666666666</ele><time>2026-04-18T15:46:47.902Z</time></trkpt><trkpt lat="44.0857024" lon="12.1688705"><ele>107.33333333333333</ele><time>2026-04-18T15:46:49.901Z</time></trkpt><trkpt lat="44.0857624" lon="12.168948"><ele>107.0</ele><time>2026-04-18T15:46:52.916Z</time></trkpt><trkpt lat="44.0858018" lon="12.1690188"><ele>110.49999999999999</ele><time>2026-04-18T15:46:54.904Z</time></trkpt><trkpt lat="44.0858411" lon="12.1691354"><ele>114.0</ele><time>2026-04-18T15:46:57.897Z</time></trkpt><trkpt lat="44.0858638" lon="12.1692324"><ele>117.5</ele><time>2026-04-18T15:46:59.898Z</time></trkpt><trkpt lat="44.0858864" lon="12.1693217"><ele>121.0</ele><time>2026-04-18T15:47:01.898Z</time></trkpt><trkpt lat="44.0859111" lon="12.1694058"><ele>124.49999999999999</ele><time>2026-04-18T15:47:03.897Z</time></trkpt><trkpt lat="44.0859343" lon="12.1694945"><ele>128.0</ele><time>2026-04-18T15:47:05.9Z</time></trkpt><trkpt lat="44.0859501" lon="12.1696169"><ele>127.99999999999999</ele><time>2026-04-18T15:47:08.913Z</time></trkpt><trkpt lat="44.0859731" lon="12.1697287"><ele>128.0</ele><time>2026-04-18T15:47:11.902Z</time></trkpt><trkpt lat="44.0859926" lon="12.1698363"><ele>128.0</ele><time>2026-04-18T15:47:14.904Z</time></trkpt><trkpt lat="44.0860105" lon="12.1699489"><ele>128.0</ele><time>2026-04-18T15:47:17.908Z</time></trkpt><trkpt lat="44.0860221" lon="12.1700621"><ele>127.99999999999999</ele><time>2026-04-18T15:47:20.909Z</time></trkpt><trkpt lat="44.0860382" lon="12.1701716"><ele>128.0</ele><time>2026-04-18T15:47:23.935Z</time></trkpt><trkpt lat="44.0860492" lon="12.1702895"><ele>127.66666666666666</ele><time>2026-04-18T15:47:26.91Z</time></trkpt><trkpt lat="44.0860582" lon="12.1704058"><ele>127.33333333333333</ele><time>2026-04-18T15:47:29.906Z</time></trkpt><trkpt lat="44.0860654" lon="12.1704947"><ele>127.0</ele><time>2026-04-18T15:47:31.907Z</time></trkpt><trkpt lat="44.0860773" lon="12.17061"><ele>126.66666666666666</ele><time>2026-04-18T15:47:34.903Z</time></trkpt><trkpt lat="44.0860858" lon="12.1707249"><ele>126.33333333333333</ele><time>2026-04-18T15:47:37.903Z</time></trkpt><trkpt lat="44.0860881" lon="12.1708235"><ele>126.0</ele><time>2026-04-18T15:47:40.907Z</time></trkpt><trkpt lat="44.0860952" lon="12.1709329"><ele>127.0</ele><time>2026-04-18T15:47:43.907Z</time></trkpt><trkpt lat="44.0860804" lon="12.1710454"><ele>128.0</ele><time>2026-04-18T15:47:46.909Z</time></trkpt><trkpt lat="44.0860569" lon="12.1711471"><ele>129.0</ele><time>2026-04-18T15:47:49.906Z</time></trkpt><trkpt lat="44.0860271" lon="12.1712505"><ele>130.0</ele><time>2026-04-18T15:47:52.908Z</time></trkpt><trkpt lat="44.0859803" lon="12.1713648"><ele>131.0</ele><time>2026-04-18T15:47:55.911Z</time></trkpt><trkpt lat="44.0859423" lon="12.1714665"><ele>132.0</ele><time>2026-04-18T15:47:58.905Z</time></trkpt><trkpt lat="44.0858987" lon="12.1715422"><ele>134.83333333333334</ele><time>2026-04-18T15:48:01.905Z</time></trkpt><trkpt lat="44.085835" lon="12.1716247"><ele>137.66666666666666</ele><time>2026-04-18T15:48:04.906Z</time></trkpt><trkpt lat="44.0857599" lon="12.1716909"><ele>140.5</ele><time>2026-04-18T15:48:07.902Z</time></trkpt><trkpt lat="44.0856927" lon="12.1717671"><ele>143.33333333333331</ele><time>2026-04-18T15:48:10.906Z</time></trkpt><trkpt lat="44.0856439" lon="12.1718302"><ele>146.16666666666666</ele><time>2026-04-18T15:48:12.903Z</time></trkpt><trkpt lat="44.0856016" lon="12.1719031"><ele>149.0</ele><time>2026-04-18T15:48:14.902Z</time></trkpt><trkpt lat="44.0855714" lon="12.1719953"><ele>145.57142857142856</ele><time>2026-04-18T15:48:16.906Z</time></trkpt><trkpt lat="44.0855562" lon="12.1720977"><ele>142.14285714285714</ele><time>2026-04-18T15:48:18.901Z</time></trkpt><trkpt lat="44.0855397" lon="12.1722084"><ele>138.71428571428572</ele><time>2026-04-18T15:48:20.9Z</time></trkpt><trkpt lat="44.0855263" lon="12.1723145"><ele>135.28571428571428</ele><time>2026-04-18T15:48:22.904Z</time></trkpt><trkpt lat="44.0855182" lon="12.1724111"><ele>131.85714285714286</ele><time>2026-04-18T15:48:24.913Z</time></trkpt><trkpt lat="44.0855104" lon="12.1725038"><ele>128.42857142857142</ele><time>2026-04-18T15:48:26.898Z</time></trkpt><trkpt lat="44.085515" lon="12.1725953"><ele>125.0</ele><time>2026-04-18T15:48:28.908Z</time></trkpt><trkpt lat="44.0855346" lon="12.1726851"><ele>125.0</ele><time>2026-04-18T15:48:30.908Z</time></trkpt><trkpt lat="44.0855753" lon="12.1728029"><ele>125.0</ele><time>2026-04-18T15:48:33.897Z</time></trkpt><trkpt lat="44.0856097" lon="12.1728842"><ele>125.0</ele><time>2026-04-18T15:48:35.906Z</time></trkpt><trkpt lat="44.0856394" lon="12.1729684"><ele>125.0</ele><time>2026-04-18T15:48:37.904Z</time></trkpt><trkpt lat="44.0856774" lon="12.1730538"><ele>125.0</ele><time>2026-04-18T15:48:39.904Z</time></trkpt><trkpt lat="44.0857083" lon="12.1731439"><ele>125.0</ele><time>2026-04-18T15:48:41.903Z</time></trkpt><trkpt lat="44.0857331" lon="12.1732373"><ele>125.0</ele><time>2026-04-18T15:48:43.904Z</time></trkpt><trkpt lat="44.0857499" lon="12.1733349"><ele>130.66666666666666</ele><time>2026-04-18T15:48:45.904Z</time></trkpt><trkpt lat="44.0857739" lon="12.1734358"><ele>136.33333333333331</ele><time>2026-04-18T15:48:47.895Z</time></trkpt><trkpt lat="44.0858549" lon="12.1734662"><ele>142.0</ele><time>2026-04-18T15:48:50.889Z</time></trkpt><trkpt lat="44.0859079" lon="12.1734168"><ele>147.66666666666666</ele><time>2026-04-18T15:48:52.904Z</time></trkpt><trkpt lat="44.0859597" lon="12.1733085"><ele>153.33333333333334</ele><time>2026-04-18T15:48:55.906Z</time></trkpt><trkpt lat="44.0859535" lon="12.1731826"><ele>159.0</ele><time>2026-04-18T15:48:58.893Z</time></trkpt><trkpt lat="44.0859221" lon="12.1730765"><ele>159.33333333333334</ele><time>2026-04-18T15:49:01.893Z</time></trkpt><trkpt lat="44.0858903" lon="12.1729766"><ele>159.66666666666666</ele><time>2026-04-18T15:49:04.895Z</time></trkpt><trkpt lat="44.0858526" lon="12.1728679"><ele>160.0</ele><time>2026-04-18T15:49:07.898Z</time></trkpt><trkpt lat="44.085808" lon="12.17277"><ele>160.33333333333331</ele><time>2026-04-18T15:49:10.896Z</time></trkpt><trkpt lat="44.0857733" lon="12.1726872"><ele>160.66666666666666</ele><time>2026-04-18T15:49:12.9Z</time></trkpt><trkpt lat="44.0857415" lon="12.172565"><ele>161.0</ele><time>2026-04-18T15:49:14.897Z</time></trkpt><trkpt lat="44.0857419" lon="12.1724381"><ele>159.0</ele><time>2026-04-18T15:49:16.899Z</time></trkpt><trkpt lat="44.0857692" lon="12.1723196"><ele>157.0</ele><time>2026-04-18T15:49:18.892Z</time></trkpt><trkpt lat="44.0858052" lon="12.1722122"><ele>155.0</ele><time>2026-04-18T15:49:20.891Z</time></trkpt><trkpt lat="44.0858471" lon="12.1721359"><ele>153.0</ele><time>2026-04-18T15:49:22.896Z</time></trkpt><trkpt lat="44.0858896" lon="12.1720653"><ele>151.0</ele><time>2026-04-18T15:49:24.899Z</time></trkpt><trkpt lat="44.0859542" lon="12.172016"><ele>149.0</ele><time>2026-04-18T15:49:26.913Z</time></trkpt><trkpt lat="44.0860226" lon="12.1719964"><ele>149.0</ele><time>2026-04-18T15:49:28.891Z</time></trkpt><trkpt lat="44.0860918" lon="12.1719967"><ele>149.0</ele><time>2026-04-18T15:49:30.896Z</time></trkpt><trkpt lat="44.0861777" lon="12.1719797"><ele>149.0</ele><time>2026-04-18T15:49:33.894Z</time></trkpt><trkpt lat="44.086242" lon="12.1719266"><ele>149.0</ele><time>2026-04-18T15:49:36.899Z</time></trkpt><trkpt lat="44.0863073" lon="12.1718769"><ele>149.0</ele><time>2026-04-18T15:49:39.895Z</time></trkpt><trkpt lat="44.0863702" lon="12.1718133"><ele>149.0</ele><time>2026-04-18T15:49:42.893Z</time></trkpt><trkpt lat="44.0864393" lon="12.1717531"><ele>149.0</ele><time>2026-04-18T15:49:45.891Z</time></trkpt><trkpt lat="44.0865096" lon="12.1716838"><ele>149.0</ele><time>2026-04-18T15:49:48.894Z</time></trkpt><trkpt lat="44.0865767" lon="12.1716288"><ele>149.0</ele><time>2026-04-18T15:49:51.897Z</time></trkpt><trkpt lat="44.0866502" lon="12.1715833"><ele>149.0</ele><time>2026-04-18T15:49:54.895Z</time></trkpt><trkpt lat="44.0867297" lon="12.1715329"><ele>149.0</ele><time>2026-04-18T15:49:57.909Z</time></trkpt><trkpt lat="44.0868077" lon="12.1714961"><ele>149.0</ele><time>2026-04-18T15:50:00.901Z</time></trkpt><trkpt lat="44.0868706" lon="12.1714789"><ele>151.33333333333331</ele><time>2026-04-18T15:50:02.898Z</time></trkpt><trkpt lat="44.0869626" lon="12.1714553"><ele>153.66666666666666</ele><time>2026-04-18T15:50:05.896Z</time></trkpt><trkpt lat="44.0870379" lon="12.1714238"><ele>156.0</ele><time>2026-04-18T15:50:08.9Z</time></trkpt><trkpt lat="44.0871047" lon="12.1713793"><ele>158.33333333333334</ele><time>2026-04-18T15:50:11.895Z</time></trkpt><trkpt lat="44.0871722" lon="12.1713153"><ele>160.66666666666669</ele><time>2026-04-18T15:50:14.895Z</time></trkpt><trkpt lat="44.0872221" lon="12.1712569"><ele>163.0</ele><time>2026-04-18T15:50:16.902Z</time></trkpt><trkpt lat="44.0872811" lon="12.1711698"><ele>163.0</ele><time>2026-04-18T15:50:19.896Z</time></trkpt><trkpt lat="44.0873266" lon="12.1710524"><ele>163.0</ele><time>2026-04-18T15:50:22.896Z</time></trkpt><trkpt lat="44.0873632" lon="12.1709417"><ele>163.0</ele><time>2026-04-18T15:50:25.894Z</time></trkpt><trkpt lat="44.0873939" lon="12.1708646"><ele>163.0</ele><time>2026-04-18T15:50:27.898Z</time></trkpt><trkpt lat="44.0874353" lon="12.170754"><ele>163.0</ele><time>2026-04-18T15:50:30.902Z</time></trkpt><trkpt lat="44.0874543" lon="12.1706323"><ele>163.0</ele><time>2026-04-18T15:50:33.901Z</time></trkpt><trkpt lat="44.0874488" lon="12.1705179"><ele>162.66666666666669</ele><time>2026-04-18T15:50:36.903Z</time></trkpt><trkpt lat="44.0874303" lon="12.1704035"><ele>162.33333333333334</ele><time>2026-04-18T15:50:39.898Z</time></trkpt><trkpt lat="44.0874053" lon="12.1702939"><ele>162.0</ele><time>2026-04-18T15:50:42.9Z</time></trkpt><trkpt lat="44.0873728" lon="12.1701823"><ele>161.66666666666666</ele><time>2026-04-18T15:50:45.895Z</time></trkpt><trkpt lat="44.0873475" lon="12.1700804"><ele>161.33333333333331</ele><time>2026-04-18T15:50:48.9Z</time></trkpt><trkpt lat="44.0873298" lon="12.1699696"><ele>161.0</ele><time>2026-04-18T15:50:51.906Z</time></trkpt><trkpt lat="44.0873284" lon="12.1698387"><ele>161.71428571428572</ele><time>2026-04-18T15:50:54.904Z</time></trkpt><trkpt lat="44.0873323" lon="12.1697323"><ele>162.42857142857144</ele><time>2026-04-18T15:50:56.895Z</time></trkpt><trkpt lat="44.0873405" lon="12.1696277"><ele>163.14285714285714</ele><time>2026-04-18T15:50:58.902Z</time></trkpt><trkpt lat="44.0873435" lon="12.1695401"><ele>163.85714285714286</ele><time>2026-04-18T15:51:00.896Z</time></trkpt><trkpt lat="44.0873644" lon="12.1694394"><ele>164.57142857142858</ele><time>2026-04-18T15:51:03.899Z</time></trkpt><trkpt lat="44.0873783" lon="12.1693279"><ele>165.28571428571428</ele><time>2026-04-18T15:51:06.9Z</time></trkpt><trkpt lat="44.0873909" lon="12.1692329"><ele>166.0</ele><time>2026-04-18T15:51:09.897Z</time></trkpt><trkpt lat="44.0874117" lon="12.1691389"><ele>170.5</ele><time>2026-04-18T15:51:12.902Z</time></trkpt><trkpt lat="44.0874413" lon="12.1690365"><ele>175.0</ele><time>2026-04-18T15:51:15.906Z</time></trkpt><trkpt lat="44.0874707" lon="12.1689306"><ele>179.5</ele><time>2026-04-18T15:51:18.901Z</time></trkpt><trkpt lat="44.0875035" lon="12.1688171"><ele>184.0</ele><time>2026-04-18T15:51:21.905Z</time></trkpt><trkpt lat="44.0875457" lon="12.1687139"><ele>188.49999999999997</ele><time>2026-04-18T15:51:24.903Z</time></trkpt><trkpt lat="44.0875997" lon="12.1686247"><ele>193.0</ele><time>2026-04-18T15:51:27.898Z</time></trkpt><trkpt lat="44.0876556" lon="12.1685342"><ele>192.99999999999997</ele><time>2026-04-18T15:51:30.923Z</time></trkpt><trkpt lat="44.0877141" lon="12.1684507"><ele>193.0</ele><time>2026-04-18T15:51:33.906Z</time></trkpt><trkpt lat="44.0877642" lon="12.1683691"><ele>193.0</ele><time>2026-04-18T15:51:36.909Z</time></trkpt><trkpt lat="44.0878291" lon="12.1682988"><ele>193.0</ele><time>2026-04-18T15:51:39.909Z</time></trkpt><trkpt lat="44.0878903" lon="12.1682145"><ele>192.99999999999997</ele><time>2026-04-18T15:51:42.906Z</time></trkpt><trkpt lat="44.0879519" lon="12.1681378"><ele>193.0</ele><time>2026-04-18T15:51:45.905Z</time></trkpt><trkpt lat="44.0880027" lon="12.1680652"><ele>191.49999999999997</ele><time>2026-04-18T15:51:48.906Z</time></trkpt><trkpt lat="44.08805" lon="12.1679672"><ele>190.0</ele><time>2026-04-18T15:51:51.91Z</time></trkpt><trkpt lat="44.088081" lon="12.1678717"><ele>188.5</ele><time>2026-04-18T15:51:54.907Z</time></trkpt><trkpt lat="44.0881186" lon="12.1677717"><ele>187.0</ele><time>2026-04-18T15:51:57.903Z</time></trkpt><trkpt lat="44.0881563" lon="12.1676609"><ele>185.5</ele><time>2026-04-18T15:52:00.902Z</time></trkpt><trkpt lat="44.0881822" lon="12.1675688"><ele>184.0</ele><time>2026-04-18T15:52:03.904Z</time></trkpt><trkpt lat="44.0882143" lon="12.1674749"><ele>184.0</ele><time>2026-04-18T15:52:06.904Z</time></trkpt><trkpt lat="44.0882339" lon="12.167375"><ele>184.0</ele><time>2026-04-18T15:52:09.912Z</time></trkpt><trkpt lat="44.0882608" lon="12.1672727"><ele>184.0</ele><time>2026-04-18T15:52:12.908Z</time></trkpt><trkpt lat="44.0882863" lon="12.1671448"><ele>184.0</ele><time>2026-04-18T15:52:15.911Z</time></trkpt><trkpt lat="44.0882946" lon="12.1670512"><ele>184.0</ele><time>2026-04-18T15:52:17.914Z</time></trkpt><trkpt lat="44.0883014" lon="12.1669541"><ele>184.0</ele><time>2026-04-18T15:52:20.905Z</time></trkpt><trkpt lat="44.088298" lon="12.1668599"><ele>185.14285714285714</ele><time>2026-04-18T15:52:23.906Z</time></trkpt><trkpt lat="44.0882809" lon="12.1667626"><ele>186.28571428571428</ele><time>2026-04-18T15:52:26.903Z</time></trkpt><trkpt lat="44.0882617" lon="12.1666722"><ele>187.42857142857142</ele><time>2026-04-18T15:52:29.905Z</time></trkpt><trkpt lat="44.0882311" lon="12.1665822"><ele>188.57142857142856</ele><time>2026-04-18T15:52:32.906Z</time></trkpt><trkpt lat="44.088189" lon="12.1664997"><ele>189.71428571428572</ele><time>2026-04-18T15:52:35.904Z</time></trkpt><trkpt lat="44.0881447" lon="12.1664213"><ele>190.85714285714283</ele><time>2026-04-18T15:52:38.908Z</time></trkpt><trkpt lat="44.088106" lon="12.1663329"><ele>192.0</ele><time>2026-04-18T15:52:41.909Z</time></trkpt><trkpt lat="44.0880841" lon="12.1662357"><ele>193.0</ele><time>2026-04-18T15:52:44.906Z</time></trkpt><trkpt lat="44.088082" lon="12.1661159"><ele>194.0</ele><time>2026-04-18T15:52:47.907Z</time></trkpt><trkpt lat="44.0881138" lon="12.1660191"><ele>195.0</ele><time>2026-04-18T15:52:50.916Z</time></trkpt><trkpt lat="44.0881704" lon="12.1659383"><ele>196.0</ele><time>2026-04-18T15:52:53.911Z</time></trkpt><trkpt lat="44.0882392" lon="12.1658805"><ele>197.0</ele><time>2026-04-18T15:52:56.913Z</time></trkpt><trkpt lat="44.0883022" lon="12.1658163"><ele>198.0</ele><time>2026-04-18T15:52:59.911Z</time></trkpt><trkpt lat="44.0883647" lon="12.1657599"><ele>200.33333333333334</ele><time>2026-04-18T15:53:02.917Z</time></trkpt><trkpt lat="44.0884136" lon="12.165693"><ele>202.66666666666669</ele><time>2026-04-18T15:53:05.913Z</time></trkpt><trkpt lat="44.0884627" lon="12.1656256"><ele>205.0</ele><time>2026-04-18T15:53:08.91Z</time></trkpt><trkpt lat="44.0885077" lon="12.1655333"><ele>207.33333333333334</ele><time>2026-04-18T15:53:11.911Z</time></trkpt><trkpt lat="44.0885578" lon="12.1654248"><ele>209.66666666666669</ele><time>2026-04-18T15:53:14.909Z</time></trkpt><trkpt lat="44.0886149" lon="12.1653219"><ele>212.0</ele><time>2026-04-18T15:53:17.909Z</time></trkpt><trkpt lat="44.0886504" lon="12.1652429"><ele>212.0</ele><time>2026-04-18T15:53:19.909Z</time></trkpt><trkpt lat="44.0886866" lon="12.1651559"><ele>212.0</ele><time>2026-04-18T15:53:21.906Z</time></trkpt><trkpt lat="44.0887213" lon="12.165072"><ele>212.0</ele><time>2026-04-18T15:53:23.898Z</time></trkpt><trkpt lat="44.0887531" lon="12.1649857"><ele>212.0</ele><time>2026-04-18T15:53:25.901Z</time></trkpt><trkpt lat="44.0887901" lon="12.1649051"><ele>212.0</ele><time>2026-04-18T15:53:27.91Z</time></trkpt><trkpt lat="44.0888168" lon="12.1648204"><ele>212.0</ele><time>2026-04-18T15:53:29.905Z</time></trkpt><trkpt lat="44.0888416" lon="12.1647273"><ele>212.0</ele><time>2026-04-18T15:53:31.907Z</time></trkpt><trkpt lat="44.0888657" lon="12.1646377"><ele>211.83333333333334</ele><time>2026-04-18T15:53:33.918Z</time></trkpt><trkpt lat="44.0888883" lon="12.1645507"><ele>211.66666666666669</ele><time>2026-04-18T15:53:35.909Z</time></trkpt><trkpt lat="44.0889075" lon="12.1644622"><ele>211.5</ele><time>2026-04-18T15:53:37.903Z</time></trkpt><trkpt lat="44.08893" lon="12.1643762"><ele>211.33333333333331</ele><time>2026-04-18T15:53:39.905Z</time></trkpt><trkpt lat="44.0889619" lon="12.1642541"><ele>211.16666666666666</ele><time>2026-04-18T15:53:42.907Z</time></trkpt><trkpt lat="44.0890043" lon="12.1641373"><ele>211.0</ele><time>2026-04-18T15:53:45.904Z</time></trkpt><trkpt lat="44.089043" lon="12.1640622"><ele>214.42857142857144</ele><time>2026-04-18T15:53:47.908Z</time></trkpt><trkpt lat="44.0890955" lon="12.164001"><ele>217.85714285714286</ele><time>2026-04-18T15:53:49.905Z</time></trkpt><trkpt lat="44.0891572" lon="12.1639574"><ele>221.28571428571428</ele><time>2026-04-18T15:53:51.907Z</time></trkpt><trkpt lat="44.0892171" lon="12.1639287"><ele>224.71428571428572</ele><time>2026-04-18T15:53:53.902Z</time></trkpt><trkpt lat="44.0893013" lon="12.1639039"><ele>228.1428571428571</ele><time>2026-04-18T15:53:56.901Z</time></trkpt><trkpt lat="44.089381" lon="12.163865"><ele>231.57142857142856</ele><time>2026-04-18T15:53:59.906Z</time></trkpt><trkpt lat="44.0894483" lon="12.1638419"><ele>235.0</ele><time>2026-04-18T15:54:01.887Z</time></trkpt><trkpt lat="44.0895382" lon="12.1638148"><ele>234.99999999999997</ele><time>2026-04-18T15:54:04.904Z</time></trkpt><trkpt lat="44.0896084" lon="12.1637866"><ele>235.0</ele><time>2026-04-18T15:54:06.89Z</time></trkpt><trkpt lat="44.0896819" lon="12.1637511"><ele>235.0</ele><time>2026-04-18T15:54:08.89Z</time></trkpt><trkpt lat="44.0897463" lon="12.1637173"><ele>235.0</ele><time>2026-04-18T15:54:10.891Z</time></trkpt><trkpt lat="44.0898132" lon="12.1636883"><ele>234.99999999999997</ele><time>2026-04-18T15:54:12.893Z</time></trkpt><trkpt lat="44.0898908" lon="12.1636205"><ele>235.0</ele><time>2026-04-18T15:54:15.896Z</time></trkpt><trkpt lat="44.0899625" lon="12.1635461"><ele>236.49999999999997</ele><time>2026-04-18T15:54:18.892Z</time></trkpt><trkpt lat="44.0900154" lon="12.163493"><ele>238.0</ele><time>2026-04-18T15:54:20.895Z</time></trkpt><trkpt lat="44.0900914" lon="12.1634239"><ele>239.5</ele><time>2026-04-18T15:54:23.894Z</time></trkpt><trkpt lat="44.0901581" lon="12.1633541"><ele>241.0</ele><time>2026-04-18T15:54:26.893Z</time></trkpt><trkpt lat="44.0902281" lon="12.1632773"><ele>242.49999999999997</ele><time>2026-04-18T15:54:29.893Z</time></trkpt><trkpt lat="44.0902934" lon="12.1632069"><ele>244.0</ele><time>2026-04-18T15:54:32.893Z</time></trkpt><trkpt lat="44.0903642" lon="12.1631302"><ele>244.33333333333331</ele><time>2026-04-18T15:54:35.91Z</time></trkpt><trkpt lat="44.0904194" lon="12.1630848"><ele>244.66666666666666</ele><time>2026-04-18T15:54:37.894Z</time></trkpt><trkpt lat="44.0904913" lon="12.1630194"><ele>245.0</ele><time>2026-04-18T15:54:40.892Z</time></trkpt><trkpt lat="44.0905554" lon="12.163001"><ele>245.33333333333331</ele><time>2026-04-18T15:54:42.893Z</time></trkpt><trkpt lat="44.0906441" lon="12.1629635"><ele>245.66666666666666</ele><time>2026-04-18T15:54:45.901Z</time></trkpt><trkpt lat="44.0907245" lon="12.1629015"><ele>246.0</ele><time>2026-04-18T15:54:48.907Z</time></trkpt><trkpt lat="44.0907777" lon="12.1628515"><ele>245.42857142857144</ele><time>2026-04-18T15:54:50.906Z</time></trkpt><trkpt lat="44.0908225" lon="12.1627846"><ele>244.85714285714286</ele><time>2026-04-18T15:54:52.902Z</time></trkpt><trkpt lat="44.0908687" lon="12.1626793"><ele>244.28571428571428</ele><time>2026-04-18T15:54:55.898Z</time></trkpt><trkpt lat="44.0909158" lon="12.1625739"><ele>243.71428571428572</ele><time>2026-04-18T15:54:58.891Z</time></trkpt><trkpt lat="44.0909459" lon="12.1624923"><ele>243.1428571428571</ele><time>2026-04-18T15:55:00.901Z</time></trkpt><trkpt lat="44.0909809" lon="12.1624149"><ele>242.57142857142856</ele><time>2026-04-18T15:55:02.903Z</time></trkpt><trkpt lat="44.0910174" lon="12.1623393"><ele>242.0</ele><time>2026-04-18T15:55:04.897Z</time></trkpt><trkpt lat="44.0910683" lon="12.1622297"><ele>242.0</ele><time>2026-04-18T15:55:07.91Z</time></trkpt><trkpt lat="44.091112" lon="12.162155"><ele>241.99999999999997</ele><time>2026-04-18T15:55:09.908Z</time></trkpt><trkpt lat="44.0911658" lon="12.1620884"><ele>242.0</ele><time>2026-04-18T15:55:11.911Z</time></trkpt><trkpt lat="44.0912155" lon="12.1620161"><ele>242.0</ele><time>2026-04-18T15:55:13.903Z</time></trkpt><trkpt lat="44.0912633" lon="12.1619446"><ele>241.99999999999997</ele><time>2026-04-18T15:55:15.913Z</time></trkpt><trkpt lat="44.0913075" lon="12.1618684"><ele>242.0</ele><time>2026-04-18T15:55:17.906Z</time></trkpt><trkpt lat="44.0913534" lon="12.1618011"><ele>242.0</ele><time>2026-04-18T15:55:19.907Z</time></trkpt><trkpt lat="44.0914219" lon="12.1617109"><ele>242.00000000000003</ele><time>2026-04-18T15:55:22.91Z</time></trkpt><trkpt lat="44.0914797" lon="12.161621"><ele>242.0</ele><time>2026-04-18T15:55:25.907Z</time></trkpt><trkpt lat="44.0915443" lon="12.1615333"><ele>242.0</ele><time>2026-04-18T15:55:28.908Z</time></trkpt><trkpt lat="44.0916059" lon="12.1614345"><ele>242.0</ele><time>2026-04-18T15:55:31.911Z</time></trkpt><trkpt lat="44.0916742" lon="12.161354"><ele>242.00000000000003</ele><time>2026-04-18T15:55:34.913Z</time></trkpt><trkpt lat="44.0917406" lon="12.1612785"><ele>242.0</ele><time>2026-04-18T15:55:37.922Z</time></trkpt><trkpt lat="44.0917906" lon="12.161201"><ele>242.16666666666669</ele><time>2026-04-18T15:55:40.917Z</time></trkpt><trkpt lat="44.091852" lon="12.1611133"><ele>242.33333333333334</ele><time>2026-04-18T15:55:43.908Z</time></trkpt><trkpt lat="44.0919119" lon="12.1610228"><ele>242.5</ele><time>2026-04-18T15:55:46.914Z</time></trkpt><trkpt lat="44.0919862" lon="12.1609412"><ele>242.66666666666669</ele><time>2026-04-18T15:55:49.91Z</time></trkpt><trkpt lat="44.0920367" lon="12.1608822"><ele>242.83333333333334</ele><time>2026-04-18T15:55:51.915Z</time></trkpt><trkpt lat="44.0920984" lon="12.1608022"><ele>243.0</ele><time>2026-04-18T15:55:54.915Z</time></trkpt><trkpt lat="44.0921609" lon="12.1606998"><ele>244.5</ele><time>2026-04-18T15:55:57.915Z</time></trkpt><trkpt lat="44.0921989" lon="12.1606228"><ele>246.0</ele><time>2026-04-18T15:55:59.903Z</time></trkpt><trkpt lat="44.0922716" lon="12.1605435"><ele>247.5</ele><time>2026-04-18T15:56:02.912Z</time></trkpt><trkpt lat="44.0923383" lon="12.1604665"><ele>249.0</ele><time>2026-04-18T15:56:05.907Z</time></trkpt><trkpt lat="44.0923971" lon="12.1603741"><ele>250.5</ele><time>2026-04-18T15:56:08.925Z</time></trkpt><trkpt lat="44.0924581" lon="12.1602718"><ele>252.0</ele><time>2026-04-18T15:56:11.906Z</time></trkpt><trkpt lat="44.0925001" lon="12.1602004"><ele>252.0</ele><time>2026-04-18T15:56:13.911Z</time></trkpt><trkpt lat="44.0925609" lon="12.1601166"><ele>252.0</ele><time>2026-04-18T15:56:16.914Z</time></trkpt><trkpt lat="44.0926111" lon="12.1600581"><ele>252.0</ele><time>2026-04-18T15:56:18.91Z</time></trkpt><trkpt lat="44.0926632" lon="12.1600068"><ele>252.0</ele><time>2026-04-18T15:56:20.909Z</time></trkpt><trkpt lat="44.0927338" lon="12.1599219"><ele>252.0</ele><time>2026-04-18T15:56:23.909Z</time></trkpt><trkpt lat="44.0927828" lon="12.1598647"><ele>252.0</ele><time>2026-04-18T15:56:25.913Z</time></trkpt><trkpt lat="44.0928505" lon="12.1597866"><ele>252.0</ele><time>2026-04-18T15:56:28.908Z</time></trkpt><trkpt lat="44.0929052" lon="12.1596939"><ele>252.0</ele><time>2026-04-18T15:56:31.908Z</time></trkpt><trkpt lat="44.0929439" lon="12.1596211"><ele>252.0</ele><time>2026-04-18T15:56:33.91Z</time></trkpt><trkpt lat="44.0929876" lon="12.1595444"><ele>252.0</ele><time>2026-04-18T15:56:35.91Z</time></trkpt><trkpt lat="44.0930353" lon="12.159467"><ele>252.0</ele><time>2026-04-18T15:56:37.906Z</time></trkpt><trkpt lat="44.0930786" lon="12.1593981"><ele>252.0</ele><time>2026-04-18T15:56:39.918Z</time></trkpt><trkpt lat="44.0931283" lon="12.1593219"><ele>252.0</ele><time>2026-04-18T15:56:41.907Z</time></trkpt><trkpt lat="44.0931706" lon="12.1592351"><ele>252.0</ele><time>2026-04-18T15:56:43.902Z</time></trkpt><trkpt lat="44.0931955" lon="12.1591423"><ele>252.0</ele><time>2026-04-18T15:56:45.905Z</time></trkpt><trkpt lat="44.0932303" lon="12.1590508"><ele>252.0</ele><time>2026-04-18T15:56:47.907Z</time></trkpt><trkpt lat="44.0932595" lon="12.1589624"><ele>252.0</ele><time>2026-04-18T15:56:49.909Z</time></trkpt><trkpt lat="44.0932951" lon="12.1588779"><ele>252.0</ele><time>2026-04-18T15:56:51.908Z</time></trkpt><trkpt lat="44.093326" lon="12.158799"><ele>252.0</ele><time>2026-04-18T15:56:53.901Z</time></trkpt><trkpt lat="44.0933618" lon="12.1587211"><ele>252.0</ele><time>2026-04-18T15:56:55.911Z</time></trkpt><trkpt lat="44.0934067" lon="12.1586014"><ele>253.66666666666666</ele><time>2026-04-18T15:56:58.911Z</time></trkpt><trkpt lat="44.0934301" lon="12.1585096"><ele>255.33333333333331</ele><time>2026-04-18T15:57:00.912Z</time></trkpt><trkpt lat="44.0934514" lon="12.1584183"><ele>257.0</ele><time>2026-04-18T15:57:02.908Z</time></trkpt><trkpt lat="44.0934791" lon="12.1583254"><ele>258.66666666666663</ele><time>2026-04-18T15:57:04.906Z</time></trkpt><trkpt lat="44.0935001" lon="12.158213"><ele>260.3333333333333</ele><time>2026-04-18T15:57:06.905Z</time></trkpt><trkpt lat="44.0935158" lon="12.1580986"><ele>262.0</ele><time>2026-04-18T15:57:08.907Z</time></trkpt><trkpt lat="44.0935346" lon="12.1579899"><ele>262.8333333333333</ele><time>2026-04-18T15:57:10.91Z</time></trkpt><trkpt lat="44.0935419" lon="12.1578741"><ele>263.66666666666663</ele><time>2026-04-18T15:57:12.904Z</time></trkpt><trkpt lat="44.0935412" lon="12.1577563"><ele>264.5</ele><time>2026-04-18T15:57:14.904Z</time></trkpt><trkpt lat="44.0935478" lon="12.1576361"><ele>265.3333333333333</ele><time>2026-04-18T15:57:16.904Z</time></trkpt><trkpt lat="44.093558" lon="12.1575147"><ele>266.1666666666667</ele><time>2026-04-18T15:57:18.896Z</time></trkpt><trkpt lat="44.093603" lon="12.1574042"><ele>267.0</ele><time>2026-04-18T15:57:20.904Z</time></trkpt><trkpt lat="44.0936697" lon="12.1573196"><ele>267.0</ele><time>2026-04-18T15:57:22.907Z</time></trkpt><trkpt lat="44.0937674" lon="12.1572665"><ele>267.0</ele><time>2026-04-18T15:57:24.899Z</time></trkpt><trkpt lat="44.0938645" lon="12.1572584"><ele>267.0</ele><time>2026-04-18T15:57:26.906Z</time></trkpt><trkpt lat="44.0939573" lon="12.1573196"><ele>267.0</ele><time>2026-04-18T15:57:28.909Z</time></trkpt><trkpt lat="44.094044" lon="12.1573985"><ele>267.0</ele><time>2026-04-18T15:57:30.903Z</time></trkpt><trkpt lat="44.0941242" lon="12.1574686"><ele>265.8</ele><time>2026-04-18T15:57:32.909Z</time></trkpt><trkpt lat="44.0942094" lon="12.1575149"><ele>264.6</ele><time>2026-04-18T15:57:34.909Z</time></trkpt><trkpt lat="44.0943048" lon="12.1575266"><ele>263.40000000000003</ele><time>2026-04-18T15:57:36.912Z</time></trkpt><trkpt lat="44.0943987" lon="12.1574801"><ele>262.2</ele><time>2026-04-18T15:57:38.905Z</time></trkpt><trkpt lat="44.0944842" lon="12.1574203"><ele>261.0</ele><time>2026-04-18T15:57:40.91Z</time></trkpt><trkpt lat="44.0945635" lon="12.1573448"><ele>263.8333333333333</ele><time>2026-04-18T15:57:42.903Z</time></trkpt><trkpt lat="44.0946365" lon="12.157282"><ele>266.6666666666667</ele><time>2026-04-18T15:57:44.904Z</time></trkpt><trkpt lat="44.094705" lon="12.1572163"><ele>269.5</ele><time>2026-04-18T15:57:46.896Z</time></trkpt><trkpt lat="44.0947785" lon="12.157169"><ele>272.33333333333337</ele><time>2026-04-18T15:57:48.902Z</time></trkpt><trkpt lat="44.0948578" lon="12.1571643"><ele>275.1666666666667</ele><time>2026-04-18T15:57:50.907Z</time></trkpt><trkpt lat="44.0949042" lon="12.1572313"><ele>278.0</ele><time>2026-04-18T15:57:52.912Z</time></trkpt><trkpt lat="44.0949205" lon="12.1573605"><ele>275.1666666666667</ele><time>2026-04-18T15:57:54.909Z</time></trkpt><trkpt lat="44.0949002" lon="12.1574843"><ele>272.33333333333337</ele><time>2026-04-18T15:57:56.907Z</time></trkpt><trkpt lat="44.0948811" lon="12.1576025"><ele>269.5</ele><time>2026-04-18T15:57:58.906Z</time></trkpt><trkpt lat="44.0948594" lon="12.1577183"><ele>266.6666666666667</ele><time>2026-04-18T15:58:00.904Z</time></trkpt><trkpt lat="44.0948452" lon="12.1578286"><ele>263.8333333333333</ele><time>2026-04-18T15:58:02.906Z</time></trkpt><trkpt lat="44.0948563" lon="12.1579325"><ele>261.0</ele><time>2026-04-18T15:58:04.913Z</time></trkpt><trkpt lat="44.0948903" lon="12.158017"><ele>262.8333333333333</ele><time>2026-04-18T15:58:06.904Z</time></trkpt><trkpt lat="44.0949437" lon="12.1580649"><ele>264.6666666666667</ele><time>2026-04-18T15:58:08.913Z</time></trkpt><trkpt lat="44.0950212" lon="12.1580801"><ele>266.5</ele><time>2026-04-18T15:58:10.906Z</time></trkpt><trkpt lat="44.0950961" lon="12.1581111"><ele>268.33333333333337</ele><time>2026-04-18T15:58:12.918Z</time></trkpt><trkpt lat="44.095176" lon="12.1581298"><ele>270.1666666666667</ele><time>2026-04-18T15:58:14.911Z</time></trkpt><trkpt lat="44.095259" lon="12.1581213"><ele>272.0</ele><time>2026-04-18T15:58:16.919Z</time></trkpt><trkpt lat="44.0953407" lon="12.1580953"><ele>271.99999999999994</ele><time>2026-04-18T15:58:18.914Z</time></trkpt><trkpt lat="44.0954162" lon="12.158066"><ele>272.0</ele><time>2026-04-18T15:58:20.907Z</time></trkpt><trkpt lat="44.0954874" lon="12.1580425"><ele>272.0</ele><time>2026-04-18T15:58:22.906Z</time></trkpt><trkpt lat="44.0955601" lon="12.1580328"><ele>272.0</ele><time>2026-04-18T15:58:24.919Z</time></trkpt><trkpt lat="44.095635" lon="12.1580387"><ele>272.0</ele><time>2026-04-18T15:58:26.912Z</time></trkpt><trkpt lat="44.0957049" lon="12.1580529"><ele>271.99999999999994</ele><time>2026-04-18T15:58:28.919Z</time></trkpt><trkpt lat="44.0957742" lon="12.1580495"><ele>272.0</ele><time>2026-04-18T15:58:30.922Z</time></trkpt><trkpt lat="44.0958539" lon="12.1580671"><ele>271.0</ele><time>2026-04-18T15:58:32.914Z</time></trkpt><trkpt lat="44.0959372" lon="12.1580978"><ele>270.0</ele><time>2026-04-18T15:58:34.902Z</time></trkpt><trkpt lat="44.0960204" lon="12.1581416"><ele>269.0</ele><time>2026-04-18T15:58:36.904Z</time></trkpt><trkpt lat="44.0960898" lon="12.1581871"><ele>268.0</ele><time>2026-04-18T15:58:38.909Z</time></trkpt><trkpt lat="44.0961614" lon="12.1582392"><ele>267.0</ele><time>2026-04-18T15:58:40.91Z</time></trkpt><trkpt lat="44.0962316" lon="12.1582979"><ele>266.0</ele><time>2026-04-18T15:58:42.905Z</time></trkpt><trkpt lat="44.0963059" lon="12.1583465"><ele>266.0</ele><time>2026-04-18T15:58:44.911Z</time></trkpt><trkpt lat="44.0963787" lon="12.1583844"><ele>266.0</ele><time>2026-04-18T15:58:46.918Z</time></trkpt><trkpt lat="44.096451" lon="12.1584614"><ele>266.0</ele><time>2026-04-18T15:58:48.915Z</time></trkpt><trkpt lat="44.0965135" lon="12.1585733"><ele>266.0</ele><time>2026-04-18T15:58:50.901Z</time></trkpt><trkpt lat="44.0965177" lon="12.158723"><ele>266.0</ele><time>2026-04-18T15:58:52.927Z</time></trkpt><trkpt lat="44.0964467" lon="12.1588538"><ele>266.0</ele><time>2026-04-18T15:58:54.907Z</time></trkpt><trkpt lat="44.0963583" lon="12.1589625"><ele>266.0</ele><time>2026-04-18T15:58:56.903Z</time></trkpt><trkpt lat="44.0962668" lon="12.1590752"><ele>266.0</ele><time>2026-04-18T15:58:58.9Z</time></trkpt><trkpt lat="44.0961865" lon="12.1591954"><ele>266.0</ele><time>2026-04-18T15:59:00.902Z</time></trkpt><trkpt lat="44.0961082" lon="12.1593272"><ele>265.2</ele><time>2026-04-18T15:59:02.919Z</time></trkpt><trkpt lat="44.0960327" lon="12.1594505"><ele>264.40000000000003</ele><time>2026-04-18T15:59:04.903Z</time></trkpt><trkpt lat="44.0959661" lon="12.1595838"><ele>263.6</ele><time>2026-04-18T15:59:06.899Z</time></trkpt><trkpt lat="44.0959119" lon="12.1597144"><ele>262.8</ele><time>2026-04-18T15:59:08.906Z</time></trkpt><trkpt lat="44.0958736" lon="12.1598428"><ele>262.0</ele><time>2026-04-18T15:59:10.902Z</time></trkpt><trkpt lat="44.0958431" lon="12.1599688"><ele>262.0</ele><time>2026-04-18T15:59:12.918Z</time></trkpt><trkpt lat="44.0958421" lon="12.1601073"><ele>262.0</ele><time>2026-04-18T15:59:14.921Z</time></trkpt><trkpt lat="44.0958687" lon="12.1602558"><ele>262.0</ele><time>2026-04-18T15:59:16.925Z</time></trkpt><trkpt lat="44.095906" lon="12.1603971"><ele>262.0</ele><time>2026-04-18T15:59:18.913Z</time></trkpt><trkpt lat="44.0959417" lon="12.1605117"><ele>262.0</ele><time>2026-04-18T15:59:20.917Z</time></trkpt><trkpt lat="44.0959723" lon="12.1606173"><ele>262.16666666666663</ele><time>2026-04-18T15:59:22.929Z</time></trkpt><trkpt lat="44.0960051" lon="12.160727"><ele>262.3333333333333</ele><time>2026-04-18T15:59:24.93Z</time></trkpt><trkpt lat="44.0960369" lon="12.1608431"><ele>262.5</ele><time>2026-04-18T15:59:26.914Z</time></trkpt><trkpt lat="44.0960341" lon="12.1609594"><ele>262.6666666666667</ele><time>2026-04-18T15:59:28.911Z</time></trkpt><trkpt lat="44.0960097" lon="12.161075"><ele>262.83333333333337</ele><time>2026-04-18T15:59:30.914Z</time></trkpt><trkpt lat="44.0959657" lon="12.1611937"><ele>263.0</ele><time>2026-04-18T15:59:32.923Z</time></trkpt><trkpt lat="44.0958873" lon="12.1612929"><ele>263.0</ele><time>2026-04-18T15:59:34.91Z</time></trkpt><trkpt lat="44.0957957" lon="12.16135"><ele>263.0</ele><time>2026-04-18T15:59:36.912Z</time></trkpt><trkpt lat="44.0957018" lon="12.1613522"><ele>263.0</ele><time>2026-04-18T15:59:38.917Z</time></trkpt><trkpt lat="44.0956106" lon="12.161354"><ele>263.0</ele><time>2026-04-18T15:59:40.917Z</time></trkpt><trkpt lat="44.0955293" lon="12.1613844"><ele>263.0</ele><time>2026-04-18T15:59:42.909Z</time></trkpt><trkpt lat="44.095465" lon="12.1614645"><ele>261.33333333333337</ele><time>2026-04-18T15:59:44.895Z</time></trkpt><trkpt lat="44.0954377" lon="12.161581"><ele>259.6666666666667</ele><time>2026-04-18T15:59:46.901Z</time></trkpt><trkpt lat="44.0954455" lon="12.1616958"><ele>258.0</ele><time>2026-04-18T15:59:48.908Z</time></trkpt><trkpt lat="44.0954852" lon="12.1617826"><ele>256.3333333333333</ele><time>2026-04-18T15:59:50.909Z</time></trkpt><trkpt lat="44.0955469" lon="12.1618513"><ele>254.66666666666666</ele><time>2026-04-18T15:59:52.914Z</time></trkpt><trkpt lat="44.0956224" lon="12.1619092"><ele>253.0</ele><time>2026-04-18T15:59:54.903Z</time></trkpt><trkpt lat="44.0956985" lon="12.1619613"><ele>253.66666666666666</ele><time>2026-04-18T15:59:56.881Z</time></trkpt><trkpt lat="44.0957739" lon="12.1620321"><ele>254.33333333333331</ele><time>2026-04-18T15:59:58.9Z</time></trkpt><trkpt lat="44.0958404" lon="12.1621141"><ele>255.0</ele><time>2026-04-18T16:00:00.896Z</time></trkpt><trkpt lat="44.0958956" lon="12.1622099"><ele>255.66666666666669</ele><time>2026-04-18T16:00:02.904Z</time></trkpt><trkpt lat="44.0959514" lon="12.1623043"><ele>256.33333333333337</ele><time>2026-04-18T16:00:04.888Z</time></trkpt><trkpt lat="44.0960163" lon="12.1623821"><ele>257.0</ele><time>2026-04-18T16:00:06.887Z</time></trkpt><trkpt lat="44.0960882" lon="12.1624407"><ele>257.0</ele><time>2026-04-18T16:00:08.892Z</time></trkpt><trkpt lat="44.0961728" lon="12.162497"><ele>257.0</ele><time>2026-04-18T16:00:10.894Z</time></trkpt><trkpt lat="44.0962647" lon="12.1625407"><ele>257.0</ele><time>2026-04-18T16:00:12.902Z</time></trkpt><trkpt lat="44.0963534" lon="12.1625801"><ele>257.0</ele><time>2026-04-18T16:00:14.888Z</time></trkpt><trkpt lat="44.0964454" lon="12.1626375"><ele>257.0</ele><time>2026-04-18T16:00:16.89Z</time></trkpt><trkpt lat="44.0965267" lon="12.1627072"><ele>258.1666666666667</ele><time>2026-04-18T16:00:18.881Z</time></trkpt><trkpt lat="44.096598" lon="12.1627839"><ele>259.33333333333337</ele><time>2026-04-18T16:00:20.884Z</time></trkpt><trkpt lat="44.0966665" lon="12.1628637"><ele>260.5</ele><time>2026-04-18T16:00:22.901Z</time></trkpt><trkpt lat="44.0967236" lon="12.1629466"><ele>261.6666666666667</ele><time>2026-04-18T16:00:24.893Z</time></trkpt><trkpt lat="44.0967878" lon="12.1630452"><ele>262.8333333333333</ele><time>2026-04-18T16:00:26.894Z</time></trkpt><trkpt lat="44.0968493" lon="12.163138"><ele>264.0</ele><time>2026-04-18T16:00:28.903Z</time></trkpt><trkpt lat="44.0969162" lon="12.16323"><ele>264.0</ele><time>2026-04-18T16:00:30.895Z</time></trkpt><trkpt lat="44.0969718" lon="12.1633387"><ele>264.0</ele><time>2026-04-18T16:00:32.898Z</time></trkpt><trkpt lat="44.0970131" lon="12.1634689"><ele>264.0</ele><time>2026-04-18T16:00:34.9Z</time></trkpt><trkpt lat="44.0970378" lon="12.1635944"><ele>264.0</ele><time>2026-04-18T16:00:36.897Z</time></trkpt><trkpt lat="44.0970651" lon="12.1637109"><ele>264.0</ele><time>2026-04-18T16:00:38.897Z</time></trkpt><trkpt lat="44.0971067" lon="12.1637854"><ele>264.0</ele><time>2026-04-18T16:00:40.901Z</time></trkpt><trkpt lat="44.0971778" lon="12.1637186"><ele>264.0</ele><time>2026-04-18T16:00:43.903Z</time></trkpt><trkpt lat="44.0972191" lon="12.1636453"><ele>264.0</ele><time>2026-04-18T16:00:45.899Z</time></trkpt><trkpt lat="44.0972595" lon="12.1635621"><ele>264.0</ele><time>2026-04-18T16:00:47.89Z</time></trkpt><trkpt lat="44.0972929" lon="12.1634653"><ele>264.0</ele><time>2026-04-18T16:00:49.893Z</time></trkpt><trkpt lat="44.0973192" lon="12.1633837"><ele>264.0</ele><time>2026-04-18T16:00:51.891Z</time></trkpt><trkpt lat="44.0973519" lon="12.1632495"><ele>264.0</ele><time>2026-04-18T16:00:54.894Z</time></trkpt><trkpt lat="44.0973685" lon="12.1631475"><ele>266.1666666666667</ele><time>2026-04-18T16:00:56.887Z</time></trkpt><trkpt lat="44.0973713" lon="12.1630456"><ele>268.3333333333333</ele><time>2026-04-18T16:00:58.893Z</time></trkpt><trkpt lat="44.0973587" lon="12.162955"><ele>270.5</ele><time>2026-04-18T16:01:00.898Z</time></trkpt><trkpt lat="44.097327" lon="12.1628731"><ele>272.66666666666663</ele><time>2026-04-18T16:01:02.893Z</time></trkpt><trkpt lat="44.0972503" lon="12.1627843"><ele>274.8333333333333</ele><time>2026-04-18T16:01:05.888Z</time></trkpt><trkpt lat="44.0971934" lon="12.1627099"><ele>277.0</ele><time>2026-04-18T16:01:07.895Z</time></trkpt><trkpt lat="44.0971341" lon="12.1626505"><ele>277.0</ele><time>2026-04-18T16:01:09.89Z</time></trkpt><trkpt lat="44.0970731" lon="12.1625952"><ele>277.0</ele><time>2026-04-18T16:01:11.9Z</time></trkpt><trkpt lat="44.0970038" lon="12.1625357"><ele>277.0</ele><time>2026-04-18T16:01:13.91Z</time></trkpt><trkpt lat="44.0969426" lon="12.162478"><ele>277.0</ele><time>2026-04-18T16:01:15.896Z</time></trkpt><trkpt lat="44.0968793" lon="12.1624172"><ele>277.0</ele><time>2026-04-18T16:01:17.897Z</time></trkpt><trkpt lat="44.0968207" lon="12.1623598"><ele>277.0</ele><time>2026-04-18T16:01:19.898Z</time></trkpt><trkpt lat="44.0967597" lon="12.1623113"><ele>277.0</ele><time>2026-04-18T16:01:21.892Z</time></trkpt><trkpt lat="44.0966901" lon="12.1622512"><ele>275.7142857142857</ele><time>2026-04-18T16:01:23.904Z</time></trkpt><trkpt lat="44.0966317" lon="12.1621858"><ele>274.4285714285714</ele><time>2026-04-18T16:01:25.896Z</time></trkpt><trkpt lat="44.0965727" lon="12.1621313"><ele>273.1428571428571</ele><time>2026-04-18T16:01:27.891Z</time></trkpt><trkpt lat="44.0965131" lon="12.1620786"><ele>271.85714285714283</ele><time>2026-04-18T16:01:29.902Z</time></trkpt><trkpt lat="44.0964569" lon="12.1620304"><ele>270.57142857142856</ele><time>2026-04-18T16:01:31.901Z</time></trkpt><trkpt lat="44.0964142" lon="12.1619581"><ele>269.2857142857143</ele><time>2026-04-18T16:01:33.904Z</time></trkpt><trkpt lat="44.0964076" lon="12.1618496"><ele>268.0</ele><time>2026-04-18T16:01:35.894Z</time></trkpt><trkpt lat="44.0964497" lon="12.1617628"><ele>268.0</ele><time>2026-04-18T16:01:37.899Z</time></trkpt><trkpt lat="44.0965213" lon="12.1616937"><ele>268.0</ele><time>2026-04-18T16:01:39.888Z</time></trkpt><trkpt lat="44.0965782" lon="12.1616307"><ele>268.0</ele><time>2026-04-18T16:01:41.893Z</time></trkpt><trkpt lat="44.0966554" lon="12.1615703"><ele>268.0</ele><time>2026-04-18T16:01:44.902Z</time></trkpt><trkpt lat="44.0967328" lon="12.1615201"><ele>268.0</ele><time>2026-04-18T16:01:47.906Z</time></trkpt><trkpt lat="44.0967936" lon="12.1614514"><ele>268.0</ele><time>2026-04-18T16:01:50.903Z</time></trkpt><trkpt lat="44.0968505" lon="12.1613664"><ele>271.3333333333333</ele><time>2026-04-18T16:01:53.911Z</time></trkpt><trkpt lat="44.0968985" lon="12.1613003"><ele>274.66666666666663</ele><time>2026-04-18T16:01:56.901Z</time></trkpt><trkpt lat="44.0969594" lon="12.1612105"><ele>278.0</ele><time>2026-04-18T16:01:59.892Z</time></trkpt><trkpt lat="44.0969829" lon="12.1610976"><ele>281.3333333333333</ele><time>2026-04-18T16:02:02.896Z</time></trkpt><trkpt lat="44.0969795" lon="12.1609864"><ele>284.6666666666667</ele><time>2026-04-18T16:02:05.897Z</time></trkpt><trkpt lat="44.0969526" lon="12.1608874"><ele>288.0</ele><time>2026-04-18T16:02:08.899Z</time></trkpt><trkpt lat="44.0969218" lon="12.1607995"><ele>288.0</ele><time>2026-04-18T16:02:11.891Z</time></trkpt><trkpt lat="44.0968733" lon="12.1607005"><ele>288.0</ele><time>2026-04-18T16:02:14.896Z</time></trkpt><trkpt lat="44.0968208" lon="12.1606036"><ele>288.0</ele><time>2026-04-18T16:02:17.902Z</time></trkpt><trkpt lat="44.0967801" lon="12.1605087"><ele>288.0</ele><time>2026-04-18T16:02:20.9Z</time></trkpt><trkpt lat="44.0967286" lon="12.160414"><ele>288.0</ele><time>2026-04-18T16:02:23.916Z</time></trkpt><trkpt lat="44.0966871" lon="12.1603268"><ele>288.0</ele><time>2026-04-18T16:02:26.905Z</time></trkpt><trkpt lat="44.096661" lon="12.1602321"><ele>288.00000000000006</ele><time>2026-04-18T16:02:29.909Z</time></trkpt><trkpt lat="44.0966539" lon="12.1601061"><ele>288.0</ele><time>2026-04-18T16:02:32.904Z</time></trkpt><trkpt lat="44.0966646" lon="12.1600142"><ele>288.0</ele><time>2026-04-18T16:02:34.908Z</time></trkpt><trkpt lat="44.0967032" lon="12.1599437"><ele>288.0</ele><time>2026-04-18T16:02:36.904Z</time></trkpt><trkpt lat="44.0967627" lon="12.1599139"><ele>288.0</ele><time>2026-04-18T16:02:38.905Z</time></trkpt><trkpt lat="44.0968294" lon="12.1598986"><ele>288.00000000000006</ele><time>2026-04-18T16:02:40.9Z</time></trkpt><trkpt lat="44.0969096" lon="12.1598689"><ele>288.0</ele><time>2026-04-18T16:02:43.907Z</time></trkpt><trkpt lat="44.0969978" lon="12.1598673"><ele>287.1666666666667</ele><time>2026-04-18T16:02:46.905Z</time></trkpt><trkpt lat="44.0970906" lon="12.1598625"><ele>286.3333333333333</ele><time>2026-04-18T16:02:49.909Z</time></trkpt><trkpt lat="44.0971653" lon="12.1598332"><ele>285.5</ele><time>2026-04-18T16:02:52.899Z</time></trkpt><trkpt lat="44.0972202" lon="12.1597881"><ele>284.66666666666663</ele><time>2026-04-18T16:02:54.9Z</time></trkpt><trkpt lat="44.0972943" lon="12.159721"><ele>283.8333333333333</ele><time>2026-04-18T16:02:57.903Z</time></trkpt><trkpt lat="44.0973495" lon="12.1596428"><ele>283.0</ele><time>2026-04-18T16:03:00.907Z</time></trkpt><trkpt lat="44.0973794" lon="12.1595405"><ele>283.0</ele><time>2026-04-18T16:03:03.912Z</time></trkpt><trkpt lat="44.0973966" lon="12.1594286"><ele>283.0</ele><time>2026-04-18T16:03:06.889Z</time></trkpt><trkpt lat="44.0974043" lon="12.1593243"><ele>283.0</ele><time>2026-04-18T16:03:09.899Z</time></trkpt><trkpt lat="44.0974079" lon="12.1591896"><ele>283.0</ele><time>2026-04-18T16:03:12.89Z</time></trkpt><trkpt lat="44.09742" lon="12.1590852"><ele>283.0</ele><time>2026-04-18T16:03:14.89Z</time></trkpt><trkpt lat="44.0974278" lon="12.1589974"><ele>283.0</ele><time>2026-04-18T16:03:16.896Z</time></trkpt><trkpt lat="44.0974454" lon="12.1588755"><ele>288.5</ele><time>2026-04-18T16:03:19.893Z</time></trkpt><trkpt lat="44.0974626" lon="12.1587451"><ele>294.0</ele><time>2026-04-18T16:03:22.891Z</time></trkpt><trkpt lat="44.0974858" lon="12.1586589"><ele>299.5</ele><time>2026-04-18T16:03:24.896Z</time></trkpt><trkpt lat="44.0975228" lon="12.1585518"><ele>305.0</ele><time>2026-04-18T16:03:27.898Z</time></trkpt><trkpt lat="44.0975448" lon="12.1584668"><ele>310.5</ele><time>2026-04-18T16:03:29.903Z</time></trkpt><trkpt lat="44.0975746" lon="12.1583669"><ele>316.0</ele><time>2026-04-18T16:03:32.898Z</time></trkpt><trkpt lat="44.0975892" lon="12.158259"><ele>317.5</ele><time>2026-04-18T16:03:35.909Z</time></trkpt><trkpt lat="44.0975982" lon="12.1581667"><ele>319.0</ele><time>2026-04-18T16:03:38.906Z</time></trkpt><trkpt lat="44.0975913" lon="12.1580673"><ele>320.5</ele><time>2026-04-18T16:03:41.901Z</time></trkpt><trkpt lat="44.0975727" lon="12.1579475"><ele>322.0</ele><time>2026-04-18T16:03:44.889Z</time></trkpt><trkpt lat="44.0975491" lon="12.1578256"><ele>323.5</ele><time>2026-04-18T16:03:47.896Z</time></trkpt><trkpt lat="44.0975238" lon="12.1577392"><ele>325.0</ele><time>2026-04-18T16:03:49.898Z</time></trkpt><trkpt lat="44.0976068" lon="12.1577347"><ele>325.0</ele><time>2026-04-18T16:03:54.89Z</time></trkpt><trkpt lat="44.0976633" lon="12.1577738"><ele>325.0</ele><time>2026-04-18T16:03:56.901Z</time></trkpt><trkpt lat="44.0977288" lon="12.1578319"><ele>325.0</ele><time>2026-04-18T16:03:59.895Z</time></trkpt><trkpt lat="44.0977945" lon="12.1578592"><ele>325.0</ele><time>2026-04-18T16:04:02.899Z</time></trkpt><trkpt lat="44.0978526" lon="12.1578936"><ele>325.0</ele><time>2026-04-18T16:04:05.907Z</time></trkpt><trkpt lat="44.0979256" lon="12.1579414"><ele>325.0</ele><time>2026-04-18T16:04:09.903Z</time></trkpt><trkpt lat="44.0979914" lon="12.1580026"><ele>325.0</ele><time>2026-04-18T16:04:13.905Z</time></trkpt><trkpt lat="44.0980434" lon="12.1580526"><ele>325.0</ele><time>2026-04-18T16:04:16.898Z</time></trkpt><trkpt lat="44.0981021" lon="12.1581128"><ele>325.0</ele><time>2026-04-18T16:04:19.896Z</time></trkpt><trkpt lat="44.0981598" lon="12.1581662"><ele>325.0</ele><time>2026-04-18T16:04:22.912Z</time></trkpt><trkpt lat="44.0982272" lon="12.1582308"><ele>325.0</ele><time>2026-04-18T16:04:25.905Z</time></trkpt><trkpt lat="44.0982869" lon="12.1582726"><ele>325.0</ele><time>2026-04-18T16:04:27.903Z</time></trkpt><trkpt lat="44.0983576" lon="12.1583325"><ele>325.0</ele><time>2026-04-18T16:04:30.907Z</time></trkpt><trkpt lat="44.0984217" lon="12.158406"><ele>325.5</ele><time>2026-04-18T16:04:33.897Z</time></trkpt><trkpt lat="44.0984906" lon="12.158467"><ele>326.0</ele><time>2026-04-18T16:04:36.901Z</time></trkpt><trkpt lat="44.0985685" lon="12.158535"><ele>326.5</ele><time>2026-04-18T16:04:39.891Z</time></trkpt><trkpt lat="44.0986353" lon="12.1586049"><ele>327.0</ele><time>2026-04-18T16:04:42.887Z</time></trkpt><trkpt lat="44.0987124" lon="12.158626"><ele>327.5</ele><time>2026-04-18T16:04:45.903Z</time></trkpt><trkpt lat="44.0988033" lon="12.1586522"><ele>328.0</ele><time>2026-04-18T16:04:48.898Z</time></trkpt><trkpt lat="44.0988721" lon="12.1586745"><ele>328.0</ele><time>2026-04-18T16:04:50.891Z</time></trkpt><trkpt lat="44.0989456" lon="12.1586878"><ele>328.0</ele><time>2026-04-18T16:04:52.899Z</time></trkpt><trkpt lat="44.0990264" lon="12.1587076"><ele>328.0</ele><time>2026-04-18T16:04:54.895Z</time></trkpt><trkpt lat="44.0991137" lon="12.1587413"><ele>328.0</ele><time>2026-04-18T16:04:56.891Z</time></trkpt><trkpt lat="44.0992036" lon="12.1587914"><ele>328.0</ele><time>2026-04-18T16:04:58.899Z</time></trkpt><trkpt lat="44.099301" lon="12.1588559"><ele>326.8333333333333</ele><time>2026-04-18T16:05:00.907Z</time></trkpt><trkpt lat="44.099422" lon="12.1589026"><ele>325.66666666666663</ele><time>2026-04-18T16:05:02.888Z</time></trkpt><trkpt lat="44.0994835" lon="12.1589313"><ele>324.5</ele><time>2026-04-18T16:05:03.889Z</time></trkpt><trkpt lat="44.0995531" lon="12.15897"><ele>323.3333333333333</ele><time>2026-04-18T16:05:04.879Z</time></trkpt><trkpt lat="44.099625" lon="12.1590068"><ele>322.1666666666667</ele><time>2026-04-18T16:05:05.891Z</time></trkpt><trkpt lat="44.0996964" lon="12.1590397"><ele>321.0</ele><time>2026-04-18T16:05:06.89Z</time></trkpt><trkpt lat="44.0997688" lon="12.1590761"><ele>321.6666666666667</ele><time>2026-04-18T16:05:07.889Z</time></trkpt><trkpt lat="44.0998364" lon="12.159109"><ele>322.3333333333333</ele><time>2026-04-18T16:05:08.895Z</time></trkpt><trkpt lat="44.0998985" lon="12.1591473"><ele>323.0</ele><time>2026-04-18T16:05:09.897Z</time></trkpt><trkpt lat="44.0999772" lon="12.1592165"><ele>323.66666666666663</ele><time>2026-04-18T16:05:11.892Z</time></trkpt><trkpt lat="44.1000074" lon="12.1593207"><ele>324.3333333333333</ele><time>2026-04-18T16:06:49.912Z</time></trkpt><trkpt lat="44.1000182" lon="12.1594468"><ele>325.0</ele><time>2026-04-18T16:06:52.893Z</time></trkpt><trkpt lat="44.1000475" lon="12.1595614"><ele>325.0</ele><time>2026-04-18T16:06:55.898Z</time></trkpt><trkpt lat="44.1000872" lon="12.159676"><ele>325.0</ele><time>2026-04-18T16:06:58.898Z</time></trkpt><trkpt lat="44.1001127" lon="12.1597578"><ele>325.0</ele><time>2026-04-18T16:07:00.894Z</time></trkpt><trkpt lat="44.1001381" lon="12.1598538"><ele>325.0</ele><time>2026-04-18T16:07:02.893Z</time></trkpt><trkpt lat="44.1001751" lon="12.1599614"><ele>325.0</ele><time>2026-04-18T16:07:04.896Z</time></trkpt><trkpt lat="44.100214" lon="12.1601168"><ele>325.0</ele><time>2026-04-18T16:07:06.881Z</time></trkpt><trkpt lat="44.1002251" lon="12.1602297"><ele>324.6</ele><time>2026-04-18T16:07:07.885Z</time></trkpt><trkpt lat="44.100226" lon="12.1603637"><ele>324.2</ele><time>2026-04-18T16:07:08.88Z</time></trkpt><trkpt lat="44.1002195" lon="12.1605119"><ele>323.79999999999995</ele><time>2026-04-18T16:07:09.887Z</time></trkpt><trkpt lat="44.1001994" lon="12.1606561"><ele>323.4</ele><time>2026-04-18T16:07:10.89Z</time></trkpt><trkpt lat="44.1001768" lon="12.1607919"><ele>323.0</ele><time>2026-04-18T16:07:11.877Z</time></trkpt><trkpt lat="44.1001462" lon="12.1609079"><ele>320.5714285714286</ele><time>2026-04-18T16:07:12.884Z</time></trkpt><trkpt lat="44.1001049" lon="12.1609966"><ele>318.14285714285717</ele><time>2026-04-18T16:07:13.879Z</time></trkpt><trkpt lat="44.100049" lon="12.1610531"><ele>315.7142857142857</ele><time>2026-04-18T16:07:14.889Z</time></trkpt><trkpt lat="44.0999828" lon="12.1610825"><ele>313.28571428571433</ele><time>2026-04-18T16:07:15.886Z</time></trkpt><trkpt lat="44.0999154" lon="12.1610834"><ele>310.8571428571429</ele><time>2026-04-18T16:07:16.881Z</time></trkpt><trkpt lat="44.0998471" lon="12.1610694"><ele>308.42857142857144</ele><time>2026-04-18T16:07:17.887Z</time></trkpt><trkpt lat="44.0997858" lon="12.1610404"><ele>306.0</ele><time>2026-04-18T16:07:18.889Z</time></trkpt><trkpt lat="44.0996933" lon="12.1609863"><ele>305.5</ele><time>2026-04-18T16:07:20.879Z</time></trkpt><trkpt lat="44.099617" lon="12.1609948"><ele>305.0</ele><time>2026-04-18T16:07:22.893Z</time></trkpt><trkpt lat="44.099599" lon="12.1611146"><ele>304.5</ele><time>2026-04-18T16:07:25.882Z</time></trkpt><trkpt lat="44.099676" lon="12.1612428"><ele>304.0</ele><time>2026-04-18T16:07:27.883Z</time></trkpt><trkpt lat="44.0997159" lon="12.1613125"><ele>303.5</ele><time>2026-04-18T16:07:28.881Z</time></trkpt><trkpt lat="44.0997555" lon="12.1613851"><ele>303.0</ele><time>2026-04-18T16:07:29.893Z</time></trkpt><trkpt lat="44.0997969" lon="12.1614552"><ele>299.6</ele><time>2026-04-18T16:07:30.886Z</time></trkpt><trkpt lat="44.099862" lon="12.1615652"><ele>296.20000000000005</ele><time>2026-04-18T16:07:32.888Z</time></trkpt><trkpt lat="44.0999376" lon="12.1616659"><ele>292.8</ele><time>2026-04-18T16:07:34.896Z</time></trkpt><trkpt lat="44.1000184" lon="12.1617697"><ele>289.40000000000003</ele><time>2026-04-18T16:07:36.897Z</time></trkpt><trkpt lat="44.100105" lon="12.1618752"><ele>286.0</ele><time>2026-04-18T16:07:38.904Z</time></trkpt><trkpt lat="44.1001973" lon="12.1619813"><ele>286.0</ele><time>2026-04-18T16:07:40.891Z</time></trkpt><trkpt lat="44.1002726" lon="12.1620725"><ele>286.0</ele><time>2026-04-18T16:07:42.882Z</time></trkpt><trkpt lat="44.1003387" lon="12.1621604"><ele>286.0</ele><time>2026-04-18T16:07:44.889Z</time></trkpt><trkpt lat="44.1003951" lon="12.162218"><ele>286.0</ele><time>2026-04-18T16:07:46.899Z</time></trkpt><trkpt lat="44.100466" lon="12.1622693"><ele>286.0</ele><time>2026-04-18T16:07:49.905Z</time></trkpt><trkpt lat="44.1005241" lon="12.1623293"><ele>286.0</ele><time>2026-04-18T16:07:53.903Z</time></trkpt><trkpt lat="44.100456" lon="12.1623019"><ele>285.99999999999994</ele><time>2026-04-18T16:08:34.893Z</time></trkpt><trkpt lat="44.1003967" lon="12.1622345"><ele>286.0</ele><time>2026-04-18T16:08:37.891Z</time></trkpt><trkpt lat="44.1003464" lon="12.1621646"><ele>286.0</ele><time>2026-04-18T16:08:40.898Z</time></trkpt><trkpt lat="44.1003006" lon="12.1621031"><ele>286.0</ele><time>2026-04-18T16:08:43.903Z</time></trkpt><trkpt lat="44.1002444" lon="12.1620473"><ele>286.0</ele><time>2026-04-18T16:08:46.899Z</time></trkpt><trkpt lat="44.100195" lon="12.1619817"><ele>285.99999999999994</ele><time>2026-04-18T16:08:49.898Z</time></trkpt><trkpt lat="44.1001417" lon="12.1619268"><ele>286.0</ele><time>2026-04-18T16:08:52.894Z</time></trkpt><trkpt lat="44.1000803" lon="12.1618462"><ele>286.0</ele><time>2026-04-18T16:08:56.897Z</time></trkpt><trkpt lat="44.1000211" lon="12.1617723"><ele>286.0</ele><time>2026-04-18T16:09:01.892Z</time></trkpt><trkpt lat="44.0999654" lon="12.1616908"><ele>286.0</ele><time>2026-04-18T16:09:04.892Z</time></trkpt><trkpt lat="44.0999152" lon="12.1616245"><ele>286.0</ele><time>2026-04-18T16:09:07.893Z</time></trkpt><trkpt lat="44.0998734" lon="12.1615555"><ele>286.0</ele><time>2026-04-18T16:09:10.894Z</time></trkpt><trkpt lat="44.09983" lon="12.1614653"><ele>286.0</ele><time>2026-04-18T16:09:14.895Z</time></trkpt><trkpt lat="44.0997874" lon="12.1613734"><ele>288.8333333333333</ele><time>2026-04-18T16:09:18.9Z</time></trkpt><trkpt lat="44.0997394" lon="12.1612827"><ele>291.66666666666663</ele><time>2026-04-18T16:09:22.892Z</time></trkpt><trkpt lat="44.0996971" lon="12.1611837"><ele>294.5</ele><time>2026-04-18T16:09:26.893Z</time></trkpt><trkpt lat="44.0996509" lon="12.1610935"><ele>297.3333333333333</ele><time>2026-04-18T16:09:30.893Z</time></trkpt><trkpt lat="44.0996288" lon="12.1610063"><ele>300.1666666666667</ele><time>2026-04-18T16:09:34.886Z</time></trkpt><trkpt lat="44.0996836" lon="12.1609424"><ele>303.0</ele><time>2026-04-18T16:09:38.897Z</time></trkpt><trkpt lat="44.0997524" lon="12.1609788"><ele>303.0</ele><time>2026-04-18T16:09:41.897Z</time></trkpt><trkpt lat="44.0998213" lon="12.1610068"><ele>303.0</ele><time>2026-04-18T16:09:44.888Z</time></trkpt><trkpt lat="44.0998862" lon="12.1610375"><ele>303.0</ele><time>2026-04-18T16:09:47.896Z</time></trkpt><trkpt lat="44.0999754" lon="12.1610323"><ele>303.0</ele><time>2026-04-18T16:09:50.903Z</time></trkpt><trkpt lat="44.1000523" lon="12.1609689"><ele>303.0</ele><time>2026-04-18T16:09:53.9Z</time></trkpt><trkpt lat="44.1000986" lon="12.1609046"><ele>303.0</ele><time>2026-04-18T16:09:55.904Z</time></trkpt><trkpt lat="44.1001426" lon="12.1608323"><ele>303.42857142857144</ele><time>2026-04-18T16:09:57.893Z</time></trkpt><trkpt lat="44.1001737" lon="12.1607396"><ele>303.85714285714283</ele><time>2026-04-18T16:09:59.892Z</time></trkpt><trkpt lat="44.100199" lon="12.1606432"><ele>304.2857142857143</ele><time>2026-04-18T16:10:01.898Z</time></trkpt><trkpt lat="44.1002017" lon="12.160546"><ele>304.7142857142857</ele><time>2026-04-18T16:10:03.899Z</time></trkpt><trkpt lat="44.1002117" lon="12.1604525"><ele>305.14285714285717</ele><time>2026-04-18T16:10:05.898Z</time></trkpt><trkpt lat="44.1002222" lon="12.1603635"><ele>305.57142857142856</ele><time>2026-04-18T16:10:07.902Z</time></trkpt><trkpt lat="44.1002285" lon="12.1602699"><ele>306.0</ele><time>2026-04-18T16:10:09.898Z</time></trkpt><trkpt lat="44.1002213" lon="12.1601808"><ele>308.42857142857144</ele><time>2026-04-18T16:10:11.901Z</time></trkpt><trkpt lat="44.1002198" lon="12.1600754"><ele>310.8571428571429</ele><time>2026-04-18T16:10:14.902Z</time></trkpt><trkpt lat="44.1002107" lon="12.1599831"><ele>313.28571428571433</ele><time>2026-04-18T16:10:17.898Z</time></trkpt><trkpt lat="44.1001979" lon="12.1598808"><ele>315.7142857142857</ele><time>2026-04-18T16:10:20.899Z</time></trkpt><trkpt lat="44.1001782" lon="12.1597836"><ele>318.14285714285717</ele><time>2026-04-18T16:10:23.904Z</time></trkpt><trkpt lat="44.1001451" lon="12.1596892"><ele>320.5714285714286</ele><time>2026-04-18T16:10:26.908Z</time></trkpt><trkpt lat="44.1001105" lon="12.1595892"><ele>323.0</ele><time>2026-04-18T16:10:30.9Z</time></trkpt><trkpt lat="44.1000746" lon="12.159492"><ele>323.33333333333337</ele><time>2026-04-18T16:10:33.901Z</time></trkpt><trkpt lat="44.100042" lon="12.1593868"><ele>323.6666666666667</ele><time>2026-04-18T16:10:36.9Z</time></trkpt><trkpt lat="44.1000793" lon="12.1593009"><ele>324.0</ele><time>2026-04-18T16:10:40.897Z</time></trkpt><trkpt lat="44.1001499" lon="12.1592417"><ele>324.3333333333333</ele><time>2026-04-18T16:11:14.899Z</time></trkpt><trkpt lat="44.1001915" lon="12.1591623"><ele>324.66666666666663</ele><time>2026-04-18T16:11:16.892Z</time></trkpt><trkpt lat="44.1002414" lon="12.1590708"><ele>325.0</ele><time>2026-04-18T16:11:18.894Z</time></trkpt><trkpt lat="44.1002878" lon="12.1589968"><ele>323.16666666666663</ele><time>2026-04-18T16:11:20.897Z</time></trkpt><trkpt lat="44.1003156" lon="12.1589066"><ele>321.3333333333333</ele><time>2026-04-18T16:11:22.903Z</time></trkpt><trkpt lat="44.1003244" lon="12.1588126"><ele>319.5</ele><time>2026-04-18T16:11:24.902Z</time></trkpt><trkpt lat="44.1003339" lon="12.1587073"><ele>317.6666666666667</ele><time>2026-04-18T16:11:26.902Z</time></trkpt><trkpt lat="44.1003292" lon="12.158599"><ele>315.83333333333337</ele><time>2026-04-18T16:11:28.906Z</time></trkpt><trkpt lat="44.1003272" lon="12.1584881"><ele>314.0</ele><time>2026-04-18T16:11:30.895Z</time></trkpt><trkpt lat="44.1003221" lon="12.1583589"><ele>314.0</ele><time>2026-04-18T16:11:32.899Z</time></trkpt><trkpt lat="44.1003132" lon="12.1582188"><ele>314.0</ele><time>2026-04-18T16:11:34.9Z</time></trkpt><trkpt lat="44.1002851" lon="12.1580799"><ele>314.0</ele><time>2026-04-18T16:11:36.9Z</time></trkpt><trkpt lat="44.1002418" lon="12.1579576"><ele>314.0</ele><time>2026-04-18T16:11:38.9Z</time></trkpt><trkpt lat="44.100199" lon="12.1578315"><ele>314.0</ele><time>2026-04-18T16:11:40.909Z</time></trkpt><trkpt lat="44.1001499" lon="12.1577056"><ele>312.0</ele><time>2026-04-18T16:11:42.896Z</time></trkpt><trkpt lat="44.1001097" lon="12.1576004"><ele>310.0</ele><time>2026-04-18T16:11:44.895Z</time></trkpt><trkpt lat="44.1000655" lon="12.1574912"><ele>308.0</ele><time>2026-04-18T16:11:46.896Z</time></trkpt><trkpt lat="44.1000273" lon="12.157356"><ele>306.0</ele><time>2026-04-18T16:11:48.893Z</time></trkpt><trkpt lat="44.0999946" lon="12.1572047"><ele>304.0</ele><time>2026-04-18T16:11:50.888Z</time></trkpt><trkpt lat="44.0999797" lon="12.1570289"><ele>302.2857142857143</ele><time>2026-04-18T16:11:52.906Z</time></trkpt><trkpt lat="44.0999788" lon="12.1569398"><ele>300.5714285714286</ele><time>2026-04-18T16:11:53.894Z</time></trkpt><trkpt lat="44.0999898" lon="12.1568471"><ele>298.8571428571429</ele><time>2026-04-18T16:11:54.909Z</time></trkpt><trkpt lat="44.1000101" lon="12.1567552"><ele>297.1428571428571</ele><time>2026-04-18T16:11:55.901Z</time></trkpt><trkpt lat="44.1000363" lon="12.1566746"><ele>295.42857142857144</ele><time>2026-04-18T16:11:56.906Z</time></trkpt><trkpt lat="44.1000925" lon="12.1565549"><ele>293.7142857142857</ele><time>2026-04-18T16:11:58.895Z</time></trkpt><trkpt lat="44.1001579" lon="12.1565246"><ele>292.0</ele><time>2026-04-18T16:12:00.905Z</time></trkpt><trkpt lat="44.1002303" lon="12.1565519"><ele>292.0</ele><time>2026-04-18T16:12:02.919Z</time></trkpt><trkpt lat="44.1002916" lon="12.1566161"><ele>292.0</ele><time>2026-04-18T16:12:04.911Z</time></trkpt><trkpt lat="44.1003577" lon="12.1567066"><ele>292.0</ele><time>2026-04-18T16:12:06.905Z</time></trkpt><trkpt lat="44.1004229" lon="12.1568211"><ele>292.0</ele><time>2026-04-18T16:12:08.895Z</time></trkpt><trkpt lat="44.1005024" lon="12.1569581"><ele>292.0</ele><time>2026-04-18T16:12:10.887Z</time></trkpt><trkpt lat="44.1005546" lon="12.1570339"><ele>292.0</ele><time>2026-04-18T16:12:11.895Z</time></trkpt><trkpt lat="44.1006169" lon="12.1571099"><ele>292.0</ele><time>2026-04-18T16:12:12.884Z</time></trkpt><trkpt lat="44.1006805" lon="12.1571699"><ele>292.0</ele><time>2026-04-18T16:12:13.887Z</time></trkpt><trkpt lat="44.1007496" lon="12.157215"><ele>292.0</ele><time>2026-04-18T16:12:14.885Z</time></trkpt><trkpt lat="44.1008567" lon="12.1572873"><ele>292.0</ele><time>2026-04-18T16:12:16.883Z</time></trkpt><trkpt lat="44.1009348" lon="12.1573149"><ele>292.0</ele><time>2026-04-18T16:12:18.881Z</time></trkpt><trkpt lat="44.1010085" lon="12.1573189"><ele>289.5</ele><time>2026-04-18T16:12:20.902Z</time></trkpt><trkpt lat="44.1010926" lon="12.1573237"><ele>287.0</ele><time>2026-04-18T16:12:22.893Z</time></trkpt><trkpt lat="44.1011977" lon="12.1572955"><ele>284.5</ele><time>2026-04-18T16:12:24.891Z</time></trkpt><trkpt lat="44.1012562" lon="12.1572343"><ele>282.0</ele><time>2026-04-18T16:12:25.887Z</time></trkpt><trkpt lat="44.1013239" lon="12.1571581"><ele>279.5</ele><time>2026-04-18T16:12:26.882Z</time></trkpt><trkpt lat="44.1013826" lon="12.1570615"><ele>277.0</ele><time>2026-04-18T16:12:27.887Z</time></trkpt><trkpt lat="44.1014251" lon="12.1569558"><ele>277.0</ele><time>2026-04-18T16:12:28.891Z</time></trkpt><trkpt lat="44.1014577" lon="12.1568428"><ele>277.0</ele><time>2026-04-18T16:12:29.89Z</time></trkpt><trkpt lat="44.1014906" lon="12.1567209"><ele>277.0</ele><time>2026-04-18T16:12:30.885Z</time></trkpt><trkpt lat="44.1015345" lon="12.15661"><ele>277.0</ele><time>2026-04-18T16:12:31.895Z</time></trkpt><trkpt lat="44.1015878" lon="12.1565034"><ele>277.0</ele><time>2026-04-18T16:12:32.887Z</time></trkpt><trkpt lat="44.1016469" lon="12.1563991"><ele>273.3333333333333</ele><time>2026-04-18T16:12:33.882Z</time></trkpt><trkpt lat="44.1017141" lon="12.1563267"><ele>269.66666666666663</ele><time>2026-04-18T16:12:34.893Z</time></trkpt><trkpt lat="44.101803" lon="12.1563023"><ele>266.0</ele><time>2026-04-18T16:12:35.88Z</time></trkpt><trkpt lat="44.1018963" lon="12.1562962"><ele>262.3333333333333</ele><time>2026-04-18T16:12:36.895Z</time></trkpt><trkpt lat="44.1019836" lon="12.1562936"><ele>258.6666666666667</ele><time>2026-04-18T16:12:37.886Z</time></trkpt><trkpt lat="44.1020678" lon="12.1562856"><ele>255.0</ele><time>2026-04-18T16:12:38.887Z</time></trkpt><trkpt lat="44.1021338" lon="12.1562608"><ele>255.0</ele><time>2026-04-18T16:12:39.882Z</time></trkpt><trkpt lat="44.1021894" lon="12.1561797"><ele>255.0</ele><time>2026-04-18T16:12:41.892Z</time></trkpt><trkpt lat="44.1021866" lon="12.1560858"><ele>255.0</ele><time>2026-04-18T16:12:43.915Z</time></trkpt><trkpt lat="44.1021789" lon="12.1559792"><ele>255.0</ele><time>2026-04-18T16:12:45.914Z</time></trkpt><trkpt lat="44.1021765" lon="12.1558789"><ele>255.0</ele><time>2026-04-18T16:12:47.93Z</time></trkpt><trkpt lat="44.1021737" lon="12.1557596"><ele>255.0</ele><time>2026-04-18T16:12:49.916Z</time></trkpt><trkpt lat="44.1021778" lon="12.1556368"><ele>255.6</ele><time>2026-04-18T16:12:51.926Z</time></trkpt><trkpt lat="44.1021933" lon="12.1555128"><ele>256.2</ele><time>2026-04-18T16:12:53.917Z</time></trkpt><trkpt lat="44.1022233" lon="12.1553856"><ele>256.8</ele><time>2026-04-18T16:12:55.904Z</time></trkpt><trkpt lat="44.1022781" lon="12.1552578"><ele>257.4</ele><time>2026-04-18T16:12:57.905Z</time></trkpt><trkpt lat="44.1023547" lon="12.1551554"><ele>258.0</ele><time>2026-04-18T16:12:59.905Z</time></trkpt><trkpt lat="44.1024441" lon="12.1550772"><ele>258.0</ele><time>2026-04-18T16:13:01.905Z</time></trkpt><trkpt lat="44.1025336" lon="12.1550135"><ele>258.0</ele><time>2026-04-18T16:13:03.91Z</time></trkpt><trkpt lat="44.1026145" lon="12.1549808"><ele>258.0</ele><time>2026-04-18T16:13:05.921Z</time></trkpt><trkpt lat="44.1026896" lon="12.154977"><ele>258.0</ele><time>2026-04-18T16:13:07.918Z</time></trkpt><trkpt lat="44.1027796" lon="12.1549606"><ele>258.0</ele><time>2026-04-18T16:13:09.911Z</time></trkpt><trkpt lat="44.102886" lon="12.1549264"><ele>258.0</ele><time>2026-04-18T16:13:11.907Z</time></trkpt><trkpt lat="44.1029904" lon="12.1549056"><ele>258.0</ele><time>2026-04-18T16:13:13.911Z</time></trkpt><trkpt lat="44.1030751" lon="12.1549004"><ele>258.0</ele><time>2026-04-18T16:13:15.919Z</time></trkpt><trkpt lat="44.1030694" lon="12.1548092"><ele>258.0</ele><time>2026-04-18T16:13:24.907Z</time></trkpt><trkpt lat="44.1029894" lon="12.1547547"><ele>258.0</ele><time>2026-04-18T16:13:27.913Z</time></trkpt><trkpt lat="44.1029396" lon="12.154667"><ele>258.0</ele><time>2026-04-18T16:13:30.903Z</time></trkpt><trkpt lat="44.1029696" lon="12.1545804"><ele>254.16666666666666</ele><time>2026-04-18T16:13:33.905Z</time></trkpt><trkpt lat="44.1030544" lon="12.1545413"><ele>250.33333333333331</ele><time>2026-04-18T16:13:36.91Z</time></trkpt><trkpt lat="44.1031294" lon="12.1545056"><ele>246.5</ele><time>2026-04-18T16:13:38.905Z</time></trkpt><trkpt lat="44.1032171" lon="12.1544693"><ele>242.66666666666666</ele><time>2026-04-18T16:13:40.903Z</time></trkpt><trkpt lat="44.1032992" lon="12.1544285"><ele>238.83333333333331</ele><time>2026-04-18T16:13:42.9Z</time></trkpt><trkpt lat="44.1033905" lon="12.154376"><ele>235.0</ele><time>2026-04-18T16:13:44.907Z</time></trkpt><trkpt lat="44.1034898" lon="12.15431"><ele>233.6</ele><time>2026-04-18T16:13:46.904Z</time></trkpt><trkpt lat="44.1035823" lon="12.1542975"><ele>232.2</ele><time>2026-04-18T16:13:48.898Z</time></trkpt><trkpt lat="44.1036717" lon="12.1543393"><ele>230.8</ele><time>2026-04-18T16:13:50.903Z</time></trkpt><trkpt lat="44.1037656" lon="12.1544083"><ele>229.4</ele><time>2026-04-18T16:13:52.9Z</time></trkpt><trkpt lat="44.1038471" lon="12.1544995"><ele>228.0</ele><time>2026-04-18T16:13:54.894Z</time></trkpt><trkpt lat="44.1039151" lon="12.1546051"><ele>228.0</ele><time>2026-04-18T16:13:56.9Z</time></trkpt><trkpt lat="44.1039483" lon="12.1547494"><ele>228.0</ele><time>2026-04-18T16:13:58.898Z</time></trkpt><trkpt lat="44.1039488" lon="12.1549048"><ele>228.0</ele><time>2026-04-18T16:14:00.898Z</time></trkpt><trkpt lat="44.1039275" lon="12.1550628"><ele>228.0</ele><time>2026-04-18T16:14:02.89Z</time></trkpt><trkpt lat="44.1039102" lon="12.1552132"><ele>228.0</ele><time>2026-04-18T16:14:04.897Z</time></trkpt><trkpt lat="44.103885" lon="12.1553494"><ele>230.2</ele><time>2026-04-18T16:14:06.895Z</time></trkpt><trkpt lat="44.1038511" lon="12.1554904"><ele>232.4</ele><time>2026-04-18T16:14:08.897Z</time></trkpt><trkpt lat="44.1038214" lon="12.1556392"><ele>234.59999999999997</ele><time>2026-04-18T16:14:10.89Z</time></trkpt><trkpt lat="44.1037979" lon="12.1558053"><ele>236.79999999999998</ele><time>2026-04-18T16:14:12.89Z</time></trkpt><trkpt lat="44.1037705" lon="12.1559531"><ele>239.0</ele><time>2026-04-18T16:14:14.89Z</time></trkpt><trkpt lat="44.1037551" lon="12.1561086"><ele>239.00000000000003</ele><time>2026-04-18T16:14:16.883Z</time></trkpt><trkpt lat="44.1037362" lon="12.1562758"><ele>239.0</ele><time>2026-04-18T16:14:18.886Z</time></trkpt><trkpt lat="44.1037435" lon="12.1564391"><ele>239.0</ele><time>2026-04-18T16:14:20.882Z</time></trkpt><trkpt lat="44.1037587" lon="12.1565265"><ele>239.0</ele><time>2026-04-18T16:14:21.886Z</time></trkpt><trkpt lat="44.1037772" lon="12.1566141"><ele>239.00000000000003</ele><time>2026-04-18T16:14:22.889Z</time></trkpt><trkpt lat="44.1038017" lon="12.1567066"><ele>239.0</ele><time>2026-04-18T16:14:23.885Z</time></trkpt><trkpt lat="44.1038267" lon="12.1567914"><ele>237.39999999999998</ele><time>2026-04-18T16:14:24.898Z</time></trkpt><trkpt lat="44.1038881" lon="12.1569156"><ele>235.79999999999998</ele><time>2026-04-18T16:14:26.886Z</time></trkpt><trkpt lat="44.1039606" lon="12.1569807"><ele>234.20000000000002</ele><time>2026-04-18T16:14:28.888Z</time></trkpt><trkpt lat="44.1040747" lon="12.1569845"><ele>232.60000000000002</ele><time>2026-04-18T16:14:30.893Z</time></trkpt><trkpt lat="44.1041999" lon="12.1569883"><ele>231.0</ele><time>2026-04-18T16:14:32.882Z</time></trkpt><trkpt lat="44.1042659" lon="12.1569818"><ele>226.33333333333334</ele><time>2026-04-18T16:14:33.89Z</time></trkpt><trkpt lat="44.1043353" lon="12.1569741"><ele>221.66666666666669</ele><time>2026-04-18T16:14:34.88Z</time></trkpt><trkpt lat="44.1044083" lon="12.1569553"><ele>217.0</ele><time>2026-04-18T16:14:35.889Z</time></trkpt><trkpt lat="44.1044887" lon="12.1569365"><ele>212.33333333333334</ele><time>2026-04-18T16:14:36.884Z</time></trkpt><trkpt lat="44.1045732" lon="12.1569123"><ele>207.66666666666669</ele><time>2026-04-18T16:14:37.883Z</time></trkpt><trkpt lat="44.1046589" lon="12.1568867"><ele>203.0</ele><time>2026-04-18T16:14:38.889Z</time></trkpt><trkpt lat="44.1047419" lon="12.1568544"><ele>203.00000000000003</ele><time>2026-04-18T16:14:39.884Z</time></trkpt><trkpt lat="44.1048275" lon="12.1568078"><ele>203.0</ele><time>2026-04-18T16:14:40.881Z</time></trkpt><trkpt lat="44.1049131" lon="12.156754"><ele>203.0</ele><time>2026-04-18T16:14:41.889Z</time></trkpt><trkpt lat="44.1049859" lon="12.1566943"><ele>203.0</ele><time>2026-04-18T16:14:42.887Z</time></trkpt><trkpt lat="44.1050553" lon="12.1566472"><ele>203.00000000000003</ele><time>2026-04-18T16:14:43.892Z</time></trkpt><trkpt lat="44.1051174" lon="12.1566074"><ele>203.0</ele><time>2026-04-18T16:14:44.889Z</time></trkpt><trkpt lat="44.1051833" lon="12.1565704"><ele>200.00000000000003</ele><time>2026-04-18T16:14:45.89Z</time></trkpt><trkpt lat="44.1052488" lon="12.156525"><ele>197.0</ele><time>2026-04-18T16:14:46.89Z</time></trkpt><trkpt lat="44.1053191" lon="12.1564676"><ele>194.0</ele><time>2026-04-18T16:14:47.892Z</time></trkpt><trkpt lat="44.1053938" lon="12.1564048"><ele>191.0</ele><time>2026-04-18T16:14:48.892Z</time></trkpt><trkpt lat="44.1054623" lon="12.1563269"><ele>188.0</ele><time>2026-04-18T16:14:49.886Z</time></trkpt><trkpt lat="44.1055304" lon="12.1562584"><ele>185.0</ele><time>2026-04-18T16:14:50.882Z</time></trkpt><trkpt lat="44.1055923" lon="12.1561945"><ele>185.0</ele><time>2026-04-18T16:14:51.884Z</time></trkpt><trkpt lat="44.1056467" lon="12.1561364"><ele>185.0</ele><time>2026-04-18T16:14:52.883Z</time></trkpt><trkpt lat="44.1057288" lon="12.1560947"><ele>185.0</ele><time>2026-04-18T16:14:54.884Z</time></trkpt><trkpt lat="44.1057913" lon="12.1561114"><ele>185.0</ele><time>2026-04-18T16:14:56.884Z</time></trkpt><trkpt lat="44.1058598" lon="12.1561563"><ele>185.0</ele><time>2026-04-18T16:14:59.894Z</time></trkpt><trkpt lat="44.105944" lon="12.1561855"><ele>185.0</ele><time>2026-04-18T16:15:02.891Z</time></trkpt><trkpt lat="44.1060052" lon="12.1562295"><ele>185.5</ele><time>2026-04-18T16:15:05.887Z</time></trkpt><trkpt lat="44.1060534" lon="12.1563191"><ele>186.0</ele><time>2026-04-18T16:15:20.888Z</time></trkpt><trkpt lat="44.1060918" lon="12.1563903"><ele>186.5</ele><time>2026-04-18T16:15:22.879Z</time></trkpt><trkpt lat="44.1061395" lon="12.1564678"><ele>187.0</ele><time>2026-04-18T16:15:24.877Z</time></trkpt><trkpt lat="44.1061955" lon="12.1565587"><ele>187.5</ele><time>2026-04-18T16:15:26.874Z</time></trkpt><trkpt lat="44.1062411" lon="12.1566278"><ele>188.0</ele><time>2026-04-18T16:15:28.885Z</time></trkpt><trkpt lat="44.1063043" lon="12.1567114"><ele>188.0</ele><time>2026-04-18T16:15:31.89Z</time></trkpt><trkpt lat="44.1063598" lon="12.1567867"><ele>188.0</ele><time>2026-04-18T16:15:33.886Z</time></trkpt><trkpt lat="44.1064095" lon="12.1568761"><ele>188.0</ele><time>2026-04-18T16:15:35.887Z</time></trkpt><trkpt lat="44.1064466" lon="12.1569645"><ele>188.0</ele><time>2026-04-18T16:15:37.883Z</time></trkpt><trkpt lat="44.1064813" lon="12.1570565"><ele>188.0</ele><time>2026-04-18T16:15:39.887Z</time></trkpt><trkpt lat="44.1065224" lon="12.1571545"><ele>188.0</ele><time>2026-04-18T16:15:41.889Z</time></trkpt><trkpt lat="44.1065356" lon="12.1572477"><ele>183.66666666666666</ele><time>2026-04-18T16:15:43.885Z</time></trkpt><trkpt lat="44.1065784" lon="12.1573501"><ele>179.33333333333331</ele><time>2026-04-18T16:15:45.882Z</time></trkpt><trkpt lat="44.1066246" lon="12.1574461"><ele>175.0</ele><time>2026-04-18T16:15:47.892Z</time></trkpt><trkpt lat="44.1066614" lon="12.1575658"><ele>170.66666666666666</ele><time>2026-04-18T16:15:49.88Z</time></trkpt><trkpt lat="44.1067112" lon="12.1576639"><ele>166.33333333333334</ele><time>2026-04-18T16:15:51.882Z</time></trkpt><trkpt lat="44.1067594" lon="12.1577688"><ele>162.0</ele><time>2026-04-18T16:15:53.89Z</time></trkpt><trkpt lat="44.1068031" lon="12.1578875"><ele>162.0</ele><time>2026-04-18T16:15:55.884Z</time></trkpt><trkpt lat="44.1067999" lon="12.1580588"><ele>162.0</ele><time>2026-04-18T16:15:57.875Z</time></trkpt><trkpt lat="44.1067825" lon="12.1581716"><ele>162.0</ele><time>2026-04-18T16:15:59.882Z</time></trkpt><trkpt lat="44.1067528" lon="12.1582508"><ele>162.0</ele><time>2026-04-18T16:16:04.886Z</time></trkpt><trkpt lat="44.1067223" lon="12.158351"><ele>162.0</ele><time>2026-04-18T16:16:11.884Z</time></trkpt><trkpt lat="44.1067718" lon="12.1584143"><ele>162.0</ele><time>2026-04-18T16:16:15.875Z</time></trkpt><trkpt lat="44.1068358" lon="12.1585096"><ele>161.83333333333334</ele><time>2026-04-18T16:16:19.884Z</time></trkpt><trkpt lat="44.1068672" lon="12.1585934"><ele>161.66666666666666</ele><time>2026-04-18T16:16:21.88Z</time></trkpt><trkpt lat="44.1069219" lon="12.158702"><ele>161.5</ele><time>2026-04-18T16:16:24.882Z</time></trkpt><trkpt lat="44.1069743" lon="12.1588065"><ele>161.33333333333331</ele><time>2026-04-18T16:16:27.886Z</time></trkpt><trkpt lat="44.1070239" lon="12.1589014"><ele>161.16666666666666</ele><time>2026-04-18T16:16:29.887Z</time></trkpt><trkpt lat="44.1070735" lon="12.1590003"><ele>161.0</ele><time>2026-04-18T16:16:31.882Z</time></trkpt><trkpt lat="44.1071352" lon="12.1591023"><ele>161.33333333333331</ele><time>2026-04-18T16:16:33.88Z</time></trkpt><trkpt lat="44.1071759" lon="12.1592069"><ele>161.66666666666666</ele><time>2026-04-18T16:16:35.886Z</time></trkpt><trkpt lat="44.1071814" lon="12.1592962"><ele>162.0</ele><time>2026-04-18T16:16:37.877Z</time></trkpt><trkpt lat="44.1071326" lon="12.1593999"><ele>162.33333333333334</ele><time>2026-04-18T16:16:42.885Z</time></trkpt><trkpt lat="44.1070858" lon="12.1594647"><ele>162.66666666666669</ele><time>2026-04-18T16:16:45.887Z</time></trkpt><trkpt lat="44.1070361" lon="12.1595683"><ele>163.0</ele><time>2026-04-18T16:16:48.891Z</time></trkpt><trkpt lat="44.1070084" lon="12.1596499"><ele>163.0</ele><time>2026-04-18T16:16:50.878Z</time></trkpt><trkpt lat="44.1069906" lon="12.1597506"><ele>163.0</ele><time>2026-04-18T16:16:52.891Z</time></trkpt><trkpt lat="44.1069891" lon="12.1598745"><ele>163.0</ele><time>2026-04-18T16:16:55.894Z</time></trkpt><trkpt lat="44.1070002" lon="12.1599776"><ele>163.0</ele><time>2026-04-18T16:16:57.89Z</time></trkpt><trkpt lat="44.1070207" lon="12.1600932"><ele>163.0</ele><time>2026-04-18T16:16:59.892Z</time></trkpt><trkpt lat="44.1070342" lon="12.1602044"><ele>163.0</ele><time>2026-04-18T16:17:01.892Z</time></trkpt><trkpt lat="44.1070225" lon="12.1603083"><ele>163.0</ele><time>2026-04-18T16:17:03.893Z</time></trkpt><trkpt lat="44.107006" lon="12.1604187"><ele>163.0</ele><time>2026-04-18T16:17:05.887Z</time></trkpt><trkpt lat="44.1069731" lon="12.160516"><ele>163.0</ele><time>2026-04-18T16:17:07.889Z</time></trkpt><trkpt lat="44.1069321" lon="12.1606209"><ele>163.0</ele><time>2026-04-18T16:17:09.887Z</time></trkpt><trkpt lat="44.106889" lon="12.1607188"><ele>163.0</ele><time>2026-04-18T16:17:11.888Z</time></trkpt><trkpt lat="44.1068697" lon="12.1608076"><ele>163.0</ele><time>2026-04-18T16:17:13.883Z</time></trkpt><trkpt lat="44.1068721" lon="12.160943"><ele>163.33333333333334</ele><time>2026-04-18T16:17:16.889Z</time></trkpt><trkpt lat="44.1068678" lon="12.161042"><ele>163.66666666666669</ele><time>2026-04-18T16:17:18.895Z</time></trkpt><trkpt lat="44.1068455" lon="12.1611631"><ele>164.0</ele><time>2026-04-18T16:17:21.888Z</time></trkpt><trkpt lat="44.1068518" lon="12.161281"><ele>164.33333333333334</ele><time>2026-04-18T16:17:24.886Z</time></trkpt><trkpt lat="44.106868" lon="12.161367"><ele>164.66666666666666</ele><time>2026-04-18T16:17:26.895Z</time></trkpt><trkpt lat="44.1068845" lon="12.1614522"><ele>165.0</ele><time>2026-04-18T16:17:28.887Z</time></trkpt><trkpt lat="44.1068943" lon="12.1615745"><ele>164.16666666666666</ele><time>2026-04-18T16:17:30.889Z</time></trkpt><trkpt lat="44.1069182" lon="12.1617275"><ele>163.33333333333334</ele><time>2026-04-18T16:17:32.878Z</time></trkpt><trkpt lat="44.1069265" lon="12.1618195"><ele>162.5</ele><time>2026-04-18T16:17:33.884Z</time></trkpt><trkpt lat="44.1069365" lon="12.1619148"><ele>161.66666666666669</ele><time>2026-04-18T16:17:34.883Z</time></trkpt><trkpt lat="44.1069474" lon="12.1620152"><ele>160.83333333333334</ele><time>2026-04-18T16:17:35.881Z</time></trkpt><trkpt lat="44.1069444" lon="12.1621228"><ele>160.0</ele><time>2026-04-18T16:17:36.878Z</time></trkpt><trkpt lat="44.1069321" lon="12.1622261"><ele>160.0</ele><time>2026-04-18T16:17:37.874Z</time></trkpt><trkpt lat="44.1069158" lon="12.1623262"><ele>160.0</ele><time>2026-04-18T16:17:38.876Z</time></trkpt><trkpt lat="44.1068905" lon="12.1624145"><ele>160.0</ele><time>2026-04-18T16:17:39.876Z</time></trkpt><trkpt lat="44.106843" lon="12.1625572"><ele>160.0</ele><time>2026-04-18T16:17:41.886Z</time></trkpt><trkpt lat="44.106792" lon="12.1626566"><ele>160.0</ele><time>2026-04-18T16:17:43.895Z</time></trkpt><trkpt lat="44.1067368" lon="12.162725"><ele>160.0</ele><time>2026-04-18T16:17:45.891Z</time></trkpt><trkpt lat="44.1066813" lon="12.1627841"><ele>159.33333333333334</ele><time>2026-04-18T16:17:47.89Z</time></trkpt><trkpt lat="44.1066218" lon="12.1628346"><ele>158.66666666666669</ele><time>2026-04-18T16:17:49.895Z</time></trkpt><trkpt lat="44.1065501" lon="12.1628948"><ele>158.0</ele><time>2026-04-18T16:17:52.894Z</time></trkpt><trkpt lat="44.1064777" lon="12.1629249"><ele>157.33333333333334</ele><time>2026-04-18T16:17:55.885Z</time></trkpt><trkpt lat="44.1064008" lon="12.1629721"><ele>156.66666666666666</ele><time>2026-04-18T16:17:58.887Z</time></trkpt><trkpt lat="44.1063337" lon="12.1630524"><ele>156.0</ele><time>2026-04-18T16:18:01.883Z</time></trkpt><trkpt lat="44.1062781" lon="12.1631257"><ele>159.83333333333334</ele><time>2026-04-18T16:18:04.884Z</time></trkpt><trkpt lat="44.1062345" lon="12.1632061"><ele>163.66666666666666</ele><time>2026-04-18T16:18:07.889Z</time></trkpt><trkpt lat="44.1061963" lon="12.1633021"><ele>167.5</ele><time>2026-04-18T16:18:10.885Z</time></trkpt><trkpt lat="44.1061674" lon="12.1634116"><ele>171.33333333333331</ele><time>2026-04-18T16:18:13.894Z</time></trkpt><trkpt lat="44.1061456" lon="12.1635195"><ele>175.16666666666666</ele><time>2026-04-18T16:18:16.887Z</time></trkpt><trkpt lat="44.1061119" lon="12.1636223"><ele>179.0</ele><time>2026-04-18T16:18:19.884Z</time></trkpt><trkpt lat="44.1060692" lon="12.1637338"><ele>179.0</ele><time>2026-04-18T16:18:22.886Z</time></trkpt><trkpt lat="44.1060455" lon="12.1638267"><ele>179.0</ele><time>2026-04-18T16:18:24.893Z</time></trkpt><trkpt lat="44.1060187" lon="12.1639249"><ele>179.0</ele><time>2026-04-18T16:18:26.894Z</time></trkpt><trkpt lat="44.1059854" lon="12.164014"><ele>179.0</ele><time>2026-04-18T16:18:28.882Z</time></trkpt><trkpt lat="44.1059539" lon="12.1641173"><ele>179.0</ele><time>2026-04-18T16:18:30.883Z</time></trkpt><trkpt lat="44.1059174" lon="12.1642124"><ele>179.0</ele><time>2026-04-18T16:18:32.882Z</time></trkpt><trkpt lat="44.1058839" lon="12.1643125"><ele>176.6</ele><time>2026-04-18T16:18:34.88Z</time></trkpt><trkpt lat="44.1058368" lon="12.164427"><ele>174.2</ele><time>2026-04-18T16:18:36.882Z</time></trkpt><trkpt lat="44.1057728" lon="12.1645545"><ele>171.79999999999998</ele><time>2026-04-18T16:18:38.884Z</time></trkpt><trkpt lat="44.105706" lon="12.1646823"><ele>169.39999999999998</ele><time>2026-04-18T16:18:40.879Z</time></trkpt><trkpt lat="44.1056677" lon="12.1647545"><ele>167.0</ele><time>2026-04-18T16:18:41.874Z</time></trkpt><trkpt lat="44.1056305" lon="12.1648381"><ele>168.57142857142856</ele><time>2026-04-18T16:18:42.878Z</time></trkpt><trkpt lat="44.1056004" lon="12.164927"><ele>170.14285714285714</ele><time>2026-04-18T16:18:43.872Z</time></trkpt><trkpt lat="44.1055695" lon="12.1650115"><ele>171.71428571428572</ele><time>2026-04-18T16:18:44.873Z</time></trkpt><trkpt lat="44.1055389" lon="12.1650912"><ele>173.28571428571428</ele><time>2026-04-18T16:18:45.877Z</time></trkpt><trkpt lat="44.1055077" lon="12.1651801"><ele>174.85714285714286</ele><time>2026-04-18T16:18:46.876Z</time></trkpt><trkpt lat="44.1054864" lon="12.1652657"><ele>176.42857142857142</ele><time>2026-04-18T16:18:47.876Z</time></trkpt><trkpt lat="44.1054677" lon="12.165366"><ele>178.0</ele><time>2026-04-18T16:18:48.878Z</time></trkpt><trkpt lat="44.1054497" lon="12.1654733"><ele>178.0</ele><time>2026-04-18T16:18:49.874Z</time></trkpt><trkpt lat="44.1054356" lon="12.165589"><ele>178.0</ele><time>2026-04-18T16:18:50.87Z</time></trkpt><trkpt lat="44.1054313" lon="12.1656909"><ele>178.0</ele><time>2026-04-18T16:18:51.872Z</time></trkpt><trkpt lat="44.1054289" lon="12.1657852"><ele>178.0</ele><time>2026-04-18T16:18:52.873Z</time></trkpt><trkpt lat="44.1054219" lon="12.1659441"><ele>178.0</ele><time>2026-04-18T16:18:54.87Z</time></trkpt><trkpt lat="44.105422" lon="12.1660781"><ele>178.0</ele><time>2026-04-18T16:18:56.874Z</time></trkpt><trkpt lat="44.1054255" lon="12.1662287"><ele>175.0</ele><time>2026-04-18T16:18:58.879Z</time></trkpt><trkpt lat="44.1054273" lon="12.1663216"><ele>172.0</ele><time>2026-04-18T16:18:59.872Z</time></trkpt><trkpt lat="44.1054028" lon="12.1664583"><ele>169.0</ele><time>2026-04-18T16:19:01.871Z</time></trkpt><trkpt lat="44.1053681" lon="12.166586"><ele>166.0</ele><time>2026-04-18T16:19:03.879Z</time></trkpt><trkpt lat="44.1053415" lon="12.1666877"><ele>163.0</ele><time>2026-04-18T16:19:05.878Z</time></trkpt><trkpt lat="44.1053426" lon="12.1667771"><ele>160.0</ele><time>2026-04-18T16:19:07.885Z</time></trkpt><trkpt lat="44.105349" lon="12.1668797"><ele>157.0</ele><time>2026-04-18T16:19:10.897Z</time></trkpt><trkpt lat="44.1053704" lon="12.1669653"><ele>154.0</ele><time>2026-04-18T16:19:20.897Z</time></trkpt><trkpt lat="44.1054028" lon="12.1670603"><ele>151.0</ele><time>2026-04-18T16:19:23.889Z</time></trkpt><trkpt lat="44.105431" lon="12.1671494"><ele>148.0</ele><time>2026-04-18T16:19:26.901Z</time></trkpt><trkpt lat="44.105439" lon="12.1672672"><ele>145.0</ele><time>2026-04-18T16:19:30.893Z</time></trkpt><trkpt lat="44.1054177" lon="12.1673881"><ele>142.0</ele><time>2026-04-18T16:19:33.897Z</time></trkpt><trkpt lat="44.1054016" lon="12.1674919"><ele>139.33333333333334</ele><time>2026-04-18T16:19:35.896Z</time></trkpt><trkpt lat="44.1053943" lon="12.1676068"><ele>136.66666666666669</ele><time>2026-04-18T16:19:37.897Z</time></trkpt><trkpt lat="44.1053949" lon="12.1677055"><ele>134.0</ele><time>2026-04-18T16:19:39.896Z</time></trkpt><trkpt lat="44.1054068" lon="12.1678105"><ele>131.33333333333334</ele><time>2026-04-18T16:19:41.884Z</time></trkpt><trkpt lat="44.1054398" lon="12.1679141"><ele>128.66666666666666</ele><time>2026-04-18T16:19:43.895Z</time></trkpt><trkpt lat="44.1054572" lon="12.1680089"><ele>126.0</ele><time>2026-04-18T16:19:45.895Z</time></trkpt><trkpt lat="44.1054581" lon="12.1681153"><ele>123.0</ele><time>2026-04-18T16:19:47.897Z</time></trkpt><trkpt lat="44.1054397" lon="12.1682225"><ele>120.0</ele><time>2026-04-18T16:19:49.891Z</time></trkpt><trkpt lat="44.1053808" lon="12.1682803"><ele>117.0</ele><time>2026-04-18T16:19:51.884Z</time></trkpt><trkpt lat="44.1053025" lon="12.1682979"><ele>114.0</ele><time>2026-04-18T16:19:53.883Z</time></trkpt><trkpt lat="44.1052123" lon="12.1682748"><ele>111.0</ele><time>2026-04-18T16:19:55.893Z</time></trkpt><trkpt lat="44.105134" lon="12.1682727"><ele>108.0</ele><time>2026-04-18T16:19:57.891Z</time></trkpt><trkpt lat="44.1050677" lon="12.1683225"><ele>108.0</ele><time>2026-04-18T16:20:00.891Z</time></trkpt><trkpt lat="44.1050798" lon="12.1684272"><ele>108.0</ele><time>2026-04-18T16:20:03.889Z</time></trkpt><trkpt lat="44.105135" lon="12.1685111"><ele>108.0</ele><time>2026-04-18T16:20:06.89Z</time></trkpt><trkpt lat="44.1051873" lon="12.1685798"><ele>108.0</ele><time>2026-04-18T16:20:08.885Z</time></trkpt><trkpt lat="44.1052576" lon="12.1686857"><ele>108.0</ele><time>2026-04-18T16:20:10.882Z</time></trkpt><trkpt lat="44.1053402" lon="12.1687927"><ele>108.0</ele><time>2026-04-18T16:20:12.873Z</time></trkpt><trkpt lat="44.1054136" lon="12.168938"><ele>108.0</ele><time>2026-04-18T16:20:14.878Z</time></trkpt><trkpt lat="44.1054571" lon="12.1690254"><ele>108.0</ele><time>2026-04-18T16:20:15.882Z</time></trkpt><trkpt lat="44.1055005" lon="12.169111"><ele>108.0</ele><time>2026-04-18T16:20:16.878Z</time></trkpt><trkpt lat="44.1055416" lon="12.1691968"><ele>108.0</ele><time>2026-04-18T16:20:17.881Z</time></trkpt><trkpt lat="44.105578" lon="12.1692917"><ele>108.0</ele><time>2026-04-18T16:20:18.883Z</time></trkpt><trkpt lat="44.1056145" lon="12.1693906"><ele>108.0</ele><time>2026-04-18T16:20:19.882Z</time></trkpt><trkpt lat="44.1056447" lon="12.1694934"><ele>107.83333333333333</ele><time>2026-04-18T16:20:20.88Z</time></trkpt><trkpt lat="44.1056693" lon="12.1695987"><ele>107.66666666666666</ele><time>2026-04-18T16:20:21.887Z</time></trkpt><trkpt lat="44.1056892" lon="12.1697162"><ele>107.5</ele><time>2026-04-18T16:20:22.882Z</time></trkpt><trkpt lat="44.1056963" lon="12.1698424"><ele>107.33333333333333</ele><time>2026-04-18T16:20:23.882Z</time></trkpt><trkpt lat="44.1056915" lon="12.1699654"><ele>107.16666666666666</ele><time>2026-04-18T16:20:24.885Z</time></trkpt><trkpt lat="44.1056837" lon="12.1700892"><ele>107.0</ele><time>2026-04-18T16:20:25.874Z</time></trkpt><trkpt lat="44.1056654" lon="12.1701938"><ele>106.83333333333333</ele><time>2026-04-18T16:20:26.873Z</time></trkpt><trkpt lat="44.1056412" lon="12.1702889"><ele>106.66666666666666</ele><time>2026-04-18T16:20:27.876Z</time></trkpt><trkpt lat="44.1056015" lon="12.1703757"><ele>106.5</ele><time>2026-04-18T16:20:28.868Z</time></trkpt><trkpt lat="44.1055528" lon="12.1704583"><ele>106.33333333333334</ele><time>2026-04-18T16:20:29.87Z</time></trkpt><trkpt lat="44.1055059" lon="12.1705347"><ele>106.16666666666667</ele><time>2026-04-18T16:20:30.87Z</time></trkpt><trkpt lat="44.1054261" lon="12.1706632"><ele>106.0</ele><time>2026-04-18T16:20:32.874Z</time></trkpt><trkpt lat="44.1053507" lon="12.1707808"><ele>105.00000000000001</ele><time>2026-04-18T16:20:34.866Z</time></trkpt><trkpt lat="44.1052925" lon="12.1708761"><ele>104.0</ele><time>2026-04-18T16:20:36.868Z</time></trkpt><trkpt lat="44.1053194" lon="12.1709732"><ele>103.0</ele><time>2026-04-18T16:20:39.873Z</time></trkpt><trkpt lat="44.1054095" lon="12.1709208"><ele>102.0</ele><time>2026-04-18T16:20:42.879Z</time></trkpt><trkpt lat="44.105476" lon="12.1708726"><ele>101.00000000000001</ele><time>2026-04-18T16:20:44.875Z</time></trkpt><trkpt lat="44.1055527" lon="12.1708038"><ele>100.0</ele><time>2026-04-18T16:20:47.87Z</time></trkpt><trkpt lat="44.1055931" lon="12.1707171"><ele>99.33333333333334</ele><time>2026-04-18T16:20:49.876Z</time></trkpt><trkpt lat="44.1056581" lon="12.1706317"><ele>98.66666666666667</ele><time>2026-04-18T16:20:51.883Z</time></trkpt><trkpt lat="44.1057026" lon="12.1705525"><ele>98.0</ele><time>2026-04-18T16:20:53.877Z</time></trkpt><trkpt lat="44.1057318" lon="12.1704573"><ele>97.33333333333334</ele><time>2026-04-18T16:20:55.874Z</time></trkpt><trkpt lat="44.105776" lon="12.1703687"><ele>96.66666666666667</ele><time>2026-04-18T16:20:57.89Z</time></trkpt><trkpt lat="44.1058264" lon="12.1702651"><ele>96.0</ele><time>2026-04-18T16:20:59.885Z</time></trkpt><trkpt lat="44.1058532" lon="12.1701641"><ele>95.99999999999999</ele><time>2026-04-18T16:21:01.878Z</time></trkpt><trkpt lat="44.1058632" lon="12.1700589"><ele>96.0</ele><time>2026-04-18T16:21:03.877Z</time></trkpt><trkpt lat="44.1058783" lon="12.1699558"><ele>96.0</ele><time>2026-04-18T16:21:05.888Z</time></trkpt><trkpt lat="44.1058895" lon="12.1698562"><ele>96.0</ele><time>2026-04-18T16:21:07.885Z</time></trkpt><trkpt lat="44.105895" lon="12.1697602"><ele>96.0</ele><time>2026-04-18T16:21:09.882Z</time></trkpt><trkpt lat="44.1059021" lon="12.169663"><ele>95.99999999999999</ele><time>2026-04-18T16:21:11.889Z</time></trkpt><trkpt lat="44.1059122" lon="12.1695647"><ele>96.0</ele><time>2026-04-18T16:21:13.878Z</time></trkpt><trkpt lat="44.1059249" lon="12.1694692"><ele>95.85714285714285</ele><time>2026-04-18T16:21:15.887Z</time></trkpt><trkpt lat="44.1059313" lon="12.1693731"><ele>95.71428571428571</ele><time>2026-04-18T16:21:17.89Z</time></trkpt><trkpt lat="44.1059481" lon="12.1692774"><ele>95.57142857142857</ele><time>2026-04-18T16:21:19.879Z</time></trkpt><trkpt lat="44.1059645" lon="12.1691835"><ele>95.42857142857142</ele><time>2026-04-18T16:21:21.887Z</time></trkpt><trkpt lat="44.1059878" lon="12.1690948"><ele>95.28571428571429</ele><time>2026-04-18T16:21:23.887Z</time></trkpt><trkpt lat="44.1060073" lon="12.1690059"><ele>95.14285714285714</ele><time>2026-04-18T16:21:25.89Z</time></trkpt><trkpt lat="44.1060311" lon="12.1689145"><ele>95.0</ele><time>2026-04-18T16:21:27.892Z</time></trkpt><trkpt lat="44.1060577" lon="12.1688291"><ele>96.16666666666667</ele><time>2026-04-18T16:21:29.89Z</time></trkpt><trkpt lat="44.1060786" lon="12.1687016"><ele>97.33333333333334</ele><time>2026-04-18T16:21:32.881Z</time></trkpt><trkpt lat="44.1060971" lon="12.1686129"><ele>98.5</ele><time>2026-04-18T16:21:34.885Z</time></trkpt><trkpt lat="44.106148" lon="12.168497"><ele>99.66666666666667</ele><time>2026-04-18T16:21:37.886Z</time></trkpt><trkpt lat="44.1061956" lon="12.1684308"><ele>100.83333333333333</ele><time>2026-04-18T16:21:39.886Z</time></trkpt><trkpt lat="44.1062629" lon="12.1683414"><ele>102.0</ele><time>2026-04-18T16:21:42.89Z</time></trkpt><trkpt lat="44.1063251" lon="12.1682489"><ele>101.33333333333333</ele><time>2026-04-18T16:21:45.89Z</time></trkpt><trkpt lat="44.1063841" lon="12.1681427"><ele>100.66666666666666</ele><time>2026-04-18T16:21:48.886Z</time></trkpt><trkpt lat="44.1064269" lon="12.168063"><ele>100.0</ele><time>2026-04-18T16:21:50.883Z</time></trkpt><trkpt lat="44.1064722" lon="12.1679805"><ele>99.33333333333333</ele><time>2026-04-18T16:21:52.892Z</time></trkpt><trkpt lat="44.1065126" lon="12.1678985"><ele>98.66666666666666</ele><time>2026-04-18T16:21:54.885Z</time></trkpt><trkpt lat="44.1065547" lon="12.1678237"><ele>98.0</ele><time>2026-04-18T16:21:56.886Z</time></trkpt><trkpt lat="44.1066109" lon="12.1677237"><ele>98.0</ele><time>2026-04-18T16:21:59.893Z</time></trkpt><trkpt lat="44.1066526" lon="12.1676546"><ele>98.0</ele><time>2026-04-18T16:22:01.888Z</time></trkpt><trkpt lat="44.10672" lon="12.1675711"><ele>98.0</ele><time>2026-04-18T16:22:04.881Z</time></trkpt><trkpt lat="44.106758" lon="12.1674932"><ele>98.0</ele><time>2026-04-18T16:22:06.882Z</time></trkpt><trkpt lat="44.1068102" lon="12.1674275"><ele>98.0</ele><time>2026-04-18T16:22:08.897Z</time></trkpt><trkpt lat="44.1068981" lon="12.1673881"><ele>98.0</ele><time>2026-04-18T16:22:11.898Z</time></trkpt><trkpt lat="44.1069602" lon="12.1673659"><ele>98.0</ele><time>2026-04-18T16:22:13.897Z</time></trkpt><trkpt lat="44.1070387" lon="12.1673474"><ele>99.16666666666666</ele><time>2026-04-18T16:22:16.898Z</time></trkpt><trkpt lat="44.1071154" lon="12.1673217"><ele>100.33333333333333</ele><time>2026-04-18T16:22:20.879Z</time></trkpt><trkpt lat="44.107178" lon="12.1672717"><ele>101.5</ele><time>2026-04-18T16:22:23.889Z</time></trkpt><trkpt lat="44.1072427" lon="12.1671918"><ele>102.66666666666666</ele><time>2026-04-18T16:22:26.887Z</time></trkpt><trkpt lat="44.1072888" lon="12.1670959"><ele>103.83333333333333</ele><time>2026-04-18T16:22:29.884Z</time></trkpt><trkpt lat="44.107296" lon="12.1669675"><ele>105.0</ele><time>2026-04-18T16:22:32.88Z</time></trkpt><trkpt lat="44.1072874" lon="12.1668679"><ele>105.0</ele><time>2026-04-18T16:22:34.879Z</time></trkpt><trkpt lat="44.107306" lon="12.1667772"><ele>105.0</ele><time>2026-04-18T16:22:36.877Z</time></trkpt><trkpt lat="44.1073263" lon="12.1666829"><ele>105.0</ele><time>2026-04-18T16:22:38.882Z</time></trkpt><trkpt lat="44.1073494" lon="12.1665916"><ele>105.0</ele><time>2026-04-18T16:22:40.879Z</time></trkpt><trkpt lat="44.1073855" lon="12.1665009"><ele>105.0</ele><time>2026-04-18T16:22:42.884Z</time></trkpt><trkpt lat="44.1074155" lon="12.1664174"><ele>105.0</ele><time>2026-04-18T16:22:44.888Z</time></trkpt><trkpt lat="44.1074493" lon="12.1663282"><ele>105.0</ele><time>2026-04-18T16:22:47.884Z</time></trkpt><trkpt lat="44.1074749" lon="12.1662481"><ele>104.57142857142857</ele><time>2026-04-18T16:22:49.895Z</time></trkpt><trkpt lat="44.1075219" lon="12.1661606"><ele>104.14285714285714</ele><time>2026-04-18T16:22:52.895Z</time></trkpt><trkpt lat="44.1075637" lon="12.1660619"><ele>103.71428571428572</ele><time>2026-04-18T16:22:56.886Z</time></trkpt><trkpt lat="44.1076208" lon="12.1660121"><ele>103.28571428571428</ele><time>2026-04-18T16:22:59.888Z</time></trkpt><trkpt lat="44.1076845" lon="12.165953"><ele>102.85714285714286</ele><time>2026-04-18T16:23:02.889Z</time></trkpt><trkpt lat="44.1077423" lon="12.1659053"><ele>102.42857142857143</ele><time>2026-04-18T16:23:05.886Z</time></trkpt><trkpt lat="44.1077944" lon="12.1658392"><ele>102.0</ele><time>2026-04-18T16:23:09.884Z</time></trkpt><trkpt lat="44.107853" lon="12.165799"><ele>102.0</ele><time>2026-04-18T16:23:13.893Z</time></trkpt><trkpt lat="44.1079279" lon="12.1658388"><ele>102.0</ele><time>2026-04-18T16:23:17.884Z</time></trkpt><trkpt lat="44.1079874" lon="12.1658876"><ele>102.0</ele><time>2026-04-18T16:23:19.87Z</time></trkpt><trkpt lat="44.1080437" lon="12.1659391"><ele>102.0</ele><time>2026-04-18T16:23:21.884Z</time></trkpt><trkpt lat="44.1080991" lon="12.1660053"><ele>102.0</ele><time>2026-04-18T16:23:24.875Z</time></trkpt><trkpt lat="44.1081721" lon="12.166074"><ele>102.0</ele><time>2026-04-18T16:23:27.875Z</time></trkpt><trkpt lat="44.1082375" lon="12.1661539"><ele>102.0</ele><time>2026-04-18T16:23:30.884Z</time></trkpt><trkpt lat="44.1082578" lon="12.1662502"><ele>102.0</ele><time>2026-04-18T16:23:33.882Z</time></trkpt><trkpt lat="44.1082464" lon="12.1663455"><ele>102.0</ele><time>2026-04-18T16:23:36.875Z</time></trkpt><trkpt lat="44.1082233" lon="12.1664439"><ele>102.0</ele><time>2026-04-18T16:23:39.88Z</time></trkpt><trkpt lat="44.1082043" lon="12.1665438"><ele>102.0</ele><time>2026-04-18T16:23:42.881Z</time></trkpt><trkpt lat="44.1081897" lon="12.1666457"><ele>102.0</ele><time>2026-04-18T16:23:45.887Z</time></trkpt><trkpt lat="44.1082395" lon="12.1667121"><ele>102.0</ele><time>2026-04-18T16:23:50.882Z</time></trkpt><trkpt lat="44.1083073" lon="12.1667155"><ele>103.42857142857143</ele><time>2026-04-18T16:23:53.877Z</time></trkpt><trkpt lat="44.1083779" lon="12.1667269"><ele>104.85714285714286</ele><time>2026-04-18T16:23:56.881Z</time></trkpt><trkpt lat="44.1084415" lon="12.166751"><ele>106.28571428571428</ele><time>2026-04-18T16:23:59.876Z</time></trkpt><trkpt lat="44.1085046" lon="12.1667735"><ele>107.71428571428572</ele><time>2026-04-18T16:24:02.881Z</time></trkpt><trkpt lat="44.1085826" lon="12.1667985"><ele>109.14285714285714</ele><time>2026-04-18T16:24:05.881Z</time></trkpt><trkpt lat="44.108651" lon="12.1668233"><ele>110.57142857142857</ele><time>2026-04-18T16:24:08.888Z</time></trkpt><trkpt lat="44.1087216" lon="12.1668565"><ele>112.0</ele><time>2026-04-18T16:24:11.877Z</time></trkpt><trkpt lat="44.1087828" lon="12.1668792"><ele>112.0</ele><time>2026-04-18T16:24:14.877Z</time></trkpt><trkpt lat="44.1088429" lon="12.1669085"><ele>112.0</ele><time>2026-04-18T16:24:17.888Z</time></trkpt><trkpt lat="44.1089041" lon="12.1669454"><ele>112.0</ele><time>2026-04-18T16:24:21.877Z</time></trkpt><trkpt lat="44.1089675" lon="12.1669625"><ele>112.0</ele><time>2026-04-18T16:24:33.876Z</time></trkpt><trkpt lat="44.1090116" lon="12.1670288"><ele>112.0</ele><time>2026-04-18T16:24:36.883Z</time></trkpt><trkpt lat="44.1090753" lon="12.1670695"><ele>112.0</ele><time>2026-04-18T16:24:57.884Z</time></trkpt><trkpt lat="44.1091477" lon="12.1671012"><ele>112.0</ele><time>2026-04-18T16:25:01.877Z</time></trkpt><trkpt lat="44.1092083" lon="12.1671259"><ele>114.83333333333334</ele><time>2026-04-18T16:25:04.881Z</time></trkpt><trkpt lat="44.1092701" lon="12.1671638"><ele>117.66666666666667</ele><time>2026-04-18T16:25:07.872Z</time></trkpt><trkpt lat="44.1093362" lon="12.1672221"><ele>120.5</ele><time>2026-04-18T16:25:10.875Z</time></trkpt><trkpt lat="44.1094053" lon="12.1672877"><ele>123.33333333333334</ele><time>2026-04-18T16:25:13.882Z</time></trkpt><trkpt lat="44.1094742" lon="12.1673476"><ele>126.16666666666667</ele><time>2026-04-18T16:25:16.88Z</time></trkpt><trkpt lat="44.1095413" lon="12.1673911"><ele>129.0</ele><time>2026-04-18T16:25:19.886Z</time></trkpt><trkpt lat="44.1096021" lon="12.1674343"><ele>129.33333333333334</ele><time>2026-04-18T16:25:23.881Z</time></trkpt><trkpt lat="44.1096769" lon="12.1674887"><ele>129.66666666666666</ele><time>2026-04-18T16:25:27.887Z</time></trkpt><trkpt lat="44.1097421" lon="12.1675319"><ele>130.0</ele><time>2026-04-18T16:25:30.881Z</time></trkpt><trkpt lat="44.1098161" lon="12.1675766"><ele>130.33333333333331</ele><time>2026-04-18T16:25:34.885Z</time></trkpt><trkpt lat="44.1098462" lon="12.1676789"><ele>130.66666666666666</ele><time>2026-04-18T16:25:38.885Z</time></trkpt><trkpt lat="44.1098315" lon="12.1677868"><ele>131.0</ele><time>2026-04-18T16:25:41.884Z</time></trkpt><trkpt lat="44.1098357" lon="12.1678785"><ele>131.0</ele><time>2026-04-18T16:25:45.885Z</time></trkpt><trkpt lat="44.109904" lon="12.1679375"><ele>131.0</ele><time>2026-04-18T16:25:50.882Z</time></trkpt><trkpt lat="44.1099619" lon="12.1679885"><ele>131.0</ele><time>2026-04-18T16:25:54.885Z</time></trkpt><trkpt lat="44.1100345" lon="12.1679591"><ele>131.0</ele><time>2026-04-18T16:25:59.886Z</time></trkpt><trkpt lat="44.1101001" lon="12.1679046"><ele>131.0</ele><time>2026-04-18T16:26:02.882Z</time></trkpt><trkpt lat="44.1101785" lon="12.167909"><ele>131.0</ele><time>2026-04-18T16:26:05.883Z</time></trkpt><trkpt lat="44.1102538" lon="12.1679116"><ele>133.5</ele><time>2026-04-18T16:26:08.881Z</time></trkpt><trkpt lat="44.1103329" lon="12.1679097"><ele>136.0</ele><time>2026-04-18T16:26:11.888Z</time></trkpt><trkpt lat="44.1104046" lon="12.1678929"><ele>138.5</ele><time>2026-04-18T16:26:14.891Z</time></trkpt><trkpt lat="44.1104731" lon="12.1678782"><ele>141.0</ele><time>2026-04-18T16:26:17.885Z</time></trkpt><trkpt lat="44.1105454" lon="12.1678659"><ele>143.5</ele><time>2026-04-18T16:26:20.888Z</time></trkpt><trkpt lat="44.110622" lon="12.1678638"><ele>146.0</ele><time>2026-04-18T16:26:23.886Z</time></trkpt><trkpt lat="44.1107114" lon="12.1678775"><ele>148.16666666666666</ele><time>2026-04-18T16:26:26.885Z</time></trkpt><trkpt lat="44.1107804" lon="12.167908"><ele>150.33333333333331</ele><time>2026-04-18T16:26:29.892Z</time></trkpt><trkpt lat="44.1108578" lon="12.1679467"><ele>152.5</ele><time>2026-04-18T16:26:32.889Z</time></trkpt><trkpt lat="44.110926" lon="12.1679947"><ele>154.66666666666666</ele><time>2026-04-18T16:26:35.891Z</time></trkpt><trkpt lat="44.1109903" lon="12.1680196"><ele>156.83333333333334</ele><time>2026-04-18T16:26:38.881Z</time></trkpt><trkpt lat="44.1110713" lon="12.1680057"><ele>159.0</ele><time>2026-04-18T16:26:41.888Z</time></trkpt><trkpt lat="44.111154" lon="12.1679819"><ele>159.0</ele><time>2026-04-18T16:26:44.881Z</time></trkpt><trkpt lat="44.1112368" lon="12.1679648"><ele>159.0</ele><time>2026-04-18T16:26:47.882Z</time></trkpt><trkpt lat="44.1113053" lon="12.1679146"><ele>159.0</ele><time>2026-04-18T16:26:50.883Z</time></trkpt><trkpt lat="44.1113741" lon="12.1678449"><ele>159.0</ele><time>2026-04-18T16:26:53.894Z</time></trkpt><trkpt lat="44.1114089" lon="12.1677628"><ele>159.0</ele><time>2026-04-18T16:26:55.881Z</time></trkpt><trkpt lat="44.1114477" lon="12.1676915"><ele>159.0</ele><time>2026-04-18T16:26:57.895Z</time></trkpt><trkpt lat="44.1114867" lon="12.1675724"><ele>159.0</ele><time>2026-04-18T16:27:00.884Z</time></trkpt><trkpt lat="44.1114833" lon="12.1674594"><ele>159.0</ele><time>2026-04-18T16:27:03.889Z</time></trkpt><trkpt lat="44.1114574" lon="12.1673755"><ele>159.0</ele><time>2026-04-18T16:27:05.893Z</time></trkpt><trkpt lat="44.111412" lon="12.1672743"><ele>159.0</ele><time>2026-04-18T16:27:08.884Z</time></trkpt><trkpt lat="44.1113593" lon="12.1671844"><ele>159.0</ele><time>2026-04-18T16:27:11.887Z</time></trkpt><trkpt lat="44.1112942" lon="12.1670898"><ele>159.0</ele><time>2026-04-18T16:27:14.891Z</time></trkpt><trkpt lat="44.1112465" lon="12.1670318"><ele>160.7142857142857</ele><time>2026-04-18T16:27:16.891Z</time></trkpt><trkpt lat="44.1111999" lon="12.1669612"><ele>162.42857142857144</ele><time>2026-04-18T16:27:18.884Z</time></trkpt><trkpt lat="44.1111476" lon="12.1669003"><ele>164.14285714285714</ele><time>2026-04-18T16:27:20.885Z</time></trkpt><trkpt lat="44.1110931" lon="12.166846"><ele>165.85714285714283</ele><time>2026-04-18T16:27:22.892Z</time></trkpt><trkpt lat="44.1110358" lon="12.1667986"><ele>167.57142857142856</ele><time>2026-04-18T16:27:24.881Z</time></trkpt><trkpt lat="44.1109661" lon="12.1667198"><ele>169.28571428571428</ele><time>2026-04-18T16:27:27.885Z</time></trkpt><trkpt lat="44.1109062" lon="12.1666686"><ele>171.0</ele><time>2026-04-18T16:27:29.883Z</time></trkpt><trkpt lat="44.1108327" lon="12.1666296"><ele>171.0</ele><time>2026-04-18T16:27:31.882Z</time></trkpt><trkpt lat="44.1107569" lon="12.1665798"><ele>171.0</ele><time>2026-04-18T16:27:33.887Z</time></trkpt><trkpt lat="44.1106879" lon="12.1665297"><ele>171.0</ele><time>2026-04-18T16:27:35.887Z</time></trkpt><trkpt lat="44.1106235" lon="12.1664845"><ele>171.0</ele><time>2026-04-18T16:27:37.885Z</time></trkpt><trkpt lat="44.1105607" lon="12.1664232"><ele>171.0</ele><time>2026-04-18T16:27:39.88Z</time></trkpt><trkpt lat="44.1105114" lon="12.1663552"><ele>171.0</ele><time>2026-04-18T16:27:41.882Z</time></trkpt><trkpt lat="44.1104596" lon="12.1662845"><ele>170.14285714285714</ele><time>2026-04-18T16:27:43.88Z</time></trkpt><trkpt lat="44.1104025" lon="12.1662109"><ele>169.28571428571428</ele><time>2026-04-18T16:27:45.88Z</time></trkpt><trkpt lat="44.110342" lon="12.1661353"><ele>168.42857142857144</ele><time>2026-04-18T16:27:47.891Z</time></trkpt><trkpt lat="44.1102873" lon="12.1660557"><ele>167.57142857142856</ele><time>2026-04-18T16:27:49.885Z</time></trkpt><trkpt lat="44.1102327" lon="12.1659884"><ele>166.71428571428572</ele><time>2026-04-18T16:27:51.891Z</time></trkpt><trkpt lat="44.1101815" lon="12.1659228"><ele>165.85714285714286</ele><time>2026-04-18T16:27:53.892Z</time></trkpt><trkpt lat="44.1101252" lon="12.1658708"><ele>165.0</ele><time>2026-04-18T16:27:55.893Z</time></trkpt><trkpt lat="44.1101031" lon="12.1657803"><ele>165.0</ele><time>2026-04-18T16:27:58.89Z</time></trkpt><trkpt lat="44.1101715" lon="12.1657444"><ele>165.0</ele><time>2026-04-18T16:28:01.891Z</time></trkpt><trkpt lat="44.1102546" lon="12.1657782"><ele>165.0</ele><time>2026-04-18T16:28:04.885Z</time></trkpt><trkpt lat="44.1103376" lon="12.1658225"><ele>165.0</ele><time>2026-04-18T16:28:07.887Z</time></trkpt><trkpt lat="44.1104126" lon="12.1658562"><ele>165.0</ele><time>2026-04-18T16:28:10.89Z</time></trkpt><trkpt lat="44.1104874" lon="12.1658751"><ele>165.0</ele><time>2026-04-18T16:28:13.891Z</time></trkpt><trkpt lat="44.1105574" lon="12.1658908"><ele>165.00000000000003</ele><time>2026-04-18T16:28:16.892Z</time></trkpt><trkpt lat="44.1106252" lon="12.165913"><ele>165.0</ele><time>2026-04-18T16:28:19.9Z</time></trkpt><trkpt lat="44.1106931" lon="12.16592"><ele>165.0</ele><time>2026-04-18T16:28:22.899Z</time></trkpt><trkpt lat="44.1107633" lon="12.1659187"><ele>165.0</ele><time>2026-04-18T16:28:25.894Z</time></trkpt><trkpt lat="44.1108361" lon="12.165912"><ele>165.0</ele><time>2026-04-18T16:28:28.896Z</time></trkpt><trkpt lat="44.1109041" lon="12.1659054"><ele>165.00000000000003</ele><time>2026-04-18T16:28:31.898Z</time></trkpt><trkpt lat="44.1109902" lon="12.1658909"><ele>165.0</ele><time>2026-04-18T16:28:35.891Z</time></trkpt><trkpt lat="44.1110557" lon="12.1658849"><ele>167.14285714285717</ele><time>2026-04-18T16:28:38.891Z</time></trkpt><trkpt lat="44.1111371" lon="12.1658713"><ele>169.28571428571428</ele><time>2026-04-18T16:28:42.896Z</time></trkpt><trkpt lat="44.1112128" lon="12.1658704"><ele>171.42857142857144</ele><time>2026-04-18T16:28:46.891Z</time></trkpt><trkpt lat="44.1112762" lon="12.1658518"><ele>173.57142857142858</ele><time>2026-04-18T16:28:49.894Z</time></trkpt><trkpt lat="44.1113395" lon="12.1658422"><ele>175.71428571428572</ele><time>2026-04-18T16:28:52.904Z</time></trkpt><trkpt lat="44.1114138" lon="12.1658316"><ele>177.85714285714286</ele><time>2026-04-18T16:28:56.894Z</time></trkpt><trkpt lat="44.1114812" lon="12.1658192"><ele>180.0</ele><time>2026-04-18T16:29:00.899Z</time></trkpt><trkpt lat="44.111551" lon="12.1658068"><ele>183.16666666666666</ele><time>2026-04-18T16:29:04.888Z</time></trkpt><trkpt lat="44.1116281" lon="12.1658012"><ele>186.33333333333331</ele><time>2026-04-18T16:29:08.89Z</time></trkpt><trkpt lat="44.1117092" lon="12.1657797"><ele>189.5</ele><time>2026-04-18T16:29:12.889Z</time></trkpt><trkpt lat="44.111792" lon="12.1657691"><ele>192.66666666666666</ele><time>2026-04-18T16:29:16.887Z</time></trkpt><trkpt lat="44.1118581" lon="12.1657625"><ele>195.83333333333331</ele><time>2026-04-18T16:29:19.89Z</time></trkpt><trkpt lat="44.111921" lon="12.1657387"><ele>199.0</ele><time>2026-04-18T16:29:22.903Z</time></trkpt><trkpt lat="44.1120059" lon="12.1657214"><ele>198.99999999999997</ele><time>2026-04-18T16:29:26.907Z</time></trkpt><trkpt lat="44.1120721" lon="12.1657129"><ele>199.0</ele><time>2026-04-18T16:29:29.897Z</time></trkpt><trkpt lat="44.1121403" lon="12.165711"><ele>199.0</ele><time>2026-04-18T16:29:32.898Z</time></trkpt><trkpt lat="44.1122085" lon="12.1657091"><ele>199.0</ele><time>2026-04-18T16:29:35.896Z</time></trkpt><trkpt lat="44.112277" lon="12.1657048"><ele>199.0</ele><time>2026-04-18T16:29:38.898Z</time></trkpt><trkpt lat="44.1123526" lon="12.1657059"><ele>198.99999999999997</ele><time>2026-04-18T16:29:41.888Z</time></trkpt><trkpt lat="44.1124119" lon="12.1657369"><ele>199.0</ele><time>2026-04-18T16:29:43.902Z</time></trkpt><trkpt lat="44.1124733" lon="12.1657595"><ele>201.66666666666666</ele><time>2026-04-18T16:29:45.894Z</time></trkpt><trkpt lat="44.1125509" lon="12.1657346"><ele>204.33333333333331</ele><time>2026-04-18T16:29:48.899Z</time></trkpt><trkpt lat="44.1126046" lon="12.1658117"><ele>207.0</ele><time>2026-04-18T16:29:51.902Z</time></trkpt><trkpt lat="44.1126177" lon="12.1659337"><ele>209.66666666666669</ele><time>2026-04-18T16:29:54.897Z</time></trkpt><trkpt lat="44.1126864" lon="12.1659161"><ele>212.33333333333334</ele><time>2026-04-18T16:32:19.898Z</time></trkpt><trkpt lat="44.1127152" lon="12.1658379"><ele>215.0</ele><time>2026-04-18T16:32:21.899Z</time></trkpt><trkpt lat="44.1127645" lon="12.1657344"><ele>213.50000000000003</ele><time>2026-04-18T16:32:24.895Z</time></trkpt><trkpt lat="44.1128301" lon="12.1656566"><ele>212.0</ele><time>2026-04-18T16:32:27.896Z</time></trkpt><trkpt lat="44.1128972" lon="12.1655704"><ele>210.5</ele><time>2026-04-18T16:32:30.879Z</time></trkpt><trkpt lat="44.112956" lon="12.1655027"><ele>209.0</ele><time>2026-04-18T16:32:32.891Z</time></trkpt><trkpt lat="44.1130212" lon="12.1654476"><ele>207.50000000000003</ele><time>2026-04-18T16:32:34.89Z</time></trkpt><trkpt lat="44.1130854" lon="12.1653773"><ele>206.0</ele><time>2026-04-18T16:32:36.901Z</time></trkpt><trkpt lat="44.1131562" lon="12.1653147"><ele>206.00000000000003</ele><time>2026-04-18T16:32:38.888Z</time></trkpt><trkpt lat="44.1132299" lon="12.1652352"><ele>206.0</ele><time>2026-04-18T16:32:40.888Z</time></trkpt><trkpt lat="44.1132832" lon="12.1651439"><ele>206.0</ele><time>2026-04-18T16:32:42.891Z</time></trkpt><trkpt lat="44.1133275" lon="12.1650602"><ele>206.0</ele><time>2026-04-18T16:32:44.894Z</time></trkpt><trkpt lat="44.1133715" lon="12.1649933"><ele>206.00000000000003</ele><time>2026-04-18T16:32:47.9Z</time></trkpt><trkpt lat="44.1134054" lon="12.1649084"><ele>206.0</ele><time>2026-04-18T16:32:53.902Z</time></trkpt><trkpt lat="44.113412" lon="12.1648133"><ele>206.42857142857142</ele><time>2026-04-18T16:32:56.902Z</time></trkpt><trkpt lat="44.1134167" lon="12.1647205"><ele>206.85714285714286</ele><time>2026-04-18T16:33:50.908Z</time></trkpt><trkpt lat="44.1134263" lon="12.1646246"><ele>207.28571428571428</ele><time>2026-04-18T16:33:53.893Z</time></trkpt><trkpt lat="44.1134237" lon="12.1645281"><ele>207.71428571428572</ele><time>2026-04-18T16:33:55.907Z</time></trkpt><trkpt lat="44.1133874" lon="12.1644221"><ele>208.14285714285714</ele><time>2026-04-18T16:33:58.893Z</time></trkpt><trkpt lat="44.1133424" lon="12.1643469"><ele>208.57142857142856</ele><time>2026-04-18T16:34:00.897Z</time></trkpt><trkpt lat="44.1132893" lon="12.1642838"><ele>209.0</ele><time>2026-04-18T16:34:02.888Z</time></trkpt><trkpt lat="44.1132306" lon="12.1642237"><ele>209.0</ele><time>2026-04-18T16:34:04.89Z</time></trkpt><trkpt lat="44.1131783" lon="12.1641608"><ele>209.0</ele><time>2026-04-18T16:34:06.882Z</time></trkpt><trkpt lat="44.113107" lon="12.1640936"><ele>209.0</ele><time>2026-04-18T16:34:08.89Z</time></trkpt><trkpt lat="44.1130297" lon="12.1640166"><ele>209.0</ele><time>2026-04-18T16:34:10.897Z</time></trkpt><trkpt lat="44.1129519" lon="12.1639316"><ele>209.0</ele><time>2026-04-18T16:34:12.893Z</time></trkpt><trkpt lat="44.1128697" lon="12.1638506"><ele>211.2</ele><time>2026-04-18T16:34:14.891Z</time></trkpt><trkpt lat="44.1127911" lon="12.1637786"><ele>213.39999999999998</ele><time>2026-04-18T16:34:16.887Z</time></trkpt><trkpt lat="44.1127164" lon="12.1636829"><ele>215.6</ele><time>2026-04-18T16:34:18.888Z</time></trkpt><trkpt lat="44.1126502" lon="12.163575"><ele>217.8</ele><time>2026-04-18T16:34:20.893Z</time></trkpt><trkpt lat="44.1125849" lon="12.163452"><ele>220.0</ele><time>2026-04-18T16:34:22.894Z</time></trkpt><trkpt lat="44.1125224" lon="12.1633065"><ele>219.8</ele><time>2026-04-18T16:34:24.889Z</time></trkpt><trkpt lat="44.1124871" lon="12.1631678"><ele>219.6</ele><time>2026-04-18T16:34:26.89Z</time></trkpt><trkpt lat="44.1124819" lon="12.1630176"><ele>219.39999999999998</ele><time>2026-04-18T16:34:28.883Z</time></trkpt><trkpt lat="44.112521" lon="12.162875"><ele>219.2</ele><time>2026-04-18T16:34:30.887Z</time></trkpt><trkpt lat="44.1125872" lon="12.1627416"><ele>219.0</ele><time>2026-04-18T16:34:32.889Z</time></trkpt><trkpt lat="44.1126754" lon="12.1626408"><ele>219.0</ele><time>2026-04-18T16:34:34.889Z</time></trkpt><trkpt lat="44.1127691" lon="12.1625441"><ele>218.99999999999997</ele><time>2026-04-18T16:34:36.897Z</time></trkpt><trkpt lat="44.1128724" lon="12.162481"><ele>218.99999999999997</ele><time>2026-04-18T16:34:38.895Z</time></trkpt><trkpt lat="44.112981" lon="12.1624282"><ele>219.0</ele><time>2026-04-18T16:34:40.89Z</time></trkpt><trkpt lat="44.1130795" lon="12.1623979"><ele>219.0</ele><time>2026-04-18T16:34:42.881Z</time></trkpt><trkpt lat="44.1131587" lon="12.1624404"><ele>219.0</ele><time>2026-04-18T16:34:44.893Z</time></trkpt><trkpt lat="44.1132107" lon="12.1625368"><ele>218.99999999999997</ele><time>2026-04-18T16:34:46.903Z</time></trkpt><trkpt lat="44.1132733" lon="12.1626356"><ele>218.99999999999997</ele><time>2026-04-18T16:34:48.901Z</time></trkpt><trkpt lat="44.113341" lon="12.1627414"><ele>219.0</ele><time>2026-04-18T16:34:50.891Z</time></trkpt><trkpt lat="44.1133867" lon="12.1628633"><ele>219.0</ele><time>2026-04-18T16:34:52.901Z</time></trkpt><trkpt lat="44.1134317" lon="12.1629748"><ele>220.0</ele><time>2026-04-18T16:34:54.892Z</time></trkpt><trkpt lat="44.1134834" lon="12.163041"><ele>221.0</ele><time>2026-04-18T16:34:57.894Z</time></trkpt><trkpt lat="44.1135263" lon="12.1629365"><ele>222.0</ele><time>2026-04-18T16:35:01.905Z</time></trkpt><trkpt lat="44.1135566" lon="12.1628173"><ele>223.0</ele><time>2026-04-18T16:35:03.888Z</time></trkpt><trkpt lat="44.1136097" lon="12.1626733"><ele>224.0</ele><time>2026-04-18T16:35:05.874Z</time></trkpt><trkpt lat="44.1136511" lon="12.1626041"><ele>225.0</ele><time>2026-04-18T16:35:06.882Z</time></trkpt><trkpt lat="44.1136991" lon="12.162544"><ele>225.0</ele><time>2026-04-18T16:35:07.878Z</time></trkpt><trkpt lat="44.1137593" lon="12.1624851"><ele>225.0</ele><time>2026-04-18T16:35:08.897Z</time></trkpt><trkpt lat="44.1138156" lon="12.1624304"><ele>225.0</ele><time>2026-04-18T16:35:09.89Z</time></trkpt><trkpt lat="44.1138708" lon="12.162373"><ele>225.0</ele><time>2026-04-18T16:35:10.896Z</time></trkpt><trkpt lat="44.1139174" lon="12.1623117"><ele>225.0</ele><time>2026-04-18T16:35:11.891Z</time></trkpt><trkpt lat="44.11399" lon="12.1622014"><ele>225.0</ele><time>2026-04-18T16:35:13.896Z</time></trkpt><trkpt lat="44.1140421" lon="12.1621013"><ele>223.4</ele><time>2026-04-18T16:35:15.895Z</time></trkpt><trkpt lat="44.1140795" lon="12.1619952"><ele>221.8</ele><time>2026-04-18T16:35:17.9Z</time></trkpt><trkpt lat="44.114108" lon="12.1618923"><ele>220.2</ele><time>2026-04-18T16:35:19.898Z</time></trkpt><trkpt lat="44.1141353" lon="12.1617576"><ele>218.6</ele><time>2026-04-18T16:35:21.9Z</time></trkpt><trkpt lat="44.1141687" lon="12.1615936"><ele>217.0</ele><time>2026-04-18T16:35:23.891Z</time></trkpt><trkpt lat="44.1142127" lon="12.1614468"><ele>217.0</ele><time>2026-04-18T16:35:25.896Z</time></trkpt><trkpt lat="44.1142536" lon="12.1613116"><ele>217.0</ele><time>2026-04-18T16:35:27.89Z</time></trkpt><trkpt lat="44.1142975" lon="12.1611791"><ele>217.0</ele><time>2026-04-18T16:35:29.894Z</time></trkpt><trkpt lat="44.1143399" lon="12.1610423"><ele>217.0</ele><time>2026-04-18T16:35:31.891Z</time></trkpt><trkpt lat="44.1143713" lon="12.1609212"><ele>217.0</ele><time>2026-04-18T16:35:33.905Z</time></trkpt><trkpt lat="44.1144057" lon="12.1608247"><ele>216.99999999999997</ele><time>2026-04-18T16:35:35.9Z</time></trkpt><trkpt lat="44.114452" lon="12.1607134"><ele>217.0</ele><time>2026-04-18T16:35:38.902Z</time></trkpt><trkpt lat="44.1145064" lon="12.1606638"><ele>217.0</ele><time>2026-04-18T16:35:41.901Z</time></trkpt><trkpt lat="44.114573" lon="12.1606185"><ele>217.0</ele><time>2026-04-18T16:35:44.884Z</time></trkpt><trkpt lat="44.1146334" lon="12.1605785"><ele>216.99999999999997</ele><time>2026-04-18T16:35:50.885Z</time></trkpt><trkpt lat="44.1147128" lon="12.160597"><ele>217.0</ele><time>2026-04-18T16:35:54.892Z</time></trkpt><trkpt lat="44.1147876" lon="12.1605788"><ele>216.16666666666666</ele><time>2026-04-18T16:35:57.89Z</time></trkpt><trkpt lat="44.1148742" lon="12.1605635"><ele>215.33333333333331</ele><time>2026-04-18T16:36:00.89Z</time></trkpt><trkpt lat="44.1149413" lon="12.1605474"><ele>214.5</ele><time>2026-04-18T16:36:02.887Z</time></trkpt><trkpt lat="44.115014" lon="12.1605028"><ele>213.66666666666669</ele><time>2026-04-18T16:36:04.886Z</time></trkpt><trkpt lat="44.1150997" lon="12.1604742"><ele>212.83333333333334</ele><time>2026-04-18T16:36:06.879Z</time></trkpt><trkpt lat="44.1151856" lon="12.1604687"><ele>212.0</ele><time>2026-04-18T16:36:08.882Z</time></trkpt><trkpt lat="44.11526" lon="12.1604854"><ele>212.00000000000003</ele><time>2026-04-18T16:36:10.876Z</time></trkpt><trkpt lat="44.1153289" lon="12.16051"><ele>212.0</ele><time>2026-04-18T16:36:12.877Z</time></trkpt><trkpt lat="44.1154016" lon="12.1605125"><ele>212.0</ele><time>2026-04-18T16:36:14.882Z</time></trkpt><trkpt lat="44.1154703" lon="12.1604809"><ele>212.0</ele><time>2026-04-18T16:36:16.882Z</time></trkpt><trkpt lat="44.1155444" lon="12.1604807"><ele>212.00000000000003</ele><time>2026-04-18T16:36:21.89Z</time></trkpt><trkpt lat="44.1156178" lon="12.1604477"><ele>212.0</ele><time>2026-04-18T16:36:24.883Z</time></trkpt><trkpt lat="44.115699" lon="12.1603782"><ele>209.2857142857143</ele><time>2026-04-18T16:36:27.885Z</time></trkpt><trkpt lat="44.115747" lon="12.1603045"><ele>206.57142857142856</ele><time>2026-04-18T16:36:29.885Z</time></trkpt><trkpt lat="44.1157928" lon="12.16024"><ele>203.85714285714286</ele><time>2026-04-18T16:36:32.882Z</time></trkpt><trkpt lat="44.1158442" lon="12.1601864"><ele>201.14285714285717</ele><time>2026-04-18T16:36:35.883Z</time></trkpt><trkpt lat="44.1159202" lon="12.1601583"><ele>198.42857142857144</ele><time>2026-04-18T16:36:38.879Z</time></trkpt><trkpt lat="44.116003" lon="12.1601484"><ele>195.71428571428572</ele><time>2026-04-18T16:36:41.885Z</time></trkpt><trkpt lat="44.1160725" lon="12.1601455"><ele>193.0</ele><time>2026-04-18T16:36:44.878Z</time></trkpt><trkpt lat="44.1161495" lon="12.1601134"><ele>192.99999999999997</ele><time>2026-04-18T16:36:48.882Z</time></trkpt><trkpt lat="44.1162239" lon="12.1600788"><ele>193.0</ele><time>2026-04-18T16:37:42.882Z</time></trkpt><trkpt lat="44.11629" lon="12.1600967"><ele>193.0</ele><time>2026-04-18T16:37:45.877Z</time></trkpt><trkpt lat="44.1163555" lon="12.1601136"><ele>193.0</ele><time>2026-04-18T16:37:49.881Z</time></trkpt><trkpt lat="44.1164406" lon="12.1601089"><ele>192.99999999999997</ele><time>2026-04-18T16:37:53.878Z</time></trkpt><trkpt lat="44.1165139" lon="12.1601127"><ele>193.0</ele><time>2026-04-18T16:37:57.883Z</time></trkpt><trkpt lat="44.1165966" lon="12.1601284"><ele>191.66666666666666</ele><time>2026-04-18T16:38:01.881Z</time></trkpt><trkpt lat="44.1166799" lon="12.1601291"><ele>190.33333333333331</ele><time>2026-04-18T16:38:04.872Z</time></trkpt><trkpt lat="44.1167537" lon="12.160113"><ele>189.0</ele><time>2026-04-18T16:38:07.878Z</time></trkpt><trkpt lat="44.1168227" lon="12.1601128"><ele>187.66666666666666</ele><time>2026-04-18T16:38:12.882Z</time></trkpt><trkpt lat="44.1169044" lon="12.1601194"><ele>186.33333333333331</ele><time>2026-04-18T16:39:25.9Z</time></trkpt><trkpt lat="44.116978" lon="12.1601273"><ele>185.0</ele><time>2026-04-18T16:39:55.894Z</time></trkpt><trkpt lat="44.1170467" lon="12.1601614"><ele>184.99999999999997</ele><time>2026-04-18T16:40:26.887Z</time></trkpt><trkpt lat="44.1171182" lon="12.1601701"><ele>185.0</ele><time>2026-04-18T16:40:29.874Z</time></trkpt><trkpt lat="44.117186" lon="12.1601909"><ele>185.0</ele><time>2026-04-18T16:40:32.881Z</time></trkpt><trkpt lat="44.1172617" lon="12.1602413"><ele>185.0</ele><time>2026-04-18T16:40:36.877Z</time></trkpt><trkpt lat="44.1173235" lon="12.1602841"><ele>185.0</ele><time>2026-04-18T16:40:40.882Z</time></trkpt><trkpt lat="44.1173978" lon="12.1603224"><ele>184.99999999999997</ele><time>2026-04-18T16:40:44.885Z</time></trkpt><trkpt lat="44.1174633" lon="12.1603498"><ele>185.0</ele><time>2026-04-18T16:40:47.883Z</time></trkpt><trkpt lat="44.1175282" lon="12.1603768"><ele>186.14285714285714</ele><time>2026-04-18T16:40:50.88Z</time></trkpt><trkpt lat="44.1175959" lon="12.1604102"><ele>187.28571428571428</ele><time>2026-04-18T16:40:53.879Z</time></trkpt><trkpt lat="44.1176629" lon="12.160455"><ele>188.42857142857144</ele><time>2026-04-18T16:40:56.888Z</time></trkpt><trkpt lat="44.117728" lon="12.1605019"><ele>189.57142857142856</ele><time>2026-04-18T16:40:59.887Z</time></trkpt><trkpt lat="44.117789" lon="12.1605636"><ele>190.71428571428572</ele><time>2026-04-18T16:41:02.883Z</time></trkpt><trkpt lat="44.1178452" lon="12.1606179"><ele>191.85714285714286</ele><time>2026-04-18T16:41:05.882Z</time></trkpt><trkpt lat="44.1178954" lon="12.1606727"><ele>193.0</ele><time>2026-04-18T16:41:08.882Z</time></trkpt><trkpt lat="44.1179569" lon="12.1607506"><ele>191.85714285714286</ele><time>2026-04-18T16:41:12.883Z</time></trkpt><trkpt lat="44.1180228" lon="12.1608035"><ele>190.71428571428572</ele><time>2026-04-18T16:41:15.891Z</time></trkpt><trkpt lat="44.1180907" lon="12.1608025"><ele>189.57142857142856</ele><time>2026-04-18T16:41:18.888Z</time></trkpt><trkpt lat="44.1181562" lon="12.1608149"><ele>188.42857142857144</ele><time>2026-04-18T16:41:21.893Z</time></trkpt><trkpt lat="44.1182322" lon="12.1608329"><ele>187.28571428571428</ele><time>2026-04-18T16:41:24.886Z</time></trkpt><trkpt lat="44.1183036" lon="12.1608291"><ele>186.14285714285714</ele><time>2026-04-18T16:41:27.893Z</time></trkpt><trkpt lat="44.1183684" lon="12.1607983"><ele>185.0</ele><time>2026-04-18T16:41:30.888Z</time></trkpt><trkpt lat="44.118446" lon="12.1607627"><ele>184.99999999999997</ele><time>2026-04-18T16:41:33.883Z</time></trkpt><trkpt lat="44.1185146" lon="12.1607232"><ele>185.0</ele><time>2026-04-18T16:41:36.893Z</time></trkpt><trkpt lat="44.1185857" lon="12.1606685"><ele>185.0</ele><time>2026-04-18T16:43:42.894Z</time></trkpt><trkpt lat="44.1186495" lon="12.1606274"><ele>185.0</ele><time>2026-04-18T16:43:46.894Z</time></trkpt><trkpt lat="44.1186176" lon="12.1605383"><ele>185.0</ele><time>2026-04-18T16:44:00.898Z</time></trkpt><trkpt lat="44.1185923" lon="12.160439"><ele>184.99999999999997</ele><time>2026-04-18T16:44:03.89Z</time></trkpt><trkpt lat="44.1186625" lon="12.1604284"><ele>185.0</ele><time>2026-04-18T16:44:19.905Z</time></trkpt><trkpt lat="44.1187358" lon="12.1604378"><ele>185.57142857142856</ele><time>2026-04-18T16:44:22.9Z</time></trkpt><trkpt lat="44.1188199" lon="12.1604441"><ele>186.14285714285714</ele><time>2026-04-18T16:44:25.895Z</time></trkpt><trkpt lat="44.118886" lon="12.160471"><ele>186.71428571428572</ele><time>2026-04-18T16:44:28.893Z</time></trkpt><trkpt lat="44.1189537" lon="12.1604676"><ele>187.28571428571428</ele><time>2026-04-18T16:44:31.892Z</time></trkpt><trkpt lat="44.1190292" lon="12.160469"><ele>187.85714285714286</ele><time>2026-04-18T16:44:34.895Z</time></trkpt><trkpt lat="44.1191072" lon="12.1604377"><ele>188.42857142857142</ele><time>2026-04-18T16:44:37.885Z</time></trkpt><trkpt lat="44.1191481" lon="12.160357"><ele>189.0</ele><time>2026-04-18T16:44:41.889Z</time></trkpt><trkpt lat="44.119134" lon="12.1602634"><ele>187.0</ele><time>2026-04-18T16:44:45.891Z</time></trkpt><trkpt lat="44.1191381" lon="12.1601444"><ele>185.0</ele><time>2026-04-18T16:44:48.891Z</time></trkpt><trkpt lat="44.1191414" lon="12.1600407"><ele>183.0</ele><time>2026-04-18T16:44:51.892Z</time></trkpt><trkpt lat="44.1191528" lon="12.1599399"><ele>181.0</ele><time>2026-04-18T16:44:54.893Z</time></trkpt><trkpt lat="44.1191667" lon="12.1598416"><ele>179.0</ele><time>2026-04-18T16:44:57.892Z</time></trkpt><trkpt lat="44.1191883" lon="12.1597234"><ele>177.0</ele><time>2026-04-18T16:45:00.884Z</time></trkpt><trkpt lat="44.1191906" lon="12.1595998"><ele>175.2857142857143</ele><time>2026-04-18T16:45:03.882Z</time></trkpt><trkpt lat="44.1192285" lon="12.1595114"><ele>173.57142857142856</ele><time>2026-04-18T16:45:06.88Z</time></trkpt><trkpt lat="44.1192945" lon="12.1594331"><ele>171.85714285714286</ele><time>2026-04-18T16:45:09.878Z</time></trkpt><trkpt lat="44.1193519" lon="12.1593839"><ele>170.14285714285717</ele><time>2026-04-18T16:45:12.879Z</time></trkpt><trkpt lat="44.1194177" lon="12.1593011"><ele>168.42857142857144</ele><time>2026-04-18T16:45:16.884Z</time></trkpt><trkpt lat="44.1194763" lon="12.1592648"><ele>166.71428571428572</ele><time>2026-04-18T16:45:18.882Z</time></trkpt><trkpt lat="44.119539" lon="12.1592341"><ele>165.0</ele><time>2026-04-18T16:45:21.889Z</time></trkpt><trkpt lat="44.1194697" lon="12.159288"><ele>165.00000000000003</ele><time>2026-04-18T16:46:11.884Z</time></trkpt><trkpt lat="44.1194089" lon="12.1593215"><ele>165.0</ele><time>2026-04-18T16:46:13.885Z</time></trkpt><trkpt lat="44.1193622" lon="12.1593814"><ele>165.0</ele><time>2026-04-18T16:46:15.888Z</time></trkpt><trkpt lat="44.1193092" lon="12.1594607"><ele>165.0</ele><time>2026-04-18T16:46:18.884Z</time></trkpt><trkpt lat="44.1192664" lon="12.1595469"><ele>165.0</ele><time>2026-04-18T16:46:21.894Z</time></trkpt><trkpt lat="44.1191785" lon="12.1595287"><ele>165.00000000000003</ele><time>2026-04-18T16:46:26.882Z</time></trkpt><trkpt lat="44.1191186" lon="12.1594639"><ele>165.0</ele><time>2026-04-18T16:46:29.885Z</time></trkpt><trkpt lat="44.1190555" lon="12.159392"><ele>166.33333333333334</ele><time>2026-04-18T16:46:33.889Z</time></trkpt><trkpt lat="44.1190197" lon="12.1593148"><ele>167.66666666666666</ele><time>2026-04-18T16:46:36.893Z</time></trkpt><trkpt lat="44.1189658" lon="12.1592133"><ele>169.0</ele><time>2026-04-18T16:46:39.886Z</time></trkpt><trkpt lat="44.1189102" lon="12.1591192"><ele>170.33333333333331</ele><time>2026-04-18T16:46:42.883Z</time></trkpt><trkpt lat="44.1188516" lon="12.1590563"><ele>171.66666666666666</ele><time>2026-04-18T16:46:45.888Z</time></trkpt><trkpt lat="44.1188137" lon="12.1589755"><ele>173.0</ele><time>2026-04-18T16:46:48.889Z</time></trkpt><trkpt lat="44.1187777" lon="12.1588701"><ele>173.0</ele><time>2026-04-18T16:46:52.888Z</time></trkpt><trkpt lat="44.1187334" lon="12.1587632"><ele>173.0</ele><time>2026-04-18T16:46:55.888Z</time></trkpt><trkpt lat="44.1186863" lon="12.1587032"><ele>173.0</ele><time>2026-04-18T16:46:58.892Z</time></trkpt><trkpt lat="44.11863" lon="12.1586379"><ele>173.0</ele><time>2026-04-18T16:47:02.884Z</time></trkpt><trkpt lat="44.1186632" lon="12.1585583"><ele>173.0</ele><time>2026-04-18T16:47:37.899Z</time></trkpt><trkpt lat="44.1187235" lon="12.1584933"><ele>173.0</ele><time>2026-04-18T16:47:39.884Z</time></trkpt><trkpt lat="44.118785" lon="12.1584067"><ele>173.0</ele><time>2026-04-18T16:47:41.88Z</time></trkpt><trkpt lat="44.1188406" lon="12.1583292"><ele>173.0</ele><time>2026-04-18T16:47:43.888Z</time></trkpt><trkpt lat="44.1188862" lon="12.1582564"><ele>173.0</ele><time>2026-04-18T16:47:45.887Z</time></trkpt><trkpt lat="44.1189381" lon="12.1581892"><ele>173.0</ele><time>2026-04-18T16:47:47.898Z</time></trkpt><trkpt lat="44.1189887" lon="12.1581318"><ele>173.0</ele><time>2026-04-18T16:47:49.882Z</time></trkpt><trkpt lat="44.1190465" lon="12.1580558"><ele>173.0</ele><time>2026-04-18T16:47:52.887Z</time></trkpt><trkpt lat="44.1191278" lon="12.1580657"><ele>173.0</ele><time>2026-04-18T16:47:56.887Z</time></trkpt><trkpt lat="44.1191904" lon="12.1580164"><ele>170.5</ele><time>2026-04-18T16:47:59.881Z</time></trkpt><trkpt lat="44.1192332" lon="12.1579339"><ele>168.0</ele><time>2026-04-18T16:48:02.888Z</time></trkpt><trkpt lat="44.1192859" lon="12.1578455"><ele>165.5</ele><time>2026-04-18T16:48:05.887Z</time></trkpt><trkpt lat="44.1193329" lon="12.1577706"><ele>163.0</ele><time>2026-04-18T16:48:08.883Z</time></trkpt><trkpt lat="44.1193881" lon="12.1576982"><ele>160.5</ele><time>2026-04-18T16:48:11.882Z</time></trkpt><trkpt lat="44.1194612" lon="12.1576184"><ele>158.0</ele><time>2026-04-18T16:48:14.881Z</time></trkpt><trkpt lat="44.1195273" lon="12.1576028"><ele>158.0</ele><time>2026-04-18T16:48:17.898Z</time></trkpt><trkpt lat="44.1196234" lon="12.1576165"><ele>158.0</ele><time>2026-04-18T16:48:20.887Z</time></trkpt><trkpt lat="44.1196957" lon="12.1576271"><ele>158.0</ele><time>2026-04-18T16:48:22.883Z</time></trkpt><trkpt lat="44.1197618" lon="12.157625"><ele>158.0</ele><time>2026-04-18T16:48:24.883Z</time></trkpt><trkpt lat="44.1198254" lon="12.157623"><ele>158.0</ele><time>2026-04-18T16:48:26.886Z</time></trkpt><trkpt lat="44.1199249" lon="12.1576062"><ele>158.0</ele><time>2026-04-18T16:48:29.878Z</time></trkpt><trkpt lat="44.1200123" lon="12.1575936"><ele>155.33333333333331</ele><time>2026-04-18T16:48:31.886Z</time></trkpt><trkpt lat="44.1201016" lon="12.1576003"><ele>152.66666666666666</ele><time>2026-04-18T16:48:33.879Z</time></trkpt><trkpt lat="44.1201919" lon="12.1575896"><ele>150.0</ele><time>2026-04-18T16:48:35.876Z</time></trkpt><trkpt lat="44.1202815" lon="12.1575707"><ele>147.33333333333334</ele><time>2026-04-18T16:48:37.894Z</time></trkpt><trkpt lat="44.1203718" lon="12.1575606"><ele>144.66666666666669</ele><time>2026-04-18T16:48:40.883Z</time></trkpt><trkpt lat="44.1204532" lon="12.1575812"><ele>142.0</ele><time>2026-04-18T16:48:43.887Z</time></trkpt><trkpt lat="44.120504" lon="12.1576588"><ele>142.0</ele><time>2026-04-18T16:48:46.886Z</time></trkpt><trkpt lat="44.1205377" lon="12.1577364"><ele>142.0</ele><time>2026-04-18T16:48:49.884Z</time></trkpt><trkpt lat="44.1205935" lon="12.1577895"><ele>142.0</ele><time>2026-04-18T16:48:53.873Z</time></trkpt><trkpt lat="44.120664" lon="12.1578309"><ele>142.0</ele><time>2026-04-18T16:48:56.886Z</time></trkpt><trkpt lat="44.1207396" lon="12.1578379"><ele>142.0</ele><time>2026-04-18T16:49:00.883Z</time></trkpt><trkpt lat="44.1208003" lon="12.1577926"><ele>142.0</ele><time>2026-04-18T16:49:03.882Z</time></trkpt><trkpt lat="44.1208594" lon="12.1577439"><ele>142.0</ele><time>2026-04-18T16:49:05.884Z</time></trkpt><trkpt lat="44.1209141" lon="12.1576935"><ele>139.16666666666669</ele><time>2026-04-18T16:49:07.89Z</time></trkpt><trkpt lat="44.121002" lon="12.1576546"><ele>136.33333333333334</ele><time>2026-04-18T16:49:10.885Z</time></trkpt><trkpt lat="44.1210897" lon="12.1576458"><ele>133.5</ele><time>2026-04-18T16:49:13.892Z</time></trkpt><trkpt lat="44.1211503" lon="12.1576165"><ele>130.66666666666666</ele><time>2026-04-18T16:49:17.901Z</time></trkpt><trkpt lat="44.1211539" lon="12.1575278"><ele>127.83333333333333</ele><time>2026-04-18T16:49:22.887Z</time></trkpt><trkpt lat="44.121196" lon="12.1574355"><ele>125.0</ele><time>2026-04-18T16:49:25.894Z</time></trkpt><trkpt lat="44.1212463" lon="12.1573457"><ele>125.0</ele><time>2026-04-18T16:49:28.899Z</time></trkpt><trkpt lat="44.1213123" lon="12.1573081"><ele>125.0</ele><time>2026-04-18T16:50:01.892Z</time></trkpt><trkpt lat="44.1213967" lon="12.1573628"><ele>125.0</ele><time>2026-04-18T16:50:07.875Z</time></trkpt><trkpt lat="44.1214869" lon="12.1574061"><ele>125.0</ele><time>2026-04-18T16:50:09.873Z</time></trkpt><trkpt lat="44.1215919" lon="12.1574102"><ele>125.0</ele><time>2026-04-18T16:50:11.873Z</time></trkpt><trkpt lat="44.121699" lon="12.1574247"><ele>121.2</ele><time>2026-04-18T16:50:13.871Z</time></trkpt><trkpt lat="44.1217963" lon="12.1574402"><ele>117.4</ele><time>2026-04-18T16:50:15.879Z</time></trkpt><trkpt lat="44.1218961" lon="12.1574781"><ele>113.6</ele><time>2026-04-18T16:50:17.876Z</time></trkpt><trkpt lat="44.1220069" lon="12.157518"><ele>109.8</ele><time>2026-04-18T16:50:19.875Z</time></trkpt><trkpt lat="44.1220699" lon="12.1575386"><ele>106.0</ele><time>2026-04-18T16:50:20.877Z</time></trkpt><trkpt lat="44.1221352" lon="12.1575797"><ele>106.0</ele><time>2026-04-18T16:50:21.869Z</time></trkpt><trkpt lat="44.1222204" lon="12.1577077"><ele>106.0</ele><time>2026-04-18T16:50:23.868Z</time></trkpt><trkpt lat="44.1222824" lon="12.1578361"><ele>106.0</ele><time>2026-04-18T16:50:25.873Z</time></trkpt><trkpt lat="44.1223332" lon="12.1579465"><ele>106.0</ele><time>2026-04-18T16:50:27.868Z</time></trkpt><trkpt lat="44.1223693" lon="12.1580554"><ele>106.0</ele><time>2026-04-18T16:50:29.886Z</time></trkpt><trkpt lat="44.1223846" lon="12.1581629"><ele>104.83333333333334</ele><time>2026-04-18T16:50:31.881Z</time></trkpt><trkpt lat="44.1223902" lon="12.1582543"><ele>103.66666666666667</ele><time>2026-04-18T16:50:33.883Z</time></trkpt><trkpt lat="44.1223947" lon="12.1583751"><ele>102.5</ele><time>2026-04-18T16:50:36.89Z</time></trkpt><trkpt lat="44.1224081" lon="12.1584917"><ele>101.33333333333334</ele><time>2026-04-18T16:50:39.89Z</time></trkpt><trkpt lat="44.122412" lon="12.1586148"><ele>100.16666666666667</ele><time>2026-04-18T16:50:42.883Z</time></trkpt><trkpt lat="44.1224312" lon="12.1587198"><ele>99.0</ele><time>2026-04-18T16:50:45.884Z</time></trkpt><trkpt lat="44.1224648" lon="12.1588375"><ele>99.0</ele><time>2026-04-18T16:50:48.888Z</time></trkpt><trkpt lat="44.1225037" lon="12.1589203"><ele>99.0</ele><time>2026-04-18T16:50:50.89Z</time></trkpt><trkpt lat="44.1225516" lon="12.1590079"><ele>99.0</ele><time>2026-04-18T16:50:52.883Z</time></trkpt><trkpt lat="44.1226082" lon="12.1591032"><ele>99.0</ele><time>2026-04-18T16:50:54.886Z</time></trkpt><trkpt lat="44.1226692" lon="12.1592023"><ele>99.0</ele><time>2026-04-18T16:50:56.889Z</time></trkpt><trkpt lat="44.1227303" lon="12.1592982"><ele>99.0</ele><time>2026-04-18T16:50:58.887Z</time></trkpt><trkpt lat="44.1227863" lon="12.1593968"><ele>98.6</ele><time>2026-04-18T16:51:00.889Z</time></trkpt><trkpt lat="44.1228383" lon="12.1594928"><ele>98.2</ele><time>2026-04-18T16:51:02.898Z</time></trkpt><trkpt lat="44.1228737" lon="12.1596117"><ele>97.8</ele><time>2026-04-18T16:51:04.886Z</time></trkpt><trkpt lat="44.1228912" lon="12.1597432"><ele>97.39999999999999</ele><time>2026-04-18T16:51:06.889Z</time></trkpt><trkpt lat="44.1229288" lon="12.1598682"><ele>97.0</ele><time>2026-04-18T16:51:08.89Z</time></trkpt><trkpt lat="44.1229999" lon="12.1599556"><ele>98.0</ele><time>2026-04-18T16:51:10.888Z</time></trkpt><trkpt lat="44.1230995" lon="12.1600176"><ele>99.0</ele><time>2026-04-18T16:51:12.879Z</time></trkpt><trkpt lat="44.1231992" lon="12.1600722"><ele>100.0</ele><time>2026-04-18T16:51:14.871Z</time></trkpt><trkpt lat="44.1232936" lon="12.1601353"><ele>101.0</ele><time>2026-04-18T16:51:16.883Z</time></trkpt><trkpt lat="44.1233777" lon="12.1602262"><ele>102.0</ele><time>2026-04-18T16:51:18.877Z</time></trkpt><trkpt lat="44.1234524" lon="12.1603329"><ele>100.42857142857143</ele><time>2026-04-18T16:51:20.875Z</time></trkpt><trkpt lat="44.1234958" lon="12.1604241"><ele>98.85714285714286</ele><time>2026-04-18T16:51:22.885Z</time></trkpt><trkpt lat="44.1235484" lon="12.1604953"><ele>97.28571428571428</ele><time>2026-04-18T16:52:31.89Z</time></trkpt><trkpt lat="44.1236134" lon="12.1604995"><ele>95.71428571428572</ele><time>2026-04-18T16:52:34.878Z</time></trkpt><trkpt lat="44.1236747" lon="12.160549"><ele>94.14285714285714</ele><time>2026-04-18T16:53:20.896Z</time></trkpt><trkpt lat="44.123736" lon="12.1605764"><ele>92.57142857142857</ele><time>2026-04-18T16:53:23.891Z</time></trkpt><trkpt lat="44.123801" lon="12.160555"><ele>91.0</ele><time>2026-04-18T16:53:25.889Z</time></trkpt><trkpt lat="44.1238813" lon="12.1605305"><ele>91.0</ele><time>2026-04-18T16:53:27.89Z</time></trkpt><trkpt lat="44.1239581" lon="12.1605231"><ele>91.0</ele><time>2026-04-18T16:53:29.888Z</time></trkpt><trkpt lat="44.1240344" lon="12.1605878"><ele>91.0</ele><time>2026-04-18T16:53:32.886Z</time></trkpt><trkpt lat="44.1240865" lon="12.1606852"><ele>91.0</ele><time>2026-04-18T16:53:35.895Z</time></trkpt><trkpt lat="44.124126" lon="12.1607787"><ele>91.0</ele><time>2026-04-18T16:53:38.892Z</time></trkpt><trkpt lat="44.1241569" lon="12.160857"><ele>91.0</ele><time>2026-04-18T16:53:41.89Z</time></trkpt><trkpt lat="44.1241946" lon="12.160944"><ele>90.66666666666666</ele><time>2026-04-18T16:53:44.885Z</time></trkpt><trkpt lat="44.1242557" lon="12.1609774"><ele>90.33333333333333</ele><time>2026-04-18T16:53:48.891Z</time></trkpt><trkpt lat="44.1243177" lon="12.1609111"><ele>90.0</ele><time>2026-04-18T16:53:51.885Z</time></trkpt><trkpt lat="44.1243746" lon="12.1608348"><ele>89.66666666666667</ele><time>2026-04-18T16:53:54.879Z</time></trkpt><trkpt lat="44.1244401" lon="12.1607709"><ele>89.33333333333334</ele><time>2026-04-18T16:53:57.882Z</time></trkpt><trkpt lat="44.1245095" lon="12.1607083"><ele>89.0</ele><time>2026-04-18T16:54:00.893Z</time></trkpt><trkpt lat="44.1245711" lon="12.1606637"><ele>89.83333333333334</ele><time>2026-04-18T16:54:03.886Z</time></trkpt><trkpt lat="44.1246364" lon="12.1606105"><ele>90.66666666666667</ele><time>2026-04-18T16:54:06.889Z</time></trkpt><trkpt lat="44.1247028" lon="12.1605521"><ele>91.5</ele><time>2026-04-18T16:54:10.884Z</time></trkpt><trkpt lat="44.1247639" lon="12.1605126"><ele>92.33333333333333</ele><time>2026-04-18T16:54:14.885Z</time></trkpt><trkpt lat="44.1248369" lon="12.1604446"><ele>93.16666666666666</ele><time>2026-04-18T16:54:24.9Z</time></trkpt><trkpt lat="44.1249099" lon="12.1604017"><ele>94.0</ele><time>2026-04-18T16:54:27.902Z</time></trkpt><trkpt lat="44.1249559" lon="12.1603388"><ele>94.0</ele><time>2026-04-18T16:54:30.909Z</time></trkpt><trkpt lat="44.1249714" lon="12.1602459"><ele>94.0</ele><time>2026-04-18T16:54:34.897Z</time></trkpt><trkpt lat="44.1250572" lon="12.1601989"><ele>94.0</ele><time>2026-04-18T16:54:37.887Z</time></trkpt><trkpt lat="44.1251771" lon="12.1601992"><ele>94.0</ele><time>2026-04-18T16:54:39.894Z</time></trkpt><trkpt lat="44.1252467" lon="12.1601906"><ele>94.0</ele><time>2026-04-18T16:54:40.901Z</time></trkpt><trkpt lat="44.1253206" lon="12.1601846"><ele>94.0</ele><time>2026-04-18T16:54:41.896Z</time></trkpt><trkpt lat="44.125393" lon="12.1601714"><ele>94.0</ele><time>2026-04-18T16:54:42.887Z</time></trkpt><trkpt lat="44.1254609" lon="12.1601695"><ele>94.0</ele><time>2026-04-18T16:54:43.893Z</time></trkpt><trkpt lat="44.1255752" lon="12.1601646"><ele>94.0</ele><time>2026-04-18T16:54:45.898Z</time></trkpt><trkpt lat="44.1256438" lon="12.1601937"><ele>94.0</ele><time>2026-04-18T16:54:47.89Z</time></trkpt><trkpt lat="44.1256829" lon="12.1602761"><ele>94.0</ele><time>2026-04-18T16:54:49.905Z</time></trkpt><trkpt lat="44.125709" lon="12.1603865"><ele>94.0</ele><time>2026-04-18T16:54:51.904Z</time></trkpt><trkpt lat="44.1257164" lon="12.1604863"><ele>94.0</ele><time>2026-04-18T16:54:53.904Z</time></trkpt><trkpt lat="44.1257209" lon="12.1605902"><ele>94.0</ele><time>2026-04-18T16:54:55.908Z</time></trkpt><trkpt lat="44.1257253" lon="12.1606927"><ele>94.0</ele><time>2026-04-18T16:54:57.903Z</time></trkpt><trkpt lat="44.1257333" lon="12.160801"><ele>94.0</ele><time>2026-04-18T16:55:00.904Z</time></trkpt><trkpt lat="44.1257285" lon="12.1609061"><ele>94.0</ele><time>2026-04-18T16:55:06.902Z</time></trkpt><trkpt lat="44.1257083" lon="12.1609928"><ele>94.0</ele><time>2026-04-18T16:55:09.893Z</time></trkpt><trkpt lat="44.1256553" lon="12.1610589"><ele>94.0</ele><time>2026-04-18T16:55:11.902Z</time></trkpt><trkpt lat="44.1256079" lon="12.1611318"><ele>93.33333333333333</ele><time>2026-04-18T16:55:13.896Z</time></trkpt><trkpt lat="44.125555" lon="12.1612177"><ele>92.66666666666666</ele><time>2026-04-18T16:55:15.903Z</time></trkpt><trkpt lat="44.1255268" lon="12.1613325"><ele>92.0</ele><time>2026-04-18T16:55:18.904Z</time></trkpt><trkpt lat="44.125563" lon="12.1614483"><ele>91.33333333333333</ele><time>2026-04-18T16:55:21.904Z</time></trkpt><trkpt lat="44.1256019" lon="12.1615221"><ele>90.66666666666667</ele><time>2026-04-18T16:55:23.901Z</time></trkpt><trkpt lat="44.1256684" lon="12.161489"><ele>90.0</ele><time>2026-04-18T16:55:34.894Z</time></trkpt><trkpt lat="44.1257171" lon="12.1614264"><ele>89.66666666666667</ele><time>2026-04-18T16:55:38.891Z</time></trkpt><trkpt lat="44.1257823" lon="12.161377"><ele>89.33333333333333</ele><time>2026-04-18T16:55:41.885Z</time></trkpt><trkpt lat="44.1258559" lon="12.1613059"><ele>89.0</ele><time>2026-04-18T16:55:44.889Z</time></trkpt><trkpt lat="44.1259084" lon="12.1612486"><ele>88.66666666666666</ele><time>2026-04-18T16:55:46.895Z</time></trkpt><trkpt lat="44.1259736" lon="12.1611886"><ele>88.33333333333333</ele><time>2026-04-18T16:55:48.889Z</time></trkpt><trkpt lat="44.1260306" lon="12.1611293"><ele>88.0</ele><time>2026-04-18T16:55:50.887Z</time></trkpt><trkpt lat="44.1261039" lon="12.1610595"><ele>88.0</ele><time>2026-04-18T16:55:53.891Z</time></trkpt><trkpt lat="44.1261693" lon="12.1609869"><ele>88.0</ele><time>2026-04-18T16:55:56.896Z</time></trkpt><trkpt lat="44.1262304" lon="12.1609205"><ele>88.0</ele><time>2026-04-18T16:55:59.898Z</time></trkpt><trkpt lat="44.1262805" lon="12.1608529"><ele>88.0</ele><time>2026-04-18T16:56:03.894Z</time></trkpt><trkpt lat="44.126236" lon="12.1609532"><ele>88.0</ele><time>2026-04-18T16:56:51.895Z</time></trkpt><trkpt lat="44.1261828" lon="12.1610285"><ele>88.0</ele><time>2026-04-18T16:56:54.896Z</time></trkpt><trkpt lat="44.1261241" lon="12.161079"><ele>88.0</ele><time>2026-04-18T16:56:58.906Z</time></trkpt><trkpt lat="44.126073" lon="12.1611382"><ele>88.0</ele><time>2026-04-18T16:57:01.895Z</time></trkpt><trkpt lat="44.1260065" lon="12.1612058"><ele>88.0</ele><time>2026-04-18T16:57:04.891Z</time></trkpt><trkpt lat="44.1259385" lon="12.1612758"><ele>88.0</ele><time>2026-04-18T16:57:07.895Z</time></trkpt><trkpt lat="44.1258726" lon="12.1613407"><ele>88.0</ele><time>2026-04-18T16:57:10.899Z</time></trkpt><trkpt lat="44.1257961" lon="12.1614082"><ele>88.0</ele><time>2026-04-18T16:57:13.894Z</time></trkpt><trkpt lat="44.1257357" lon="12.1614521"><ele>88.28571428571429</ele><time>2026-04-18T16:57:15.898Z</time></trkpt><trkpt lat="44.1256723" lon="12.1615102"><ele>88.57142857142857</ele><time>2026-04-18T16:57:18.895Z</time></trkpt><trkpt lat="44.1256028" lon="12.1615682"><ele>88.85714285714286</ele><time>2026-04-18T16:57:21.893Z</time></trkpt><trkpt lat="44.125553" lon="12.161639"><ele>89.14285714285714</ele><time>2026-04-18T16:57:24.896Z</time></trkpt><trkpt lat="44.1255201" lon="12.1617163"><ele>89.42857142857143</ele><time>2026-04-18T16:57:26.906Z</time></trkpt><trkpt lat="44.1254716" lon="12.1618047"><ele>89.71428571428571</ele><time>2026-04-18T16:57:28.901Z</time></trkpt><trkpt lat="44.1254288" lon="12.1618769"><ele>90.0</ele><time>2026-04-18T16:57:30.894Z</time></trkpt><trkpt lat="44.1254035" lon="12.1619652"><ele>89.42857142857143</ele><time>2026-04-18T16:57:32.891Z</time></trkpt><trkpt lat="44.1253896" lon="12.1620547"><ele>88.85714285714286</ele><time>2026-04-18T16:57:34.898Z</time></trkpt><trkpt lat="44.1253596" lon="12.1621716"><ele>88.28571428571429</ele><time>2026-04-18T16:57:37.893Z</time></trkpt><trkpt lat="44.1253488" lon="12.162266"><ele>87.71428571428572</ele><time>2026-04-18T16:57:39.892Z</time></trkpt><trkpt lat="44.1253242" lon="12.1623618"><ele>87.14285714285714</ele><time>2026-04-18T16:57:41.905Z</time></trkpt><trkpt lat="44.1253039" lon="12.1624611"><ele>86.57142857142858</ele><time>2026-04-18T16:57:43.908Z</time></trkpt><trkpt lat="44.1252724" lon="12.1625488"><ele>86.0</ele><time>2026-04-18T16:57:45.901Z</time></trkpt><trkpt lat="44.1252493" lon="12.1626333"><ele>85.57142857142858</ele><time>2026-04-18T16:57:47.897Z</time></trkpt><trkpt lat="44.1252179" lon="12.1627116"><ele>85.14285714285714</ele><time>2026-04-18T16:57:49.904Z</time></trkpt><trkpt lat="44.1251826" lon="12.1628024"><ele>84.71428571428572</ele><time>2026-04-18T16:57:51.916Z</time></trkpt><trkpt lat="44.1251434" lon="12.1628808"><ele>84.28571428571429</ele><time>2026-04-18T16:57:53.906Z</time></trkpt><trkpt lat="44.1250991" lon="12.1629866"><ele>83.85714285714286</ele><time>2026-04-18T16:57:56.905Z</time></trkpt><trkpt lat="44.125054" lon="12.1630728"><ele>83.42857142857143</ele><time>2026-04-18T16:57:59.913Z</time></trkpt><trkpt lat="44.1249961" lon="12.1630193"><ele>83.0</ele><time>2026-04-18T16:58:03.904Z</time></trkpt><trkpt lat="44.1249573" lon="12.1629109"><ele>83.0</ele><time>2026-04-18T16:58:06.907Z</time></trkpt><trkpt lat="44.1249237" lon="12.1628092"><ele>83.0</ele><time>2026-04-18T16:58:09.918Z</time></trkpt><trkpt lat="44.1248845" lon="12.1627108"><ele>83.0</ele><time>2026-04-18T16:58:12.922Z</time></trkpt><trkpt lat="44.1248466" lon="12.1626197"><ele>83.0</ele><time>2026-04-18T16:58:15.919Z</time></trkpt><trkpt lat="44.1248001" lon="12.1625205"><ele>83.0</ele><time>2026-04-18T16:58:18.905Z</time></trkpt><trkpt lat="44.1247574" lon="12.1624099"><ele>83.0</ele><time>2026-04-18T16:58:21.908Z</time></trkpt><trkpt lat="44.1247186" lon="12.1622955"><ele>83.5</ele><time>2026-04-18T16:58:24.901Z</time></trkpt><trkpt lat="44.1246705" lon="12.1622137"><ele>84.0</ele><time>2026-04-18T16:58:27.91Z</time></trkpt><trkpt lat="44.1246316" lon="12.1621206"><ele>84.5</ele><time>2026-04-18T16:58:30.907Z</time></trkpt><trkpt lat="44.1246223" lon="12.1620158"><ele>85.0</ele><time>2026-04-18T16:58:33.902Z</time></trkpt><trkpt lat="44.1245891" lon="12.1619156"><ele>85.5</ele><time>2026-04-18T16:58:37.899Z</time></trkpt><trkpt lat="44.1245481" lon="12.1618215"><ele>86.0</ele><time>2026-04-18T16:58:40.908Z</time></trkpt><trkpt lat="44.1245017" lon="12.1617049"><ele>86.0</ele><time>2026-04-18T16:58:43.913Z</time></trkpt><trkpt lat="44.124468" lon="12.161626"><ele>86.0</ele><time>2026-04-18T16:58:45.917Z</time></trkpt><trkpt lat="44.1244278" lon="12.1615167"><ele>86.0</ele><time>2026-04-18T16:58:48.908Z</time></trkpt><trkpt lat="44.1243841" lon="12.1614013"><ele>86.0</ele><time>2026-04-18T16:58:51.913Z</time></trkpt><trkpt lat="44.1243431" lon="12.1613217"><ele>86.0</ele><time>2026-04-18T16:58:53.919Z</time></trkpt><trkpt lat="44.1242928" lon="12.1612148"><ele>86.0</ele><time>2026-04-18T16:58:56.914Z</time></trkpt><trkpt lat="44.1242588" lon="12.1611405"><ele>86.5</ele><time>2026-04-18T16:58:58.909Z</time></trkpt><trkpt lat="44.1242254" lon="12.1610634"><ele>87.0</ele><time>2026-04-18T16:59:00.914Z</time></trkpt><trkpt lat="44.1241874" lon="12.1609591"><ele>87.5</ele><time>2026-04-18T16:59:03.918Z</time></trkpt><trkpt lat="44.1241529" lon="12.1608652"><ele>88.0</ele><time>2026-04-18T16:59:06.911Z</time></trkpt><trkpt lat="44.1241099" lon="12.1607724"><ele>88.5</ele><time>2026-04-18T16:59:09.909Z</time></trkpt><trkpt lat="44.1240737" lon="12.1606772"><ele>89.0</ele><time>2026-04-18T16:59:12.912Z</time></trkpt><trkpt lat="44.1240374" lon="12.160595"><ele>89.33333333333334</ele><time>2026-04-18T16:59:15.916Z</time></trkpt><trkpt lat="44.1239715" lon="12.160562"><ele>89.66666666666667</ele><time>2026-04-18T16:59:19.913Z</time></trkpt><trkpt lat="44.1239" lon="12.1605911"><ele>90.0</ele><time>2026-04-18T16:59:22.919Z</time></trkpt><trkpt lat="44.1238001" lon="12.1606063"><ele>90.33333333333333</ele><time>2026-04-18T16:59:25.912Z</time></trkpt><trkpt lat="44.1237345" lon="12.1606171"><ele>90.66666666666666</ele><time>2026-04-18T16:59:27.913Z</time></trkpt><trkpt lat="44.1236602" lon="12.1605884"><ele>91.0</ele><time>2026-04-18T16:59:30.913Z</time></trkpt><trkpt lat="44.1237231" lon="12.1605275"><ele>91.0</ele><time>2026-04-18T16:59:43.917Z</time></trkpt><trkpt lat="44.1238028" lon="12.1605073"><ele>91.0</ele><time>2026-04-18T16:59:46.911Z</time></trkpt><trkpt lat="44.1238743" lon="12.1604929"><ele>91.0</ele><time>2026-04-18T16:59:48.914Z</time></trkpt><trkpt lat="44.1239648" lon="12.1604759"><ele>91.0</ele><time>2026-04-18T16:59:51.916Z</time></trkpt><trkpt lat="44.1240533" lon="12.1604505"><ele>91.0</ele><time>2026-04-18T16:59:54.918Z</time></trkpt><trkpt lat="44.1241138" lon="12.160416"><ele>91.0</ele><time>2026-04-18T16:59:56.906Z</time></trkpt><trkpt lat="44.1241857" lon="12.1603286"><ele>91.83333333333333</ele><time>2026-04-18T16:59:59.915Z</time></trkpt><trkpt lat="44.1242324" lon="12.1602193"><ele>92.66666666666666</ele><time>2026-04-18T17:00:02.908Z</time></trkpt><trkpt lat="44.1242625" lon="12.1601047"><ele>93.5</ele><time>2026-04-18T17:00:05.917Z</time></trkpt><trkpt lat="44.1242838" lon="12.1600012"><ele>94.33333333333333</ele><time>2026-04-18T17:00:08.905Z</time></trkpt><trkpt lat="44.1243108" lon="12.1599032"><ele>95.16666666666667</ele><time>2026-04-18T17:00:11.912Z</time></trkpt><trkpt lat="44.124355" lon="12.1598072"><ele>96.0</ele><time>2026-04-18T17:00:14.904Z</time></trkpt><trkpt lat="44.124394" lon="12.1597"><ele>97.0</ele><time>2026-04-18T17:00:17.919Z</time></trkpt><trkpt lat="44.1244125" lon="12.1595907"><ele>98.0</ele><time>2026-04-18T17:00:20.913Z</time></trkpt><trkpt lat="44.1243918" lon="12.1594887"><ele>99.0</ele><time>2026-04-18T17:00:23.912Z</time></trkpt><trkpt lat="44.1243551" lon="12.159394"><ele>100.0</ele><time>2026-04-18T17:00:26.909Z</time></trkpt><trkpt lat="44.1243131" lon="12.1592873"><ele>101.0</ele><time>2026-04-18T17:00:29.914Z</time></trkpt><trkpt lat="44.1242719" lon="12.1591891"><ele>102.0</ele><time>2026-04-18T17:00:32.921Z</time></trkpt><trkpt lat="44.1242296" lon="12.1590964"><ele>102.57142857142857</ele><time>2026-04-18T17:00:35.917Z</time></trkpt><trkpt lat="44.124197" lon="12.1590139"><ele>103.14285714285714</ele><time>2026-04-18T17:00:38.916Z</time></trkpt><trkpt lat="44.1241463" lon="12.1589226"><ele>103.71428571428572</ele><time>2026-04-18T17:00:42.911Z</time></trkpt><trkpt lat="44.1241153" lon="12.158836"><ele>104.28571428571428</ele><time>2026-04-18T17:00:45.918Z</time></trkpt><trkpt lat="44.1240945" lon="12.1587496"><ele>104.85714285714285</ele><time>2026-04-18T17:00:48.917Z</time></trkpt><trkpt lat="44.1240754" lon="12.1586531"><ele>105.42857142857143</ele><time>2026-04-18T17:00:51.917Z</time></trkpt><trkpt lat="44.1240363" lon="12.1585526"><ele>106.0</ele><time>2026-04-18T17:00:54.93Z</time></trkpt><trkpt lat="44.1240036" lon="12.1584554"><ele>106.00000000000001</ele><time>2026-04-18T17:00:57.916Z</time></trkpt><trkpt lat="44.1239687" lon="12.158362"><ele>106.0</ele><time>2026-04-18T17:01:00.919Z</time></trkpt><trkpt lat="44.1239266" lon="12.1582714"><ele>106.0</ele><time>2026-04-18T17:01:03.925Z</time></trkpt><trkpt lat="44.1238825" lon="12.1581823"><ele>106.0</ele><time>2026-04-18T17:01:06.918Z</time></trkpt><trkpt lat="44.1238453" lon="12.158091"><ele>106.00000000000001</ele><time>2026-04-18T17:01:09.919Z</time></trkpt><trkpt lat="44.1238076" lon="12.1579925"><ele>106.0</ele><time>2026-04-18T17:01:12.921Z</time></trkpt><trkpt lat="44.1238054" lon="12.1578966"><ele>107.83333333333334</ele><time>2026-04-18T17:01:15.915Z</time></trkpt><trkpt lat="44.1238719" lon="12.1578373"><ele>109.66666666666667</ele><time>2026-04-18T17:01:18.915Z</time></trkpt><trkpt lat="44.1239385" lon="12.157803"><ele>111.5</ele><time>2026-04-18T17:01:21.927Z</time></trkpt><trkpt lat="44.1240268" lon="12.1577772"><ele>113.33333333333334</ele><time>2026-04-18T17:01:24.922Z</time></trkpt><trkpt lat="44.1241085" lon="12.1577522"><ele>115.16666666666667</ele><time>2026-04-18T17:01:27.912Z</time></trkpt><trkpt lat="44.1241898" lon="12.1577154"><ele>117.0</ele><time>2026-04-18T17:01:30.918Z</time></trkpt><trkpt lat="44.1242508" lon="12.1576858"><ele>117.0</ele><time>2026-04-18T17:01:32.921Z</time></trkpt><trkpt lat="44.124322" lon="12.1576703"><ele>116.99999999999999</ele><time>2026-04-18T17:01:34.911Z</time></trkpt><trkpt lat="44.1244156" lon="12.1576594"><ele>116.99999999999999</ele><time>2026-04-18T17:01:36.917Z</time></trkpt><trkpt lat="44.1245147" lon="12.1576419"><ele>117.0</ele><time>2026-04-18T17:01:38.915Z</time></trkpt><trkpt lat="44.1246216" lon="12.157602"><ele>117.0</ele><time>2026-04-18T17:01:40.912Z</time></trkpt><trkpt lat="44.1247275" lon="12.1575514"><ele>117.0</ele><time>2026-04-18T17:01:42.917Z</time></trkpt><trkpt lat="44.1248273" lon="12.1574918"><ele>116.99999999999999</ele><time>2026-04-18T17:01:44.911Z</time></trkpt><trkpt lat="44.1249313" lon="12.1574423"><ele>116.99999999999999</ele><time>2026-04-18T17:01:46.91Z</time></trkpt><trkpt lat="44.1250302" lon="12.1574046"><ele>117.0</ele><time>2026-04-18T17:01:48.921Z</time></trkpt><trkpt lat="44.1251275" lon="12.1573706"><ele>117.0</ele><time>2026-04-18T17:01:50.907Z</time></trkpt><trkpt lat="44.1252254" lon="12.1573278"><ele>116.66666666666667</ele><time>2026-04-18T17:01:52.908Z</time></trkpt><trkpt lat="44.1253281" lon="12.1572916"><ele>116.33333333333334</ele><time>2026-04-18T17:01:54.908Z</time></trkpt><trkpt lat="44.1253906" lon="12.1572659"><ele>116.0</ele><time>2026-04-18T17:01:55.915Z</time></trkpt><trkpt lat="44.125455" lon="12.1572403"><ele>115.66666666666667</ele><time>2026-04-18T17:01:56.912Z</time></trkpt><trkpt lat="44.1255206" lon="12.1572154"><ele>115.33333333333334</ele><time>2026-04-18T17:01:57.907Z</time></trkpt><trkpt lat="44.1255861" lon="12.1571954"><ele>115.0</ele><time>2026-04-18T17:01:58.916Z</time></trkpt><trkpt lat="44.1257005" lon="12.1571411"><ele>115.00000000000001</ele><time>2026-04-18T17:02:00.913Z</time></trkpt><trkpt lat="44.1257789" lon="12.1570806"><ele>115.0</ele><time>2026-04-18T17:02:02.908Z</time></trkpt><trkpt lat="44.1257505" lon="12.1569811"><ele>115.0</ele><time>2026-04-18T17:02:05.924Z</time></trkpt><trkpt lat="44.1256989" lon="12.1568773"><ele>115.0</ele><time>2026-04-18T17:02:08.927Z</time></trkpt><trkpt lat="44.1256518" lon="12.1567842"><ele>115.00000000000001</ele><time>2026-04-18T17:02:11.925Z</time></trkpt><trkpt lat="44.1256128" lon="12.1566975"><ele>115.0</ele><time>2026-04-18T17:02:14.919Z</time></trkpt><trkpt lat="44.1255924" lon="12.1565984"><ele>116.00000000000001</ele><time>2026-04-18T17:02:17.925Z</time></trkpt><trkpt lat="44.1255614" lon="12.1564959"><ele>117.0</ele><time>2026-04-18T17:02:20.922Z</time></trkpt><trkpt lat="44.1255332" lon="12.1563979"><ele>118.0</ele><time>2026-04-18T17:02:23.928Z</time></trkpt><trkpt lat="44.1255276" lon="12.1563062"><ele>119.0</ele><time>2026-04-18T17:02:26.932Z</time></trkpt><trkpt lat="44.1255726" lon="12.15622"><ele>120.00000000000001</ele><time>2026-04-18T17:02:29.924Z</time></trkpt><trkpt lat="44.1256322" lon="12.1561481"><ele>121.0</ele><time>2026-04-18T17:02:32.918Z</time></trkpt><trkpt lat="44.1256964" lon="12.1560723"><ele>120.83333333333334</ele><time>2026-04-18T17:02:35.916Z</time></trkpt><trkpt lat="44.1257615" lon="12.1560054"><ele>120.66666666666667</ele><time>2026-04-18T17:02:38.923Z</time></trkpt><trkpt lat="44.1258383" lon="12.1559451"><ele>120.5</ele><time>2026-04-18T17:02:41.922Z</time></trkpt><trkpt lat="44.1259058" lon="12.1558852"><ele>120.33333333333334</ele><time>2026-04-18T17:02:44.914Z</time></trkpt><trkpt lat="44.1259758" lon="12.1558141"><ele>120.16666666666667</ele><time>2026-04-18T17:02:47.919Z</time></trkpt><trkpt lat="44.1260433" lon="12.1557438"><ele>120.0</ele><time>2026-04-18T17:02:50.919Z</time></trkpt><trkpt lat="44.1261096" lon="12.1556723"><ele>120.0</ele><time>2026-04-18T17:02:53.902Z</time></trkpt><trkpt lat="44.1261723" lon="12.1556007"><ele>120.0</ele><time>2026-04-18T17:02:56.917Z</time></trkpt><trkpt lat="44.1262388" lon="12.1555365"><ele>120.0</ele><time>2026-04-18T17:02:59.931Z</time></trkpt><trkpt lat="44.1263134" lon="12.1554656"><ele>120.0</ele><time>2026-04-18T17:03:02.923Z</time></trkpt><trkpt lat="44.1263775" lon="12.1553986"><ele>120.0</ele><time>2026-04-18T17:03:05.928Z</time></trkpt><trkpt lat="44.1264264" lon="12.1553429"><ele>120.0</ele><time>2026-04-18T17:03:08.923Z</time></trkpt><trkpt lat="44.1264931" lon="12.1552749"><ele>120.0</ele><time>2026-04-18T17:03:11.92Z</time></trkpt><trkpt lat="44.1265546" lon="12.1552203"><ele>120.0</ele><time>2026-04-18T17:03:13.908Z</time></trkpt><trkpt lat="44.1266154" lon="12.1551671"><ele>120.0</ele><time>2026-04-18T17:03:15.917Z</time></trkpt><trkpt lat="44.1266761" lon="12.1551099"><ele>120.0</ele><time>2026-04-18T17:03:17.918Z</time></trkpt><trkpt lat="44.1267383" lon="12.1550609"><ele>120.0</ele><time>2026-04-18T17:03:19.919Z</time></trkpt><trkpt lat="44.1268015" lon="12.1550003"><ele>120.0</ele><time>2026-04-18T17:03:21.918Z</time></trkpt><trkpt lat="44.1268647" lon="12.1549423"><ele>120.0</ele><time>2026-04-18T17:03:23.922Z</time></trkpt><trkpt lat="44.1269221" lon="12.1548776"><ele>119.71428571428572</ele><time>2026-04-18T17:03:25.918Z</time></trkpt><trkpt lat="44.1269933" lon="12.1548374"><ele>119.42857142857142</ele><time>2026-04-18T17:03:28.916Z</time></trkpt><trkpt lat="44.1270622" lon="12.1548976"><ele>119.14285714285714</ele><time>2026-04-18T17:03:31.925Z</time></trkpt><trkpt lat="44.1270826" lon="12.154988"><ele>118.85714285714286</ele><time>2026-04-18T17:03:33.923Z</time></trkpt><trkpt lat="44.1270953" lon="12.155079"><ele>118.57142857142858</ele><time>2026-04-18T17:03:35.925Z</time></trkpt><trkpt lat="44.1271094" lon="12.1551698"><ele>118.28571428571428</ele><time>2026-04-18T17:03:37.919Z</time></trkpt><trkpt lat="44.1271253" lon="12.1552591"><ele>118.0</ele><time>2026-04-18T17:03:39.922Z</time></trkpt><trkpt lat="44.1271417" lon="12.1553507"><ele>117.16666666666667</ele><time>2026-04-18T17:03:41.919Z</time></trkpt><trkpt lat="44.1271571" lon="12.1554556"><ele>116.33333333333334</ele><time>2026-04-18T17:03:43.923Z</time></trkpt><trkpt lat="44.1271671" lon="12.1555643"><ele>115.5</ele><time>2026-04-18T17:03:45.917Z</time></trkpt><trkpt lat="44.1271559" lon="12.1556755"><ele>114.66666666666666</ele><time>2026-04-18T17:03:47.919Z</time></trkpt><trkpt lat="44.1271198" lon="12.1557847"><ele>113.83333333333333</ele><time>2026-04-18T17:03:49.914Z</time></trkpt><trkpt lat="44.1270775" lon="12.1558776"><ele>113.0</ele><time>2026-04-18T17:03:51.913Z</time></trkpt><trkpt lat="44.1270424" lon="12.1559643"><ele>110.5</ele><time>2026-04-18T17:03:53.91Z</time></trkpt><trkpt lat="44.1270117" lon="12.1560695"><ele>108.0</ele><time>2026-04-18T17:03:56.919Z</time></trkpt><trkpt lat="44.1271543" lon="12.1567665"><ele>95.0</ele><time>2026-04-18T17:10:19.916Z</time></trkpt><trkpt lat="44.1273913" lon="12.1586309"><ele>104.0</ele><time>2026-04-18T17:11:02.911Z</time></trkpt><trkpt lat="44.1287484" lon="12.1586079"><ele>121.0</ele><time>2026-04-18T17:11:44.911Z</time></trkpt><trkpt lat="44.1283753" lon="12.1567896"><ele>126.0</ele><time>2026-04-18T17:13:43.922Z</time></trkpt><trkpt lat="44.1289141" lon="12.156179"><ele>147.0</ele><time>2026-04-18T17:14:20.93Z</time></trkpt><trkpt lat="44.1294101" lon="12.1555231"><ele>147.0</ele><time>2026-04-18T17:14:54.922Z</time></trkpt><trkpt lat="44.1296371" lon="12.1546381"><ele>165.0</ele><time>2026-04-18T17:15:29.921Z</time></trkpt><trkpt lat="44.1301138" lon="12.1539502"><ele>182.0</ele><time>2026-04-18T17:15:58.919Z</time></trkpt><trkpt lat="44.1307535" lon="12.1535914"><ele>190.0</ele><time>2026-04-18T17:16:28.925Z</time></trkpt><trkpt lat="44.1321089" lon="12.1532649"><ele>182.0</ele><time>2026-04-18T17:17:14.93Z</time></trkpt><trkpt lat="44.1334204" lon="12.1538778"><ele>167.0</ele><time>2026-04-18T17:17:59.931Z</time></trkpt><trkpt lat="44.1340132" lon="12.1555836"><ele>155.0</ele><time>2026-04-18T17:18:20.919Z</time></trkpt><trkpt lat="44.1335606" lon="12.158379"><ele>153.0</ele><time>2026-04-18T17:18:47.915Z</time></trkpt><trkpt lat="44.1327344" lon="12.1610025"><ele>148.0</ele><time>2026-04-18T17:19:17.924Z</time></trkpt><trkpt lat="44.1324014" lon="12.1628214"><ele>148.0</ele><time>2026-04-18T17:19:40.927Z</time></trkpt></trkseg></trk></gpx>